<?xml version='1.0' encoding='UTF-8'?><gpx version="1.1" creator="JPX - https://github.com/jenetics/jpx" xmlns="http://www.topografix.com/GPX/1/1"><trk><trkseg><trkpt lat="46.0274406" lon="11.9129091"><ele>285.99999999999994</ele><time>2026-04-26T10:03:57.533Z</time></trkpt><trkpt lat="46.0274395" lon="11.9128103"><ele>286.0</ele><time>2026-04-26T10:04:00.533Z</time></trkpt><trkpt lat="46.0274256" lon="11.9127107"><ele>286.0</ele><time>2026-04-26T10:04:03.535Z</time></trkpt><trkpt lat="46.0274471" lon="11.9126162"><ele>286.0</ele><time>2026-04-26T10:04:07.534Z</time></trkpt><trkpt lat="46.0275095" lon="11.912601"><ele>286.0</ele><time>2026-04-26T10:04:10.534Z</time></trkpt><trkpt lat="46.027579" lon="11.912593"><ele>285.99999999999994</ele><time>2026-04-26T10:04:13.535Z</time></trkpt><trkpt lat="46.0276569" lon="11.9125778"><ele>286.0</ele><time>2026-04-26T10:04:16.535Z</time></trkpt><trkpt lat="46.0277307" lon="11.9125594"><ele>286.3333333333333</ele><time>2026-04-26T10:04:19.533Z</time></trkpt><trkpt lat="46.0279896" lon="11.9125475"><ele>286.6666666666667</ele><time>2026-04-26T10:04:28.534Z</time></trkpt><trkpt lat="46.0281468" lon="11.9125373"><ele>287.0</ele><time>2026-04-26T10:04:33.534Z</time></trkpt><trkpt lat="46.0282106" lon="11.9125351"><ele>287.0</ele><time>2026-04-26T10:04:35.534Z</time></trkpt><trkpt lat="46.0282752" lon="11.9125293"><ele>287.0</ele><time>2026-04-26T10:04:37.535Z</time></trkpt><trkpt lat="46.0283681" lon="11.9125229"><ele>287.0</ele><time>2026-04-26T10:04:40.534Z</time></trkpt><trkpt lat="46.0284491" lon="11.912517"><ele>287.0</ele><time>2026-04-26T10:04:43.534Z</time></trkpt><trkpt lat="46.0285161" lon="11.912511"><ele>287.0</ele><time>2026-04-26T10:04:46.534Z</time></trkpt><trkpt lat="46.0285935" lon="11.9124862"><ele>287.0</ele><time>2026-04-26T10:04:49.536Z</time></trkpt><trkpt lat="46.0286787" lon="11.9124551"><ele>287.0</ele><time>2026-04-26T10:04:52.534Z</time></trkpt><trkpt lat="46.0287266" lon="11.9123635"><ele>287.0</ele><time>2026-04-26T10:04:55.535Z</time></trkpt><trkpt lat="46.0287267" lon="11.9122718"><ele>287.0</ele><time>2026-04-26T10:04:57.533Z</time></trkpt><trkpt lat="46.0287216" lon="11.912173"><ele>287.0</ele><time>2026-04-26T10:04:59.535Z</time></trkpt><trkpt lat="46.0287081" lon="11.9120693"><ele>287.0</ele><time>2026-04-26T10:05:01.533Z</time></trkpt><trkpt lat="46.0286903" lon="11.9119591"><ele>287.0</ele><time>2026-04-26T10:05:03.533Z</time></trkpt><trkpt lat="46.0286711" lon="11.911859"><ele>287.0</ele><time>2026-04-26T10:05:05.535Z</time></trkpt><trkpt lat="46.0286562" lon="11.9117544"><ele>287.0</ele><time>2026-04-26T10:05:07.534Z</time></trkpt><trkpt lat="46.0286443" lon="11.911648"><ele>287.0</ele><time>2026-04-26T10:05:09.536Z</time></trkpt><trkpt lat="46.0286309" lon="11.9115435"><ele>287.0</ele><time>2026-04-26T10:05:11.535Z</time></trkpt><trkpt lat="46.028616" lon="11.9114351"><ele>287.0</ele><time>2026-04-26T10:05:13.535Z</time></trkpt><trkpt lat="46.0286046" lon="11.9113281"><ele>287.0</ele><time>2026-04-26T10:05:15.536Z</time></trkpt><trkpt lat="46.0285991" lon="11.9112209"><ele>287.0</ele><time>2026-04-26T10:05:17.534Z</time></trkpt><trkpt lat="46.0285883" lon="11.9111155"><ele>287.0</ele><time>2026-04-26T10:05:19.534Z</time></trkpt><trkpt lat="46.0285744" lon="11.9110026"><ele>287.0</ele><time>2026-04-26T10:05:21.535Z</time></trkpt><trkpt lat="46.0285605" lon="11.9108812"><ele>287.0</ele><time>2026-04-26T10:05:23.535Z</time></trkpt><trkpt lat="46.0285578" lon="11.9107614"><ele>287.0</ele><time>2026-04-26T10:05:25.535Z</time></trkpt><trkpt lat="46.0285504" lon="11.9106425"><ele>287.0</ele><time>2026-04-26T10:05:27.536Z</time></trkpt><trkpt lat="46.0285416" lon="11.910524"><ele>287.0</ele><time>2026-04-26T10:05:29.534Z</time></trkpt><trkpt lat="46.028532" lon="11.9103974"><ele>287.0</ele><time>2026-04-26T10:05:31.534Z</time></trkpt><trkpt lat="46.0285279" lon="11.9102674"><ele>287.0</ele><time>2026-04-26T10:05:33.534Z</time></trkpt><trkpt lat="46.0285247" lon="11.9101475"><ele>287.0</ele><time>2026-04-26T10:05:35.535Z</time></trkpt><trkpt lat="46.0285229" lon="11.9100292"><ele>287.0</ele><time>2026-04-26T10:05:37.534Z</time></trkpt><trkpt lat="46.0285164" lon="11.9099143"><ele>287.0</ele><time>2026-04-26T10:05:39.534Z</time></trkpt><trkpt lat="46.0285059" lon="11.9097981"><ele>287.0</ele><time>2026-04-26T10:05:41.534Z</time></trkpt><trkpt lat="46.0284971" lon="11.9096805"><ele>287.0</ele><time>2026-04-26T10:05:43.534Z</time></trkpt><trkpt lat="46.0284876" lon="11.9095599"><ele>286.83333333333337</ele><time>2026-04-26T10:05:45.534Z</time></trkpt><trkpt lat="46.0284791" lon="11.909443"><ele>286.6666666666667</ele><time>2026-04-26T10:05:47.534Z</time></trkpt><trkpt lat="46.0284753" lon="11.9093248"><ele>286.5</ele><time>2026-04-26T10:05:49.534Z</time></trkpt><trkpt lat="46.028471" lon="11.9092068"><ele>286.3333333333333</ele><time>2026-04-26T10:05:51.533Z</time></trkpt><trkpt lat="46.0284644" lon="11.9090909"><ele>286.16666666666663</ele><time>2026-04-26T10:05:53.533Z</time></trkpt><trkpt lat="46.0284562" lon="11.9089726"><ele>286.0</ele><time>2026-04-26T10:05:55.535Z</time></trkpt><trkpt lat="46.0284489" lon="11.908859"><ele>286.0</ele><time>2026-04-26T10:05:57.534Z</time></trkpt><trkpt lat="46.0284376" lon="11.9087475"><ele>286.0</ele><time>2026-04-26T10:05:59.535Z</time></trkpt><trkpt lat="46.0284237" lon="11.9086398"><ele>286.0</ele><time>2026-04-26T10:06:01.534Z</time></trkpt><trkpt lat="46.0283966" lon="11.9085308"><ele>286.0</ele><time>2026-04-26T10:06:03.534Z</time></trkpt><trkpt lat="46.0283736" lon="11.9084197"><ele>286.0</ele><time>2026-04-26T10:06:05.535Z</time></trkpt><trkpt lat="46.028346" lon="11.9083032"><ele>286.0</ele><time>2026-04-26T10:06:07.534Z</time></trkpt><trkpt lat="46.0283137" lon="11.9081861"><ele>285.99999999999994</ele><time>2026-04-26T10:06:09.534Z</time></trkpt><trkpt lat="46.0282932" lon="11.9080789"><ele>286.0</ele><time>2026-04-26T10:06:11.536Z</time></trkpt><trkpt lat="46.0282612" lon="11.9079862"><ele>286.0</ele><time>2026-04-26T10:06:14.536Z</time></trkpt><trkpt lat="46.0282532" lon="11.9080816"><ele>286.0</ele><time>2026-04-26T10:06:19.535Z</time></trkpt><trkpt lat="46.0282643" lon="11.9081758"><ele>286.0</ele><time>2026-04-26T10:06:21.534Z</time></trkpt><trkpt lat="46.0282815" lon="11.908289"><ele>285.99999999999994</ele><time>2026-04-26T10:06:23.534Z</time></trkpt><trkpt lat="46.0283038" lon="11.9084082"><ele>286.0</ele><time>2026-04-26T10:06:25.534Z</time></trkpt><trkpt lat="46.0283315" lon="11.9085314"><ele>286.0</ele><time>2026-04-26T10:06:27.535Z</time></trkpt><trkpt lat="46.028359" lon="11.908658"><ele>286.0</ele><time>2026-04-26T10:06:29.536Z</time></trkpt><trkpt lat="46.0283806" lon="11.9087832"><ele>286.0</ele><time>2026-04-26T10:06:31.535Z</time></trkpt><trkpt lat="46.0283939" lon="11.9089028"><ele>286.0</ele><time>2026-04-26T10:06:33.535Z</time></trkpt><trkpt lat="46.0284084" lon="11.90902"><ele>286.0</ele><time>2026-04-26T10:06:35.534Z</time></trkpt><trkpt lat="46.0284191" lon="11.9091394"><ele>286.0</ele><time>2026-04-26T10:06:37.535Z</time></trkpt><trkpt lat="46.0284302" lon="11.9092614"><ele>286.0</ele><time>2026-04-26T10:06:39.535Z</time></trkpt><trkpt lat="46.0284449" lon="11.9093883"><ele>286.0</ele><time>2026-04-26T10:06:41.54Z</time></trkpt><trkpt lat="46.0284599" lon="11.9095163"><ele>286.0</ele><time>2026-04-26T10:06:43.536Z</time></trkpt><trkpt lat="46.0284669" lon="11.9096379"><ele>286.0</ele><time>2026-04-26T10:06:45.535Z</time></trkpt><trkpt lat="46.0284737" lon="11.9097578"><ele>286.0</ele><time>2026-04-26T10:06:47.534Z</time></trkpt><trkpt lat="46.0284865" lon="11.9098785"><ele>286.0</ele><time>2026-04-26T10:06:49.535Z</time></trkpt><trkpt lat="46.0284956" lon="11.9100021"><ele>286.16666666666663</ele><time>2026-04-26T10:06:51.534Z</time></trkpt><trkpt lat="46.0285015" lon="11.9101311"><ele>286.3333333333333</ele><time>2026-04-26T10:06:53.535Z</time></trkpt><trkpt lat="46.0285064" lon="11.9102619"><ele>286.5</ele><time>2026-04-26T10:06:55.535Z</time></trkpt><trkpt lat="46.0285061" lon="11.9103936"><ele>286.6666666666667</ele><time>2026-04-26T10:06:57.534Z</time></trkpt><trkpt lat="46.028508" lon="11.9105219"><ele>286.83333333333337</ele><time>2026-04-26T10:06:59.534Z</time></trkpt><trkpt lat="46.0285104" lon="11.9106463"><ele>287.0</ele><time>2026-04-26T10:07:01.534Z</time></trkpt><trkpt lat="46.0285138" lon="11.9107682"><ele>287.0</ele><time>2026-04-26T10:07:03.534Z</time></trkpt><trkpt lat="46.0285185" lon="11.9108914"><ele>287.0</ele><time>2026-04-26T10:07:05.534Z</time></trkpt><trkpt lat="46.0285266" lon="11.9110125"><ele>287.0</ele><time>2026-04-26T10:07:07.536Z</time></trkpt><trkpt lat="46.0285345" lon="11.9111287"><ele>287.0</ele><time>2026-04-26T10:07:09.535Z</time></trkpt><trkpt lat="46.0285383" lon="11.9112424"><ele>287.0</ele><time>2026-04-26T10:07:11.535Z</time></trkpt><trkpt lat="46.0285517" lon="11.9113512"><ele>287.0</ele><time>2026-04-26T10:07:13.536Z</time></trkpt><trkpt lat="46.0285696" lon="11.9114726"><ele>287.0</ele><time>2026-04-26T10:07:15.533Z</time></trkpt><trkpt lat="46.028582" lon="11.91159"><ele>287.0</ele><time>2026-04-26T10:07:17.534Z</time></trkpt><trkpt lat="46.0286021" lon="11.9117045"><ele>287.0</ele><time>2026-04-26T10:07:19.535Z</time></trkpt><trkpt lat="46.02862" lon="11.9118196"><ele>287.0</ele><time>2026-04-26T10:07:21.533Z</time></trkpt><trkpt lat="46.0286336" lon="11.9119377"><ele>287.0</ele><time>2026-04-26T10:07:23.535Z</time></trkpt><trkpt lat="46.028647" lon="11.9120537"><ele>287.0</ele><time>2026-04-26T10:07:25.534Z</time></trkpt><trkpt lat="46.0286643" lon="11.9121553"><ele>287.0</ele><time>2026-04-26T10:07:27.534Z</time></trkpt><trkpt lat="46.0286778" lon="11.912244"><ele>287.0</ele><time>2026-04-26T10:07:29.534Z</time></trkpt><trkpt lat="46.0286916" lon="11.912367"><ele>287.0</ele><time>2026-04-26T10:07:32.535Z</time></trkpt><trkpt lat="46.028611" lon="11.9124223"><ele>287.0</ele><time>2026-04-26T10:07:36.534Z</time></trkpt><trkpt lat="46.028529" lon="11.9124252"><ele>287.0</ele><time>2026-04-26T10:07:38.537Z</time></trkpt><trkpt lat="46.0284359" lon="11.9124297"><ele>287.0</ele><time>2026-04-26T10:07:40.535Z</time></trkpt><trkpt lat="46.0283367" lon="11.9124342"><ele>287.0</ele><time>2026-04-26T10:07:42.535Z</time></trkpt><trkpt lat="46.0282412" lon="11.9124391"><ele>287.0</ele><time>2026-04-26T10:07:44.538Z</time></trkpt><trkpt lat="46.0281447" lon="11.9124456"><ele>287.0</ele><time>2026-04-26T10:07:46.536Z</time></trkpt><trkpt lat="46.0280511" lon="11.9124525"><ele>287.0</ele><time>2026-04-26T10:07:48.534Z</time></trkpt><trkpt lat="46.0279562" lon="11.9124562"><ele>287.0</ele><time>2026-04-26T10:07:50.535Z</time></trkpt><trkpt lat="46.0278613" lon="11.9124618"><ele>287.0</ele><time>2026-04-26T10:07:52.535Z</time></trkpt><trkpt lat="46.027765" lon="11.9124744"><ele>287.0</ele><time>2026-04-26T10:07:54.534Z</time></trkpt><trkpt lat="46.0276697" lon="11.912492"><ele>287.0</ele><time>2026-04-26T10:07:56.535Z</time></trkpt><trkpt lat="46.0275708" lon="11.9125111"><ele>287.0</ele><time>2026-04-26T10:07:58.537Z</time></trkpt><trkpt lat="46.027478" lon="11.9125316"><ele>287.0</ele><time>2026-04-26T10:08:00.535Z</time></trkpt><trkpt lat="46.0274059" lon="11.9125635"><ele>286.83333333333337</ele><time>2026-04-26T10:08:02.537Z</time></trkpt><trkpt lat="46.0273614" lon="11.9126425"><ele>286.6666666666667</ele><time>2026-04-26T10:08:05.534Z</time></trkpt><trkpt lat="46.027391" lon="11.9127673"><ele>286.5</ele><time>2026-04-26T10:08:08.536Z</time></trkpt><trkpt lat="46.0274066" lon="11.912887"><ele>286.3333333333333</ele><time>2026-04-26T10:08:11.536Z</time></trkpt><trkpt lat="46.0273937" lon="11.9129783"><ele>286.16666666666663</ele><time>2026-04-26T10:08:15.535Z</time></trkpt><trkpt lat="46.0274284" lon="11.9128685"><ele>286.0</ele><time>2026-04-26T10:09:29.534Z</time></trkpt><trkpt lat="46.0274284" lon="11.9127528"><ele>286.0</ele><time>2026-04-26T10:09:32.535Z</time></trkpt><trkpt lat="46.027462" lon="11.9126567"><ele>286.0</ele><time>2026-04-26T10:09:35.534Z</time></trkpt><trkpt lat="46.0275486" lon="11.9126323"><ele>286.0</ele><time>2026-04-26T10:09:38.534Z</time></trkpt><trkpt lat="46.0276135" lon="11.9126178"><ele>286.0</ele><time>2026-04-26T10:09:40.534Z</time></trkpt><trkpt lat="46.0277084" lon="11.9125974"><ele>286.0</ele><time>2026-04-26T10:09:43.534Z</time></trkpt><trkpt lat="46.0277722" lon="11.9125827"><ele>286.0</ele><time>2026-04-26T10:09:45.535Z</time></trkpt><trkpt lat="46.0278436" lon="11.9125664"><ele>286.1428571428571</ele><time>2026-04-26T10:09:47.534Z</time></trkpt><trkpt lat="46.0279163" lon="11.9125597"><ele>286.2857142857143</ele><time>2026-04-26T10:09:49.534Z</time></trkpt><trkpt lat="46.027982" lon="11.912556"><ele>286.42857142857144</ele><time>2026-04-26T10:09:51.534Z</time></trkpt><trkpt lat="46.0280546" lon="11.9125468"><ele>286.57142857142856</ele><time>2026-04-26T10:09:53.536Z</time></trkpt><trkpt lat="46.0281269" lon="11.9125423"><ele>286.7142857142857</ele><time>2026-04-26T10:09:55.534Z</time></trkpt><trkpt lat="46.028208" lon="11.9125362"><ele>286.85714285714283</ele><time>2026-04-26T10:09:57.534Z</time></trkpt><trkpt lat="46.0282895" lon="11.9125349"><ele>287.0</ele><time>2026-04-26T10:09:59.536Z</time></trkpt><trkpt lat="46.0283658" lon="11.9125331"><ele>287.0</ele><time>2026-04-26T10:10:01.535Z</time></trkpt><trkpt lat="46.0284422" lon="11.9125188"><ele>287.0</ele><time>2026-04-26T10:10:03.536Z</time></trkpt><trkpt lat="46.0285154" lon="11.9125043"><ele>287.0</ele><time>2026-04-26T10:10:05.536Z</time></trkpt><trkpt lat="46.0285842" lon="11.9124958"><ele>287.0</ele><time>2026-04-26T10:10:07.535Z</time></trkpt><trkpt lat="46.0286497" lon="11.9124912"><ele>287.0</ele><time>2026-04-26T10:10:09.535Z</time></trkpt><trkpt lat="46.0287271" lon="11.9124678"><ele>287.0</ele><time>2026-04-26T10:10:12.536Z</time></trkpt><trkpt lat="46.0287409" lon="11.9123505"><ele>287.0</ele><time>2026-04-26T10:10:15.535Z</time></trkpt><trkpt lat="46.0287345" lon="11.9122432"><ele>287.0</ele><time>2026-04-26T10:10:17.535Z</time></trkpt><trkpt lat="46.0287232" lon="11.9121261"><ele>287.0</ele><time>2026-04-26T10:10:19.536Z</time></trkpt><trkpt lat="46.0287069" lon="11.9119986"><ele>287.0</ele><time>2026-04-26T10:10:21.535Z</time></trkpt><trkpt lat="46.0286821" lon="11.9118717"><ele>287.0</ele><time>2026-04-26T10:10:23.534Z</time></trkpt><trkpt lat="46.028657" lon="11.9117454"><ele>287.0</ele><time>2026-04-26T10:10:25.536Z</time></trkpt><trkpt lat="46.0286401" lon="11.9116195"><ele>287.0</ele><time>2026-04-26T10:10:27.535Z</time></trkpt><trkpt lat="46.0286271" lon="11.9114994"><ele>287.0</ele><time>2026-04-26T10:10:29.539Z</time></trkpt><trkpt lat="46.0286111" lon="11.9113783"><ele>287.0</ele><time>2026-04-26T10:10:31.535Z</time></trkpt><trkpt lat="46.0286001" lon="11.9112579"><ele>287.0</ele><time>2026-04-26T10:10:33.535Z</time></trkpt><trkpt lat="46.028588" lon="11.9111337"><ele>287.0</ele><time>2026-04-26T10:10:35.534Z</time></trkpt><trkpt lat="46.02857" lon="11.911005"><ele>287.0</ele><time>2026-04-26T10:10:37.535Z</time></trkpt><trkpt lat="46.0285593" lon="11.9108692"><ele>287.0</ele><time>2026-04-26T10:10:39.536Z</time></trkpt><trkpt lat="46.0285543" lon="11.9107257"><ele>287.0</ele><time>2026-04-26T10:10:41.535Z</time></trkpt><trkpt lat="46.0285551" lon="11.9105871"><ele>287.0</ele><time>2026-04-26T10:10:43.535Z</time></trkpt><trkpt lat="46.0285545" lon="11.9104475"><ele>287.0</ele><time>2026-04-26T10:10:45.536Z</time></trkpt><trkpt lat="46.0285512" lon="11.9103096"><ele>287.0</ele><time>2026-04-26T10:10:47.536Z</time></trkpt><trkpt lat="46.0285511" lon="11.910173"><ele>287.0</ele><time>2026-04-26T10:10:49.535Z</time></trkpt><trkpt lat="46.0285486" lon="11.9100347"><ele>286.8</ele><time>2026-04-26T10:10:51.535Z</time></trkpt><trkpt lat="46.0285403" lon="11.9098993"><ele>286.6</ele><time>2026-04-26T10:10:53.535Z</time></trkpt><trkpt lat="46.0285322" lon="11.9097635"><ele>286.40000000000003</ele><time>2026-04-26T10:10:55.535Z</time></trkpt><trkpt lat="46.0285253" lon="11.9096328"><ele>286.2</ele><time>2026-04-26T10:10:57.535Z</time></trkpt><trkpt lat="46.0285171" lon="11.9095054"><ele>286.0</ele><time>2026-04-26T10:10:59.535Z</time></trkpt><trkpt lat="46.0285039" lon="11.9093741"><ele>286.0</ele><time>2026-04-26T10:11:01.534Z</time></trkpt><trkpt lat="46.0285051" lon="11.9092461"><ele>286.0</ele><time>2026-04-26T10:11:03.533Z</time></trkpt><trkpt lat="46.0284956" lon="11.9091152"><ele>286.0</ele><time>2026-04-26T10:11:05.534Z</time></trkpt><trkpt lat="46.0284837" lon="11.908984"><ele>286.0</ele><time>2026-04-26T10:11:07.534Z</time></trkpt><trkpt lat="46.0284737" lon="11.9088571"><ele>286.0</ele><time>2026-04-26T10:11:09.536Z</time></trkpt><trkpt lat="46.0284596" lon="11.9087216"><ele>286.0</ele><time>2026-04-26T10:11:11.536Z</time></trkpt><trkpt lat="46.0284374" lon="11.9085927"><ele>286.0</ele><time>2026-04-26T10:11:13.534Z</time></trkpt><trkpt lat="46.0284061" lon="11.9084608"><ele>286.0</ele><time>2026-04-26T10:11:15.535Z</time></trkpt><trkpt lat="46.0283724" lon="11.9083294"><ele>286.0</ele><time>2026-04-26T10:11:17.536Z</time></trkpt><trkpt lat="46.028338" lon="11.9081981"><ele>286.0</ele><time>2026-04-26T10:11:19.535Z</time></trkpt><trkpt lat="46.0283077" lon="11.9080663"><ele>286.0</ele><time>2026-04-26T10:11:21.535Z</time></trkpt><trkpt lat="46.0282876" lon="11.9079338"><ele>286.0</ele><time>2026-04-26T10:11:23.535Z</time></trkpt><trkpt lat="46.0282917" lon="11.9078044"><ele>286.0</ele><time>2026-04-26T10:11:25.535Z</time></trkpt><trkpt lat="46.0283152" lon="11.9076827"><ele>286.0</ele><time>2026-04-26T10:11:27.534Z</time></trkpt><trkpt lat="46.0283465" lon="11.9075685"><ele>286.0</ele><time>2026-04-26T10:11:29.534Z</time></trkpt><trkpt lat="46.0283814" lon="11.9074509"><ele>286.0</ele><time>2026-04-26T10:11:31.535Z</time></trkpt><trkpt lat="46.0284144" lon="11.9073276"><ele>286.0</ele><time>2026-04-26T10:11:33.535Z</time></trkpt><trkpt lat="46.0284427" lon="11.9072042"><ele>286.0</ele><time>2026-04-26T10:11:35.536Z</time></trkpt><trkpt lat="46.0284645" lon="11.9070774"><ele>286.0</ele><time>2026-04-26T10:11:37.536Z</time></trkpt><trkpt lat="46.0284783" lon="11.9069543"><ele>286.0</ele><time>2026-04-26T10:11:39.535Z</time></trkpt><trkpt lat="46.0284818" lon="11.9068351"><ele>286.0</ele><time>2026-04-26T10:11:41.535Z</time></trkpt><trkpt lat="46.0284829" lon="11.9067121"><ele>286.0</ele><time>2026-04-26T10:11:43.535Z</time></trkpt><trkpt lat="46.0284803" lon="11.9065885"><ele>286.0</ele><time>2026-04-26T10:11:45.535Z</time></trkpt><trkpt lat="46.0284889" lon="11.9064671"><ele>286.0</ele><time>2026-04-26T10:11:47.535Z</time></trkpt><trkpt lat="46.0285088" lon="11.9063405"><ele>286.0</ele><time>2026-04-26T10:11:49.533Z</time></trkpt><trkpt lat="46.0285365" lon="11.9062209"><ele>286.0</ele><time>2026-04-26T10:11:51.536Z</time></trkpt><trkpt lat="46.02857" lon="11.9061"><ele>286.0</ele><time>2026-04-26T10:11:53.535Z</time></trkpt><trkpt lat="46.0286077" lon="11.9059769"><ele>286.0</ele><time>2026-04-26T10:11:55.535Z</time></trkpt><trkpt lat="46.0286355" lon="11.90584"><ele>286.2</ele><time>2026-04-26T10:11:57.536Z</time></trkpt><trkpt lat="46.0286658" lon="11.9057064"><ele>286.40000000000003</ele><time>2026-04-26T10:11:59.535Z</time></trkpt><trkpt lat="46.0286932" lon="11.9055838"><ele>286.6</ele><time>2026-04-26T10:12:01.537Z</time></trkpt><trkpt lat="46.0287203" lon="11.9054635"><ele>286.8</ele><time>2026-04-26T10:12:03.537Z</time></trkpt><trkpt lat="46.028747" lon="11.9053361"><ele>287.0</ele><time>2026-04-26T10:12:05.536Z</time></trkpt><trkpt lat="46.0287706" lon="11.905193"><ele>286.6666666666667</ele><time>2026-04-26T10:12:07.538Z</time></trkpt><trkpt lat="46.0287874" lon="11.90506"><ele>286.33333333333337</ele><time>2026-04-26T10:12:09.538Z</time></trkpt><trkpt lat="46.0287975" lon="11.9049445"><ele>286.0</ele><time>2026-04-26T10:12:11.539Z</time></trkpt><trkpt lat="46.0287839" lon="11.9048355"><ele>285.6666666666667</ele><time>2026-04-26T10:12:13.538Z</time></trkpt><trkpt lat="46.028745" lon="11.9047462"><ele>285.3333333333333</ele><time>2026-04-26T10:12:15.537Z</time></trkpt><trkpt lat="46.0286983" lon="11.9046488"><ele>285.0</ele><time>2026-04-26T10:12:17.539Z</time></trkpt><trkpt lat="46.0286537" lon="11.9045343"><ele>285.0</ele><time>2026-04-26T10:12:19.538Z</time></trkpt><trkpt lat="46.0285828" lon="11.9044484"><ele>285.0</ele><time>2026-04-26T10:12:21.537Z</time></trkpt><trkpt lat="46.0284864" lon="11.9044384"><ele>285.0</ele><time>2026-04-26T10:12:23.536Z</time></trkpt><trkpt lat="46.0283895" lon="11.9044445"><ele>285.0</ele><time>2026-04-26T10:12:25.54Z</time></trkpt><trkpt lat="46.028294" lon="11.9044449"><ele>285.0</ele><time>2026-04-26T10:12:27.539Z</time></trkpt><trkpt lat="46.0282042" lon="11.9044471"><ele>284.6</ele><time>2026-04-26T10:12:29.539Z</time></trkpt><trkpt lat="46.0281141" lon="11.9044552"><ele>284.2</ele><time>2026-04-26T10:12:31.54Z</time></trkpt><trkpt lat="46.0280236" lon="11.9044509"><ele>283.8</ele><time>2026-04-26T10:12:33.54Z</time></trkpt><trkpt lat="46.0279291" lon="11.9044195"><ele>283.4</ele><time>2026-04-26T10:12:35.538Z</time></trkpt><trkpt lat="46.0278321" lon="11.9044029"><ele>283.0</ele><time>2026-04-26T10:12:37.538Z</time></trkpt><trkpt lat="46.0277301" lon="11.9044032"><ele>283.0</ele><time>2026-04-26T10:12:39.538Z</time></trkpt><trkpt lat="46.0276375" lon="11.9044111"><ele>283.0</ele><time>2026-04-26T10:12:41.539Z</time></trkpt><trkpt lat="46.0275462" lon="11.9044342"><ele>283.0</ele><time>2026-04-26T10:12:43.539Z</time></trkpt><trkpt lat="46.0274583" lon="11.9044622"><ele>283.0</ele><time>2026-04-26T10:12:45.54Z</time></trkpt><trkpt lat="46.0273641" lon="11.9044846"><ele>283.0</ele><time>2026-04-26T10:12:47.539Z</time></trkpt><trkpt lat="46.0272695" lon="11.9044746"><ele>283.0</ele><time>2026-04-26T10:12:49.54Z</time></trkpt><trkpt lat="46.0271747" lon="11.9044501"><ele>283.0</ele><time>2026-04-26T10:12:51.539Z</time></trkpt><trkpt lat="46.0270809" lon="11.9044309"><ele>283.0</ele><time>2026-04-26T10:12:53.539Z</time></trkpt><trkpt lat="46.0269907" lon="11.9044151"><ele>283.0</ele><time>2026-04-26T10:12:55.534Z</time></trkpt><trkpt lat="46.0269023" lon="11.9043967"><ele>283.0</ele><time>2026-04-26T10:12:57.539Z</time></trkpt><trkpt lat="46.0268155" lon="11.9043889"><ele>283.0</ele><time>2026-04-26T10:12:59.538Z</time></trkpt><trkpt lat="46.0267309" lon="11.9043722"><ele>283.0</ele><time>2026-04-26T10:13:01.537Z</time></trkpt><trkpt lat="46.0266532" lon="11.9043287"><ele>283.0</ele><time>2026-04-26T10:13:03.539Z</time></trkpt><trkpt lat="46.0265882" lon="11.9042546"><ele>283.0</ele><time>2026-04-26T10:13:05.539Z</time></trkpt><trkpt lat="46.0265417" lon="11.9041526"><ele>283.0</ele><time>2026-04-26T10:13:07.538Z</time></trkpt><trkpt lat="46.0264859" lon="11.9040689"><ele>283.0</ele><time>2026-04-26T10:13:09.539Z</time></trkpt><trkpt lat="46.0264108" lon="11.9040342"><ele>282.6</ele><time>2026-04-26T10:13:11.538Z</time></trkpt><trkpt lat="46.0263352" lon="11.9040679"><ele>282.20000000000005</ele><time>2026-04-26T10:13:13.54Z</time></trkpt><trkpt lat="46.0262638" lon="11.9041392"><ele>281.8</ele><time>2026-04-26T10:13:15.54Z</time></trkpt><trkpt lat="46.0261872" lon="11.9042232"><ele>281.40000000000003</ele><time>2026-04-26T10:13:17.54Z</time></trkpt><trkpt lat="46.0260962" lon="11.9042483"><ele>281.0</ele><time>2026-04-26T10:13:19.54Z</time></trkpt><trkpt lat="46.0260112" lon="11.904181"><ele>281.0</ele><time>2026-04-26T10:13:21.537Z</time></trkpt><trkpt lat="46.025931" lon="11.904097"><ele>281.0</ele><time>2026-04-26T10:13:23.538Z</time></trkpt><trkpt lat="46.0258608" lon="11.9040062"><ele>281.0</ele><time>2026-04-26T10:13:25.54Z</time></trkpt><trkpt lat="46.0257965" lon="11.9039199"><ele>281.0</ele><time>2026-04-26T10:13:27.539Z</time></trkpt><trkpt lat="46.025726" lon="11.9038434"><ele>281.0</ele><time>2026-04-26T10:13:29.539Z</time></trkpt><trkpt lat="46.0256537" lon="11.9037695"><ele>281.1666666666667</ele><time>2026-04-26T10:13:31.539Z</time></trkpt><trkpt lat="46.0255709" lon="11.9037254"><ele>281.33333333333337</ele><time>2026-04-26T10:13:33.539Z</time></trkpt><trkpt lat="46.0254812" lon="11.9037127"><ele>281.5</ele><time>2026-04-26T10:13:35.54Z</time></trkpt><trkpt lat="46.0253981" lon="11.9036913"><ele>281.6666666666667</ele><time>2026-04-26T10:13:37.538Z</time></trkpt><trkpt lat="46.0253501" lon="11.9036119"><ele>281.8333333333333</ele><time>2026-04-26T10:13:39.538Z</time></trkpt><trkpt lat="46.0253319" lon="11.903491"><ele>282.0</ele><time>2026-04-26T10:13:41.539Z</time></trkpt><trkpt lat="46.0253231" lon="11.9033639"><ele>282.1666666666667</ele><time>2026-04-26T10:13:43.539Z</time></trkpt><trkpt lat="46.0253108" lon="11.9032385"><ele>282.3333333333333</ele><time>2026-04-26T10:13:45.538Z</time></trkpt><trkpt lat="46.0253044" lon="11.9031172"><ele>282.5</ele><time>2026-04-26T10:13:47.539Z</time></trkpt><trkpt lat="46.0252943" lon="11.9030007"><ele>282.66666666666663</ele><time>2026-04-26T10:13:49.539Z</time></trkpt><trkpt lat="46.0252785" lon="11.9028842"><ele>282.8333333333333</ele><time>2026-04-26T10:13:51.538Z</time></trkpt><trkpt lat="46.0252556" lon="11.9027739"><ele>283.0</ele><time>2026-04-26T10:13:53.537Z</time></trkpt><trkpt lat="46.0252141" lon="11.9026736"><ele>283.16666666666663</ele><time>2026-04-26T10:13:55.537Z</time></trkpt><trkpt lat="46.0251713" lon="11.9025624"><ele>283.3333333333333</ele><time>2026-04-26T10:13:57.537Z</time></trkpt><trkpt lat="46.025152" lon="11.902438"><ele>283.5</ele><time>2026-04-26T10:13:59.538Z</time></trkpt><trkpt lat="46.0251437" lon="11.902308"><ele>283.6666666666667</ele><time>2026-04-26T10:14:01.54Z</time></trkpt><trkpt lat="46.0251317" lon="11.9021821"><ele>283.83333333333337</ele><time>2026-04-26T10:14:03.538Z</time></trkpt><trkpt lat="46.025117" lon="11.9020675"><ele>284.0</ele><time>2026-04-26T10:14:05.537Z</time></trkpt><trkpt lat="46.025111" lon="11.9019579"><ele>284.0</ele><time>2026-04-26T10:14:09.539Z</time></trkpt><trkpt lat="46.0251047" lon="11.9018186"><ele>284.0</ele><time>2026-04-26T10:14:12.538Z</time></trkpt><trkpt lat="46.0250886" lon="11.9017026"><ele>284.0</ele><time>2026-04-26T10:14:14.539Z</time></trkpt><trkpt lat="46.025073" lon="11.9015779"><ele>284.0</ele><time>2026-04-26T10:14:16.538Z</time></trkpt><trkpt lat="46.0250614" lon="11.9014448"><ele>284.0</ele><time>2026-04-26T10:14:18.536Z</time></trkpt><trkpt lat="46.0250482" lon="11.901309"><ele>284.0</ele><time>2026-04-26T10:14:20.538Z</time></trkpt><trkpt lat="46.0250276" lon="11.9011793"><ele>284.0</ele><time>2026-04-26T10:14:22.535Z</time></trkpt><trkpt lat="46.0250016" lon="11.9010481"><ele>284.0</ele><time>2026-04-26T10:14:24.537Z</time></trkpt><trkpt lat="46.0249711" lon="11.9009188"><ele>284.0</ele><time>2026-04-26T10:14:26.537Z</time></trkpt><trkpt lat="46.0249422" lon="11.9007919"><ele>284.0</ele><time>2026-04-26T10:14:28.54Z</time></trkpt><trkpt lat="46.0249144" lon="11.9006651"><ele>283.8</ele><time>2026-04-26T10:14:30.54Z</time></trkpt><trkpt lat="46.0248829" lon="11.9005396"><ele>283.59999999999997</ele><time>2026-04-26T10:14:32.539Z</time></trkpt><trkpt lat="46.0248536" lon="11.9004144"><ele>283.4</ele><time>2026-04-26T10:14:34.537Z</time></trkpt><trkpt lat="46.0248285" lon="11.9002929"><ele>283.2</ele><time>2026-04-26T10:14:36.536Z</time></trkpt><trkpt lat="46.0247995" lon="11.90017"><ele>283.0</ele><time>2026-04-26T10:14:38.537Z</time></trkpt><trkpt lat="46.0247708" lon="11.9000478"><ele>283.0</ele><time>2026-04-26T10:14:40.537Z</time></trkpt><trkpt lat="46.0247419" lon="11.8999276"><ele>283.0</ele><time>2026-04-26T10:14:42.538Z</time></trkpt><trkpt lat="46.0247072" lon="11.8998082"><ele>283.0</ele><time>2026-04-26T10:14:44.538Z</time></trkpt><trkpt lat="46.0246715" lon="11.8996883"><ele>283.0</ele><time>2026-04-26T10:14:46.54Z</time></trkpt><trkpt lat="46.0246396" lon="11.8995648"><ele>283.0</ele><time>2026-04-26T10:14:48.539Z</time></trkpt><trkpt lat="46.0246069" lon="11.8994389"><ele>283.0</ele><time>2026-04-26T10:14:50.539Z</time></trkpt><trkpt lat="46.0245741" lon="11.8993116"><ele>283.0</ele><time>2026-04-26T10:14:52.538Z</time></trkpt><trkpt lat="46.0245408" lon="11.8991826"><ele>283.0</ele><time>2026-04-26T10:14:54.54Z</time></trkpt><trkpt lat="46.0245085" lon="11.8990559"><ele>283.0</ele><time>2026-04-26T10:14:56.54Z</time></trkpt><trkpt lat="46.0244812" lon="11.8989382"><ele>283.0</ele><time>2026-04-26T10:14:58.538Z</time></trkpt><trkpt lat="46.0244461" lon="11.8988273"><ele>283.0</ele><time>2026-04-26T10:15:00.54Z</time></trkpt><trkpt lat="46.0244043" lon="11.8987349"><ele>283.0</ele><time>2026-04-26T10:15:02.54Z</time></trkpt><trkpt lat="46.024358" lon="11.8986603"><ele>283.0</ele><time>2026-04-26T10:15:05.539Z</time></trkpt><trkpt lat="46.0242808" lon="11.8986474"><ele>283.0</ele><time>2026-04-26T10:15:08.539Z</time></trkpt><trkpt lat="46.0242021" lon="11.8986414"><ele>283.0</ele><time>2026-04-26T10:15:10.54Z</time></trkpt><trkpt lat="46.0241181" lon="11.8986267"><ele>283.0</ele><time>2026-04-26T10:15:12.538Z</time></trkpt><trkpt lat="46.0240363" lon="11.8986134"><ele>283.0</ele><time>2026-04-26T10:15:14.536Z</time></trkpt><trkpt lat="46.0239664" lon="11.8985713"><ele>283.0</ele><time>2026-04-26T10:15:16.535Z</time></trkpt><trkpt lat="46.0239121" lon="11.8984813"><ele>283.0</ele><time>2026-04-26T10:15:18.537Z</time></trkpt><trkpt lat="46.0238827" lon="11.8983734"><ele>283.0</ele><time>2026-04-26T10:15:20.539Z</time></trkpt><trkpt lat="46.0238676" lon="11.8982526"><ele>283.0</ele><time>2026-04-26T10:15:22.538Z</time></trkpt><trkpt lat="46.0238563" lon="11.8981263"><ele>283.0</ele><time>2026-04-26T10:15:24.539Z</time></trkpt><trkpt lat="46.0238612" lon="11.8980049"><ele>283.0</ele><time>2026-04-26T10:15:26.538Z</time></trkpt><trkpt lat="46.0238619" lon="11.8978867"><ele>283.0</ele><time>2026-04-26T10:15:28.538Z</time></trkpt><trkpt lat="46.0238918" lon="11.8977884"><ele>283.0</ele><time>2026-04-26T10:15:30.538Z</time></trkpt><trkpt lat="46.0239327" lon="11.8977057"><ele>283.0</ele><time>2026-04-26T10:15:32.538Z</time></trkpt><trkpt lat="46.0239575" lon="11.8976065"><ele>283.0</ele><time>2026-04-26T10:15:34.539Z</time></trkpt><trkpt lat="46.0239754" lon="11.8974911"><ele>283.0</ele><time>2026-04-26T10:15:36.538Z</time></trkpt><trkpt lat="46.0239779" lon="11.8973759"><ele>283.0</ele><time>2026-04-26T10:15:38.54Z</time></trkpt><trkpt lat="46.0239641" lon="11.8972665"><ele>283.0</ele><time>2026-04-26T10:15:40.537Z</time></trkpt><trkpt lat="46.0239354" lon="11.8971803"><ele>283.0</ele><time>2026-04-26T10:15:42.536Z</time></trkpt><trkpt lat="46.0238939" lon="11.8970976"><ele>283.0</ele><time>2026-04-26T10:15:57.538Z</time></trkpt><trkpt lat="46.0238031" lon="11.8970772"><ele>283.0</ele><time>2026-04-26T10:16:02.54Z</time></trkpt><trkpt lat="46.0237178" lon="11.8970499"><ele>283.0</ele><time>2026-04-26T10:16:04.538Z</time></trkpt><trkpt lat="46.0236353" lon="11.8969885"><ele>283.0</ele><time>2026-04-26T10:16:06.538Z</time></trkpt><trkpt lat="46.0235788" lon="11.8969059"><ele>283.0</ele><time>2026-04-26T10:16:08.54Z</time></trkpt><trkpt lat="46.0235581" lon="11.8968095"><ele>283.0</ele><time>2026-04-26T10:16:10.538Z</time></trkpt><trkpt lat="46.0235427" lon="11.8966851"><ele>283.0</ele><time>2026-04-26T10:16:12.538Z</time></trkpt><trkpt lat="46.0235201" lon="11.8965608"><ele>283.0</ele><time>2026-04-26T10:16:14.539Z</time></trkpt><trkpt lat="46.0234935" lon="11.8964341"><ele>283.0</ele><time>2026-04-26T10:16:16.537Z</time></trkpt><trkpt lat="46.0234753" lon="11.8963043"><ele>283.0</ele><time>2026-04-26T10:16:18.539Z</time></trkpt><trkpt lat="46.0234432" lon="11.8961836"><ele>283.0</ele><time>2026-04-26T10:16:20.54Z</time></trkpt><trkpt lat="46.0234047" lon="11.8960673"><ele>283.0</ele><time>2026-04-26T10:16:22.538Z</time></trkpt><trkpt lat="46.023382" lon="11.8959473"><ele>283.0</ele><time>2026-04-26T10:16:24.539Z</time></trkpt><trkpt lat="46.0233619" lon="11.8958233"><ele>283.0</ele><time>2026-04-26T10:16:26.54Z</time></trkpt><trkpt lat="46.0233403" lon="11.8956947"><ele>283.0</ele><time>2026-04-26T10:16:28.538Z</time></trkpt><trkpt lat="46.023317" lon="11.8955637"><ele>282.8333333333333</ele><time>2026-04-26T10:16:30.538Z</time></trkpt><trkpt lat="46.0232875" lon="11.8954363"><ele>282.66666666666663</ele><time>2026-04-26T10:16:32.536Z</time></trkpt><trkpt lat="46.0232599" lon="11.8953126"><ele>282.5</ele><time>2026-04-26T10:16:34.535Z</time></trkpt><trkpt lat="46.0232374" lon="11.8951908"><ele>282.3333333333333</ele><time>2026-04-26T10:16:36.538Z</time></trkpt><trkpt lat="46.0232112" lon="11.8950681"><ele>282.1666666666667</ele><time>2026-04-26T10:16:38.537Z</time></trkpt><trkpt lat="46.0231877" lon="11.8949441"><ele>282.0</ele><time>2026-04-26T10:16:40.538Z</time></trkpt><trkpt lat="46.0231689" lon="11.8948178"><ele>282.0</ele><time>2026-04-26T10:16:42.54Z</time></trkpt><trkpt lat="46.023148" lon="11.8946911"><ele>282.0</ele><time>2026-04-26T10:16:44.539Z</time></trkpt><trkpt lat="46.0231266" lon="11.8945614"><ele>282.0</ele><time>2026-04-26T10:16:46.539Z</time></trkpt><trkpt lat="46.0231038" lon="11.8944378"><ele>282.0</ele><time>2026-04-26T10:16:48.539Z</time></trkpt><trkpt lat="46.0230824" lon="11.8943157"><ele>282.0</ele><time>2026-04-26T10:16:50.54Z</time></trkpt><trkpt lat="46.0230641" lon="11.8941918"><ele>282.0</ele><time>2026-04-26T10:16:52.54Z</time></trkpt><trkpt lat="46.0230498" lon="11.8940662"><ele>281.6666666666667</ele><time>2026-04-26T10:16:54.538Z</time></trkpt><trkpt lat="46.0230343" lon="11.8939367"><ele>281.3333333333333</ele><time>2026-04-26T10:16:56.538Z</time></trkpt><trkpt lat="46.0230131" lon="11.8938139"><ele>281.0</ele><time>2026-04-26T10:16:58.539Z</time></trkpt><trkpt lat="46.0230046" lon="11.8936855"><ele>280.66666666666663</ele><time>2026-04-26T10:17:00.539Z</time></trkpt><trkpt lat="46.0229949" lon="11.8935605"><ele>280.3333333333333</ele><time>2026-04-26T10:17:02.54Z</time></trkpt><trkpt lat="46.0229858" lon="11.8934341"><ele>280.0</ele><time>2026-04-26T10:17:04.539Z</time></trkpt><trkpt lat="46.0229743" lon="11.8933079"><ele>280.0</ele><time>2026-04-26T10:17:06.535Z</time></trkpt><trkpt lat="46.0229589" lon="11.8931832"><ele>280.0</ele><time>2026-04-26T10:17:08.538Z</time></trkpt><trkpt lat="46.0229491" lon="11.8930609"><ele>280.0</ele><time>2026-04-26T10:17:10.538Z</time></trkpt><trkpt lat="46.0229448" lon="11.8929415"><ele>280.0</ele><time>2026-04-26T10:17:12.54Z</time></trkpt><trkpt lat="46.0229364" lon="11.8928212"><ele>280.0</ele><time>2026-04-26T10:17:14.538Z</time></trkpt><trkpt lat="46.022928" lon="11.8927037"><ele>280.0</ele><time>2026-04-26T10:17:16.536Z</time></trkpt><trkpt lat="46.0229243" lon="11.8925853"><ele>280.0</ele><time>2026-04-26T10:17:18.538Z</time></trkpt><trkpt lat="46.0229319" lon="11.8924584"><ele>280.0</ele><time>2026-04-26T10:17:20.538Z</time></trkpt><trkpt lat="46.0229356" lon="11.8923428"><ele>280.0</ele><time>2026-04-26T10:17:22.537Z</time></trkpt><trkpt lat="46.0229366" lon="11.8922243"><ele>280.0</ele><time>2026-04-26T10:17:24.538Z</time></trkpt><trkpt lat="46.0229278" lon="11.8920932"><ele>280.0</ele><time>2026-04-26T10:17:26.538Z</time></trkpt><trkpt lat="46.0229158" lon="11.8919617"><ele>280.0</ele><time>2026-04-26T10:17:28.537Z</time></trkpt><trkpt lat="46.0229012" lon="11.8918298"><ele>280.0</ele><time>2026-04-26T10:17:30.539Z</time></trkpt><trkpt lat="46.0228785" lon="11.8917042"><ele>280.0</ele><time>2026-04-26T10:17:32.538Z</time></trkpt><trkpt lat="46.0228646" lon="11.8915721"><ele>280.0</ele><time>2026-04-26T10:17:34.539Z</time></trkpt><trkpt lat="46.0228577" lon="11.8914412"><ele>280.0</ele><time>2026-04-26T10:17:36.537Z</time></trkpt><trkpt lat="46.0228526" lon="11.8913109"><ele>280.0</ele><time>2026-04-26T10:17:38.538Z</time></trkpt><trkpt lat="46.0228433" lon="11.8911813"><ele>280.0</ele><time>2026-04-26T10:17:40.536Z</time></trkpt><trkpt lat="46.0228344" lon="11.8910547"><ele>280.0</ele><time>2026-04-26T10:17:42.538Z</time></trkpt><trkpt lat="46.0228332" lon="11.8909301"><ele>280.0</ele><time>2026-04-26T10:17:44.538Z</time></trkpt><trkpt lat="46.0228313" lon="11.8908031"><ele>280.0</ele><time>2026-04-26T10:17:46.537Z</time></trkpt><trkpt lat="46.0228326" lon="11.8906691"><ele>280.0</ele><time>2026-04-26T10:17:48.536Z</time></trkpt><trkpt lat="46.0228329" lon="11.8905367"><ele>280.0</ele><time>2026-04-26T10:17:50.535Z</time></trkpt><trkpt lat="46.0228398" lon="11.8904062"><ele>279.8</ele><time>2026-04-26T10:17:52.539Z</time></trkpt><trkpt lat="46.0228503" lon="11.8902739"><ele>279.6</ele><time>2026-04-26T10:17:54.539Z</time></trkpt><trkpt lat="46.0228557" lon="11.8901422"><ele>279.4</ele><time>2026-04-26T10:17:56.539Z</time></trkpt><trkpt lat="46.0228549" lon="11.8900069"><ele>279.2</ele><time>2026-04-26T10:17:58.538Z</time></trkpt><trkpt lat="46.0228531" lon="11.8898693"><ele>279.0</ele><time>2026-04-26T10:18:00.536Z</time></trkpt><trkpt lat="46.0228522" lon="11.8897264"><ele>279.0</ele><time>2026-04-26T10:18:02.537Z</time></trkpt><trkpt lat="46.0228514" lon="11.8895824"><ele>279.0</ele><time>2026-04-26T10:18:04.538Z</time></trkpt><trkpt lat="46.0228504" lon="11.8894343"><ele>279.0</ele><time>2026-04-26T10:18:06.538Z</time></trkpt><trkpt lat="46.0228438" lon="11.8892885"><ele>279.0</ele><time>2026-04-26T10:18:08.535Z</time></trkpt><trkpt lat="46.0228305" lon="11.8891386"><ele>279.0</ele><time>2026-04-26T10:18:10.537Z</time></trkpt><trkpt lat="46.022805" lon="11.8889958"><ele>279.2</ele><time>2026-04-26T10:18:12.538Z</time></trkpt><trkpt lat="46.0227512" lon="11.8888667"><ele>279.4</ele><time>2026-04-26T10:18:14.539Z</time></trkpt><trkpt lat="46.0226803" lon="11.8887486"><ele>279.6</ele><time>2026-04-26T10:18:16.537Z</time></trkpt><trkpt lat="46.0225986" lon="11.8886491"><ele>279.8</ele><time>2026-04-26T10:18:18.537Z</time></trkpt><trkpt lat="46.0225178" lon="11.8885454"><ele>280.0</ele><time>2026-04-26T10:18:20.538Z</time></trkpt><trkpt lat="46.0224401" lon="11.8884397"><ele>279.2</ele><time>2026-04-26T10:18:22.537Z</time></trkpt><trkpt lat="46.022364" lon="11.8883299"><ele>278.4</ele><time>2026-04-26T10:18:24.539Z</time></trkpt><trkpt lat="46.0222958" lon="11.8882125"><ele>277.6</ele><time>2026-04-26T10:18:26.538Z</time></trkpt><trkpt lat="46.0222343" lon="11.8880874"><ele>276.8</ele><time>2026-04-26T10:18:28.539Z</time></trkpt><trkpt lat="46.0221796" lon="11.8879519"><ele>276.0</ele><time>2026-04-26T10:18:30.538Z</time></trkpt><trkpt lat="46.0221298" lon="11.8878081"><ele>276.0</ele><time>2026-04-26T10:18:32.538Z</time></trkpt><trkpt lat="46.0220813" lon="11.8876646"><ele>276.0</ele><time>2026-04-26T10:18:34.536Z</time></trkpt><trkpt lat="46.0220328" lon="11.8875226"><ele>276.0</ele><time>2026-04-26T10:18:36.538Z</time></trkpt><trkpt lat="46.0219763" lon="11.8873849"><ele>276.0</ele><time>2026-04-26T10:18:38.537Z</time></trkpt><trkpt lat="46.0219126" lon="11.8872522"><ele>276.0</ele><time>2026-04-26T10:18:40.539Z</time></trkpt><trkpt lat="46.0218421" lon="11.8871282"><ele>276.0</ele><time>2026-04-26T10:18:42.537Z</time></trkpt><trkpt lat="46.0217693" lon="11.8870094"><ele>276.0</ele><time>2026-04-26T10:18:44.539Z</time></trkpt><trkpt lat="46.0216947" lon="11.8868952"><ele>276.0</ele><time>2026-04-26T10:18:46.537Z</time></trkpt><trkpt lat="46.0216235" lon="11.8867796"><ele>276.0</ele><time>2026-04-26T10:18:48.537Z</time></trkpt><trkpt lat="46.0215562" lon="11.8866618"><ele>276.0</ele><time>2026-04-26T10:18:50.539Z</time></trkpt><trkpt lat="46.0215078" lon="11.8865332"><ele>275.40000000000003</ele><time>2026-04-26T10:18:52.537Z</time></trkpt><trkpt lat="46.0214823" lon="11.8863954"><ele>274.8</ele><time>2026-04-26T10:18:54.537Z</time></trkpt><trkpt lat="46.0214914" lon="11.886251"><ele>274.20000000000005</ele><time>2026-04-26T10:18:56.539Z</time></trkpt><trkpt lat="46.0215054" lon="11.8861057"><ele>273.6</ele><time>2026-04-26T10:18:58.537Z</time></trkpt><trkpt lat="46.0215208" lon="11.8859678"><ele>273.0</ele><time>2026-04-26T10:19:00.538Z</time></trkpt><trkpt lat="46.0215409" lon="11.8858339"><ele>272.8</ele><time>2026-04-26T10:19:02.539Z</time></trkpt><trkpt lat="46.0215663" lon="11.8857021"><ele>272.6</ele><time>2026-04-26T10:19:04.538Z</time></trkpt><trkpt lat="46.0216054" lon="11.8855752"><ele>272.4</ele><time>2026-04-26T10:19:06.539Z</time></trkpt><trkpt lat="46.0216552" lon="11.8854579"><ele>272.2</ele><time>2026-04-26T10:19:08.538Z</time></trkpt><trkpt lat="46.0217161" lon="11.8853485"><ele>272.0</ele><time>2026-04-26T10:19:10.538Z</time></trkpt><trkpt lat="46.021786" lon="11.8852533"><ele>272.2</ele><time>2026-04-26T10:19:12.538Z</time></trkpt><trkpt lat="46.0218648" lon="11.885172"><ele>272.4</ele><time>2026-04-26T10:19:14.537Z</time></trkpt><trkpt lat="46.021951" lon="11.8851062"><ele>272.6</ele><time>2026-04-26T10:19:16.539Z</time></trkpt><trkpt lat="46.0220393" lon="11.8850521"><ele>272.8</ele><time>2026-04-26T10:19:18.538Z</time></trkpt><trkpt lat="46.0221234" lon="11.8849902"><ele>273.0</ele><time>2026-04-26T10:19:20.539Z</time></trkpt><trkpt lat="46.0222014" lon="11.8849113"><ele>273.0</ele><time>2026-04-26T10:19:22.538Z</time></trkpt><trkpt lat="46.0222638" lon="11.884807"><ele>273.0</ele><time>2026-04-26T10:19:24.537Z</time></trkpt><trkpt lat="46.0223018" lon="11.88468"><ele>273.0</ele><time>2026-04-26T10:19:26.539Z</time></trkpt><trkpt lat="46.0223109" lon="11.8845408"><ele>273.0</ele><time>2026-04-26T10:19:28.538Z</time></trkpt><trkpt lat="46.0222986" lon="11.8843951"><ele>273.0</ele><time>2026-04-26T10:19:30.537Z</time></trkpt><trkpt lat="46.0222769" lon="11.8842458"><ele>272.6</ele><time>2026-04-26T10:19:32.536Z</time></trkpt><trkpt lat="46.0222625" lon="11.8840993"><ele>272.20000000000005</ele><time>2026-04-26T10:19:34.536Z</time></trkpt><trkpt lat="46.0222511" lon="11.8839549"><ele>271.8</ele><time>2026-04-26T10:19:36.538Z</time></trkpt><trkpt lat="46.0222401" lon="11.8838131"><ele>271.40000000000003</ele><time>2026-04-26T10:19:38.539Z</time></trkpt><trkpt lat="46.0222266" lon="11.883671"><ele>271.0</ele><time>2026-04-26T10:19:40.538Z</time></trkpt><trkpt lat="46.0222058" lon="11.8835275"><ele>271.0</ele><time>2026-04-26T10:19:42.539Z</time></trkpt><trkpt lat="46.0221878" lon="11.8833831"><ele>271.0</ele><time>2026-04-26T10:19:44.536Z</time></trkpt><trkpt lat="46.0221751" lon="11.883238"><ele>271.0</ele><time>2026-04-26T10:19:46.535Z</time></trkpt><trkpt lat="46.0221627" lon="11.883095"><ele>271.0</ele><time>2026-04-26T10:19:48.538Z</time></trkpt><trkpt lat="46.0221491" lon="11.8829539"><ele>271.0</ele><time>2026-04-26T10:19:50.536Z</time></trkpt><trkpt lat="46.0221357" lon="11.8828156"><ele>271.0</ele><time>2026-04-26T10:19:52.537Z</time></trkpt><trkpt lat="46.0221268" lon="11.882678"><ele>271.0</ele><time>2026-04-26T10:19:54.535Z</time></trkpt><trkpt lat="46.0221147" lon="11.8825396"><ele>271.0</ele><time>2026-04-26T10:19:56.537Z</time></trkpt><trkpt lat="46.0220989" lon="11.8824029"><ele>271.0</ele><time>2026-04-26T10:19:58.535Z</time></trkpt><trkpt lat="46.0220876" lon="11.8822713"><ele>271.0</ele><time>2026-04-26T10:20:00.538Z</time></trkpt><trkpt lat="46.0220825" lon="11.8821414"><ele>271.2</ele><time>2026-04-26T10:20:02.539Z</time></trkpt><trkpt lat="46.0220885" lon="11.8820103"><ele>271.40000000000003</ele><time>2026-04-26T10:20:04.536Z</time></trkpt><trkpt lat="46.0221056" lon="11.8818773"><ele>271.6</ele><time>2026-04-26T10:20:06.538Z</time></trkpt><trkpt lat="46.0221314" lon="11.8817497"><ele>271.8</ele><time>2026-04-26T10:20:08.539Z</time></trkpt><trkpt lat="46.0221643" lon="11.8816251"><ele>272.0</ele><time>2026-04-26T10:20:10.539Z</time></trkpt><trkpt lat="46.0221975" lon="11.8814995"><ele>272.0</ele><time>2026-04-26T10:20:12.537Z</time></trkpt><trkpt lat="46.0222345" lon="11.8813743"><ele>272.0</ele><time>2026-04-26T10:20:14.536Z</time></trkpt><trkpt lat="46.0222765" lon="11.8812493"><ele>272.0</ele><time>2026-04-26T10:20:16.536Z</time></trkpt><trkpt lat="46.022301" lon="11.8811189"><ele>272.0</ele><time>2026-04-26T10:20:18.538Z</time></trkpt><trkpt lat="46.0223203" lon="11.8809862"><ele>272.0</ele><time>2026-04-26T10:20:20.536Z</time></trkpt><trkpt lat="46.0223262" lon="11.8808504"><ele>271.8</ele><time>2026-04-26T10:20:22.536Z</time></trkpt><trkpt lat="46.0223227" lon="11.8807124"><ele>271.6</ele><time>2026-04-26T10:20:24.539Z</time></trkpt><trkpt lat="46.0223064" lon="11.8805732"><ele>271.40000000000003</ele><time>2026-04-26T10:20:26.539Z</time></trkpt><trkpt lat="46.0222869" lon="11.8804322"><ele>271.2</ele><time>2026-04-26T10:20:28.537Z</time></trkpt><trkpt lat="46.0222704" lon="11.8802917"><ele>271.0</ele><time>2026-04-26T10:20:30.536Z</time></trkpt><trkpt lat="46.0222566" lon="11.8801517"><ele>271.2</ele><time>2026-04-26T10:20:32.539Z</time></trkpt><trkpt lat="46.0222457" lon="11.880014"><ele>271.40000000000003</ele><time>2026-04-26T10:20:34.537Z</time></trkpt><trkpt lat="46.02223" lon="11.8798763"><ele>271.6</ele><time>2026-04-26T10:20:36.536Z</time></trkpt><trkpt lat="46.0222112" lon="11.8797386"><ele>271.8</ele><time>2026-04-26T10:20:38.537Z</time></trkpt><trkpt lat="46.0221921" lon="11.8796054"><ele>272.0</ele><time>2026-04-26T10:20:40.538Z</time></trkpt><trkpt lat="46.0221672" lon="11.8794756"><ele>272.0</ele><time>2026-04-26T10:20:42.537Z</time></trkpt><trkpt lat="46.0221357" lon="11.8793545"><ele>272.0</ele><time>2026-04-26T10:20:44.539Z</time></trkpt><trkpt lat="46.0220799" lon="11.8792413"><ele>272.0</ele><time>2026-04-26T10:20:46.537Z</time></trkpt><trkpt lat="46.0220082" lon="11.8791358"><ele>272.0</ele><time>2026-04-26T10:20:48.538Z</time></trkpt><trkpt lat="46.0219318" lon="11.879039"><ele>272.0</ele><time>2026-04-26T10:20:50.539Z</time></trkpt><trkpt lat="46.0218527" lon="11.878941"><ele>272.0</ele><time>2026-04-26T10:20:52.537Z</time></trkpt><trkpt lat="46.0217764" lon="11.8788438"><ele>272.0</ele><time>2026-04-26T10:20:54.537Z</time></trkpt><trkpt lat="46.0217061" lon="11.87874"><ele>272.0</ele><time>2026-04-26T10:20:56.539Z</time></trkpt><trkpt lat="46.0216318" lon="11.8786393"><ele>272.0</ele><time>2026-04-26T10:20:58.537Z</time></trkpt><trkpt lat="46.0215561" lon="11.8785418"><ele>272.0</ele><time>2026-04-26T10:21:00.537Z</time></trkpt><trkpt lat="46.0214796" lon="11.8784423"><ele>272.4</ele><time>2026-04-26T10:21:02.537Z</time></trkpt><trkpt lat="46.0214046" lon="11.8783393"><ele>272.79999999999995</ele><time>2026-04-26T10:21:04.538Z</time></trkpt><trkpt lat="46.0213272" lon="11.8782387"><ele>273.2</ele><time>2026-04-26T10:21:06.537Z</time></trkpt><trkpt lat="46.0212514" lon="11.8781359"><ele>273.59999999999997</ele><time>2026-04-26T10:21:08.538Z</time></trkpt><trkpt lat="46.0211742" lon="11.8780363"><ele>274.0</ele><time>2026-04-26T10:21:10.537Z</time></trkpt><trkpt lat="46.0210989" lon="11.8779417"><ele>274.0</ele><time>2026-04-26T10:21:12.536Z</time></trkpt><trkpt lat="46.0210261" lon="11.8778445"><ele>274.0</ele><time>2026-04-26T10:21:14.538Z</time></trkpt><trkpt lat="46.0209545" lon="11.8777492"><ele>274.0</ele><time>2026-04-26T10:21:16.538Z</time></trkpt><trkpt lat="46.0208815" lon="11.8776525"><ele>274.0</ele><time>2026-04-26T10:21:18.537Z</time></trkpt><trkpt lat="46.0208082" lon="11.8775543"><ele>274.0</ele><time>2026-04-26T10:21:20.539Z</time></trkpt><trkpt lat="46.0207365" lon="11.8774555"><ele>274.2</ele><time>2026-04-26T10:21:22.539Z</time></trkpt><trkpt lat="46.0206656" lon="11.8773589"><ele>274.4</ele><time>2026-04-26T10:21:24.537Z</time></trkpt><trkpt lat="46.0205909" lon="11.8772672"><ele>274.6</ele><time>2026-04-26T10:21:26.536Z</time></trkpt><trkpt lat="46.0205195" lon="11.8771763"><ele>274.8</ele><time>2026-04-26T10:21:28.539Z</time></trkpt><trkpt lat="46.0204513" lon="11.8770832"><ele>275.0</ele><time>2026-04-26T10:21:30.538Z</time></trkpt><trkpt lat="46.0203817" lon="11.8769886"><ele>275.0</ele><time>2026-04-26T10:21:32.539Z</time></trkpt><trkpt lat="46.0203114" lon="11.8768962"><ele>275.0</ele><time>2026-04-26T10:21:34.539Z</time></trkpt><trkpt lat="46.0202449" lon="11.8768002"><ele>275.0</ele><time>2026-04-26T10:21:36.539Z</time></trkpt><trkpt lat="46.0201836" lon="11.8767002"><ele>275.0</ele><time>2026-04-26T10:21:38.539Z</time></trkpt><trkpt lat="46.0201311" lon="11.8766039"><ele>275.0</ele><time>2026-04-26T10:21:40.538Z</time></trkpt><trkpt lat="46.0200857" lon="11.8765"><ele>275.0</ele><time>2026-04-26T10:21:42.536Z</time></trkpt><trkpt lat="46.0200388" lon="11.8763949"><ele>275.0</ele><time>2026-04-26T10:21:44.539Z</time></trkpt><trkpt lat="46.0199931" lon="11.876284"><ele>275.0</ele><time>2026-04-26T10:21:46.539Z</time></trkpt><trkpt lat="46.0199487" lon="11.8761722"><ele>275.0</ele><time>2026-04-26T10:21:48.538Z</time></trkpt><trkpt lat="46.0199172" lon="11.8760568"><ele>275.0</ele><time>2026-04-26T10:21:50.539Z</time></trkpt><trkpt lat="46.0198976" lon="11.8759377"><ele>275.0</ele><time>2026-04-26T10:21:52.538Z</time></trkpt><trkpt lat="46.0198777" lon="11.875811"><ele>275.0</ele><time>2026-04-26T10:21:54.539Z</time></trkpt><trkpt lat="46.0198521" lon="11.8756799"><ele>275.0</ele><time>2026-04-26T10:21:56.538Z</time></trkpt><trkpt lat="46.019828" lon="11.8755474"><ele>275.0</ele><time>2026-04-26T10:21:58.536Z</time></trkpt><trkpt lat="46.0198076" lon="11.8754095"><ele>275.0</ele><time>2026-04-26T10:22:00.537Z</time></trkpt><trkpt lat="46.0197803" lon="11.8752723"><ele>275.0</ele><time>2026-04-26T10:22:02.537Z</time></trkpt><trkpt lat="46.0197528" lon="11.8751427"><ele>275.0</ele><time>2026-04-26T10:22:04.538Z</time></trkpt><trkpt lat="46.0197236" lon="11.8750088"><ele>275.0</ele><time>2026-04-26T10:22:06.534Z</time></trkpt><trkpt lat="46.0196935" lon="11.8748737"><ele>275.0</ele><time>2026-04-26T10:22:08.539Z</time></trkpt><trkpt lat="46.0196558" lon="11.8747405"><ele>275.0</ele><time>2026-04-26T10:22:10.539Z</time></trkpt><trkpt lat="46.0196101" lon="11.874609"><ele>275.0</ele><time>2026-04-26T10:22:12.539Z</time></trkpt><trkpt lat="46.0195598" lon="11.8744826"><ele>275.0</ele><time>2026-04-26T10:22:14.538Z</time></trkpt><trkpt lat="46.0195152" lon="11.8743532"><ele>275.0</ele><time>2026-04-26T10:22:16.538Z</time></trkpt><trkpt lat="46.0194701" lon="11.8742234"><ele>275.0</ele><time>2026-04-26T10:22:18.538Z</time></trkpt><trkpt lat="46.0194306" lon="11.8740945"><ele>275.0</ele><time>2026-04-26T10:22:20.538Z</time></trkpt><trkpt lat="46.0194115" lon="11.8739559"><ele>275.0</ele><time>2026-04-26T10:22:22.538Z</time></trkpt><trkpt lat="46.0194198" lon="11.8738129"><ele>275.2</ele><time>2026-04-26T10:22:24.537Z</time></trkpt><trkpt lat="46.0194552" lon="11.8736802"><ele>275.4</ele><time>2026-04-26T10:22:26.539Z</time></trkpt><trkpt lat="46.0194979" lon="11.8735527"><ele>275.6</ele><time>2026-04-26T10:22:28.539Z</time></trkpt><trkpt lat="46.0195508" lon="11.8734338"><ele>275.8</ele><time>2026-04-26T10:22:30.539Z</time></trkpt><trkpt lat="46.0195988" lon="11.8733127"><ele>276.0</ele><time>2026-04-26T10:22:32.538Z</time></trkpt><trkpt lat="46.0196388" lon="11.8731939"><ele>276.0</ele><time>2026-04-26T10:22:34.538Z</time></trkpt><trkpt lat="46.0196781" lon="11.8730724"><ele>276.0</ele><time>2026-04-26T10:22:36.537Z</time></trkpt><trkpt lat="46.0197126" lon="11.8729472"><ele>276.0</ele><time>2026-04-26T10:22:38.539Z</time></trkpt><trkpt lat="46.0197455" lon="11.8728202"><ele>276.0</ele><time>2026-04-26T10:22:40.539Z</time></trkpt><trkpt lat="46.0197831" lon="11.8726945"><ele>276.0</ele><time>2026-04-26T10:22:42.537Z</time></trkpt><trkpt lat="46.019819" lon="11.8725698"><ele>275.8</ele><time>2026-04-26T10:22:44.537Z</time></trkpt><trkpt lat="46.0198542" lon="11.8724365"><ele>275.6</ele><time>2026-04-26T10:22:46.537Z</time></trkpt><trkpt lat="46.0198836" lon="11.8722952"><ele>275.4</ele><time>2026-04-26T10:22:48.537Z</time></trkpt><trkpt lat="46.0199024" lon="11.8721501"><ele>275.2</ele><time>2026-04-26T10:22:50.538Z</time></trkpt><trkpt lat="46.0198976" lon="11.8720076"><ele>275.0</ele><time>2026-04-26T10:22:52.538Z</time></trkpt><trkpt lat="46.019874" lon="11.8718704"><ele>275.2</ele><time>2026-04-26T10:22:54.535Z</time></trkpt><trkpt lat="46.0198351" lon="11.8717355"><ele>275.4</ele><time>2026-04-26T10:22:56.539Z</time></trkpt><trkpt lat="46.0197899" lon="11.8716058"><ele>275.6</ele><time>2026-04-26T10:22:58.538Z</time></trkpt><trkpt lat="46.0197474" lon="11.8714771"><ele>275.8</ele><time>2026-04-26T10:23:00.536Z</time></trkpt><trkpt lat="46.0197168" lon="11.8713455"><ele>276.0</ele><time>2026-04-26T10:23:02.539Z</time></trkpt><trkpt lat="46.0196905" lon="11.8712071"><ele>276.0</ele><time>2026-04-26T10:23:04.539Z</time></trkpt><trkpt lat="46.0196617" lon="11.8710713"><ele>276.0</ele><time>2026-04-26T10:23:06.539Z</time></trkpt><trkpt lat="46.0196342" lon="11.8709363"><ele>276.0</ele><time>2026-04-26T10:23:08.536Z</time></trkpt><trkpt lat="46.0196042" lon="11.8708016"><ele>276.0</ele><time>2026-04-26T10:23:10.539Z</time></trkpt><trkpt lat="46.0195769" lon="11.8706672"><ele>276.0</ele><time>2026-04-26T10:23:12.537Z</time></trkpt><trkpt lat="46.0195451" lon="11.8705361"><ele>276.40000000000003</ele><time>2026-04-26T10:23:14.538Z</time></trkpt><trkpt lat="46.0195106" lon="11.8704056"><ele>276.8</ele><time>2026-04-26T10:23:16.539Z</time></trkpt><trkpt lat="46.0194718" lon="11.8702764"><ele>277.20000000000005</ele><time>2026-04-26T10:23:18.538Z</time></trkpt><trkpt lat="46.0194274" lon="11.8701511"><ele>277.6</ele><time>2026-04-26T10:23:20.537Z</time></trkpt><trkpt lat="46.019391" lon="11.8700277"><ele>278.0</ele><time>2026-04-26T10:23:22.539Z</time></trkpt><trkpt lat="46.0193525" lon="11.8699061"><ele>278.2</ele><time>2026-04-26T10:23:24.539Z</time></trkpt><trkpt lat="46.0193125" lon="11.8697843"><ele>278.4</ele><time>2026-04-26T10:23:26.54Z</time></trkpt><trkpt lat="46.0192735" lon="11.8696597"><ele>278.59999999999997</ele><time>2026-04-26T10:23:28.537Z</time></trkpt><trkpt lat="46.0192299" lon="11.8695362"><ele>278.8</ele><time>2026-04-26T10:23:30.539Z</time></trkpt><trkpt lat="46.0191854" lon="11.8694152"><ele>279.0</ele><time>2026-04-26T10:23:32.54Z</time></trkpt><trkpt lat="46.019143" lon="11.869292"><ele>279.4</ele><time>2026-04-26T10:23:34.539Z</time></trkpt><trkpt lat="46.0190924" lon="11.8691783"><ele>279.79999999999995</ele><time>2026-04-26T10:23:36.537Z</time></trkpt><trkpt lat="46.0190269" lon="11.8690738"><ele>280.20000000000005</ele><time>2026-04-26T10:23:38.538Z</time></trkpt><trkpt lat="46.0189536" lon="11.8689822"><ele>280.6</ele><time>2026-04-26T10:23:40.538Z</time></trkpt><trkpt lat="46.0188753" lon="11.8689021"><ele>281.0</ele><time>2026-04-26T10:23:42.539Z</time></trkpt><trkpt lat="46.0187925" lon="11.8688249"><ele>281.0</ele><time>2026-04-26T10:23:44.538Z</time></trkpt><trkpt lat="46.0187136" lon="11.8687366"><ele>281.0</ele><time>2026-04-26T10:23:46.537Z</time></trkpt><trkpt lat="46.0186439" lon="11.8686384"><ele>281.0</ele><time>2026-04-26T10:23:48.539Z</time></trkpt><trkpt lat="46.0185758" lon="11.8685342"><ele>281.0</ele><time>2026-04-26T10:23:50.538Z</time></trkpt><trkpt lat="46.0185102" lon="11.8684293"><ele>281.0</ele><time>2026-04-26T10:23:52.538Z</time></trkpt><trkpt lat="46.0184505" lon="11.8683203"><ele>281.1666666666667</ele><time>2026-04-26T10:23:54.537Z</time></trkpt><trkpt lat="46.0183838" lon="11.8682279"><ele>281.33333333333337</ele><time>2026-04-26T10:23:56.538Z</time></trkpt><trkpt lat="46.0183054" lon="11.8681702"><ele>281.5</ele><time>2026-04-26T10:23:58.535Z</time></trkpt><trkpt lat="46.0182256" lon="11.868149"><ele>281.6666666666667</ele><time>2026-04-26T10:24:00.538Z</time></trkpt><trkpt lat="46.0181411" lon="11.868141"><ele>281.8333333333333</ele><time>2026-04-26T10:24:03.539Z</time></trkpt><trkpt lat="46.018073" lon="11.868108"><ele>282.0</ele><time>2026-04-26T10:24:05.539Z</time></trkpt><trkpt lat="46.0179977" lon="11.8679951"><ele>282.0</ele><time>2026-04-26T10:24:07.539Z</time></trkpt><trkpt lat="46.0179231" lon="11.8678723"><ele>282.0</ele><time>2026-04-26T10:24:09.539Z</time></trkpt><trkpt lat="46.0178499" lon="11.8677432"><ele>282.0</ele><time>2026-04-26T10:24:11.539Z</time></trkpt><trkpt lat="46.0177771" lon="11.8676148"><ele>282.0</ele><time>2026-04-26T10:24:13.539Z</time></trkpt><trkpt lat="46.0177045" lon="11.8674882"><ele>282.2</ele><time>2026-04-26T10:24:15.536Z</time></trkpt><trkpt lat="46.0176296" lon="11.8673701"><ele>282.4</ele><time>2026-04-26T10:24:17.539Z</time></trkpt><trkpt lat="46.0175531" lon="11.8672604"><ele>282.6</ele><time>2026-04-26T10:24:19.536Z</time></trkpt><trkpt lat="46.0174771" lon="11.8671373"><ele>282.8</ele><time>2026-04-26T10:24:21.538Z</time></trkpt><trkpt lat="46.017398" lon="11.8670234"><ele>283.0</ele><time>2026-04-26T10:24:23.537Z</time></trkpt><trkpt lat="46.0173295" lon="11.8669234"><ele>283.0</ele><time>2026-04-26T10:24:25.538Z</time></trkpt><trkpt lat="46.0172622" lon="11.8668243"><ele>283.0</ele><time>2026-04-26T10:24:27.537Z</time></trkpt><trkpt lat="46.0171956" lon="11.866723"><ele>283.0</ele><time>2026-04-26T10:24:29.538Z</time></trkpt><trkpt lat="46.0171318" lon="11.8666222"><ele>283.0</ele><time>2026-04-26T10:24:31.539Z</time></trkpt><trkpt lat="46.0170648" lon="11.8665174"><ele>283.0</ele><time>2026-04-26T10:24:33.539Z</time></trkpt><trkpt lat="46.016996" lon="11.8664075"><ele>283.0</ele><time>2026-04-26T10:24:35.539Z</time></trkpt><trkpt lat="46.0169277" lon="11.8663018"><ele>283.0</ele><time>2026-04-26T10:24:37.539Z</time></trkpt><trkpt lat="46.0168615" lon="11.8661982"><ele>283.0</ele><time>2026-04-26T10:24:39.536Z</time></trkpt><trkpt lat="46.0167966" lon="11.8660952"><ele>283.0</ele><time>2026-04-26T10:24:41.537Z</time></trkpt><trkpt lat="46.016731" lon="11.8659915"><ele>283.0</ele><time>2026-04-26T10:24:43.537Z</time></trkpt><trkpt lat="46.0166683" lon="11.8658905"><ele>283.2</ele><time>2026-04-26T10:24:45.539Z</time></trkpt><trkpt lat="46.0166102" lon="11.8657885"><ele>283.4</ele><time>2026-04-26T10:24:47.537Z</time></trkpt><trkpt lat="46.0165458" lon="11.8656715"><ele>283.59999999999997</ele><time>2026-04-26T10:24:49.537Z</time></trkpt><trkpt lat="46.0164845" lon="11.8655688"><ele>283.8</ele><time>2026-04-26T10:24:51.539Z</time></trkpt><trkpt lat="46.016422" lon="11.8654662"><ele>284.0</ele><time>2026-04-26T10:24:53.539Z</time></trkpt><trkpt lat="46.0163601" lon="11.8653667"><ele>284.0</ele><time>2026-04-26T10:24:55.536Z</time></trkpt><trkpt lat="46.0162947" lon="11.8652659"><ele>284.0</ele><time>2026-04-26T10:24:57.539Z</time></trkpt><trkpt lat="46.0162351" lon="11.8651614"><ele>284.0</ele><time>2026-04-26T10:24:59.538Z</time></trkpt><trkpt lat="46.0161764" lon="11.8650642"><ele>284.0</ele><time>2026-04-26T10:25:01.537Z</time></trkpt><trkpt lat="46.0161128" lon="11.864971"><ele>284.0</ele><time>2026-04-26T10:25:03.538Z</time></trkpt><trkpt lat="46.0160507" lon="11.8648741"><ele>284.4</ele><time>2026-04-26T10:25:05.538Z</time></trkpt><trkpt lat="46.0159899" lon="11.8647783"><ele>284.79999999999995</ele><time>2026-04-26T10:25:07.537Z</time></trkpt><trkpt lat="46.0159282" lon="11.8646825"><ele>285.20000000000005</ele><time>2026-04-26T10:25:09.537Z</time></trkpt><trkpt lat="46.0158661" lon="11.864589"><ele>285.6</ele><time>2026-04-26T10:25:11.538Z</time></trkpt><trkpt lat="46.0158023" lon="11.8644921"><ele>286.0</ele><time>2026-04-26T10:25:13.537Z</time></trkpt><trkpt lat="46.0157366" lon="11.8643951"><ele>286.0</ele><time>2026-04-26T10:25:15.536Z</time></trkpt><trkpt lat="46.0156743" lon="11.8642978"><ele>286.0</ele><time>2026-04-26T10:25:17.539Z</time></trkpt><trkpt lat="46.0156136" lon="11.8641996"><ele>286.0</ele><time>2026-04-26T10:25:19.539Z</time></trkpt><trkpt lat="46.0155469" lon="11.8641103"><ele>286.0</ele><time>2026-04-26T10:25:21.539Z</time></trkpt><trkpt lat="46.0154869" lon="11.8640141"><ele>286.0</ele><time>2026-04-26T10:25:23.538Z</time></trkpt><trkpt lat="46.0154267" lon="11.8639168"><ele>286.16666666666663</ele><time>2026-04-26T10:25:25.538Z</time></trkpt><trkpt lat="46.0153615" lon="11.8638242"><ele>286.3333333333333</ele><time>2026-04-26T10:25:27.539Z</time></trkpt><trkpt lat="46.0152957" lon="11.8637339"><ele>286.5</ele><time>2026-04-26T10:25:29.539Z</time></trkpt><trkpt lat="46.0152365" lon="11.8636396"><ele>286.6666666666667</ele><time>2026-04-26T10:25:31.537Z</time></trkpt><trkpt lat="46.0151742" lon="11.8635506"><ele>286.83333333333337</ele><time>2026-04-26T10:25:33.537Z</time></trkpt><trkpt lat="46.0151157" lon="11.8634681"><ele>287.0</ele><time>2026-04-26T10:25:35.537Z</time></trkpt><trkpt lat="46.0150621" lon="11.8633792"><ele>287.1666666666667</ele><time>2026-04-26T10:25:37.537Z</time></trkpt><trkpt lat="46.0150041" lon="11.8632879"><ele>287.33333333333337</ele><time>2026-04-26T10:25:39.536Z</time></trkpt><trkpt lat="46.0149441" lon="11.8631986"><ele>287.5</ele><time>2026-04-26T10:25:41.538Z</time></trkpt><trkpt lat="46.0148875" lon="11.8631012"><ele>287.6666666666667</ele><time>2026-04-26T10:25:43.539Z</time></trkpt><trkpt lat="46.0148268" lon="11.863002"><ele>287.8333333333333</ele><time>2026-04-26T10:25:45.539Z</time></trkpt><trkpt lat="46.0147646" lon="11.8629047"><ele>288.0</ele><time>2026-04-26T10:25:47.537Z</time></trkpt><trkpt lat="46.0147034" lon="11.8628112"><ele>288.1666666666667</ele><time>2026-04-26T10:25:49.537Z</time></trkpt><trkpt lat="46.0146438" lon="11.8627179"><ele>288.3333333333333</ele><time>2026-04-26T10:25:51.537Z</time></trkpt><trkpt lat="46.0145862" lon="11.8626255"><ele>288.5</ele><time>2026-04-26T10:25:53.537Z</time></trkpt><trkpt lat="46.0145253" lon="11.8625313"><ele>288.66666666666663</ele><time>2026-04-26T10:25:55.539Z</time></trkpt><trkpt lat="46.0144589" lon="11.8624413"><ele>288.8333333333333</ele><time>2026-04-26T10:25:57.539Z</time></trkpt><trkpt lat="46.0143946" lon="11.8623423"><ele>289.0</ele><time>2026-04-26T10:25:59.539Z</time></trkpt><trkpt lat="46.0143313" lon="11.8622397"><ele>289.0</ele><time>2026-04-26T10:26:01.536Z</time></trkpt><trkpt lat="46.0142676" lon="11.862134"><ele>289.0</ele><time>2026-04-26T10:26:03.538Z</time></trkpt><trkpt lat="46.0142063" lon="11.8620314"><ele>289.0</ele><time>2026-04-26T10:26:05.538Z</time></trkpt><trkpt lat="46.0141448" lon="11.8619425"><ele>289.0</ele><time>2026-04-26T10:26:07.54Z</time></trkpt><trkpt lat="46.0140826" lon="11.8618515"><ele>289.0</ele><time>2026-04-26T10:26:09.539Z</time></trkpt><trkpt lat="46.0140214" lon="11.8617578"><ele>289.0</ele><time>2026-04-26T10:26:11.538Z</time></trkpt><trkpt lat="46.0139629" lon="11.8616628"><ele>289.0</ele><time>2026-04-26T10:26:13.538Z</time></trkpt><trkpt lat="46.0139019" lon="11.8615737"><ele>289.0</ele><time>2026-04-26T10:26:15.539Z</time></trkpt><trkpt lat="46.0138373" lon="11.8614834"><ele>289.0</ele><time>2026-04-26T10:26:17.538Z</time></trkpt><trkpt lat="46.0137751" lon="11.8613949"><ele>289.0</ele><time>2026-04-26T10:26:19.536Z</time></trkpt><trkpt lat="46.0137121" lon="11.8613013"><ele>289.0</ele><time>2026-04-26T10:26:21.539Z</time></trkpt><trkpt lat="46.0136505" lon="11.8612038"><ele>289.0</ele><time>2026-04-26T10:26:23.539Z</time></trkpt><trkpt lat="46.0135896" lon="11.8611065"><ele>289.0</ele><time>2026-04-26T10:26:25.539Z</time></trkpt><trkpt lat="46.0135296" lon="11.8610092"><ele>289.0</ele><time>2026-04-26T10:26:27.538Z</time></trkpt><trkpt lat="46.013472" lon="11.8609101"><ele>289.0</ele><time>2026-04-26T10:26:29.538Z</time></trkpt><trkpt lat="46.0134147" lon="11.8608114"><ele>289.0</ele><time>2026-04-26T10:26:31.538Z</time></trkpt><trkpt lat="46.013355" lon="11.8607078"><ele>289.4</ele><time>2026-04-26T10:26:33.535Z</time></trkpt><trkpt lat="46.0132969" lon="11.8606004"><ele>289.79999999999995</ele><time>2026-04-26T10:26:35.537Z</time></trkpt><trkpt lat="46.0132434" lon="11.8604849"><ele>290.20000000000005</ele><time>2026-04-26T10:26:37.538Z</time></trkpt><trkpt lat="46.0131919" lon="11.8603704"><ele>290.6</ele><time>2026-04-26T10:26:39.538Z</time></trkpt><trkpt lat="46.0131411" lon="11.8602583"><ele>291.0</ele><time>2026-04-26T10:26:41.539Z</time></trkpt><trkpt lat="46.0130923" lon="11.8601478"><ele>291.3333333333333</ele><time>2026-04-26T10:26:43.536Z</time></trkpt><trkpt lat="46.0130404" lon="11.8600391"><ele>291.6666666666667</ele><time>2026-04-26T10:26:45.538Z</time></trkpt><trkpt lat="46.012984" lon="11.8599268"><ele>292.0</ele><time>2026-04-26T10:26:47.535Z</time></trkpt><trkpt lat="46.0129282" lon="11.859819"><ele>292.33333333333337</ele><time>2026-04-26T10:26:49.538Z</time></trkpt><trkpt lat="46.0128773" lon="11.8597244"><ele>292.6666666666667</ele><time>2026-04-26T10:26:51.539Z</time></trkpt><trkpt lat="46.0128363" lon="11.8596333"><ele>293.0</ele><time>2026-04-26T10:26:53.538Z</time></trkpt><trkpt lat="46.0127956" lon="11.8595384"><ele>293.0</ele><time>2026-04-26T10:26:55.537Z</time></trkpt><trkpt lat="46.0127493" lon="11.8594426"><ele>293.0</ele><time>2026-04-26T10:26:57.537Z</time></trkpt><trkpt lat="46.0126995" lon="11.8593424"><ele>293.0</ele><time>2026-04-26T10:26:59.538Z</time></trkpt><trkpt lat="46.0126497" lon="11.8592423"><ele>293.0</ele><time>2026-04-26T10:27:01.54Z</time></trkpt><trkpt lat="46.0125983" lon="11.8591369"><ele>293.0</ele><time>2026-04-26T10:27:03.536Z</time></trkpt><trkpt lat="46.0125428" lon="11.8590286"><ele>293.0</ele><time>2026-04-26T10:27:05.538Z</time></trkpt><trkpt lat="46.012484" lon="11.8589201"><ele>292.8</ele><time>2026-04-26T10:27:07.538Z</time></trkpt><trkpt lat="46.0124272" lon="11.8588085"><ele>292.6</ele><time>2026-04-26T10:27:09.537Z</time></trkpt><trkpt lat="46.0123723" lon="11.8586998"><ele>292.4</ele><time>2026-04-26T10:27:11.539Z</time></trkpt><trkpt lat="46.0123175" lon="11.8585887"><ele>292.2</ele><time>2026-04-26T10:27:13.539Z</time></trkpt><trkpt lat="46.0122676" lon="11.8584721"><ele>292.0</ele><time>2026-04-26T10:27:15.537Z</time></trkpt><trkpt lat="46.0122176" lon="11.8583528"><ele>292.4</ele><time>2026-04-26T10:27:17.538Z</time></trkpt><trkpt lat="46.012167" lon="11.8582298"><ele>292.79999999999995</ele><time>2026-04-26T10:27:19.539Z</time></trkpt><trkpt lat="46.0121218" lon="11.858106"><ele>293.2</ele><time>2026-04-26T10:27:21.539Z</time></trkpt><trkpt lat="46.0120791" lon="11.857985"><ele>293.59999999999997</ele><time>2026-04-26T10:27:23.539Z</time></trkpt><trkpt lat="46.0120333" lon="11.857859"><ele>294.0</ele><time>2026-04-26T10:27:25.538Z</time></trkpt><trkpt lat="46.011987" lon="11.8577346"><ele>294.0</ele><time>2026-04-26T10:27:27.538Z</time></trkpt><trkpt lat="46.0119413" lon="11.8576105"><ele>294.0</ele><time>2026-04-26T10:27:29.538Z</time></trkpt><trkpt lat="46.0118956" lon="11.8574861"><ele>294.0</ele><time>2026-04-26T10:27:31.536Z</time></trkpt><trkpt lat="46.0118437" lon="11.8573672"><ele>294.0</ele><time>2026-04-26T10:27:33.537Z</time></trkpt><trkpt lat="46.0117955" lon="11.8572678"><ele>294.0</ele><time>2026-04-26T10:27:35.539Z</time></trkpt><trkpt lat="46.0117526" lon="11.8571782"><ele>294.0</ele><time>2026-04-26T10:27:37.539Z</time></trkpt><trkpt lat="46.0117057" lon="11.8570866"><ele>294.0</ele><time>2026-04-26T10:27:39.537Z</time></trkpt><trkpt lat="46.0116437" lon="11.8569917"><ele>294.0</ele><time>2026-04-26T10:27:41.539Z</time></trkpt><trkpt lat="46.0115802" lon="11.8568946"><ele>294.0</ele><time>2026-04-26T10:27:43.539Z</time></trkpt><trkpt lat="46.0115167" lon="11.856795"><ele>294.0</ele><time>2026-04-26T10:27:45.538Z</time></trkpt><trkpt lat="46.0114562" lon="11.8566896"><ele>294.4</ele><time>2026-04-26T10:27:47.539Z</time></trkpt><trkpt lat="46.0113945" lon="11.8565861"><ele>294.79999999999995</ele><time>2026-04-26T10:27:49.537Z</time></trkpt><trkpt lat="46.0113351" lon="11.8564792"><ele>295.20000000000005</ele><time>2026-04-26T10:27:51.539Z</time></trkpt><trkpt lat="46.0112749" lon="11.8563707"><ele>295.6</ele><time>2026-04-26T10:27:53.539Z</time></trkpt><trkpt lat="46.0112121" lon="11.8562624"><ele>296.0</ele><time>2026-04-26T10:27:55.536Z</time></trkpt><trkpt lat="46.0111442" lon="11.8561623"><ele>296.0</ele><time>2026-04-26T10:27:57.538Z</time></trkpt><trkpt lat="46.0110708" lon="11.856064"><ele>296.0</ele><time>2026-04-26T10:27:59.539Z</time></trkpt><trkpt lat="46.0109899" lon="11.8559728"><ele>296.0</ele><time>2026-04-26T10:28:01.539Z</time></trkpt><trkpt lat="46.0109057" lon="11.8558864"><ele>296.0</ele><time>2026-04-26T10:28:03.538Z</time></trkpt><trkpt lat="46.0108263" lon="11.8558063"><ele>296.0</ele><time>2026-04-26T10:28:05.539Z</time></trkpt><trkpt lat="46.010743" lon="11.8557379"><ele>296.2</ele><time>2026-04-26T10:28:07.538Z</time></trkpt><trkpt lat="46.0106612" lon="11.8556708"><ele>296.40000000000003</ele><time>2026-04-26T10:28:09.537Z</time></trkpt><trkpt lat="46.0105815" lon="11.855595"><ele>296.6</ele><time>2026-04-26T10:28:11.538Z</time></trkpt><trkpt lat="46.0105025" lon="11.8555132"><ele>296.8</ele><time>2026-04-26T10:28:13.539Z</time></trkpt><trkpt lat="46.0104265" lon="11.8554282"><ele>297.0</ele><time>2026-04-26T10:28:15.538Z</time></trkpt><trkpt lat="46.0103535" lon="11.8553386"><ele>297.0</ele><time>2026-04-26T10:28:17.539Z</time></trkpt><trkpt lat="46.0102867" lon="11.8552491"><ele>297.0</ele><time>2026-04-26T10:28:19.537Z</time></trkpt><trkpt lat="46.0102251" lon="11.8551652"><ele>297.0</ele><time>2026-04-26T10:28:21.537Z</time></trkpt><trkpt lat="46.0101682" lon="11.8550857"><ele>297.0</ele><time>2026-04-26T10:28:23.538Z</time></trkpt><trkpt lat="46.010106" lon="11.8550017"><ele>297.0</ele><time>2026-04-26T10:28:25.539Z</time></trkpt><trkpt lat="46.0100393" lon="11.8549108"><ele>297.0</ele><time>2026-04-26T10:28:27.535Z</time></trkpt><trkpt lat="46.0099738" lon="11.8548131"><ele>297.0</ele><time>2026-04-26T10:28:29.538Z</time></trkpt><trkpt lat="46.0099115" lon="11.8547077"><ele>297.0</ele><time>2026-04-26T10:28:31.539Z</time></trkpt><trkpt lat="46.0098501" lon="11.8546022"><ele>297.0</ele><time>2026-04-26T10:28:33.538Z</time></trkpt><trkpt lat="46.0097887" lon="11.8544977"><ele>297.0</ele><time>2026-04-26T10:28:35.536Z</time></trkpt><trkpt lat="46.0097229" lon="11.8543965"><ele>297.0</ele><time>2026-04-26T10:28:37.536Z</time></trkpt><trkpt lat="46.0096569" lon="11.854295"><ele>297.2</ele><time>2026-04-26T10:28:39.539Z</time></trkpt><trkpt lat="46.0095864" lon="11.8541992"><ele>297.4</ele><time>2026-04-26T10:28:41.537Z</time></trkpt><trkpt lat="46.0095112" lon="11.8541048"><ele>297.6</ele><time>2026-04-26T10:28:43.534Z</time></trkpt><trkpt lat="46.0094369" lon="11.8540075"><ele>297.8</ele><time>2026-04-26T10:28:45.537Z</time></trkpt><trkpt lat="46.009362" lon="11.8539046"><ele>298.0</ele><time>2026-04-26T10:28:47.537Z</time></trkpt><trkpt lat="46.0092845" lon="11.8538069"><ele>298.0</ele><time>2026-04-26T10:28:49.537Z</time></trkpt><trkpt lat="46.0092085" lon="11.8537095"><ele>298.0</ele><time>2026-04-26T10:28:51.539Z</time></trkpt><trkpt lat="46.0091358" lon="11.8536106"><ele>298.0</ele><time>2026-04-26T10:28:53.537Z</time></trkpt><trkpt lat="46.0090658" lon="11.8535074"><ele>298.0</ele><time>2026-04-26T10:28:55.538Z</time></trkpt><trkpt lat="46.0089936" lon="11.8534055"><ele>298.0</ele><time>2026-04-26T10:28:57.538Z</time></trkpt><trkpt lat="46.0089207" lon="11.8533079"><ele>299.2</ele><time>2026-04-26T10:28:59.539Z</time></trkpt><trkpt lat="46.0088476" lon="11.8532099"><ele>300.4</ele><time>2026-04-26T10:29:01.537Z</time></trkpt><trkpt lat="46.0087772" lon="11.8531098"><ele>301.59999999999997</ele><time>2026-04-26T10:29:03.539Z</time></trkpt><trkpt lat="46.0087071" lon="11.8530103"><ele>302.8</ele><time>2026-04-26T10:29:05.538Z</time></trkpt><trkpt lat="46.0086374" lon="11.8529164"><ele>304.0</ele><time>2026-04-26T10:29:07.539Z</time></trkpt><trkpt lat="46.0085658" lon="11.8528246"><ele>304.0</ele><time>2026-04-26T10:29:09.537Z</time></trkpt><trkpt lat="46.0084885" lon="11.8527356"><ele>304.0</ele><time>2026-04-26T10:29:11.537Z</time></trkpt><trkpt lat="46.0084131" lon="11.852649"><ele>304.0</ele><time>2026-04-26T10:29:13.539Z</time></trkpt><trkpt lat="46.0083395" lon="11.8525539"><ele>304.0</ele><time>2026-04-26T10:29:15.537Z</time></trkpt><trkpt lat="46.0082695" lon="11.8524585"><ele>304.0</ele><time>2026-04-26T10:29:17.539Z</time></trkpt><trkpt lat="46.0081995" lon="11.8523608"><ele>304.2</ele><time>2026-04-26T10:29:19.537Z</time></trkpt><trkpt lat="46.0081296" lon="11.8522602"><ele>304.4</ele><time>2026-04-26T10:29:21.538Z</time></trkpt><trkpt lat="46.0080594" lon="11.8521597"><ele>304.6</ele><time>2026-04-26T10:29:23.537Z</time></trkpt><trkpt lat="46.0079948" lon="11.8520605"><ele>304.8</ele><time>2026-04-26T10:29:25.536Z</time></trkpt><trkpt lat="46.0079308" lon="11.8519614"><ele>305.0</ele><time>2026-04-26T10:29:27.537Z</time></trkpt><trkpt lat="46.0078688" lon="11.8518652"><ele>305.6</ele><time>2026-04-26T10:29:29.539Z</time></trkpt><trkpt lat="46.0078085" lon="11.8517637"><ele>306.2</ele><time>2026-04-26T10:29:31.537Z</time></trkpt><trkpt lat="46.007745" lon="11.8516651"><ele>306.8</ele><time>2026-04-26T10:29:33.538Z</time></trkpt><trkpt lat="46.0076824" lon="11.8515656"><ele>307.4</ele><time>2026-04-26T10:29:35.538Z</time></trkpt><trkpt lat="46.0076142" lon="11.8514641"><ele>308.0</ele><time>2026-04-26T10:29:37.538Z</time></trkpt><trkpt lat="46.0075456" lon="11.8513671"><ele>307.83333333333337</ele><time>2026-04-26T10:29:39.537Z</time></trkpt><trkpt lat="46.0074843" lon="11.8512793"><ele>307.6666666666667</ele><time>2026-04-26T10:29:41.537Z</time></trkpt><trkpt lat="46.0074203" lon="11.8511975"><ele>307.5</ele><time>2026-04-26T10:29:43.539Z</time></trkpt><trkpt lat="46.0073584" lon="11.851116"><ele>307.3333333333333</ele><time>2026-04-26T10:29:45.536Z</time></trkpt><trkpt lat="46.0072909" lon="11.8510346"><ele>307.16666666666663</ele><time>2026-04-26T10:29:47.539Z</time></trkpt><trkpt lat="46.0072214" lon="11.8509509"><ele>307.0</ele><time>2026-04-26T10:29:49.539Z</time></trkpt><trkpt lat="46.0071533" lon="11.8508652"><ele>307.0</ele><time>2026-04-26T10:29:51.539Z</time></trkpt><trkpt lat="46.0070799" lon="11.8507858"><ele>307.0</ele><time>2026-04-26T10:29:53.539Z</time></trkpt><trkpt lat="46.0070065" lon="11.850706"><ele>307.0</ele><time>2026-04-26T10:29:55.537Z</time></trkpt><trkpt lat="46.0069332" lon="11.8506266"><ele>307.0</ele><time>2026-04-26T10:29:57.539Z</time></trkpt><trkpt lat="46.006858" lon="11.8505507"><ele>307.0</ele><time>2026-04-26T10:29:59.536Z</time></trkpt><trkpt lat="46.0067876" lon="11.850482"><ele>307.0</ele><time>2026-04-26T10:30:01.54Z</time></trkpt><trkpt lat="46.0067076" lon="11.8504167"><ele>307.0</ele><time>2026-04-26T10:30:03.54Z</time></trkpt><trkpt lat="46.0066274" lon="11.8503489"><ele>307.0</ele><time>2026-04-26T10:30:05.54Z</time></trkpt><trkpt lat="46.0065416" lon="11.8502948"><ele>307.0</ele><time>2026-04-26T10:30:07.537Z</time></trkpt><trkpt lat="46.0064559" lon="11.8502397"><ele>307.0</ele><time>2026-04-26T10:30:09.539Z</time></trkpt><trkpt lat="46.0063676" lon="11.8501806"><ele>308.2</ele><time>2026-04-26T10:30:11.537Z</time></trkpt><trkpt lat="46.00628" lon="11.8501131"><ele>309.4</ele><time>2026-04-26T10:30:13.537Z</time></trkpt><trkpt lat="46.0061955" lon="11.8500397"><ele>310.6</ele><time>2026-04-26T10:30:15.539Z</time></trkpt><trkpt lat="46.0061199" lon="11.8499543"><ele>311.8</ele><time>2026-04-26T10:30:17.539Z</time></trkpt><trkpt lat="46.0060557" lon="11.8498577"><ele>313.0</ele><time>2026-04-26T10:30:19.537Z</time></trkpt><trkpt lat="46.0059975" lon="11.8497568"><ele>313.0</ele><time>2026-04-26T10:30:21.539Z</time></trkpt><trkpt lat="46.0059396" lon="11.8496568"><ele>313.0</ele><time>2026-04-26T10:30:23.537Z</time></trkpt><trkpt lat="46.0058779" lon="11.8495589"><ele>313.0</ele><time>2026-04-26T10:30:25.536Z</time></trkpt><trkpt lat="46.005816" lon="11.8494595"><ele>313.0</ele><time>2026-04-26T10:30:27.537Z</time></trkpt><trkpt lat="46.0057503" lon="11.8493643"><ele>313.0</ele><time>2026-04-26T10:30:29.538Z</time></trkpt><trkpt lat="46.0056893" lon="11.8492769"><ele>312.66666666666663</ele><time>2026-04-26T10:30:31.538Z</time></trkpt><trkpt lat="46.0056244" lon="11.8492126"><ele>312.3333333333333</ele><time>2026-04-26T10:30:33.537Z</time></trkpt><trkpt lat="46.0055569" lon="11.8491483"><ele>312.0</ele><time>2026-04-26T10:30:35.538Z</time></trkpt><trkpt lat="46.0054906" lon="11.8490778"><ele>311.6666666666667</ele><time>2026-04-26T10:30:37.54Z</time></trkpt><trkpt lat="46.0054348" lon="11.8489871"><ele>311.33333333333337</ele><time>2026-04-26T10:30:39.537Z</time></trkpt><trkpt lat="46.0053794" lon="11.8488816"><ele>311.0</ele><time>2026-04-26T10:30:41.537Z</time></trkpt><trkpt lat="46.0053254" lon="11.848773"><ele>311.0</ele><time>2026-04-26T10:30:43.538Z</time></trkpt><trkpt lat="46.0052721" lon="11.8486682"><ele>311.0</ele><time>2026-04-26T10:30:45.538Z</time></trkpt><trkpt lat="46.0052195" lon="11.8485618"><ele>311.0</ele><time>2026-04-26T10:30:47.537Z</time></trkpt><trkpt lat="46.0051652" lon="11.8484559"><ele>311.0</ele><time>2026-04-26T10:30:49.538Z</time></trkpt><trkpt lat="46.0051059" lon="11.8483538"><ele>311.0</ele><time>2026-04-26T10:30:51.537Z</time></trkpt><trkpt lat="46.0050483" lon="11.8482491"><ele>311.0</ele><time>2026-04-26T10:30:53.538Z</time></trkpt><trkpt lat="46.0049896" lon="11.8481383"><ele>311.0</ele><time>2026-04-26T10:30:55.538Z</time></trkpt><trkpt lat="46.0049324" lon="11.8480287"><ele>311.0</ele><time>2026-04-26T10:30:57.537Z</time></trkpt><trkpt lat="46.0048698" lon="11.8479219"><ele>311.0</ele><time>2026-04-26T10:30:59.539Z</time></trkpt><trkpt lat="46.0048069" lon="11.8478179"><ele>311.0</ele><time>2026-04-26T10:31:01.538Z</time></trkpt><trkpt lat="46.0047439" lon="11.8477075"><ele>311.6</ele><time>2026-04-26T10:31:03.539Z</time></trkpt><trkpt lat="46.0046794" lon="11.8475974"><ele>312.20000000000005</ele><time>2026-04-26T10:31:05.538Z</time></trkpt><trkpt lat="46.0046152" lon="11.8474845"><ele>312.79999999999995</ele><time>2026-04-26T10:31:07.537Z</time></trkpt><trkpt lat="46.0045531" lon="11.8473712"><ele>313.4</ele><time>2026-04-26T10:31:09.539Z</time></trkpt><trkpt lat="46.0044971" lon="11.8472526"><ele>314.0</ele><time>2026-04-26T10:31:11.539Z</time></trkpt><trkpt lat="46.0044387" lon="11.8471346"><ele>314.0</ele><time>2026-04-26T10:31:13.538Z</time></trkpt><trkpt lat="46.00438" lon="11.8470114"><ele>314.0</ele><time>2026-04-26T10:31:15.537Z</time></trkpt><trkpt lat="46.0043211" lon="11.8468891"><ele>314.0</ele><time>2026-04-26T10:31:17.535Z</time></trkpt><trkpt lat="46.0042663" lon="11.8467635"><ele>314.0</ele><time>2026-04-26T10:31:19.539Z</time></trkpt><trkpt lat="46.004213" lon="11.8466397"><ele>314.0</ele><time>2026-04-26T10:31:21.537Z</time></trkpt><trkpt lat="46.0041546" lon="11.8465209"><ele>314.0</ele><time>2026-04-26T10:31:23.539Z</time></trkpt><trkpt lat="46.0040978" lon="11.8464036"><ele>314.0</ele><time>2026-04-26T10:31:25.538Z</time></trkpt><trkpt lat="46.0040416" lon="11.8462853"><ele>314.0</ele><time>2026-04-26T10:31:27.538Z</time></trkpt><trkpt lat="46.0039854" lon="11.8461675"><ele>314.0</ele><time>2026-04-26T10:31:29.539Z</time></trkpt><trkpt lat="46.0039333" lon="11.8460541"><ele>314.0</ele><time>2026-04-26T10:31:31.539Z</time></trkpt><trkpt lat="46.0038813" lon="11.8459475"><ele>314.4</ele><time>2026-04-26T10:31:33.536Z</time></trkpt><trkpt lat="46.0038284" lon="11.8458395"><ele>314.79999999999995</ele><time>2026-04-26T10:31:35.538Z</time></trkpt><trkpt lat="46.0037755" lon="11.8457271"><ele>315.20000000000005</ele><time>2026-04-26T10:31:37.539Z</time></trkpt><trkpt lat="46.003725" lon="11.8456109"><ele>315.6</ele><time>2026-04-26T10:31:39.537Z</time></trkpt><trkpt lat="46.0036732" lon="11.8454947"><ele>316.0</ele><time>2026-04-26T10:31:41.539Z</time></trkpt><trkpt lat="46.0036196" lon="11.8453775"><ele>316.0</ele><time>2026-04-26T10:31:43.537Z</time></trkpt><trkpt lat="46.0035682" lon="11.8452558"><ele>316.0</ele><time>2026-04-26T10:31:45.537Z</time></trkpt><trkpt lat="46.0035164" lon="11.8451315"><ele>316.0</ele><time>2026-04-26T10:31:47.538Z</time></trkpt><trkpt lat="46.0034713" lon="11.8450047"><ele>316.0</ele><time>2026-04-26T10:31:49.539Z</time></trkpt><trkpt lat="46.0034302" lon="11.8448794"><ele>316.0</ele><time>2026-04-26T10:31:51.539Z</time></trkpt><trkpt lat="46.003389" lon="11.8447528"><ele>316.40000000000003</ele><time>2026-04-26T10:31:53.539Z</time></trkpt><trkpt lat="46.0033476" lon="11.8446264"><ele>316.8</ele><time>2026-04-26T10:31:55.537Z</time></trkpt><trkpt lat="46.0033056" lon="11.8444949"><ele>317.20000000000005</ele><time>2026-04-26T10:31:57.536Z</time></trkpt><trkpt lat="46.0032705" lon="11.8443588"><ele>317.6</ele><time>2026-04-26T10:31:59.539Z</time></trkpt><trkpt lat="46.003241" lon="11.8442283"><ele>318.0</ele><time>2026-04-26T10:32:01.539Z</time></trkpt><trkpt lat="46.0032161" lon="11.8441019"><ele>318.4</ele><time>2026-04-26T10:32:03.538Z</time></trkpt><trkpt lat="46.0031858" lon="11.8439696"><ele>318.8</ele><time>2026-04-26T10:32:05.539Z</time></trkpt><trkpt lat="46.0031591" lon="11.8438379"><ele>319.2</ele><time>2026-04-26T10:32:07.539Z</time></trkpt><trkpt lat="46.003139" lon="11.8436995"><ele>319.6</ele><time>2026-04-26T10:32:09.538Z</time></trkpt><trkpt lat="46.0031184" lon="11.8435622"><ele>320.0</ele><time>2026-04-26T10:32:11.539Z</time></trkpt><trkpt lat="46.003098" lon="11.8434224"><ele>320.4</ele><time>2026-04-26T10:32:13.54Z</time></trkpt><trkpt lat="46.0030829" lon="11.8432813"><ele>320.8</ele><time>2026-04-26T10:32:15.539Z</time></trkpt><trkpt lat="46.0030699" lon="11.8431432"><ele>321.20000000000005</ele><time>2026-04-26T10:32:17.538Z</time></trkpt><trkpt lat="46.0030573" lon="11.843008"><ele>321.6</ele><time>2026-04-26T10:32:19.537Z</time></trkpt><trkpt lat="46.0030453" lon="11.8428711"><ele>322.0</ele><time>2026-04-26T10:32:21.538Z</time></trkpt><trkpt lat="46.0030364" lon="11.8427385"><ele>322.20000000000005</ele><time>2026-04-26T10:32:23.537Z</time></trkpt><trkpt lat="46.0030292" lon="11.8426011"><ele>322.4</ele><time>2026-04-26T10:32:25.539Z</time></trkpt><trkpt lat="46.003023" lon="11.8424657"><ele>322.6</ele><time>2026-04-26T10:32:27.537Z</time></trkpt><trkpt lat="46.0030244" lon="11.8423246"><ele>322.79999999999995</ele><time>2026-04-26T10:32:29.539Z</time></trkpt><trkpt lat="46.0030312" lon="11.8421821"><ele>323.0</ele><time>2026-04-26T10:32:31.539Z</time></trkpt><trkpt lat="46.0030531" lon="11.8420444"><ele>323.0</ele><time>2026-04-26T10:32:33.538Z</time></trkpt><trkpt lat="46.0030797" lon="11.8419057"><ele>323.0</ele><time>2026-04-26T10:32:35.538Z</time></trkpt><trkpt lat="46.0030951" lon="11.8417601"><ele>323.0</ele><time>2026-04-26T10:32:37.539Z</time></trkpt><trkpt lat="46.0031253" lon="11.841626"><ele>323.0</ele><time>2026-04-26T10:32:39.538Z</time></trkpt><trkpt lat="46.0031617" lon="11.8414946"><ele>323.0</ele><time>2026-04-26T10:32:41.538Z</time></trkpt><trkpt lat="46.0032042" lon="11.8413581"><ele>323.0</ele><time>2026-04-26T10:32:43.537Z</time></trkpt><trkpt lat="46.0032443" lon="11.841218"><ele>323.0</ele><time>2026-04-26T10:32:45.537Z</time></trkpt><trkpt lat="46.0032845" lon="11.8410842"><ele>323.0</ele><time>2026-04-26T10:32:47.538Z</time></trkpt><trkpt lat="46.003324" lon="11.8409504"><ele>323.0</ele><time>2026-04-26T10:32:49.538Z</time></trkpt><trkpt lat="46.0033599" lon="11.8408208"><ele>323.0</ele><time>2026-04-26T10:32:51.537Z</time></trkpt><trkpt lat="46.0033964" lon="11.8407019"><ele>323.0</ele><time>2026-04-26T10:32:53.538Z</time></trkpt><trkpt lat="46.0034366" lon="11.8405767"><ele>323.0</ele><time>2026-04-26T10:32:55.538Z</time></trkpt><trkpt lat="46.0034797" lon="11.8404546"><ele>323.0</ele><time>2026-04-26T10:32:57.54Z</time></trkpt><trkpt lat="46.0035128" lon="11.8403275"><ele>323.0</ele><time>2026-04-26T10:32:59.54Z</time></trkpt><trkpt lat="46.0035446" lon="11.8401969"><ele>323.0</ele><time>2026-04-26T10:33:01.539Z</time></trkpt><trkpt lat="46.0035819" lon="11.8400702"><ele>322.79999999999995</ele><time>2026-04-26T10:33:03.539Z</time></trkpt><trkpt lat="46.0036166" lon="11.8399431"><ele>322.6</ele><time>2026-04-26T10:33:05.539Z</time></trkpt><trkpt lat="46.0036535" lon="11.8398133"><ele>322.4</ele><time>2026-04-26T10:33:07.539Z</time></trkpt><trkpt lat="46.0036887" lon="11.8396874"><ele>322.20000000000005</ele><time>2026-04-26T10:33:09.539Z</time></trkpt><trkpt lat="46.0037076" lon="11.8395584"><ele>322.0</ele><time>2026-04-26T10:33:11.54Z</time></trkpt><trkpt lat="46.0037219" lon="11.8394228"><ele>322.0</ele><time>2026-04-26T10:33:13.539Z</time></trkpt><trkpt lat="46.0037684" lon="11.8393157"><ele>322.0</ele><time>2026-04-26T10:33:15.539Z</time></trkpt><trkpt lat="46.0038362" lon="11.8392295"><ele>322.0</ele><time>2026-04-26T10:33:17.536Z</time></trkpt><trkpt lat="46.0038857" lon="11.8391201"><ele>322.0</ele><time>2026-04-26T10:33:19.539Z</time></trkpt><trkpt lat="46.0039214" lon="11.8389983"><ele>322.0</ele><time>2026-04-26T10:33:21.537Z</time></trkpt><trkpt lat="46.0039668" lon="11.8388804"><ele>322.40000000000003</ele><time>2026-04-26T10:33:23.537Z</time></trkpt><trkpt lat="46.0040093" lon="11.8387607"><ele>322.8</ele><time>2026-04-26T10:33:25.539Z</time></trkpt><trkpt lat="46.0040593" lon="11.8386345"><ele>323.2</ele><time>2026-04-26T10:33:27.537Z</time></trkpt><trkpt lat="46.0040993" lon="11.8385046"><ele>323.6</ele><time>2026-04-26T10:33:29.539Z</time></trkpt><trkpt lat="46.0041349" lon="11.8383678"><ele>324.0</ele><time>2026-04-26T10:33:31.54Z</time></trkpt><trkpt lat="46.00417" lon="11.8382314"><ele>324.0</ele><time>2026-04-26T10:33:33.539Z</time></trkpt><trkpt lat="46.0042063" lon="11.8380954"><ele>324.0</ele><time>2026-04-26T10:33:35.538Z</time></trkpt><trkpt lat="46.0042472" lon="11.8379615"><ele>324.0</ele><time>2026-04-26T10:33:37.539Z</time></trkpt><trkpt lat="46.0042906" lon="11.8378277"><ele>324.0</ele><time>2026-04-26T10:33:39.535Z</time></trkpt><trkpt lat="46.0043312" lon="11.8376911"><ele>324.0</ele><time>2026-04-26T10:33:41.537Z</time></trkpt><trkpt lat="46.0043694" lon="11.83755"><ele>323.2</ele><time>2026-04-26T10:33:43.537Z</time></trkpt><trkpt lat="46.004415" lon="11.8374085"><ele>322.4</ele><time>2026-04-26T10:33:45.539Z</time></trkpt><trkpt lat="46.0044694" lon="11.8372731"><ele>321.6</ele><time>2026-04-26T10:33:47.537Z</time></trkpt><trkpt lat="46.0045315" lon="11.837139"><ele>320.8</ele><time>2026-04-26T10:33:49.538Z</time></trkpt><trkpt lat="46.0046003" lon="11.8370084"><ele>320.0</ele><time>2026-04-26T10:33:51.537Z</time></trkpt><trkpt lat="46.0046789" lon="11.8368836"><ele>320.2</ele><time>2026-04-26T10:33:53.538Z</time></trkpt><trkpt lat="46.0047607" lon="11.8367655"><ele>320.4</ele><time>2026-04-26T10:33:55.537Z</time></trkpt><trkpt lat="46.0048423" lon="11.8366537"><ele>320.6</ele><time>2026-04-26T10:33:57.536Z</time></trkpt><trkpt lat="46.0049207" lon="11.836544"><ele>320.8</ele><time>2026-04-26T10:33:59.539Z</time></trkpt><trkpt lat="46.0049989" lon="11.8364374"><ele>321.0</ele><time>2026-04-26T10:34:01.539Z</time></trkpt><trkpt lat="46.0050781" lon="11.8363443"><ele>321.0</ele><time>2026-04-26T10:34:03.539Z</time></trkpt><trkpt lat="46.0051576" lon="11.8362485"><ele>321.0</ele><time>2026-04-26T10:34:05.536Z</time></trkpt><trkpt lat="46.0052326" lon="11.8361406"><ele>321.0</ele><time>2026-04-26T10:34:07.538Z</time></trkpt><trkpt lat="46.0053118" lon="11.8360394"><ele>321.0</ele><time>2026-04-26T10:34:09.537Z</time></trkpt><trkpt lat="46.0053903" lon="11.8359369"><ele>321.0</ele><time>2026-04-26T10:34:11.536Z</time></trkpt><trkpt lat="46.0054724" lon="11.8358375"><ele>321.8</ele><time>2026-04-26T10:34:13.539Z</time></trkpt><trkpt lat="46.0055509" lon="11.83573"><ele>322.6</ele><time>2026-04-26T10:34:15.539Z</time></trkpt><trkpt lat="46.0056282" lon="11.8356313"><ele>323.4</ele><time>2026-04-26T10:34:17.539Z</time></trkpt><trkpt lat="46.0057032" lon="11.8355328"><ele>324.2</ele><time>2026-04-26T10:34:19.539Z</time></trkpt><trkpt lat="46.0057765" lon="11.8354305"><ele>325.0</ele><time>2026-04-26T10:34:21.537Z</time></trkpt><trkpt lat="46.0058481" lon="11.8353192"><ele>325.0</ele><time>2026-04-26T10:34:23.538Z</time></trkpt><trkpt lat="46.005914" lon="11.8352006"><ele>325.0</ele><time>2026-04-26T10:34:25.537Z</time></trkpt><trkpt lat="46.0059833" lon="11.83508"><ele>325.0</ele><time>2026-04-26T10:34:27.539Z</time></trkpt><trkpt lat="46.0060513" lon="11.8349594"><ele>325.0</ele><time>2026-04-26T10:34:29.539Z</time></trkpt><trkpt lat="46.0061203" lon="11.8348389"><ele>325.0</ele><time>2026-04-26T10:34:31.537Z</time></trkpt><trkpt lat="46.0061933" lon="11.8347211"><ele>323.0</ele><time>2026-04-26T10:34:33.539Z</time></trkpt><trkpt lat="46.006267" lon="11.8346052"><ele>321.0</ele><time>2026-04-26T10:34:35.537Z</time></trkpt><trkpt lat="46.0063447" lon="11.8344983"><ele>319.0</ele><time>2026-04-26T10:34:37.538Z</time></trkpt><trkpt lat="46.0064245" lon="11.8343992"><ele>317.0</ele><time>2026-04-26T10:34:39.537Z</time></trkpt><trkpt lat="46.0065075" lon="11.8343046"><ele>315.0</ele><time>2026-04-26T10:34:41.538Z</time></trkpt><trkpt lat="46.0065866" lon="11.8342056"><ele>316.4</ele><time>2026-04-26T10:34:43.537Z</time></trkpt><trkpt lat="46.0066714" lon="11.8341043"><ele>317.8</ele><time>2026-04-26T10:34:45.538Z</time></trkpt><trkpt lat="46.0067616" lon="11.8340093"><ele>319.20000000000005</ele><time>2026-04-26T10:34:47.538Z</time></trkpt><trkpt lat="46.0068524" lon="11.8339158"><ele>320.6</ele><time>2026-04-26T10:34:49.538Z</time></trkpt><trkpt lat="46.0069463" lon="11.8338261"><ele>322.0</ele><time>2026-04-26T10:34:51.536Z</time></trkpt><trkpt lat="46.0070436" lon="11.8337419"><ele>322.0</ele><time>2026-04-26T10:34:53.539Z</time></trkpt><trkpt lat="46.0071341" lon="11.8336471"><ele>322.0</ele><time>2026-04-26T10:34:55.537Z</time></trkpt><trkpt lat="46.0072276" lon="11.8335568"><ele>322.0</ele><time>2026-04-26T10:34:57.537Z</time></trkpt><trkpt lat="46.0073225" lon="11.8334652"><ele>322.0</ele><time>2026-04-26T10:34:59.538Z</time></trkpt><trkpt lat="46.0074119" lon="11.8333621"><ele>320.5</ele><time>2026-04-26T10:35:01.538Z</time></trkpt><trkpt lat="46.0074955" lon="11.8332441"><ele>319.0</ele><time>2026-04-26T10:35:03.537Z</time></trkpt><trkpt lat="46.007576" lon="11.8331121"><ele>317.5</ele><time>2026-04-26T10:35:05.54Z</time></trkpt><trkpt lat="46.0076506" lon="11.8329729"><ele>316.0</ele><time>2026-04-26T10:35:07.538Z</time></trkpt><trkpt lat="46.0077253" lon="11.8328369"><ele>316.0</ele><time>2026-04-26T10:35:09.539Z</time></trkpt><trkpt lat="46.0077951" lon="11.8326996"><ele>316.0</ele><time>2026-04-26T10:35:11.54Z</time></trkpt><trkpt lat="46.0078521" lon="11.832586"><ele>316.0</ele><time>2026-04-26T10:35:13.538Z</time></trkpt><trkpt lat="46.0078895" lon="11.8325093"><ele>316.0</ele><time>2026-04-26T10:35:15.537Z</time></trkpt><trkpt lat="46.0079304" lon="11.8324185"><ele>316.0</ele><time>2026-04-26T10:35:18.537Z</time></trkpt><trkpt lat="46.007957" lon="11.8323295"><ele>316.0</ele><time>2026-04-26T10:35:20.54Z</time></trkpt><trkpt lat="46.0079921" lon="11.8322225"><ele>315.2</ele><time>2026-04-26T10:35:22.538Z</time></trkpt><trkpt lat="46.0080475" lon="11.8321071"><ele>314.40000000000003</ele><time>2026-04-26T10:35:24.538Z</time></trkpt><trkpt lat="46.0081175" lon="11.8320044"><ele>313.6</ele><time>2026-04-26T10:35:26.539Z</time></trkpt><trkpt lat="46.0082112" lon="11.8319252"><ele>312.8</ele><time>2026-04-26T10:35:28.538Z</time></trkpt><trkpt lat="46.0083171" lon="11.8318679"><ele>312.0</ele><time>2026-04-26T10:35:30.539Z</time></trkpt><trkpt lat="46.0084172" lon="11.8317996"><ele>311.8</ele><time>2026-04-26T10:35:32.539Z</time></trkpt><trkpt lat="46.0085146" lon="11.831732"><ele>311.6</ele><time>2026-04-26T10:35:34.537Z</time></trkpt><trkpt lat="46.008603" lon="11.8316513"><ele>311.40000000000003</ele><time>2026-04-26T10:35:36.535Z</time></trkpt><trkpt lat="46.008693" lon="11.8315615"><ele>311.2</ele><time>2026-04-26T10:35:38.539Z</time></trkpt><trkpt lat="46.0087891" lon="11.8314775"><ele>311.0</ele><time>2026-04-26T10:35:40.538Z</time></trkpt><trkpt lat="46.0088863" lon="11.8313875"><ele>311.0</ele><time>2026-04-26T10:35:42.538Z</time></trkpt><trkpt lat="46.0089786" lon="11.8312989"><ele>311.0</ele><time>2026-04-26T10:35:44.539Z</time></trkpt><trkpt lat="46.0090667" lon="11.8312103"><ele>311.0</ele><time>2026-04-26T10:35:46.539Z</time></trkpt><trkpt lat="46.0091568" lon="11.8311217"><ele>311.0</ele><time>2026-04-26T10:35:48.537Z</time></trkpt><trkpt lat="46.0092458" lon="11.831038"><ele>311.0</ele><time>2026-04-26T10:35:50.538Z</time></trkpt><trkpt lat="46.0093313" lon="11.8309439"><ele>311.0</ele><time>2026-04-26T10:35:52.539Z</time></trkpt><trkpt lat="46.0094064" lon="11.8308372"><ele>311.0</ele><time>2026-04-26T10:35:54.537Z</time></trkpt><trkpt lat="46.0094737" lon="11.8307158"><ele>311.0</ele><time>2026-04-26T10:35:56.537Z</time></trkpt><trkpt lat="46.0095343" lon="11.830587"><ele>311.0</ele><time>2026-04-26T10:35:58.539Z</time></trkpt><trkpt lat="46.0095914" lon="11.8304633"><ele>311.0</ele><time>2026-04-26T10:36:00.539Z</time></trkpt><trkpt lat="46.0096441" lon="11.830333"><ele>311.0</ele><time>2026-04-26T10:36:02.539Z</time></trkpt><trkpt lat="46.009693" lon="11.8301945"><ele>311.0</ele><time>2026-04-26T10:36:04.54Z</time></trkpt><trkpt lat="46.0097373" lon="11.8300472"><ele>311.0</ele><time>2026-04-26T10:36:06.539Z</time></trkpt><trkpt lat="46.0097742" lon="11.8298994"><ele>311.0</ele><time>2026-04-26T10:36:08.539Z</time></trkpt><trkpt lat="46.0098053" lon="11.8297484"><ele>311.0</ele><time>2026-04-26T10:36:10.538Z</time></trkpt><trkpt lat="46.0098232" lon="11.829593"><ele>310.8</ele><time>2026-04-26T10:36:12.539Z</time></trkpt><trkpt lat="46.0098305" lon="11.8294392"><ele>310.6</ele><time>2026-04-26T10:36:14.539Z</time></trkpt><trkpt lat="46.0098365" lon="11.8292856"><ele>310.4</ele><time>2026-04-26T10:36:16.539Z</time></trkpt><trkpt lat="46.0098417" lon="11.8291312"><ele>310.2</ele><time>2026-04-26T10:36:18.539Z</time></trkpt><trkpt lat="46.0098435" lon="11.828976"><ele>310.0</ele><time>2026-04-26T10:36:20.539Z</time></trkpt><trkpt lat="46.0098451" lon="11.8288167"><ele>309.4</ele><time>2026-04-26T10:36:22.539Z</time></trkpt><trkpt lat="46.0098431" lon="11.8286564"><ele>308.8</ele><time>2026-04-26T10:36:24.539Z</time></trkpt><trkpt lat="46.0098416" lon="11.8284905"><ele>308.2</ele><time>2026-04-26T10:36:26.539Z</time></trkpt><trkpt lat="46.0098452" lon="11.8283338"><ele>307.6</ele><time>2026-04-26T10:36:28.536Z</time></trkpt><trkpt lat="46.0098624" lon="11.8281731"><ele>307.0</ele><time>2026-04-26T10:36:30.538Z</time></trkpt><trkpt lat="46.0098955" lon="11.8280191"><ele>307.0</ele><time>2026-04-26T10:36:32.537Z</time></trkpt><trkpt lat="46.0099253" lon="11.8278755"><ele>307.0</ele><time>2026-04-26T10:36:34.539Z</time></trkpt><trkpt lat="46.0099554" lon="11.827732"><ele>307.0</ele><time>2026-04-26T10:36:36.539Z</time></trkpt><trkpt lat="46.0099843" lon="11.8275876"><ele>307.0</ele><time>2026-04-26T10:36:38.539Z</time></trkpt><trkpt lat="46.0100119" lon="11.8274401"><ele>307.0</ele><time>2026-04-26T10:36:40.539Z</time></trkpt><trkpt lat="46.0100366" lon="11.8272986"><ele>308.0</ele><time>2026-04-26T10:36:42.539Z</time></trkpt><trkpt lat="46.0100596" lon="11.8271675"><ele>309.0</ele><time>2026-04-26T10:36:44.539Z</time></trkpt><trkpt lat="46.0100888" lon="11.8270458"><ele>310.0</ele><time>2026-04-26T10:36:46.539Z</time></trkpt><trkpt lat="46.0101176" lon="11.8269287"><ele>311.0</ele><time>2026-04-26T10:36:48.537Z</time></trkpt><trkpt lat="46.0101486" lon="11.8268104"><ele>312.0</ele><time>2026-04-26T10:36:50.54Z</time></trkpt><trkpt lat="46.010182" lon="11.8267004"><ele>313.0</ele><time>2026-04-26T10:36:52.537Z</time></trkpt><trkpt lat="46.0102175" lon="11.826595"><ele>313.0</ele><time>2026-04-26T10:36:54.534Z</time></trkpt><trkpt lat="46.0102593" lon="11.8264927"><ele>313.0</ele><time>2026-04-26T10:36:56.54Z</time></trkpt><trkpt lat="46.010311" lon="11.8263969"><ele>313.0</ele><time>2026-04-26T10:36:58.538Z</time></trkpt><trkpt lat="46.0103753" lon="11.8263097"><ele>313.0</ele><time>2026-04-26T10:37:00.537Z</time></trkpt><trkpt lat="46.0104483" lon="11.8262211"><ele>313.0</ele><time>2026-04-26T10:37:02.536Z</time></trkpt><trkpt lat="46.0105249" lon="11.8261282"><ele>313.0</ele><time>2026-04-26T10:37:04.54Z</time></trkpt><trkpt lat="46.0106002" lon="11.8260324"><ele>313.0</ele><time>2026-04-26T10:37:06.539Z</time></trkpt><trkpt lat="46.0106754" lon="11.8259408"><ele>313.0</ele><time>2026-04-26T10:37:08.539Z</time></trkpt><trkpt lat="46.0107489" lon="11.8258499"><ele>313.0</ele><time>2026-04-26T10:37:10.536Z</time></trkpt><trkpt lat="46.0108179" lon="11.8257592"><ele>313.0</ele><time>2026-04-26T10:37:12.541Z</time></trkpt><trkpt lat="46.0108738" lon="11.8256611"><ele>313.7142857142857</ele><time>2026-04-26T10:37:14.541Z</time></trkpt><trkpt lat="46.0109182" lon="11.8255628"><ele>314.42857142857144</ele><time>2026-04-26T10:37:16.537Z</time></trkpt><trkpt lat="46.0109508" lon="11.8254727"><ele>315.1428571428571</ele><time>2026-04-26T10:37:18.536Z</time></trkpt><trkpt lat="46.0109793" lon="11.8253884"><ele>315.8571428571429</ele><time>2026-04-26T10:37:20.538Z</time></trkpt><trkpt lat="46.011006" lon="11.8253012"><ele>316.5714285714286</ele><time>2026-04-26T10:37:22.539Z</time></trkpt><trkpt lat="46.0110299" lon="11.8251969"><ele>317.2857142857143</ele><time>2026-04-26T10:37:24.539Z</time></trkpt><trkpt lat="46.01105" lon="11.8250717"><ele>318.0</ele><time>2026-04-26T10:37:26.539Z</time></trkpt><trkpt lat="46.0110601" lon="11.8249456"><ele>318.0</ele><time>2026-04-26T10:37:28.538Z</time></trkpt><trkpt lat="46.0110697" lon="11.8248241"><ele>318.0</ele><time>2026-04-26T10:37:30.538Z</time></trkpt><trkpt lat="46.0110739" lon="11.8246992"><ele>318.0</ele><time>2026-04-26T10:37:32.539Z</time></trkpt><trkpt lat="46.0110708" lon="11.8245793"><ele>318.0</ele><time>2026-04-26T10:37:34.539Z</time></trkpt><trkpt lat="46.0110688" lon="11.8244715"><ele>318.0</ele><time>2026-04-26T10:37:36.538Z</time></trkpt><trkpt lat="46.0110754" lon="11.8243589"><ele>318.0</ele><time>2026-04-26T10:37:38.539Z</time></trkpt><trkpt lat="46.0110814" lon="11.8242359"><ele>318.5</ele><time>2026-04-26T10:37:40.538Z</time></trkpt><trkpt lat="46.0110855" lon="11.8241061"><ele>319.0</ele><time>2026-04-26T10:37:42.539Z</time></trkpt><trkpt lat="46.0110908" lon="11.8239803"><ele>319.5</ele><time>2026-04-26T10:37:44.539Z</time></trkpt><trkpt lat="46.011091" lon="11.8238651"><ele>320.0</ele><time>2026-04-26T10:37:46.538Z</time></trkpt><trkpt lat="46.0110922" lon="11.823749"><ele>320.5</ele><time>2026-04-26T10:37:48.538Z</time></trkpt><trkpt lat="46.0111025" lon="11.8236376"><ele>321.0</ele><time>2026-04-26T10:37:50.538Z</time></trkpt><trkpt lat="46.0111164" lon="11.8235254"><ele>321.1666666666667</ele><time>2026-04-26T10:37:52.538Z</time></trkpt><trkpt lat="46.0111447" lon="11.8234232"><ele>321.3333333333333</ele><time>2026-04-26T10:37:54.539Z</time></trkpt><trkpt lat="46.0112041" lon="11.823333"><ele>321.5</ele><time>2026-04-26T10:37:56.539Z</time></trkpt><trkpt lat="46.0112686" lon="11.8232582"><ele>321.66666666666663</ele><time>2026-04-26T10:37:58.537Z</time></trkpt><trkpt lat="46.0113436" lon="11.8232216"><ele>321.8333333333333</ele><time>2026-04-26T10:38:00.538Z</time></trkpt><trkpt lat="46.0114293" lon="11.8232001"><ele>322.0</ele><time>2026-04-26T10:38:02.538Z</time></trkpt><trkpt lat="46.0115173" lon="11.8231698"><ele>322.0</ele><time>2026-04-26T10:38:04.538Z</time></trkpt><trkpt lat="46.0116079" lon="11.8231328"><ele>322.0</ele><time>2026-04-26T10:38:06.539Z</time></trkpt><trkpt lat="46.0116958" lon="11.8230795"><ele>322.0</ele><time>2026-04-26T10:38:08.539Z</time></trkpt><trkpt lat="46.011767" lon="11.8229995"><ele>322.0</ele><time>2026-04-26T10:38:10.538Z</time></trkpt><trkpt lat="46.0118204" lon="11.8228898"><ele>322.0</ele><time>2026-04-26T10:38:12.537Z</time></trkpt><trkpt lat="46.0118584" lon="11.8227661"><ele>322.6</ele><time>2026-04-26T10:38:14.539Z</time></trkpt><trkpt lat="46.0118958" lon="11.822637"><ele>323.20000000000005</ele><time>2026-04-26T10:38:16.538Z</time></trkpt><trkpt lat="46.011928" lon="11.8225121"><ele>323.8</ele><time>2026-04-26T10:38:18.539Z</time></trkpt><trkpt lat="46.0119607" lon="11.8223968"><ele>324.4</ele><time>2026-04-26T10:38:20.539Z</time></trkpt><trkpt lat="46.0119946" lon="11.8222799"><ele>325.0</ele><time>2026-04-26T10:38:22.539Z</time></trkpt><trkpt lat="46.0120252" lon="11.82216"><ele>325.0</ele><time>2026-04-26T10:38:24.537Z</time></trkpt><trkpt lat="46.0120567" lon="11.8220424"><ele>325.0</ele><time>2026-04-26T10:38:26.537Z</time></trkpt><trkpt lat="46.0120935" lon="11.8219232"><ele>325.0</ele><time>2026-04-26T10:38:28.538Z</time></trkpt><trkpt lat="46.0121283" lon="11.8218021"><ele>325.0</ele><time>2026-04-26T10:38:30.538Z</time></trkpt><trkpt lat="46.0121664" lon="11.8216828"><ele>325.0</ele><time>2026-04-26T10:38:32.538Z</time></trkpt><trkpt lat="46.0122172" lon="11.8215736"><ele>325.3333333333333</ele><time>2026-04-26T10:38:34.537Z</time></trkpt><trkpt lat="46.0122694" lon="11.8214618"><ele>325.66666666666663</ele><time>2026-04-26T10:38:36.537Z</time></trkpt><trkpt lat="46.0123159" lon="11.8213678"><ele>326.0</ele><time>2026-04-26T10:38:38.538Z</time></trkpt><trkpt lat="46.0123511" lon="11.8212852"><ele>326.3333333333333</ele><time>2026-04-26T10:38:40.539Z</time></trkpt><trkpt lat="46.012403" lon="11.82118"><ele>326.6666666666667</ele><time>2026-04-26T10:38:43.538Z</time></trkpt><trkpt lat="46.0124493" lon="11.8211104"><ele>327.0</ele><time>2026-04-26T10:38:45.539Z</time></trkpt><trkpt lat="46.012499" lon="11.8210343"><ele>328.5</ele><time>2026-04-26T10:38:47.539Z</time></trkpt><trkpt lat="46.01255" lon="11.8209555"><ele>330.0</ele><time>2026-04-26T10:38:49.539Z</time></trkpt><trkpt lat="46.0126079" lon="11.8208786"><ele>331.5</ele><time>2026-04-26T10:38:51.539Z</time></trkpt><trkpt lat="46.0126718" lon="11.8207916"><ele>333.0</ele><time>2026-04-26T10:38:53.537Z</time></trkpt><trkpt lat="46.0127352" lon="11.8206967"><ele>334.5</ele><time>2026-04-26T10:38:55.538Z</time></trkpt><trkpt lat="46.0127934" lon="11.8205945"><ele>336.0</ele><time>2026-04-26T10:38:57.538Z</time></trkpt><trkpt lat="46.0128508" lon="11.8204874"><ele>336.0</ele><time>2026-04-26T10:38:59.539Z</time></trkpt><trkpt lat="46.0129024" lon="11.8203766"><ele>336.0</ele><time>2026-04-26T10:39:01.54Z</time></trkpt><trkpt lat="46.012952" lon="11.8202618"><ele>336.0</ele><time>2026-04-26T10:39:03.539Z</time></trkpt><trkpt lat="46.0129987" lon="11.8201444"><ele>336.0</ele><time>2026-04-26T10:39:05.539Z</time></trkpt><trkpt lat="46.0130343" lon="11.8200207"><ele>336.0</ele><time>2026-04-26T10:39:07.539Z</time></trkpt><trkpt lat="46.0130689" lon="11.8198964"><ele>334.4</ele><time>2026-04-26T10:39:09.54Z</time></trkpt><trkpt lat="46.0130952" lon="11.8197614"><ele>332.8</ele><time>2026-04-26T10:39:11.538Z</time></trkpt><trkpt lat="46.0131083" lon="11.819614"><ele>331.2</ele><time>2026-04-26T10:39:13.538Z</time></trkpt><trkpt lat="46.01312" lon="11.819465"><ele>329.59999999999997</ele><time>2026-04-26T10:39:15.539Z</time></trkpt><trkpt lat="46.013133" lon="11.8193192"><ele>328.0</ele><time>2026-04-26T10:39:17.538Z</time></trkpt><trkpt lat="46.0131555" lon="11.8191776"><ele>327.79999999999995</ele><time>2026-04-26T10:39:19.537Z</time></trkpt><trkpt lat="46.0131918" lon="11.8190412"><ele>327.6</ele><time>2026-04-26T10:39:21.536Z</time></trkpt><trkpt lat="46.0132352" lon="11.8189128"><ele>327.4</ele><time>2026-04-26T10:39:23.539Z</time></trkpt><trkpt lat="46.013285" lon="11.8187902"><ele>327.20000000000005</ele><time>2026-04-26T10:39:25.538Z</time></trkpt><trkpt lat="46.0133365" lon="11.818665"><ele>327.0</ele><time>2026-04-26T10:39:27.538Z</time></trkpt><trkpt lat="46.0133787" lon="11.8185369"><ele>329.40000000000003</ele><time>2026-04-26T10:39:29.538Z</time></trkpt><trkpt lat="46.0134169" lon="11.8183981"><ele>331.8</ele><time>2026-04-26T10:39:31.538Z</time></trkpt><trkpt lat="46.0134494" lon="11.8182553"><ele>334.2</ele><time>2026-04-26T10:39:33.539Z</time></trkpt><trkpt lat="46.01349" lon="11.8181164"><ele>336.6</ele><time>2026-04-26T10:39:35.537Z</time></trkpt><trkpt lat="46.0135322" lon="11.8179692"><ele>339.0</ele><time>2026-04-26T10:39:37.539Z</time></trkpt><trkpt lat="46.0135738" lon="11.8178152"><ele>339.0</ele><time>2026-04-26T10:39:39.539Z</time></trkpt><trkpt lat="46.0136099" lon="11.8176587"><ele>339.0</ele><time>2026-04-26T10:39:41.539Z</time></trkpt><trkpt lat="46.0136431" lon="11.817501"><ele>339.0</ele><time>2026-04-26T10:39:43.539Z</time></trkpt><trkpt lat="46.0136818" lon="11.8173398"><ele>339.0</ele><time>2026-04-26T10:39:45.538Z</time></trkpt><trkpt lat="46.013723" lon="11.8171726"><ele>338.4285714285714</ele><time>2026-04-26T10:39:47.538Z</time></trkpt><trkpt lat="46.0137443" lon="11.8170867"><ele>337.8571428571429</ele><time>2026-04-26T10:39:48.538Z</time></trkpt><trkpt lat="46.0137654" lon="11.8169997"><ele>337.2857142857143</ele><time>2026-04-26T10:39:49.538Z</time></trkpt><trkpt lat="46.0137871" lon="11.8169118"><ele>336.71428571428567</ele><time>2026-04-26T10:39:50.539Z</time></trkpt><trkpt lat="46.0138053" lon="11.8168211"><ele>336.1428571428571</ele><time>2026-04-26T10:39:51.539Z</time></trkpt><trkpt lat="46.0138268" lon="11.8167298"><ele>335.57142857142856</ele><time>2026-04-26T10:39:52.539Z</time></trkpt><trkpt lat="46.0138482" lon="11.8166377"><ele>335.0</ele><time>2026-04-26T10:39:53.536Z</time></trkpt><trkpt lat="46.0138635" lon="11.816544"><ele>333.85714285714283</ele><time>2026-04-26T10:39:54.537Z</time></trkpt><trkpt lat="46.0138711" lon="11.8164466"><ele>332.7142857142857</ele><time>2026-04-26T10:39:55.536Z</time></trkpt><trkpt lat="46.0138791" lon="11.8163484"><ele>331.57142857142856</ele><time>2026-04-26T10:39:56.539Z</time></trkpt><trkpt lat="46.0138815" lon="11.816242"><ele>330.42857142857144</ele><time>2026-04-26T10:39:57.537Z</time></trkpt><trkpt lat="46.0138893" lon="11.816134"><ele>329.2857142857143</ele><time>2026-04-26T10:39:58.537Z</time></trkpt><trkpt lat="46.013909" lon="11.816028"><ele>328.1428571428571</ele><time>2026-04-26T10:39:59.54Z</time></trkpt><trkpt lat="46.0139407" lon="11.8159281"><ele>327.0</ele><time>2026-04-26T10:40:00.538Z</time></trkpt><trkpt lat="46.0139794" lon="11.8158292"><ele>326.1428571428571</ele><time>2026-04-26T10:40:01.54Z</time></trkpt><trkpt lat="46.0140215" lon="11.815737"><ele>325.2857142857143</ele><time>2026-04-26T10:40:02.536Z</time></trkpt><trkpt lat="46.0140625" lon="11.8156457"><ele>324.42857142857144</ele><time>2026-04-26T10:40:03.537Z</time></trkpt><trkpt lat="46.0140979" lon="11.815553"><ele>323.57142857142856</ele><time>2026-04-26T10:40:04.538Z</time></trkpt><trkpt lat="46.0141279" lon="11.8154601"><ele>322.7142857142857</ele><time>2026-04-26T10:40:05.539Z</time></trkpt><trkpt lat="46.014153" lon="11.8153679"><ele>321.85714285714283</ele><time>2026-04-26T10:40:06.539Z</time></trkpt><trkpt lat="46.0141741" lon="11.8152771"><ele>321.0</ele><time>2026-04-26T10:40:07.538Z</time></trkpt><trkpt lat="46.0141936" lon="11.8151866"><ele>322.4</ele><time>2026-04-26T10:40:08.54Z</time></trkpt><trkpt lat="46.0142113" lon="11.8150995"><ele>323.8</ele><time>2026-04-26T10:40:09.538Z</time></trkpt><trkpt lat="46.0142536" lon="11.814932"><ele>325.2</ele><time>2026-04-26T10:40:11.539Z</time></trkpt><trkpt lat="46.0143157" lon="11.8147863"><ele>326.59999999999997</ele><time>2026-04-26T10:40:13.539Z</time></trkpt><trkpt lat="46.0143792" lon="11.8146493"><ele>328.0</ele><time>2026-04-26T10:40:15.539Z</time></trkpt><trkpt lat="46.0144426" lon="11.8145122"><ele>328.0</ele><time>2026-04-26T10:40:17.539Z</time></trkpt><trkpt lat="46.0145127" lon="11.8143872"><ele>328.0</ele><time>2026-04-26T10:40:19.539Z</time></trkpt><trkpt lat="46.0145829" lon="11.8142713"><ele>328.0</ele><time>2026-04-26T10:40:21.538Z</time></trkpt><trkpt lat="46.0146528" lon="11.8141528"><ele>328.0</ele><time>2026-04-26T10:40:23.538Z</time></trkpt><trkpt lat="46.0147113" lon="11.8140213"><ele>328.0</ele><time>2026-04-26T10:40:25.539Z</time></trkpt><trkpt lat="46.0147517" lon="11.8138753"><ele>327.79999999999995</ele><time>2026-04-26T10:40:27.539Z</time></trkpt><trkpt lat="46.0147644" lon="11.8137187"><ele>327.6</ele><time>2026-04-26T10:40:29.538Z</time></trkpt><trkpt lat="46.0147671" lon="11.8135642"><ele>327.4</ele><time>2026-04-26T10:40:31.534Z</time></trkpt><trkpt lat="46.0147621" lon="11.8134136"><ele>327.20000000000005</ele><time>2026-04-26T10:40:33.538Z</time></trkpt><trkpt lat="46.0147503" lon="11.8132621"><ele>327.0</ele><time>2026-04-26T10:40:35.54Z</time></trkpt><trkpt lat="46.0147447" lon="11.813112"><ele>326.5</ele><time>2026-04-26T10:40:37.54Z</time></trkpt><trkpt lat="46.014752" lon="11.8129538"><ele>326.0</ele><time>2026-04-26T10:40:39.54Z</time></trkpt><trkpt lat="46.0147656" lon="11.8127871"><ele>325.5</ele><time>2026-04-26T10:40:41.541Z</time></trkpt><trkpt lat="46.0147816" lon="11.8126106"><ele>325.0</ele><time>2026-04-26T10:40:43.537Z</time></trkpt><trkpt lat="46.0148079" lon="11.8124326"><ele>325.0</ele><time>2026-04-26T10:40:45.541Z</time></trkpt><trkpt lat="46.0148209" lon="11.8123432"><ele>325.0</ele><time>2026-04-26T10:40:46.54Z</time></trkpt><trkpt lat="46.0148337" lon="11.8122526"><ele>325.0</ele><time>2026-04-26T10:40:47.54Z</time></trkpt><trkpt lat="46.0148473" lon="11.8121614"><ele>325.0</ele><time>2026-04-26T10:40:48.541Z</time></trkpt><trkpt lat="46.0148585" lon="11.8120685"><ele>325.0</ele><time>2026-04-26T10:40:49.541Z</time></trkpt><trkpt lat="46.0148716" lon="11.8119748"><ele>325.0</ele><time>2026-04-26T10:40:50.541Z</time></trkpt><trkpt lat="46.0148856" lon="11.8118796"><ele>325.0</ele><time>2026-04-26T10:40:51.54Z</time></trkpt><trkpt lat="46.0149023" lon="11.8117861"><ele>324.57142857142856</ele><time>2026-04-26T10:40:52.537Z</time></trkpt><trkpt lat="46.0149162" lon="11.8116899"><ele>324.14285714285717</ele><time>2026-04-26T10:40:53.54Z</time></trkpt><trkpt lat="46.0149269" lon="11.8115902"><ele>323.7142857142857</ele><time>2026-04-26T10:40:54.536Z</time></trkpt><trkpt lat="46.0149374" lon="11.8114894"><ele>323.2857142857143</ele><time>2026-04-26T10:40:55.538Z</time></trkpt><trkpt lat="46.0149479" lon="11.8113907"><ele>322.8571428571429</ele><time>2026-04-26T10:40:56.539Z</time></trkpt><trkpt lat="46.0149554" lon="11.8112883"><ele>322.42857142857144</ele><time>2026-04-26T10:40:57.539Z</time></trkpt><trkpt lat="46.0149597" lon="11.8111864"><ele>322.0</ele><time>2026-04-26T10:40:58.54Z</time></trkpt><trkpt lat="46.0149597" lon="11.8110862"><ele>322.2857142857143</ele><time>2026-04-26T10:40:59.538Z</time></trkpt><trkpt lat="46.0149538" lon="11.8109864"><ele>322.57142857142856</ele><time>2026-04-26T10:41:00.539Z</time></trkpt><trkpt lat="46.014945" lon="11.8108871"><ele>322.8571428571429</ele><time>2026-04-26T10:41:01.539Z</time></trkpt><trkpt lat="46.0149367" lon="11.8107873"><ele>323.1428571428571</ele><time>2026-04-26T10:41:02.539Z</time></trkpt><trkpt lat="46.0149302" lon="11.8106887"><ele>323.42857142857144</ele><time>2026-04-26T10:41:03.54Z</time></trkpt><trkpt lat="46.0149271" lon="11.8105893"><ele>323.7142857142857</ele><time>2026-04-26T10:41:04.538Z</time></trkpt><trkpt lat="46.014926" lon="11.8104899"><ele>324.0</ele><time>2026-04-26T10:41:05.54Z</time></trkpt><trkpt lat="46.0149285" lon="11.8103919"><ele>324.0</ele><time>2026-04-26T10:41:06.539Z</time></trkpt><trkpt lat="46.0149303" lon="11.8102934"><ele>324.0</ele><time>2026-04-26T10:41:07.54Z</time></trkpt><trkpt lat="46.0149365" lon="11.8101955"><ele>324.0</ele><time>2026-04-26T10:41:08.538Z</time></trkpt><trkpt lat="46.0149472" lon="11.8100979"><ele>324.0</ele><time>2026-04-26T10:41:09.54Z</time></trkpt><trkpt lat="46.014963" lon="11.8100017"><ele>324.0</ele><time>2026-04-26T10:41:10.537Z</time></trkpt><trkpt lat="46.0149881" lon="11.8099101"><ele>324.0</ele><time>2026-04-26T10:41:11.539Z</time></trkpt><trkpt lat="46.0150219" lon="11.8098259"><ele>324.0</ele><time>2026-04-26T10:41:12.539Z</time></trkpt><trkpt lat="46.0150585" lon="11.809747"><ele>324.0</ele><time>2026-04-26T10:41:13.54Z</time></trkpt><trkpt lat="46.0151001" lon="11.8096756"><ele>324.0</ele><time>2026-04-26T10:41:14.54Z</time></trkpt><trkpt lat="46.015145" lon="11.8096086"><ele>324.0</ele><time>2026-04-26T10:41:15.539Z</time></trkpt><trkpt lat="46.0152257" lon="11.8094693"><ele>324.0</ele><time>2026-04-26T10:41:17.539Z</time></trkpt><trkpt lat="46.0152581" lon="11.8093891"><ele>324.0</ele><time>2026-04-26T10:41:18.536Z</time></trkpt><trkpt lat="46.0153098" lon="11.8092255"><ele>324.0</ele><time>2026-04-26T10:41:20.54Z</time></trkpt><trkpt lat="46.0153505" lon="11.8090568"><ele>323.8333333333333</ele><time>2026-04-26T10:41:22.539Z</time></trkpt><trkpt lat="46.0153859" lon="11.8088846"><ele>323.6666666666667</ele><time>2026-04-26T10:41:24.54Z</time></trkpt><trkpt lat="46.0154013" lon="11.8087952"><ele>323.5</ele><time>2026-04-26T10:41:25.539Z</time></trkpt><trkpt lat="46.0154217" lon="11.8086174"><ele>323.33333333333337</ele><time>2026-04-26T10:41:27.537Z</time></trkpt><trkpt lat="46.0154369" lon="11.8085288"><ele>323.1666666666667</ele><time>2026-04-26T10:41:28.538Z</time></trkpt><trkpt lat="46.015451" lon="11.80844"><ele>323.0</ele><time>2026-04-26T10:41:29.537Z</time></trkpt><trkpt lat="46.015478" lon="11.8082617"><ele>322.83333333333337</ele><time>2026-04-26T10:41:31.539Z</time></trkpt><trkpt lat="46.0154859" lon="11.8081716"><ele>322.6666666666667</ele><time>2026-04-26T10:41:32.539Z</time></trkpt><trkpt lat="46.0154893" lon="11.8080778"><ele>322.5</ele><time>2026-04-26T10:41:33.537Z</time></trkpt><trkpt lat="46.0154965" lon="11.8079872"><ele>322.3333333333333</ele><time>2026-04-26T10:41:34.537Z</time></trkpt><trkpt lat="46.0155082" lon="11.8078055"><ele>322.16666666666663</ele><time>2026-04-26T10:41:36.539Z</time></trkpt><trkpt lat="46.0155191" lon="11.8077127"><ele>322.0</ele><time>2026-04-26T10:41:37.539Z</time></trkpt><trkpt lat="46.0155449" lon="11.8075459"><ele>322.0</ele><time>2026-04-26T10:41:39.539Z</time></trkpt><trkpt lat="46.0155545" lon="11.8074551"><ele>322.0</ele><time>2026-04-26T10:41:40.539Z</time></trkpt><trkpt lat="46.0155664" lon="11.8073604"><ele>322.0</ele><time>2026-04-26T10:41:41.538Z</time></trkpt><trkpt lat="46.0155771" lon="11.8072631"><ele>322.0</ele><time>2026-04-26T10:41:42.538Z</time></trkpt><trkpt lat="46.0155885" lon="11.8071689"><ele>322.0</ele><time>2026-04-26T10:41:43.537Z</time></trkpt><trkpt lat="46.0156016" lon="11.8070777"><ele>322.0</ele><time>2026-04-26T10:41:44.537Z</time></trkpt><trkpt lat="46.0156172" lon="11.8069843"><ele>322.0</ele><time>2026-04-26T10:41:45.539Z</time></trkpt><trkpt lat="46.0156269" lon="11.8068871"><ele>321.85714285714283</ele><time>2026-04-26T10:41:46.538Z</time></trkpt><trkpt lat="46.0156405" lon="11.8067931"><ele>321.7142857142857</ele><time>2026-04-26T10:41:47.54Z</time></trkpt><trkpt lat="46.0156531" lon="11.8066996"><ele>321.57142857142856</ele><time>2026-04-26T10:41:48.54Z</time></trkpt><trkpt lat="46.0156639" lon="11.8066046"><ele>321.42857142857144</ele><time>2026-04-26T10:41:49.538Z</time></trkpt><trkpt lat="46.0156681" lon="11.8065092"><ele>321.2857142857143</ele><time>2026-04-26T10:41:50.537Z</time></trkpt><trkpt lat="46.0156764" lon="11.8064135"><ele>321.1428571428571</ele><time>2026-04-26T10:41:51.538Z</time></trkpt><trkpt lat="46.0156886" lon="11.8063195"><ele>321.0</ele><time>2026-04-26T10:41:52.539Z</time></trkpt><trkpt lat="46.0156954" lon="11.8062268"><ele>321.0</ele><time>2026-04-26T10:41:53.54Z</time></trkpt><trkpt lat="46.0156958" lon="11.8061322"><ele>321.0</ele><time>2026-04-26T10:41:54.54Z</time></trkpt><trkpt lat="46.0156933" lon="11.8060411"><ele>321.0</ele><time>2026-04-26T10:41:55.538Z</time></trkpt><trkpt lat="46.0156769" lon="11.8058651"><ele>321.0</ele><time>2026-04-26T10:41:57.537Z</time></trkpt><trkpt lat="46.0156627" lon="11.8057114"><ele>321.0</ele><time>2026-04-26T10:41:59.539Z</time></trkpt><trkpt lat="46.0156719" lon="11.8055779"><ele>320.8</ele><time>2026-04-26T10:42:01.541Z</time></trkpt><trkpt lat="46.0157146" lon="11.8054461"><ele>320.6</ele><time>2026-04-26T10:42:03.539Z</time></trkpt><trkpt lat="46.0157603" lon="11.8053057"><ele>320.4</ele><time>2026-04-26T10:42:05.539Z</time></trkpt><trkpt lat="46.0158052" lon="11.8051622"><ele>320.2</ele><time>2026-04-26T10:42:07.537Z</time></trkpt><trkpt lat="46.0158486" lon="11.8050161"><ele>320.0</ele><time>2026-04-26T10:42:09.536Z</time></trkpt><trkpt lat="46.015898" lon="11.8048667"><ele>320.0</ele><time>2026-04-26T10:42:11.539Z</time></trkpt><trkpt lat="46.0159426" lon="11.8047114"><ele>320.0</ele><time>2026-04-26T10:42:13.54Z</time></trkpt><trkpt lat="46.0159886" lon="11.8045556"><ele>320.0</ele><time>2026-04-26T10:42:15.537Z</time></trkpt><trkpt lat="46.0160337" lon="11.8044056"><ele>320.0</ele><time>2026-04-26T10:42:17.539Z</time></trkpt><trkpt lat="46.0160779" lon="11.8042538"><ele>319.75</ele><time>2026-04-26T10:42:19.537Z</time></trkpt><trkpt lat="46.0161229" lon="11.8041003"><ele>319.5</ele><time>2026-04-26T10:42:21.538Z</time></trkpt><trkpt lat="46.0161681" lon="11.8039486"><ele>319.25</ele><time>2026-04-26T10:42:23.54Z</time></trkpt><trkpt lat="46.0162052" lon="11.8037917"><ele>319.0</ele><time>2026-04-26T10:42:25.537Z</time></trkpt><trkpt lat="46.0162534" lon="11.8036425"><ele>319.0</ele><time>2026-04-26T10:42:27.534Z</time></trkpt><trkpt lat="46.0163069" lon="11.8034965"><ele>319.0</ele><time>2026-04-26T10:42:29.539Z</time></trkpt><trkpt lat="46.0163592" lon="11.8033488"><ele>319.0</ele><time>2026-04-26T10:42:31.539Z</time></trkpt><trkpt lat="46.0164076" lon="11.8032019"><ele>319.0</ele><time>2026-04-26T10:42:33.536Z</time></trkpt><trkpt lat="46.0164514" lon="11.8030523"><ele>319.0</ele><time>2026-04-26T10:42:35.538Z</time></trkpt><trkpt lat="46.0164986" lon="11.802901"><ele>319.0</ele><time>2026-04-26T10:42:37.54Z</time></trkpt><trkpt lat="46.0165457" lon="11.8027478"><ele>319.0</ele><time>2026-04-26T10:42:39.539Z</time></trkpt><trkpt lat="46.0165986" lon="11.8025971"><ele>319.0</ele><time>2026-04-26T10:42:41.537Z</time></trkpt><trkpt lat="46.0166531" lon="11.8024471"><ele>318.75</ele><time>2026-04-26T10:42:43.54Z</time></trkpt><trkpt lat="46.0167" lon="11.8022942"><ele>318.5</ele><time>2026-04-26T10:42:45.539Z</time></trkpt><trkpt lat="46.0167491" lon="11.8021416"><ele>318.25</ele><time>2026-04-26T10:42:47.536Z</time></trkpt><trkpt lat="46.0167944" lon="11.8019896"><ele>318.0</ele><time>2026-04-26T10:42:49.538Z</time></trkpt><trkpt lat="46.0168306" lon="11.8018491"><ele>319.0</ele><time>2026-04-26T10:42:51.538Z</time></trkpt><trkpt lat="46.0168584" lon="11.8017105"><ele>320.0</ele><time>2026-04-26T10:42:53.538Z</time></trkpt><trkpt lat="46.016864" lon="11.8015695"><ele>321.0</ele><time>2026-04-26T10:42:55.537Z</time></trkpt><trkpt lat="46.0168571" lon="11.8014327"><ele>322.0</ele><time>2026-04-26T10:42:57.539Z</time></trkpt><trkpt lat="46.0168457" lon="11.801305"><ele>323.0</ele><time>2026-04-26T10:42:59.536Z</time></trkpt><trkpt lat="46.016845" lon="11.8011882"><ele>323.0</ele><time>2026-04-26T10:43:01.536Z</time></trkpt><trkpt lat="46.0168646" lon="11.8010985"><ele>323.0</ele><time>2026-04-26T10:43:03.538Z</time></trkpt><trkpt lat="46.0169037" lon="11.8010172"><ele>323.0</ele><time>2026-04-26T10:43:05.539Z</time></trkpt><trkpt lat="46.0169632" lon="11.8009499"><ele>323.0</ele><time>2026-04-26T10:43:07.538Z</time></trkpt><trkpt lat="46.0170286" lon="11.8008867"><ele>323.0</ele><time>2026-04-26T10:43:09.539Z</time></trkpt><trkpt lat="46.0170891" lon="11.8008044"><ele>323.0</ele><time>2026-04-26T10:43:11.541Z</time></trkpt><trkpt lat="46.0171465" lon="11.8007134"><ele>322.79999999999995</ele><time>2026-04-26T10:43:13.538Z</time></trkpt><trkpt lat="46.017204" lon="11.8006212"><ele>322.6</ele><time>2026-04-26T10:43:15.539Z</time></trkpt><trkpt lat="46.0172577" lon="11.8005164"><ele>322.4</ele><time>2026-04-26T10:43:17.54Z</time></trkpt><trkpt lat="46.0173244" lon="11.800431"><ele>322.20000000000005</ele><time>2026-04-26T10:43:19.539Z</time></trkpt><trkpt lat="46.0173977" lon="11.8003513"><ele>322.0</ele><time>2026-04-26T10:43:21.54Z</time></trkpt><trkpt lat="46.0174666" lon="11.8002521"><ele>322.0</ele><time>2026-04-26T10:43:23.538Z</time></trkpt><trkpt lat="46.0175471" lon="11.8001535"><ele>322.0</ele><time>2026-04-26T10:43:25.535Z</time></trkpt><trkpt lat="46.0176292" lon="11.8000613"><ele>322.0</ele><time>2026-04-26T10:43:27.54Z</time></trkpt><trkpt lat="46.0177115" lon="11.7999721"><ele>322.0</ele><time>2026-04-26T10:43:29.543Z</time></trkpt><trkpt lat="46.0178078" lon="11.7999446"><ele>322.0</ele><time>2026-04-26T10:43:31.54Z</time></trkpt><trkpt lat="46.0179121" lon="11.7999613"><ele>322.0</ele><time>2026-04-26T10:43:33.537Z</time></trkpt><trkpt lat="46.0180121" lon="11.7999587"><ele>322.0</ele><time>2026-04-26T10:43:35.538Z</time></trkpt><trkpt lat="46.0181044" lon="11.7999433"><ele>322.0</ele><time>2026-04-26T10:43:37.538Z</time></trkpt><trkpt lat="46.0182045" lon="11.7999246"><ele>322.0</ele><time>2026-04-26T10:43:39.538Z</time></trkpt><trkpt lat="46.0183139" lon="11.799905"><ele>322.0</ele><time>2026-04-26T10:43:41.539Z</time></trkpt><trkpt lat="46.0184205" lon="11.7998738"><ele>322.8</ele><time>2026-04-26T10:43:43.538Z</time></trkpt><trkpt lat="46.018522" lon="11.7998393"><ele>323.6</ele><time>2026-04-26T10:43:45.54Z</time></trkpt><trkpt lat="46.0186237" lon="11.7998087"><ele>324.40000000000003</ele><time>2026-04-26T10:43:47.538Z</time></trkpt><trkpt lat="46.0187303" lon="11.7997731"><ele>325.20000000000005</ele><time>2026-04-26T10:43:49.538Z</time></trkpt><trkpt lat="46.0188227" lon="11.7997126"><ele>326.0</ele><time>2026-04-26T10:43:51.536Z</time></trkpt><trkpt lat="46.0189047" lon="11.7996166"><ele>326.0</ele><time>2026-04-26T10:43:53.539Z</time></trkpt><trkpt lat="46.0189714" lon="11.799511"><ele>326.0</ele><time>2026-04-26T10:43:55.538Z</time></trkpt><trkpt lat="46.0190368" lon="11.7993916"><ele>326.0</ele><time>2026-04-26T10:43:57.537Z</time></trkpt><trkpt lat="46.0190975" lon="11.7992659"><ele>326.0</ele><time>2026-04-26T10:43:59.539Z</time></trkpt><trkpt lat="46.0191716" lon="11.7991569"><ele>326.0</ele><time>2026-04-26T10:44:01.54Z</time></trkpt><trkpt lat="46.0192376" lon="11.7990526"><ele>326.20000000000005</ele><time>2026-04-26T10:44:03.537Z</time></trkpt><trkpt lat="46.0192923" lon="11.7989385"><ele>326.40000000000003</ele><time>2026-04-26T10:44:05.536Z</time></trkpt><trkpt lat="46.0193374" lon="11.7988183"><ele>326.6</ele><time>2026-04-26T10:44:07.535Z</time></trkpt><trkpt lat="46.0193593" lon="11.7986741"><ele>326.8</ele><time>2026-04-26T10:44:09.534Z</time></trkpt><trkpt lat="46.0193633" lon="11.7985341"><ele>327.0</ele><time>2026-04-26T10:44:11.535Z</time></trkpt><trkpt lat="46.0193333" lon="11.7984043"><ele>327.0</ele><time>2026-04-26T10:44:13.54Z</time></trkpt><trkpt lat="46.0192973" lon="11.7982761"><ele>327.0</ele><time>2026-04-26T10:44:15.538Z</time></trkpt><trkpt lat="46.019246" lon="11.798151"><ele>327.0</ele><time>2026-04-26T10:44:17.538Z</time></trkpt><trkpt lat="46.0191829" lon="11.7980409"><ele>327.0</ele><time>2026-04-26T10:44:19.539Z</time></trkpt><trkpt lat="46.0191101" lon="11.7979429"><ele>327.0</ele><time>2026-04-26T10:44:21.54Z</time></trkpt><trkpt lat="46.0190391" lon="11.7978443"><ele>326.8</ele><time>2026-04-26T10:44:23.54Z</time></trkpt><trkpt lat="46.018967" lon="11.7977612"><ele>326.6</ele><time>2026-04-26T10:44:25.539Z</time></trkpt><trkpt lat="46.0188893" lon="11.7976834"><ele>326.40000000000003</ele><time>2026-04-26T10:44:27.538Z</time></trkpt><trkpt lat="46.0188129" lon="11.7975895"><ele>326.20000000000005</ele><time>2026-04-26T10:44:29.537Z</time></trkpt><trkpt lat="46.0187363" lon="11.7974917"><ele>326.0</ele><time>2026-04-26T10:44:31.539Z</time></trkpt><trkpt lat="46.0186642" lon="11.7973942"><ele>326.0</ele><time>2026-04-26T10:44:33.537Z</time></trkpt><trkpt lat="46.0185923" lon="11.7973094"><ele>326.0</ele><time>2026-04-26T10:44:35.538Z</time></trkpt><trkpt lat="46.0185246" lon="11.7972274"><ele>326.0</ele><time>2026-04-26T10:44:37.538Z</time></trkpt><trkpt lat="46.0184643" lon="11.7971246"><ele>326.0</ele><time>2026-04-26T10:44:39.539Z</time></trkpt><trkpt lat="46.0184301" lon="11.7969979"><ele>326.0</ele><time>2026-04-26T10:44:41.538Z</time></trkpt><trkpt lat="46.0184261" lon="11.7968594"><ele>326.20000000000005</ele><time>2026-04-26T10:44:43.537Z</time></trkpt><trkpt lat="46.0184232" lon="11.7967139"><ele>326.40000000000003</ele><time>2026-04-26T10:44:45.538Z</time></trkpt><trkpt lat="46.0184137" lon="11.7965556"><ele>326.6</ele><time>2026-04-26T10:44:47.538Z</time></trkpt><trkpt lat="46.0184164" lon="11.7963995"><ele>326.8</ele><time>2026-04-26T10:44:49.54Z</time></trkpt><trkpt lat="46.0184079" lon="11.7962654"><ele>327.0</ele><time>2026-04-26T10:44:51.538Z</time></trkpt><trkpt lat="46.0184056" lon="11.7961074"><ele>327.20000000000005</ele><time>2026-04-26T10:44:53.54Z</time></trkpt><trkpt lat="46.0184063" lon="11.795948"><ele>327.4</ele><time>2026-04-26T10:44:55.536Z</time></trkpt><trkpt lat="46.0184113" lon="11.7957903"><ele>327.6</ele><time>2026-04-26T10:44:57.538Z</time></trkpt><trkpt lat="46.0184321" lon="11.7956393"><ele>327.79999999999995</ele><time>2026-04-26T10:44:59.537Z</time></trkpt><trkpt lat="46.0184572" lon="11.7954795"><ele>328.0</ele><time>2026-04-26T10:45:01.538Z</time></trkpt><trkpt lat="46.0184899" lon="11.795316"><ele>328.0</ele><time>2026-04-26T10:45:03.539Z</time></trkpt><trkpt lat="46.0185282" lon="11.7951725"><ele>328.0</ele><time>2026-04-26T10:45:05.538Z</time></trkpt><trkpt lat="46.0185792" lon="11.795046"><ele>328.0</ele><time>2026-04-26T10:45:07.539Z</time></trkpt><trkpt lat="46.0186284" lon="11.7949053"><ele>328.0</ele><time>2026-04-26T10:45:09.538Z</time></trkpt><trkpt lat="46.018684" lon="11.7947498"><ele>328.0</ele><time>2026-04-26T10:45:11.538Z</time></trkpt><trkpt lat="46.0187528" lon="11.7946032"><ele>327.5</ele><time>2026-04-26T10:45:13.536Z</time></trkpt><trkpt lat="46.0188264" lon="11.794456"><ele>327.0</ele><time>2026-04-26T10:45:15.537Z</time></trkpt><trkpt lat="46.0188707" lon="11.7943827"><ele>326.5</ele><time>2026-04-26T10:45:16.539Z</time></trkpt><trkpt lat="46.0189149" lon="11.7943068"><ele>326.0</ele><time>2026-04-26T10:45:17.539Z</time></trkpt><trkpt lat="46.0189579" lon="11.7942282"><ele>325.5</ele><time>2026-04-26T10:45:18.538Z</time></trkpt><trkpt lat="46.0190018" lon="11.7941458"><ele>325.0</ele><time>2026-04-26T10:45:19.539Z</time></trkpt><trkpt lat="46.0190478" lon="11.7940621"><ele>324.8333333333333</ele><time>2026-04-26T10:45:20.539Z</time></trkpt><trkpt lat="46.0190897" lon="11.7939752"><ele>324.66666666666663</ele><time>2026-04-26T10:45:21.537Z</time></trkpt><trkpt lat="46.019131" lon="11.7938842"><ele>324.5</ele><time>2026-04-26T10:45:22.539Z</time></trkpt><trkpt lat="46.0191725" lon="11.7937897"><ele>324.3333333333333</ele><time>2026-04-26T10:45:23.539Z</time></trkpt><trkpt lat="46.0192135" lon="11.7936928"><ele>324.1666666666667</ele><time>2026-04-26T10:45:24.539Z</time></trkpt><trkpt lat="46.0192538" lon="11.7935926"><ele>324.0</ele><time>2026-04-26T10:45:25.537Z</time></trkpt><trkpt lat="46.0192887" lon="11.7934863"><ele>322.8333333333333</ele><time>2026-04-26T10:45:26.54Z</time></trkpt><trkpt lat="46.0193204" lon="11.7933789"><ele>321.6666666666667</ele><time>2026-04-26T10:45:27.539Z</time></trkpt><trkpt lat="46.019345" lon="11.7932664"><ele>320.5</ele><time>2026-04-26T10:45:28.539Z</time></trkpt><trkpt lat="46.019366" lon="11.7931492"><ele>319.33333333333337</ele><time>2026-04-26T10:45:29.537Z</time></trkpt><trkpt lat="46.0193857" lon="11.7930295"><ele>318.1666666666667</ele><time>2026-04-26T10:45:30.536Z</time></trkpt><trkpt lat="46.0193998" lon="11.7929038"><ele>317.0</ele><time>2026-04-26T10:45:31.538Z</time></trkpt><trkpt lat="46.0194125" lon="11.792776"><ele>316.6666666666667</ele><time>2026-04-26T10:45:32.537Z</time></trkpt><trkpt lat="46.0194226" lon="11.7926476"><ele>316.33333333333337</ele><time>2026-04-26T10:45:33.539Z</time></trkpt><trkpt lat="46.019429" lon="11.7925185"><ele>316.0</ele><time>2026-04-26T10:45:34.535Z</time></trkpt><trkpt lat="46.0194385" lon="11.7923926"><ele>315.6666666666667</ele><time>2026-04-26T10:45:35.538Z</time></trkpt><trkpt lat="46.019451" lon="11.7922704"><ele>315.3333333333333</ele><time>2026-04-26T10:45:36.537Z</time></trkpt><trkpt lat="46.0194657" lon="11.7921524"><ele>315.0</ele><time>2026-04-26T10:45:37.538Z</time></trkpt><trkpt lat="46.0194815" lon="11.7920349"><ele>315.0</ele><time>2026-04-26T10:45:38.541Z</time></trkpt><trkpt lat="46.0194975" lon="11.7919202"><ele>315.0</ele><time>2026-04-26T10:45:39.54Z</time></trkpt><trkpt lat="46.0195129" lon="11.7918074"><ele>315.0</ele><time>2026-04-26T10:45:40.538Z</time></trkpt><trkpt lat="46.0195301" lon="11.7917009"><ele>315.0</ele><time>2026-04-26T10:45:41.539Z</time></trkpt><trkpt lat="46.0195452" lon="11.7915955"><ele>315.0</ele><time>2026-04-26T10:45:42.537Z</time></trkpt><trkpt lat="46.0195632" lon="11.7914964"><ele>315.0</ele><time>2026-04-26T10:45:43.537Z</time></trkpt><trkpt lat="46.0195784" lon="11.7913992"><ele>314.6666666666667</ele><time>2026-04-26T10:45:44.54Z</time></trkpt><trkpt lat="46.0195911" lon="11.7913025"><ele>314.3333333333333</ele><time>2026-04-26T10:45:45.539Z</time></trkpt><trkpt lat="46.0196023" lon="11.7912067"><ele>314.0</ele><time>2026-04-26T10:45:46.539Z</time></trkpt><trkpt lat="46.0196154" lon="11.7911138"><ele>313.66666666666663</ele><time>2026-04-26T10:45:47.54Z</time></trkpt><trkpt lat="46.0196302" lon="11.7910236"><ele>313.3333333333333</ele><time>2026-04-26T10:45:48.538Z</time></trkpt><trkpt lat="46.0196596" lon="11.7908498"><ele>313.0</ele><time>2026-04-26T10:45:50.538Z</time></trkpt><trkpt lat="46.0196863" lon="11.790679"><ele>313.0</ele><time>2026-04-26T10:45:52.539Z</time></trkpt><trkpt lat="46.0197161" lon="11.7905165"><ele>313.0</ele><time>2026-04-26T10:45:54.539Z</time></trkpt><trkpt lat="46.0197437" lon="11.7903568"><ele>313.0</ele><time>2026-04-26T10:45:56.538Z</time></trkpt><trkpt lat="46.0197749" lon="11.7901941"><ele>313.0</ele><time>2026-04-26T10:45:58.538Z</time></trkpt><trkpt lat="46.0197964" lon="11.7900246"><ele>313.0</ele><time>2026-04-26T10:46:00.54Z</time></trkpt><trkpt lat="46.0198175" lon="11.7898537"><ele>313.0</ele><time>2026-04-26T10:46:02.539Z</time></trkpt><trkpt lat="46.0198485" lon="11.7896901"><ele>313.0</ele><time>2026-04-26T10:46:04.54Z</time></trkpt><trkpt lat="46.0198849" lon="11.7895356"><ele>313.0</ele><time>2026-04-26T10:46:06.539Z</time></trkpt><trkpt lat="46.0199062" lon="11.7893686"><ele>313.0</ele><time>2026-04-26T10:46:08.538Z</time></trkpt><trkpt lat="46.0199312" lon="11.7892036"><ele>313.0</ele><time>2026-04-26T10:46:10.537Z</time></trkpt><trkpt lat="46.01995" lon="11.7890366"><ele>313.0</ele><time>2026-04-26T10:46:12.537Z</time></trkpt><trkpt lat="46.0199707" lon="11.7888746"><ele>313.0</ele><time>2026-04-26T10:46:14.541Z</time></trkpt><trkpt lat="46.0199953" lon="11.7887151"><ele>314.5</ele><time>2026-04-26T10:46:16.538Z</time></trkpt><trkpt lat="46.0200285" lon="11.7885621"><ele>316.0</ele><time>2026-04-26T10:46:18.537Z</time></trkpt><trkpt lat="46.0200592" lon="11.7884092"><ele>317.5</ele><time>2026-04-26T10:46:20.538Z</time></trkpt><trkpt lat="46.0200842" lon="11.7882482"><ele>319.0</ele><time>2026-04-26T10:46:22.539Z</time></trkpt><trkpt lat="46.0201084" lon="11.788087"><ele>319.0</ele><time>2026-04-26T10:46:24.541Z</time></trkpt><trkpt lat="46.0201333" lon="11.7879261"><ele>319.0</ele><time>2026-04-26T10:46:26.538Z</time></trkpt><trkpt lat="46.0201589" lon="11.7877667"><ele>319.0</ele><time>2026-04-26T10:46:28.536Z</time></trkpt><trkpt lat="46.0201838" lon="11.7876057"><ele>319.0</ele><time>2026-04-26T10:46:30.539Z</time></trkpt><trkpt lat="46.0202105" lon="11.7874475"><ele>318.8</ele><time>2026-04-26T10:46:32.537Z</time></trkpt><trkpt lat="46.0202283" lon="11.7872852"><ele>318.59999999999997</ele><time>2026-04-26T10:46:34.538Z</time></trkpt><trkpt lat="46.0202499" lon="11.7871249"><ele>318.4</ele><time>2026-04-26T10:46:36.538Z</time></trkpt><trkpt lat="46.0202807" lon="11.786976"><ele>318.2</ele><time>2026-04-26T10:46:38.539Z</time></trkpt><trkpt lat="46.020311" lon="11.7868229"><ele>318.0</ele><time>2026-04-26T10:46:40.538Z</time></trkpt><trkpt lat="46.0203428" lon="11.7866681"><ele>318.0</ele><time>2026-04-26T10:46:42.54Z</time></trkpt><trkpt lat="46.0203734" lon="11.786515"><ele>318.0</ele><time>2026-04-26T10:46:44.539Z</time></trkpt><trkpt lat="46.0203965" lon="11.7863537"><ele>318.0</ele><time>2026-04-26T10:46:46.539Z</time></trkpt><trkpt lat="46.0204171" lon="11.7861893"><ele>318.0</ele><time>2026-04-26T10:46:48.537Z</time></trkpt><trkpt lat="46.0204396" lon="11.7860256"><ele>317.75</ele><time>2026-04-26T10:46:50.537Z</time></trkpt><trkpt lat="46.0204636" lon="11.7858671"><ele>317.5</ele><time>2026-04-26T10:46:52.54Z</time></trkpt><trkpt lat="46.0204853" lon="11.7857043"><ele>317.25</ele><time>2026-04-26T10:46:54.539Z</time></trkpt><trkpt lat="46.0205154" lon="11.7855526"><ele>317.0</ele><time>2026-04-26T10:46:56.54Z</time></trkpt><trkpt lat="46.0205384" lon="11.7853913"><ele>317.0</ele><time>2026-04-26T10:46:58.537Z</time></trkpt><trkpt lat="46.0205564" lon="11.7852323"><ele>317.0</ele><time>2026-04-26T10:47:00.538Z</time></trkpt><trkpt lat="46.0205719" lon="11.7850892"><ele>317.0</ele><time>2026-04-26T10:47:02.54Z</time></trkpt><trkpt lat="46.0205941" lon="11.7849605"><ele>317.0</ele><time>2026-04-26T10:47:04.539Z</time></trkpt><trkpt lat="46.0206166" lon="11.7848363"><ele>317.0</ele><time>2026-04-26T10:47:06.537Z</time></trkpt><trkpt lat="46.0206407" lon="11.7847132"><ele>317.2</ele><time>2026-04-26T10:47:08.539Z</time></trkpt><trkpt lat="46.020659" lon="11.7845737"><ele>317.4</ele><time>2026-04-26T10:47:10.539Z</time></trkpt><trkpt lat="46.0206877" lon="11.7844357"><ele>317.6</ele><time>2026-04-26T10:47:12.538Z</time></trkpt><trkpt lat="46.0207115" lon="11.7842895"><ele>317.8</ele><time>2026-04-26T10:47:14.536Z</time></trkpt><trkpt lat="46.0207384" lon="11.7841405"><ele>318.0</ele><time>2026-04-26T10:47:16.539Z</time></trkpt><trkpt lat="46.0207578" lon="11.7839896"><ele>318.0</ele><time>2026-04-26T10:47:18.539Z</time></trkpt><trkpt lat="46.0207849" lon="11.7838427"><ele>318.0</ele><time>2026-04-26T10:47:20.537Z</time></trkpt><trkpt lat="46.0208103" lon="11.7836913"><ele>318.0</ele><time>2026-04-26T10:47:22.536Z</time></trkpt><trkpt lat="46.0208299" lon="11.7835342"><ele>318.0</ele><time>2026-04-26T10:47:24.537Z</time></trkpt><trkpt lat="46.0208463" lon="11.7833738"><ele>318.0</ele><time>2026-04-26T10:47:26.538Z</time></trkpt><trkpt lat="46.0208687" lon="11.7832239"><ele>318.2</ele><time>2026-04-26T10:47:28.538Z</time></trkpt><trkpt lat="46.0208994" lon="11.7830737"><ele>318.4</ele><time>2026-04-26T10:47:30.537Z</time></trkpt><trkpt lat="46.0209232" lon="11.7829187"><ele>318.59999999999997</ele><time>2026-04-26T10:47:32.538Z</time></trkpt><trkpt lat="46.0209431" lon="11.782763"><ele>318.8</ele><time>2026-04-26T10:47:34.536Z</time></trkpt><trkpt lat="46.0209624" lon="11.782602"><ele>319.0</ele><time>2026-04-26T10:47:36.54Z</time></trkpt><trkpt lat="46.0209909" lon="11.7824524"><ele>319.0</ele><time>2026-04-26T10:47:38.538Z</time></trkpt><trkpt lat="46.0210177" lon="11.7822996"><ele>319.0</ele><time>2026-04-26T10:47:40.537Z</time></trkpt><trkpt lat="46.0210447" lon="11.7821476"><ele>319.0</ele><time>2026-04-26T10:47:42.534Z</time></trkpt><trkpt lat="46.0210742" lon="11.7819955"><ele>319.0</ele><time>2026-04-26T10:47:44.539Z</time></trkpt><trkpt lat="46.0210978" lon="11.7818376"><ele>319.0</ele><time>2026-04-26T10:47:46.538Z</time></trkpt><trkpt lat="46.0211173" lon="11.7816823"><ele>319.0</ele><time>2026-04-26T10:47:48.537Z</time></trkpt><trkpt lat="46.0211408" lon="11.7815323"><ele>319.0</ele><time>2026-04-26T10:47:50.537Z</time></trkpt><trkpt lat="46.0211619" lon="11.7813826"><ele>319.0</ele><time>2026-04-26T10:47:52.539Z</time></trkpt><trkpt lat="46.0211826" lon="11.7812265"><ele>319.0</ele><time>2026-04-26T10:47:54.536Z</time></trkpt><trkpt lat="46.0212042" lon="11.781085"><ele>319.0</ele><time>2026-04-26T10:47:56.539Z</time></trkpt><trkpt lat="46.021227" lon="11.780958"><ele>319.16666666666663</ele><time>2026-04-26T10:47:58.537Z</time></trkpt><trkpt lat="46.0212336" lon="11.7808301"><ele>319.3333333333333</ele><time>2026-04-26T10:48:00.539Z</time></trkpt><trkpt lat="46.0212237" lon="11.7807043"><ele>319.5</ele><time>2026-04-26T10:48:02.536Z</time></trkpt><trkpt lat="46.0211894" lon="11.7805923"><ele>319.6666666666667</ele><time>2026-04-26T10:48:04.537Z</time></trkpt><trkpt lat="46.0211346" lon="11.7804924"><ele>319.83333333333337</ele><time>2026-04-26T10:48:06.538Z</time></trkpt><trkpt lat="46.0210752" lon="11.7804041"><ele>320.0</ele><time>2026-04-26T10:48:08.539Z</time></trkpt><trkpt lat="46.0210157" lon="11.780327"><ele>320.0</ele><time>2026-04-26T10:48:10.538Z</time></trkpt><trkpt lat="46.0209912" lon="11.7802281"><ele>320.0</ele><time>2026-04-26T10:48:12.537Z</time></trkpt><trkpt lat="46.0210213" lon="11.7801213"><ele>320.0</ele><time>2026-04-26T10:48:14.539Z</time></trkpt><trkpt lat="46.0210692" lon="11.7800123"><ele>320.0</ele><time>2026-04-26T10:48:16.537Z</time></trkpt><trkpt lat="46.0211196" lon="11.7798956"><ele>320.0</ele><time>2026-04-26T10:48:18.537Z</time></trkpt><trkpt lat="46.0211712" lon="11.7797757"><ele>320.0</ele><time>2026-04-26T10:48:20.538Z</time></trkpt><trkpt lat="46.0212243" lon="11.7796606"><ele>320.8</ele><time>2026-04-26T10:48:22.537Z</time></trkpt><trkpt lat="46.0212707" lon="11.7795431"><ele>321.6</ele><time>2026-04-26T10:48:24.535Z</time></trkpt><trkpt lat="46.02132" lon="11.7794271"><ele>322.4</ele><time>2026-04-26T10:48:26.539Z</time></trkpt><trkpt lat="46.0213717" lon="11.7793093"><ele>323.2</ele><time>2026-04-26T10:48:28.537Z</time></trkpt><trkpt lat="46.0214207" lon="11.779186"><ele>324.0</ele><time>2026-04-26T10:48:30.537Z</time></trkpt><trkpt lat="46.0214624" lon="11.7790565"><ele>324.0</ele><time>2026-04-26T10:48:32.537Z</time></trkpt><trkpt lat="46.0215028" lon="11.7789266"><ele>324.0</ele><time>2026-04-26T10:48:34.539Z</time></trkpt><trkpt lat="46.0215457" lon="11.7788022"><ele>324.0</ele><time>2026-04-26T10:48:36.534Z</time></trkpt><trkpt lat="46.0215818" lon="11.7786732"><ele>324.0</ele><time>2026-04-26T10:48:38.539Z</time></trkpt><trkpt lat="46.0216112" lon="11.7785484"><ele>324.0</ele><time>2026-04-26T10:48:40.539Z</time></trkpt><trkpt lat="46.0216245" lon="11.7784202"><ele>323.4</ele><time>2026-04-26T10:48:42.538Z</time></trkpt><trkpt lat="46.0216426" lon="11.7782987"><ele>322.79999999999995</ele><time>2026-04-26T10:48:44.536Z</time></trkpt><trkpt lat="46.0216657" lon="11.7781537"><ele>322.20000000000005</ele><time>2026-04-26T10:48:46.539Z</time></trkpt><trkpt lat="46.0216863" lon="11.7779931"><ele>321.6</ele><time>2026-04-26T10:48:48.538Z</time></trkpt><trkpt lat="46.0217048" lon="11.7778226"><ele>321.0</ele><time>2026-04-26T10:48:50.537Z</time></trkpt><trkpt lat="46.0217302" lon="11.7776707"><ele>323.0</ele><time>2026-04-26T10:48:52.537Z</time></trkpt><trkpt lat="46.0217528" lon="11.7775325"><ele>325.0</ele><time>2026-04-26T10:48:54.538Z</time></trkpt><trkpt lat="46.0217799" lon="11.7773928"><ele>327.0</ele><time>2026-04-26T10:48:56.536Z</time></trkpt><trkpt lat="46.0217987" lon="11.7772463"><ele>329.0</ele><time>2026-04-26T10:48:58.536Z</time></trkpt><trkpt lat="46.02182" lon="11.7770966"><ele>331.0</ele><time>2026-04-26T10:49:00.539Z</time></trkpt><trkpt lat="46.0218479" lon="11.7769536"><ele>331.20000000000005</ele><time>2026-04-26T10:49:02.539Z</time></trkpt><trkpt lat="46.021871" lon="11.7768159"><ele>331.40000000000003</ele><time>2026-04-26T10:49:04.537Z</time></trkpt><trkpt lat="46.0218978" lon="11.7766804"><ele>331.6</ele><time>2026-04-26T10:49:06.536Z</time></trkpt><trkpt lat="46.0219175" lon="11.7765421"><ele>331.8</ele><time>2026-04-26T10:49:08.538Z</time></trkpt><trkpt lat="46.021947" lon="11.7764176"><ele>332.0</ele><time>2026-04-26T10:49:10.539Z</time></trkpt><trkpt lat="46.0219738" lon="11.7762891"><ele>332.0</ele><time>2026-04-26T10:49:12.536Z</time></trkpt><trkpt lat="46.0219841" lon="11.7761434"><ele>332.0</ele><time>2026-04-26T10:49:14.539Z</time></trkpt><trkpt lat="46.022001" lon="11.7760053"><ele>332.0</ele><time>2026-04-26T10:49:16.537Z</time></trkpt><trkpt lat="46.0220262" lon="11.7758675"><ele>332.0</ele><time>2026-04-26T10:49:18.539Z</time></trkpt><trkpt lat="46.0220595" lon="11.7757367"><ele>332.0</ele><time>2026-04-26T10:49:20.539Z</time></trkpt><trkpt lat="46.0220766" lon="11.7756093"><ele>331.83333333333337</ele><time>2026-04-26T10:49:22.539Z</time></trkpt><trkpt lat="46.0221041" lon="11.7755029"><ele>331.6666666666667</ele><time>2026-04-26T10:49:24.538Z</time></trkpt><trkpt lat="46.022124" lon="11.7754037"><ele>331.5</ele><time>2026-04-26T10:49:26.537Z</time></trkpt><trkpt lat="46.0221437" lon="11.7753009"><ele>331.3333333333333</ele><time>2026-04-26T10:49:28.539Z</time></trkpt><trkpt lat="46.0221609" lon="11.7751939"><ele>331.16666666666663</ele><time>2026-04-26T10:49:30.536Z</time></trkpt><trkpt lat="46.0221772" lon="11.7750838"><ele>331.0</ele><time>2026-04-26T10:49:32.537Z</time></trkpt><trkpt lat="46.0221938" lon="11.7749746"><ele>331.0</ele><time>2026-04-26T10:49:34.539Z</time></trkpt><trkpt lat="46.0222133" lon="11.7748689"><ele>331.0</ele><time>2026-04-26T10:49:36.537Z</time></trkpt><trkpt lat="46.0222084" lon="11.77475"><ele>331.0</ele><time>2026-04-26T10:49:38.539Z</time></trkpt><trkpt lat="46.022209" lon="11.7746326"><ele>331.0</ele><time>2026-04-26T10:49:40.537Z</time></trkpt><trkpt lat="46.022228" lon="11.7745272"><ele>331.0</ele><time>2026-04-26T10:49:42.536Z</time></trkpt><trkpt lat="46.0222398" lon="11.7744219"><ele>331.0</ele><time>2026-04-26T10:49:44.539Z</time></trkpt><trkpt lat="46.0222627" lon="11.7743171"><ele>332.5</ele><time>2026-04-26T10:49:46.537Z</time></trkpt><trkpt lat="46.0222725" lon="11.7742017"><ele>334.0</ele><time>2026-04-26T10:49:48.538Z</time></trkpt><trkpt lat="46.0222758" lon="11.7740826"><ele>335.5</ele><time>2026-04-26T10:49:50.535Z</time></trkpt><trkpt lat="46.0222778" lon="11.7739632"><ele>337.0</ele><time>2026-04-26T10:49:52.539Z</time></trkpt><trkpt lat="46.0222745" lon="11.7738422"><ele>338.5</ele><time>2026-04-26T10:49:54.538Z</time></trkpt><trkpt lat="46.0222608" lon="11.7737218"><ele>340.0</ele><time>2026-04-26T10:49:56.539Z</time></trkpt><trkpt lat="46.0222365" lon="11.773607"><ele>343.3333333333333</ele><time>2026-04-26T10:49:58.539Z</time></trkpt><trkpt lat="46.0222062" lon="11.7734941"><ele>346.66666666666663</ele><time>2026-04-26T10:50:00.539Z</time></trkpt><trkpt lat="46.0221809" lon="11.7733879"><ele>350.0</ele><time>2026-04-26T10:50:02.538Z</time></trkpt><trkpt lat="46.022145" lon="11.7732725"><ele>353.3333333333333</ele><time>2026-04-26T10:50:04.538Z</time></trkpt><trkpt lat="46.0220921" lon="11.7731782"><ele>356.6666666666667</ele><time>2026-04-26T10:50:06.536Z</time></trkpt><trkpt lat="46.0220347" lon="11.7730884"><ele>360.0</ele><time>2026-04-26T10:50:08.54Z</time></trkpt><trkpt lat="46.0219862" lon="11.7730028"><ele>360.0</ele><time>2026-04-26T10:50:10.54Z</time></trkpt><trkpt lat="46.0219087" lon="11.7729359"><ele>360.0</ele><time>2026-04-26T10:50:12.537Z</time></trkpt><trkpt lat="46.0218482" lon="11.7728499"><ele>360.0</ele><time>2026-04-26T10:50:14.539Z</time></trkpt><trkpt lat="46.0217875" lon="11.7727644"><ele>360.0</ele><time>2026-04-26T10:50:16.538Z</time></trkpt><trkpt lat="46.0217254" lon="11.772709"><ele>360.0</ele><time>2026-04-26T10:50:18.538Z</time></trkpt><trkpt lat="46.0216732" lon="11.7726563"><ele>360.0</ele><time>2026-04-26T10:50:21.539Z</time></trkpt><trkpt lat="46.0216026" lon="11.7726264"><ele>357.1666666666667</ele><time>2026-04-26T10:50:24.539Z</time></trkpt><trkpt lat="46.0215377" lon="11.7725672"><ele>354.3333333333333</ele><time>2026-04-26T10:50:27.536Z</time></trkpt><trkpt lat="46.0214718" lon="11.7725019"><ele>351.5</ele><time>2026-04-26T10:50:31.539Z</time></trkpt><trkpt lat="46.0214261" lon="11.7724329"><ele>348.66666666666663</ele><time>2026-04-26T10:50:34.538Z</time></trkpt><trkpt lat="46.0213836" lon="11.7723458"><ele>345.8333333333333</ele><time>2026-04-26T10:50:56.538Z</time></trkpt><trkpt lat="46.0213508" lon="11.7722459"><ele>343.0</ele><time>2026-04-26T10:50:59.54Z</time></trkpt><trkpt lat="46.0213321" lon="11.7721209"><ele>343.0</ele><time>2026-04-26T10:51:02.54Z</time></trkpt><trkpt lat="46.0213364" lon="11.77203"><ele>343.0</ele><time>2026-04-26T10:51:04.539Z</time></trkpt><trkpt lat="46.0213404" lon="11.7719389"><ele>343.0</ele><time>2026-04-26T10:51:06.54Z</time></trkpt><trkpt lat="46.0213339" lon="11.7718422"><ele>343.0</ele><time>2026-04-26T10:51:08.539Z</time></trkpt><trkpt lat="46.021339" lon="11.7717111"><ele>343.0</ele><time>2026-04-26T10:51:11.536Z</time></trkpt><trkpt lat="46.0213454" lon="11.7715846"><ele>343.0</ele><time>2026-04-26T10:51:14.54Z</time></trkpt><trkpt lat="46.0213568" lon="11.7714937"><ele>343.0</ele><time>2026-04-26T10:51:16.536Z</time></trkpt><trkpt lat="46.0213834" lon="11.7713873"><ele>342.0</ele><time>2026-04-26T10:51:18.534Z</time></trkpt><trkpt lat="46.0214007" lon="11.7712796"><ele>341.0</ele><time>2026-04-26T10:51:20.539Z</time></trkpt><trkpt lat="46.0214372" lon="11.7711757"><ele>340.0</ele><time>2026-04-26T10:51:22.535Z</time></trkpt><trkpt lat="46.0214692" lon="11.7710706"><ele>339.0</ele><time>2026-04-26T10:51:24.535Z</time></trkpt><trkpt lat="46.0215002" lon="11.7709846"><ele>338.0</ele><time>2026-04-26T10:51:26.535Z</time></trkpt><trkpt lat="46.0215524" lon="11.7708962"><ele>337.0</ele><time>2026-04-26T10:51:28.535Z</time></trkpt><trkpt lat="46.0216261" lon="11.7708214"><ele>340.3333333333333</ele><time>2026-04-26T10:51:30.535Z</time></trkpt><trkpt lat="46.0217052" lon="11.7707706"><ele>343.66666666666663</ele><time>2026-04-26T10:51:32.538Z</time></trkpt><trkpt lat="46.0217955" lon="11.7707252"><ele>347.0</ele><time>2026-04-26T10:51:34.536Z</time></trkpt><trkpt lat="46.02188" lon="11.7706927"><ele>350.3333333333333</ele><time>2026-04-26T10:51:36.536Z</time></trkpt><trkpt lat="46.0219664" lon="11.7706711"><ele>353.6666666666667</ele><time>2026-04-26T10:51:38.536Z</time></trkpt><trkpt lat="46.0220516" lon="11.7706453"><ele>357.0</ele><time>2026-04-26T10:51:40.536Z</time></trkpt><trkpt lat="46.0221391" lon="11.7706195"><ele>357.0</ele><time>2026-04-26T10:51:42.536Z</time></trkpt><trkpt lat="46.0222182" lon="11.7705701"><ele>357.0</ele><time>2026-04-26T10:51:44.536Z</time></trkpt><trkpt lat="46.0222896" lon="11.7705252"><ele>357.0</ele><time>2026-04-26T10:51:46.535Z</time></trkpt><trkpt lat="46.0223625" lon="11.7704645"><ele>357.0</ele><time>2026-04-26T10:51:48.535Z</time></trkpt><trkpt lat="46.0224448" lon="11.7704352"><ele>357.0</ele><time>2026-04-26T10:51:50.536Z</time></trkpt><trkpt lat="46.0225236" lon="11.770402"><ele>357.0</ele><time>2026-04-26T10:51:52.534Z</time></trkpt><trkpt lat="46.0226077" lon="11.7703948"><ele>364.0</ele><time>2026-04-26T10:51:54.534Z</time></trkpt><trkpt lat="46.0226919" lon="11.7704035"><ele>371.0</ele><time>2026-04-26T10:51:56.534Z</time></trkpt><trkpt lat="46.0227785" lon="11.7704299"><ele>378.0</ele><time>2026-04-26T10:51:58.534Z</time></trkpt><trkpt lat="46.0228575" lon="11.7704736"><ele>385.0</ele><time>2026-04-26T10:52:00.534Z</time></trkpt><trkpt lat="46.0229341" lon="11.7705021"><ele>392.0</ele><time>2026-04-26T10:52:02.536Z</time></trkpt><trkpt lat="46.023023" lon="11.7705171"><ele>399.0</ele><time>2026-04-26T10:52:04.536Z</time></trkpt><trkpt lat="46.0231048" lon="11.7704493"><ele>399.0</ele><time>2026-04-26T10:52:06.539Z</time></trkpt><trkpt lat="46.0231904" lon="11.7703768"><ele>399.0</ele><time>2026-04-26T10:52:08.537Z</time></trkpt><trkpt lat="46.0232682" lon="11.7702995"><ele>399.0</ele><time>2026-04-26T10:52:10.537Z</time></trkpt><trkpt lat="46.0233323" lon="11.7702218"><ele>399.0</ele><time>2026-04-26T10:52:12.538Z</time></trkpt><trkpt lat="46.0233928" lon="11.7701361"><ele>399.0</ele><time>2026-04-26T10:52:14.534Z</time></trkpt><trkpt lat="46.0234481" lon="11.7700382"><ele>399.0</ele><time>2026-04-26T10:52:16.534Z</time></trkpt><trkpt lat="46.0234904" lon="11.7699346"><ele>399.0</ele><time>2026-04-26T10:52:18.536Z</time></trkpt><trkpt lat="46.0235117" lon="11.7698082"><ele>399.0</ele><time>2026-04-26T10:52:20.539Z</time></trkpt><trkpt lat="46.0235408" lon="11.7697007"><ele>399.0</ele><time>2026-04-26T10:52:22.535Z</time></trkpt><trkpt lat="46.0235703" lon="11.7695869"><ele>399.0</ele><time>2026-04-26T10:52:24.538Z</time></trkpt><trkpt lat="46.0236048" lon="11.7694719"><ele>399.0</ele><time>2026-04-26T10:52:26.536Z</time></trkpt><trkpt lat="46.0236246" lon="11.7693542"><ele>394.5</ele><time>2026-04-26T10:52:28.538Z</time></trkpt><trkpt lat="46.0236409" lon="11.769244"><ele>390.0</ele><time>2026-04-26T10:52:30.535Z</time></trkpt><trkpt lat="46.0236587" lon="11.7691475"><ele>385.5</ele><time>2026-04-26T10:52:32.539Z</time></trkpt><trkpt lat="46.0236936" lon="11.7690345"><ele>381.0</ele><time>2026-04-26T10:52:35.538Z</time></trkpt><trkpt lat="46.0237537" lon="11.7690734"><ele>376.5</ele><time>2026-04-26T10:52:38.538Z</time></trkpt><trkpt lat="46.0237049" lon="11.7691909"><ele>372.0</ele><time>2026-04-26T10:52:41.537Z</time></trkpt><trkpt lat="46.0236591" lon="11.7692794"><ele>372.00000000000006</ele><time>2026-04-26T10:52:43.535Z</time></trkpt><trkpt lat="46.0236174" lon="11.7693571"><ele>372.0</ele><time>2026-04-26T10:52:45.536Z</time></trkpt><trkpt lat="46.023583" lon="11.7694484"><ele>372.0</ele><time>2026-04-26T10:52:47.538Z</time></trkpt><trkpt lat="46.0235682" lon="11.7695501"><ele>372.0</ele><time>2026-04-26T10:52:49.536Z</time></trkpt><trkpt lat="46.0235488" lon="11.769639"><ele>372.0</ele><time>2026-04-26T10:52:51.537Z</time></trkpt><trkpt lat="46.0235228" lon="11.7697634"><ele>372.00000000000006</ele><time>2026-04-26T10:52:54.539Z</time></trkpt><trkpt lat="46.0235033" lon="11.7698669"><ele>372.0</ele><time>2026-04-26T10:52:57.535Z</time></trkpt><trkpt lat="46.0234684" lon="11.7699797"><ele>375.8571428571429</ele><time>2026-04-26T10:53:00.539Z</time></trkpt><trkpt lat="46.0234295" lon="11.770086"><ele>379.7142857142857</ele><time>2026-04-26T10:53:03.538Z</time></trkpt><trkpt lat="46.0233871" lon="11.770175"><ele>383.57142857142856</ele><time>2026-04-26T10:53:05.538Z</time></trkpt><trkpt lat="46.0233461" lon="11.7702528"><ele>387.42857142857144</ele><time>2026-04-26T10:53:07.539Z</time></trkpt><trkpt lat="46.023286" lon="11.7703102"><ele>391.2857142857143</ele><time>2026-04-26T10:53:09.537Z</time></trkpt><trkpt lat="46.0232233" lon="11.7703644"><ele>395.14285714285717</ele><time>2026-04-26T10:53:11.536Z</time></trkpt><trkpt lat="46.0231672" lon="11.7704162"><ele>399.0</ele><time>2026-04-26T10:53:13.54Z</time></trkpt><trkpt lat="46.0230889" lon="11.7704804"><ele>399.0</ele><time>2026-04-26T10:53:16.536Z</time></trkpt><trkpt lat="46.0230161" lon="11.7705531"><ele>399.0</ele><time>2026-04-26T10:53:19.538Z</time></trkpt><trkpt lat="46.0229376" lon="11.770584"><ele>399.0</ele><time>2026-04-26T10:53:22.538Z</time></trkpt><trkpt lat="46.0228576" lon="11.7705873"><ele>399.0</ele><time>2026-04-26T10:53:25.539Z</time></trkpt><trkpt lat="46.0227901" lon="11.7706239"><ele>399.0</ele><time>2026-04-26T10:53:27.539Z</time></trkpt><trkpt lat="46.0227191" lon="11.7706619"><ele>399.0</ele><time>2026-04-26T10:53:29.539Z</time></trkpt><trkpt lat="46.0226564" lon="11.7707083"><ele>399.0</ele><time>2026-04-26T10:53:31.537Z</time></trkpt><trkpt lat="46.022577" lon="11.7707552"><ele>399.0</ele><time>2026-04-26T10:53:34.539Z</time></trkpt><trkpt lat="46.0224915" lon="11.7707942"><ele>399.0</ele><time>2026-04-26T10:53:37.539Z</time></trkpt><trkpt lat="46.0224026" lon="11.7708389"><ele>399.0</ele><time>2026-04-26T10:53:40.539Z</time></trkpt><trkpt lat="46.0223183" lon="11.7708472"><ele>399.0</ele><time>2026-04-26T10:53:43.539Z</time></trkpt><trkpt lat="46.0222322" lon="11.7708429"><ele>399.0</ele><time>2026-04-26T10:53:46.539Z</time></trkpt><trkpt lat="46.0221399" lon="11.7708557"><ele>394.8333333333333</ele><time>2026-04-26T10:53:49.538Z</time></trkpt><trkpt lat="46.0220705" lon="11.7708672"><ele>390.6666666666667</ele><time>2026-04-26T10:53:51.538Z</time></trkpt><trkpt lat="46.0220038" lon="11.7708874"><ele>386.5</ele><time>2026-04-26T10:53:53.539Z</time></trkpt><trkpt lat="46.0219273" lon="11.7709534"><ele>382.33333333333337</ele><time>2026-04-26T10:53:56.54Z</time></trkpt><trkpt lat="46.021863" lon="11.771038"><ele>378.1666666666667</ele><time>2026-04-26T10:53:59.539Z</time></trkpt><trkpt lat="46.0218315" lon="11.7711314"><ele>374.0</ele><time>2026-04-26T10:54:02.539Z</time></trkpt><trkpt lat="46.0218327" lon="11.7712454"><ele>374.0</ele><time>2026-04-26T10:54:05.537Z</time></trkpt><trkpt lat="46.021861" lon="11.7713463"><ele>374.0</ele><time>2026-04-26T10:54:08.539Z</time></trkpt><trkpt lat="46.0218821" lon="11.7714387"><ele>374.0</ele><time>2026-04-26T10:54:11.537Z</time></trkpt><trkpt lat="46.0219421" lon="11.7715117"><ele>374.0</ele><time>2026-04-26T10:54:14.539Z</time></trkpt><trkpt lat="46.0219638" lon="11.7716042"><ele>374.0</ele><time>2026-04-26T10:54:17.539Z</time></trkpt><trkpt lat="46.0219961" lon="11.7716897"><ele>374.0</ele><time>2026-04-26T10:54:21.538Z</time></trkpt><trkpt lat="46.0220256" lon="11.7717753"><ele>374.0</ele><time>2026-04-26T10:54:24.538Z</time></trkpt><trkpt lat="46.0220503" lon="11.7718805"><ele>373.1666666666667</ele><time>2026-04-26T10:54:27.536Z</time></trkpt><trkpt lat="46.0220699" lon="11.7719886"><ele>372.33333333333337</ele><time>2026-04-26T10:54:30.536Z</time></trkpt><trkpt lat="46.0220934" lon="11.772108"><ele>371.5</ele><time>2026-04-26T10:54:33.537Z</time></trkpt><trkpt lat="46.0221152" lon="11.7722181"><ele>370.6666666666667</ele><time>2026-04-26T10:54:36.538Z</time></trkpt><trkpt lat="46.0221561" lon="11.7723125"><ele>369.8333333333333</ele><time>2026-04-26T10:54:39.537Z</time></trkpt><trkpt lat="46.0221758" lon="11.7724142"><ele>369.0</ele><time>2026-04-26T10:54:42.539Z</time></trkpt><trkpt lat="46.022206" lon="11.7725163"><ele>369.0</ele><time>2026-04-26T10:54:45.535Z</time></trkpt><trkpt lat="46.0222463" lon="11.7726097"><ele>369.0</ele><time>2026-04-26T10:54:48.539Z</time></trkpt><trkpt lat="46.0222789" lon="11.7727109"><ele>369.0</ele><time>2026-04-26T10:54:51.536Z</time></trkpt><trkpt lat="46.0223042" lon="11.77282"><ele>369.0</ele><time>2026-04-26T10:54:54.538Z</time></trkpt><trkpt lat="46.0223368" lon="11.7729097"><ele>369.0</ele><time>2026-04-26T10:54:57.54Z</time></trkpt><trkpt lat="46.0223733" lon="11.7729911"><ele>369.0</ele><time>2026-04-26T10:55:00.537Z</time></trkpt><trkpt lat="46.0224129" lon="11.7730902"><ele>367.5</ele><time>2026-04-26T10:55:03.539Z</time></trkpt><trkpt lat="46.0224228" lon="11.773194"><ele>366.0</ele><time>2026-04-26T10:55:06.535Z</time></trkpt><trkpt lat="46.0224321" lon="11.7733051"><ele>364.5</ele><time>2026-04-26T10:55:09.54Z</time></trkpt><trkpt lat="46.0224475" lon="11.7734299"><ele>363.0</ele><time>2026-04-26T10:55:12.538Z</time></trkpt><trkpt lat="46.0224508" lon="11.7735392"><ele>361.5</ele><time>2026-04-26T10:55:15.536Z</time></trkpt><trkpt lat="46.0224561" lon="11.7736338"><ele>360.0</ele><time>2026-04-26T10:55:18.536Z</time></trkpt><trkpt lat="46.0224625" lon="11.7737607"><ele>356.6666666666667</ele><time>2026-04-26T10:55:21.537Z</time></trkpt><trkpt lat="46.0224612" lon="11.7738803"><ele>353.3333333333333</ele><time>2026-04-26T10:55:24.537Z</time></trkpt><trkpt lat="46.0224972" lon="11.7739908"><ele>350.0</ele><time>2026-04-26T10:55:27.537Z</time></trkpt><trkpt lat="46.0225682" lon="11.7740626"><ele>346.66666666666663</ele><time>2026-04-26T10:55:30.539Z</time></trkpt><trkpt lat="46.022646" lon="11.7741156"><ele>343.3333333333333</ele><time>2026-04-26T10:55:33.539Z</time></trkpt><trkpt lat="46.0227204" lon="11.774171"><ele>340.0</ele><time>2026-04-26T10:55:36.537Z</time></trkpt><trkpt lat="46.0227714" lon="11.7742651"><ele>340.0</ele><time>2026-04-26T10:55:39.536Z</time></trkpt><trkpt lat="46.0228153" lon="11.7743414"><ele>340.0</ele><time>2026-04-26T10:55:42.536Z</time></trkpt><trkpt lat="46.0228893" lon="11.7743075"><ele>340.0</ele><time>2026-04-26T10:55:46.538Z</time></trkpt><trkpt lat="46.0228554" lon="11.7742194"><ele>340.0</ele><time>2026-04-26T10:55:50.539Z</time></trkpt><trkpt lat="46.0227583" lon="11.7741417"><ele>340.0</ele><time>2026-04-26T10:57:13.537Z</time></trkpt><trkpt lat="46.0226983" lon="11.7740967"><ele>340.0</ele><time>2026-04-26T10:57:16.538Z</time></trkpt><trkpt lat="46.0226368" lon="11.7740402"><ele>340.0</ele><time>2026-04-26T10:57:19.537Z</time></trkpt><trkpt lat="46.0225772" lon="11.7739846"><ele>340.0</ele><time>2026-04-26T10:57:22.537Z</time></trkpt><trkpt lat="46.0225288" lon="11.7739001"><ele>340.0</ele><time>2026-04-26T10:57:25.537Z</time></trkpt><trkpt lat="46.0225089" lon="11.7737933"><ele>340.0</ele><time>2026-04-26T10:57:28.536Z</time></trkpt><trkpt lat="46.0224982" lon="11.7736959"><ele>340.0</ele><time>2026-04-26T10:57:31.538Z</time></trkpt><trkpt lat="46.0225181" lon="11.7735961"><ele>340.0</ele><time>2026-04-26T10:57:34.535Z</time></trkpt><trkpt lat="46.0225481" lon="11.7735055"><ele>340.0</ele><time>2026-04-26T10:57:37.538Z</time></trkpt><trkpt lat="46.0225562" lon="11.7734154"><ele>343.3333333333333</ele><time>2026-04-26T10:57:40.536Z</time></trkpt><trkpt lat="46.0225538" lon="11.7733216"><ele>346.66666666666663</ele><time>2026-04-26T10:57:43.537Z</time></trkpt><trkpt lat="46.0225411" lon="11.7732189"><ele>350.0</ele><time>2026-04-26T10:57:46.54Z</time></trkpt><trkpt lat="46.0225119" lon="11.7731085"><ele>353.3333333333333</ele><time>2026-04-26T10:57:49.539Z</time></trkpt><trkpt lat="46.022477" lon="11.7729914"><ele>356.6666666666667</ele><time>2026-04-26T10:57:52.538Z</time></trkpt><trkpt lat="46.0224488" lon="11.7728799"><ele>360.0</ele><time>2026-04-26T10:57:55.539Z</time></trkpt><trkpt lat="46.022414" lon="11.7727751"><ele>361.5</ele><time>2026-04-26T10:57:58.537Z</time></trkpt><trkpt lat="46.0224019" lon="11.7726704"><ele>363.0</ele><time>2026-04-26T10:58:01.536Z</time></trkpt><trkpt lat="46.0223923" lon="11.7725544"><ele>364.5</ele><time>2026-04-26T10:58:04.537Z</time></trkpt><trkpt lat="46.0224023" lon="11.7724445"><ele>366.0</ele><time>2026-04-26T10:58:07.536Z</time></trkpt><trkpt lat="46.02241" lon="11.7723427"><ele>367.5</ele><time>2026-04-26T10:58:10.538Z</time></trkpt><trkpt lat="46.0224097" lon="11.7722372"><ele>369.0</ele><time>2026-04-26T10:58:13.538Z</time></trkpt><trkpt lat="46.0224186" lon="11.7721239"><ele>369.0</ele><time>2026-04-26T10:58:16.539Z</time></trkpt><trkpt lat="46.0224372" lon="11.7720195"><ele>369.0</ele><time>2026-04-26T10:58:19.536Z</time></trkpt><trkpt lat="46.0224741" lon="11.7719193"><ele>369.0</ele><time>2026-04-26T10:58:22.538Z</time></trkpt><trkpt lat="46.0225077" lon="11.7718383"><ele>369.0</ele><time>2026-04-26T10:58:25.539Z</time></trkpt><trkpt lat="46.0225226" lon="11.7717428"><ele>369.0</ele><time>2026-04-26T10:58:28.538Z</time></trkpt><trkpt lat="46.0225433" lon="11.771847"><ele>369.0</ele><time>2026-04-26T10:58:40.538Z</time></trkpt><trkpt lat="46.0225101" lon="11.771925"><ele>369.0</ele><time>2026-04-26T10:58:43.536Z</time></trkpt><trkpt lat="46.0224919" lon="11.77202"><ele>369.0</ele><time>2026-04-26T10:58:46.539Z</time></trkpt><trkpt lat="46.0224743" lon="11.7721171"><ele>369.0</ele><time>2026-04-26T10:58:49.538Z</time></trkpt><trkpt lat="46.0224677" lon="11.7722412"><ele>369.0</ele><time>2026-04-26T10:58:52.537Z</time></trkpt><trkpt lat="46.022491" lon="11.7723591"><ele>369.0</ele><time>2026-04-26T10:58:55.537Z</time></trkpt><trkpt lat="46.022511" lon="11.7724728"><ele>369.0</ele><time>2026-04-26T10:58:58.537Z</time></trkpt><trkpt lat="46.0225251" lon="11.7725728"><ele>369.0</ele><time>2026-04-26T10:59:01.537Z</time></trkpt><trkpt lat="46.0225427" lon="11.772674"><ele>369.0</ele><time>2026-04-26T10:59:04.537Z</time></trkpt><trkpt lat="46.0225566" lon="11.7727776"><ele>369.0</ele><time>2026-04-26T10:59:07.539Z</time></trkpt><trkpt lat="46.0225817" lon="11.772883"><ele>369.0</ele><time>2026-04-26T10:59:10.537Z</time></trkpt><trkpt lat="46.0226036" lon="11.7729759"><ele>369.0</ele><time>2026-04-26T10:59:13.537Z</time></trkpt><trkpt lat="46.0226162" lon="11.7730818"><ele>369.0</ele><time>2026-04-26T10:59:16.539Z</time></trkpt><trkpt lat="46.0226338" lon="11.7731902"><ele>369.0</ele><time>2026-04-26T10:59:19.539Z</time></trkpt><trkpt lat="46.0226534" lon="11.7733122"><ele>369.0</ele><time>2026-04-26T10:59:22.539Z</time></trkpt><trkpt lat="46.0226727" lon="11.7734161"><ele>369.0</ele><time>2026-04-26T10:59:25.538Z</time></trkpt><trkpt lat="46.02268" lon="11.7735175"><ele>369.0</ele><time>2026-04-26T10:59:28.54Z</time></trkpt><trkpt lat="46.0226761" lon="11.7736159"><ele>369.0</ele><time>2026-04-26T10:59:31.536Z</time></trkpt><trkpt lat="46.0226972" lon="11.7737267"><ele>369.0</ele><time>2026-04-26T10:59:35.538Z</time></trkpt><trkpt lat="46.0227572" lon="11.773679"><ele>369.0</ele><time>2026-04-26T10:59:39.539Z</time></trkpt><trkpt lat="46.0227481" lon="11.773577"><ele>369.0</ele><time>2026-04-26T10:59:42.537Z</time></trkpt><trkpt lat="46.022727" lon="11.7734709"><ele>369.0</ele><time>2026-04-26T10:59:45.537Z</time></trkpt><trkpt lat="46.0227086" lon="11.7733589"><ele>369.0</ele><time>2026-04-26T10:59:48.535Z</time></trkpt><trkpt lat="46.0226888" lon="11.7732622"><ele>369.0</ele><time>2026-04-26T10:59:51.539Z</time></trkpt><trkpt lat="46.022694" lon="11.7731441"><ele>369.0</ele><time>2026-04-26T10:59:55.536Z</time></trkpt><trkpt lat="46.0227018" lon="11.7730364"><ele>369.0</ele><time>2026-04-26T10:59:59.538Z</time></trkpt><trkpt lat="46.0227039" lon="11.7729435"><ele>369.0</ele><time>2026-04-26T11:00:02.539Z</time></trkpt><trkpt lat="46.022698" lon="11.7728333"><ele>369.0</ele><time>2026-04-26T11:00:05.539Z</time></trkpt><trkpt lat="46.0226878" lon="11.7727108"><ele>378.6666666666667</ele><time>2026-04-26T11:00:08.536Z</time></trkpt><trkpt lat="46.0226812" lon="11.7726086"><ele>388.33333333333337</ele><time>2026-04-26T11:00:11.537Z</time></trkpt><trkpt lat="46.022701" lon="11.7725057"><ele>398.0</ele><time>2026-04-26T11:00:14.539Z</time></trkpt><trkpt lat="46.0227412" lon="11.7723986"><ele>407.6666666666667</ele><time>2026-04-26T11:00:18.538Z</time></trkpt><trkpt lat="46.02278" lon="11.7723006"><ele>417.33333333333337</ele><time>2026-04-26T11:00:21.541Z</time></trkpt><trkpt lat="46.0228162" lon="11.772192"><ele>427.0</ele><time>2026-04-26T11:00:24.537Z</time></trkpt><trkpt lat="46.022851" lon="11.7720931"><ele>427.00000000000006</ele><time>2026-04-26T11:00:27.536Z</time></trkpt><trkpt lat="46.0228802" lon="11.7720047"><ele>427.0</ele><time>2026-04-26T11:00:30.539Z</time></trkpt><trkpt lat="46.0229" lon="11.7719127"><ele>427.0</ele><time>2026-04-26T11:00:33.54Z</time></trkpt><trkpt lat="46.0229339" lon="11.7718032"><ele>427.0</ele><time>2026-04-26T11:00:36.54Z</time></trkpt><trkpt lat="46.0229834" lon="11.7717013"><ele>427.00000000000006</ele><time>2026-04-26T11:00:39.538Z</time></trkpt><trkpt lat="46.0230503" lon="11.7716191"><ele>427.0</ele><time>2026-04-26T11:00:42.537Z</time></trkpt><trkpt lat="46.0231153" lon="11.7715528"><ele>427.1666666666667</ele><time>2026-04-26T11:00:45.538Z</time></trkpt><trkpt lat="46.0231778" lon="11.7715098"><ele>427.33333333333337</ele><time>2026-04-26T11:00:48.537Z</time></trkpt><trkpt lat="46.0232505" lon="11.7714311"><ele>427.5</ele><time>2026-04-26T11:00:51.536Z</time></trkpt><trkpt lat="46.0233038" lon="11.7713713"><ele>427.66666666666663</ele><time>2026-04-26T11:00:53.539Z</time></trkpt><trkpt lat="46.0233727" lon="11.7712999"><ele>427.8333333333333</ele><time>2026-04-26T11:00:56.539Z</time></trkpt><trkpt lat="46.0234499" lon="11.7712117"><ele>428.0</ele><time>2026-04-26T11:00:59.535Z</time></trkpt><trkpt lat="46.0235294" lon="11.7711421"><ele>429.8333333333333</ele><time>2026-04-26T11:01:02.539Z</time></trkpt><trkpt lat="46.0236044" lon="11.7710694"><ele>431.66666666666663</ele><time>2026-04-26T11:01:05.535Z</time></trkpt><trkpt lat="46.0236723" lon="11.7710243"><ele>433.5</ele><time>2026-04-26T11:01:07.535Z</time></trkpt><trkpt lat="46.0237345" lon="11.771005"><ele>435.33333333333337</ele><time>2026-04-26T11:01:09.536Z</time></trkpt><trkpt lat="46.0238156" lon="11.7709914"><ele>437.1666666666667</ele><time>2026-04-26T11:01:12.539Z</time></trkpt><trkpt lat="46.023884" lon="11.7709807"><ele>439.0</ele><time>2026-04-26T11:01:14.539Z</time></trkpt><trkpt lat="46.0239558" lon="11.7709209"><ele>439.00000000000006</ele><time>2026-04-26T11:01:17.537Z</time></trkpt><trkpt lat="46.0239913" lon="11.7708392"><ele>439.0</ele><time>2026-04-26T11:01:20.539Z</time></trkpt><trkpt lat="46.0240387" lon="11.7707321"><ele>439.0</ele><time>2026-04-26T11:01:23.538Z</time></trkpt><trkpt lat="46.0240618" lon="11.7706335"><ele>439.0</ele><time>2026-04-26T11:01:25.539Z</time></trkpt><trkpt lat="46.0240813" lon="11.7705247"><ele>439.00000000000006</ele><time>2026-04-26T11:01:27.539Z</time></trkpt><trkpt lat="46.0241023" lon="11.7704123"><ele>439.0</ele><time>2026-04-26T11:01:29.537Z</time></trkpt><trkpt lat="46.0241243" lon="11.7703176"><ele>443.7142857142857</ele><time>2026-04-26T11:01:31.54Z</time></trkpt><trkpt lat="46.0241538" lon="11.7702018"><ele>448.42857142857144</ele><time>2026-04-26T11:01:34.539Z</time></trkpt><trkpt lat="46.0241461" lon="11.7701057"><ele>453.1428571428571</ele><time>2026-04-26T11:01:36.539Z</time></trkpt><trkpt lat="46.0241413" lon="11.7699864"><ele>457.8571428571429</ele><time>2026-04-26T11:01:38.538Z</time></trkpt><trkpt lat="46.0241397" lon="11.769885"><ele>462.5714285714286</ele><time>2026-04-26T11:01:40.537Z</time></trkpt><trkpt lat="46.0241548" lon="11.7697952"><ele>467.2857142857143</ele><time>2026-04-26T11:01:42.538Z</time></trkpt><trkpt lat="46.0242" lon="11.7697051"><ele>472.0</ele><time>2026-04-26T11:01:44.538Z</time></trkpt><trkpt lat="46.0242445" lon="11.7696124"><ele>472.0</ele><time>2026-04-26T11:01:46.538Z</time></trkpt><trkpt lat="46.02428" lon="11.7695351"><ele>472.0</ele><time>2026-04-26T11:01:48.539Z</time></trkpt><trkpt lat="46.0243094" lon="11.7694548"><ele>472.0</ele><time>2026-04-26T11:01:50.536Z</time></trkpt><trkpt lat="46.0243515" lon="11.769379"><ele>472.0</ele><time>2026-04-26T11:01:52.54Z</time></trkpt><trkpt lat="46.0243942" lon="11.7693034"><ele>472.0</ele><time>2026-04-26T11:01:54.537Z</time></trkpt><trkpt lat="46.0244336" lon="11.7692212"><ele>472.0</ele><time>2026-04-26T11:01:56.538Z</time></trkpt><trkpt lat="46.0245029" lon="11.7691281"><ele>472.0</ele><time>2026-04-26T11:01:59.539Z</time></trkpt><trkpt lat="46.0245606" lon="11.769024"><ele>469.1428571428571</ele><time>2026-04-26T11:02:02.539Z</time></trkpt><trkpt lat="46.0246191" lon="11.7689292"><ele>466.28571428571433</ele><time>2026-04-26T11:02:05.537Z</time></trkpt><trkpt lat="46.0246655" lon="11.7688667"><ele>463.42857142857144</ele><time>2026-04-26T11:02:07.539Z</time></trkpt><trkpt lat="46.0246993" lon="11.768788"><ele>460.57142857142856</ele><time>2026-04-26T11:02:09.538Z</time></trkpt><trkpt lat="46.0247219" lon="11.7686964"><ele>457.71428571428567</ele><time>2026-04-26T11:02:11.539Z</time></trkpt><trkpt lat="46.0247457" lon="11.7686037"><ele>454.8571428571429</ele><time>2026-04-26T11:02:13.537Z</time></trkpt><trkpt lat="46.0247681" lon="11.7685138"><ele>452.0</ele><time>2026-04-26T11:02:15.538Z</time></trkpt><trkpt lat="46.0247942" lon="11.7684205"><ele>447.2857142857143</ele><time>2026-04-26T11:02:17.537Z</time></trkpt><trkpt lat="46.0248244" lon="11.768335"><ele>442.57142857142856</ele><time>2026-04-26T11:02:19.537Z</time></trkpt><trkpt lat="46.0248574" lon="11.7682535"><ele>437.85714285714283</ele><time>2026-04-26T11:02:21.537Z</time></trkpt><trkpt lat="46.0249073" lon="11.7681834"><ele>433.1428571428571</ele><time>2026-04-26T11:02:23.537Z</time></trkpt><trkpt lat="46.0249531" lon="11.768108"><ele>428.42857142857144</ele><time>2026-04-26T11:02:25.538Z</time></trkpt><trkpt lat="46.0250002" lon="11.7680435"><ele>423.71428571428567</ele><time>2026-04-26T11:02:27.538Z</time></trkpt><trkpt lat="46.0250373" lon="11.7679662"><ele>419.0</ele><time>2026-04-26T11:02:29.537Z</time></trkpt><trkpt lat="46.0250765" lon="11.767888"><ele>430.49999999999994</ele><time>2026-04-26T11:02:31.537Z</time></trkpt><trkpt lat="46.0251123" lon="11.7678054"><ele>442.0</ele><time>2026-04-26T11:02:33.539Z</time></trkpt><trkpt lat="46.0251689" lon="11.7677166"><ele>453.5</ele><time>2026-04-26T11:02:36.537Z</time></trkpt><trkpt lat="46.0252276" lon="11.7677589"><ele>465.0</ele><time>2026-04-26T11:02:40.537Z</time></trkpt><trkpt lat="46.0251952" lon="11.7678557"><ele>476.49999999999994</ele><time>2026-04-26T11:02:44.539Z</time></trkpt><trkpt lat="46.0251363" lon="11.7679194"><ele>488.0</ele><time>2026-04-26T11:02:47.538Z</time></trkpt><trkpt lat="46.0250709" lon="11.7680074"><ele>487.99999999999994</ele><time>2026-04-26T11:02:50.538Z</time></trkpt><trkpt lat="46.0250227" lon="11.7681092"><ele>488.0</ele><time>2026-04-26T11:02:53.537Z</time></trkpt><trkpt lat="46.0249602" lon="11.768197"><ele>488.0</ele><time>2026-04-26T11:02:56.539Z</time></trkpt><trkpt lat="46.0249078" lon="11.7682834"><ele>488.0</ele><time>2026-04-26T11:02:59.539Z</time></trkpt><trkpt lat="46.0248708" lon="11.768399"><ele>487.99999999999994</ele><time>2026-04-26T11:03:02.539Z</time></trkpt><trkpt lat="46.0248519" lon="11.7684877"><ele>488.0</ele><time>2026-04-26T11:03:04.538Z</time></trkpt><trkpt lat="46.0248224" lon="11.7686038"><ele>481.99999999999994</ele><time>2026-04-26T11:03:07.538Z</time></trkpt><trkpt lat="46.0247965" lon="11.7687182"><ele>476.0</ele><time>2026-04-26T11:03:10.539Z</time></trkpt><trkpt lat="46.024755" lon="11.7688334"><ele>470.0</ele><time>2026-04-26T11:03:13.539Z</time></trkpt><trkpt lat="46.0247017" lon="11.7689253"><ele>464.0</ele><time>2026-04-26T11:03:16.538Z</time></trkpt><trkpt lat="46.0246516" lon="11.7690063"><ele>457.99999999999994</ele><time>2026-04-26T11:03:19.536Z</time></trkpt><trkpt lat="46.0246218" lon="11.7691223"><ele>452.0</ele><time>2026-04-26T11:03:22.539Z</time></trkpt><trkpt lat="46.0245904" lon="11.769237"><ele>451.99999999999994</ele><time>2026-04-26T11:03:25.536Z</time></trkpt><trkpt lat="46.024551" lon="11.7693568"><ele>452.0</ele><time>2026-04-26T11:03:28.537Z</time></trkpt><trkpt lat="46.0245336" lon="11.7694472"><ele>452.0</ele><time>2026-04-26T11:03:30.539Z</time></trkpt><trkpt lat="46.0244932" lon="11.7695639"><ele>452.0</ele><time>2026-04-26T11:03:33.538Z</time></trkpt><trkpt lat="46.0244718" lon="11.7696835"><ele>451.99999999999994</ele><time>2026-04-26T11:03:36.54Z</time></trkpt><trkpt lat="46.0244353" lon="11.7697868"><ele>452.0</ele><time>2026-04-26T11:03:39.539Z</time></trkpt><trkpt lat="46.0244118" lon="11.7699129"><ele>454.8571428571429</ele><time>2026-04-26T11:03:42.538Z</time></trkpt><trkpt lat="46.0243939" lon="11.7700005"><ele>457.71428571428567</ele><time>2026-04-26T11:03:44.539Z</time></trkpt><trkpt lat="46.024366" lon="11.770083"><ele>460.57142857142856</ele><time>2026-04-26T11:03:46.537Z</time></trkpt><trkpt lat="46.024349" lon="11.7701822"><ele>463.42857142857144</ele><time>2026-04-26T11:03:48.539Z</time></trkpt><trkpt lat="46.0243292" lon="11.7703147"><ele>466.28571428571433</ele><time>2026-04-26T11:03:51.539Z</time></trkpt><trkpt lat="46.024314" lon="11.7704411"><ele>469.1428571428571</ele><time>2026-04-26T11:03:54.539Z</time></trkpt><trkpt lat="46.0243179" lon="11.7705325"><ele>472.0</ele><time>2026-04-26T11:03:56.539Z</time></trkpt><trkpt lat="46.0243134" lon="11.7706706"><ele>473.50000000000006</ele><time>2026-04-26T11:03:59.539Z</time></trkpt><trkpt lat="46.0243073" lon="11.7707959"><ele>475.0</ele><time>2026-04-26T11:04:02.539Z</time></trkpt><trkpt lat="46.0242802" lon="11.7709105"><ele>476.5</ele><time>2026-04-26T11:04:05.538Z</time></trkpt><trkpt lat="46.024249" lon="11.7709905"><ele>478.0</ele><time>2026-04-26T11:04:07.539Z</time></trkpt><trkpt lat="46.0241923" lon="11.7710857"><ele>479.50000000000006</ele><time>2026-04-26T11:04:10.538Z</time></trkpt><trkpt lat="46.0241255" lon="11.771167"><ele>481.0</ele><time>2026-04-26T11:04:13.54Z</time></trkpt><trkpt lat="46.024075" lon="11.7712328"><ele>480.99999999999994</ele><time>2026-04-26T11:04:15.54Z</time></trkpt><trkpt lat="46.0240195" lon="11.7713033"><ele>481.0</ele><time>2026-04-26T11:04:17.538Z</time></trkpt><trkpt lat="46.0239662" lon="11.7713688"><ele>480.99999999999994</ele><time>2026-04-26T11:04:19.538Z</time></trkpt><trkpt lat="46.0239199" lon="11.771439"><ele>480.99999999999994</ele><time>2026-04-26T11:04:21.537Z</time></trkpt><trkpt lat="46.0238689" lon="11.7714925"><ele>481.0</ele><time>2026-04-26T11:04:23.538Z</time></trkpt><trkpt lat="46.02381" lon="11.7715668"><ele>480.99999999999994</ele><time>2026-04-26T11:04:26.538Z</time></trkpt><trkpt lat="46.0237422" lon="11.7716246"><ele>480.99999999999994</ele><time>2026-04-26T11:04:29.539Z</time></trkpt><trkpt lat="46.0236772" lon="11.7716642"><ele>480.99999999999994</ele><time>2026-04-26T11:04:31.537Z</time></trkpt><trkpt lat="46.0235946" lon="11.7717176"><ele>481.0</ele><time>2026-04-26T11:04:34.538Z</time></trkpt><trkpt lat="46.0235336" lon="11.7717526"><ele>480.99999999999994</ele><time>2026-04-26T11:04:36.537Z</time></trkpt><trkpt lat="46.0234659" lon="11.7717894"><ele>480.99999999999994</ele><time>2026-04-26T11:04:38.539Z</time></trkpt><trkpt lat="46.0233923" lon="11.7718308"><ele>481.0</ele><time>2026-04-26T11:04:40.537Z</time></trkpt><trkpt lat="46.0233472" lon="11.7718992"><ele>480.99999999999994</ele><time>2026-04-26T11:04:42.539Z</time></trkpt><trkpt lat="46.0233307" lon="11.7719907"><ele>480.99999999999994</ele><time>2026-04-26T11:04:44.539Z</time></trkpt><trkpt lat="46.0233932" lon="11.7720405"><ele>481.00000000000006</ele><time>2026-04-26T11:04:48.537Z</time></trkpt><trkpt lat="46.0234621" lon="11.7719782"><ele>481.0</ele><time>2026-04-26T11:04:51.537Z</time></trkpt><trkpt lat="46.0235311" lon="11.7719222"><ele>481.0</ele><time>2026-04-26T11:04:54.538Z</time></trkpt><trkpt lat="46.0236002" lon="11.7718502"><ele>481.0</ele><time>2026-04-26T11:04:57.539Z</time></trkpt><trkpt lat="46.0236782" lon="11.7718019"><ele>481.00000000000006</ele><time>2026-04-26T11:05:00.54Z</time></trkpt><trkpt lat="46.0237463" lon="11.7717465"><ele>481.0</ele><time>2026-04-26T11:05:03.537Z</time></trkpt><trkpt lat="46.0238336" lon="11.7717001"><ele>481.00000000000006</ele><time>2026-04-26T11:05:06.539Z</time></trkpt><trkpt lat="46.0239112" lon="11.7716506"><ele>481.0</ele><time>2026-04-26T11:05:09.538Z</time></trkpt><trkpt lat="46.0239896" lon="11.7715879"><ele>481.0</ele><time>2026-04-26T11:05:12.54Z</time></trkpt><trkpt lat="46.0240604" lon="11.7715288"><ele>481.0</ele><time>2026-04-26T11:05:15.538Z</time></trkpt><trkpt lat="46.0241287" lon="11.7714724"><ele>481.00000000000006</ele><time>2026-04-26T11:05:18.539Z</time></trkpt><trkpt lat="46.0242012" lon="11.7714054"><ele>481.0</ele><time>2026-04-26T11:05:21.537Z</time></trkpt><trkpt lat="46.0242594" lon="11.7713377"><ele>482.71428571428567</ele><time>2026-04-26T11:05:24.538Z</time></trkpt><trkpt lat="46.0243182" lon="11.7712552"><ele>484.42857142857144</ele><time>2026-04-26T11:05:27.537Z</time></trkpt><trkpt lat="46.0243782" lon="11.7711481"><ele>486.1428571428571</ele><time>2026-04-26T11:05:30.539Z</time></trkpt><trkpt lat="46.0244118" lon="11.7710684"><ele>487.85714285714283</ele><time>2026-04-26T11:05:32.538Z</time></trkpt><trkpt lat="46.0244494" lon="11.7709887"><ele>489.57142857142856</ele><time>2026-04-26T11:05:34.537Z</time></trkpt><trkpt lat="46.024483" lon="11.7709083"><ele>491.2857142857143</ele><time>2026-04-26T11:05:36.539Z</time></trkpt><trkpt lat="46.0245089" lon="11.7708245"><ele>493.0</ele><time>2026-04-26T11:05:38.54Z</time></trkpt><trkpt lat="46.0245315" lon="11.7706951"><ele>493.00000000000006</ele><time>2026-04-26T11:05:41.539Z</time></trkpt><trkpt lat="46.0245547" lon="11.7705759"><ele>493.0</ele><time>2026-04-26T11:05:44.54Z</time></trkpt><trkpt lat="46.024592" lon="11.770458"><ele>493.0</ele><time>2026-04-26T11:05:47.539Z</time></trkpt><trkpt lat="46.0246344" lon="11.7703498"><ele>493.0</ele><time>2026-04-26T11:05:50.538Z</time></trkpt><trkpt lat="46.0246754" lon="11.7702306"><ele>493.00000000000006</ele><time>2026-04-26T11:05:53.539Z</time></trkpt><trkpt lat="46.0247115" lon="11.7701376"><ele>493.0</ele><time>2026-04-26T11:05:56.539Z</time></trkpt><trkpt lat="46.0247468" lon="11.7700477"><ele>489.50000000000006</ele><time>2026-04-26T11:05:59.538Z</time></trkpt><trkpt lat="46.024789" lon="11.7699426"><ele>486.0</ele><time>2026-04-26T11:06:02.537Z</time></trkpt><trkpt lat="46.0248297" lon="11.769853"><ele>482.5</ele><time>2026-04-26T11:06:05.538Z</time></trkpt><trkpt lat="46.0248734" lon="11.7697607"><ele>479.0</ele><time>2026-04-26T11:06:08.538Z</time></trkpt><trkpt lat="46.0249102" lon="11.7696553"><ele>475.50000000000006</ele><time>2026-04-26T11:06:11.539Z</time></trkpt><trkpt lat="46.0249576" lon="11.7695499"><ele>472.0</ele><time>2026-04-26T11:06:14.539Z</time></trkpt><trkpt lat="46.0250196" lon="11.7694864"><ele>477.50000000000006</ele><time>2026-04-26T11:06:17.54Z</time></trkpt><trkpt lat="46.0250825" lon="11.769405"><ele>483.0</ele><time>2026-04-26T11:06:20.539Z</time></trkpt><trkpt lat="46.0251494" lon="11.7693191"><ele>488.5</ele><time>2026-04-26T11:06:23.537Z</time></trkpt><trkpt lat="46.0252089" lon="11.7692468"><ele>494.0</ele><time>2026-04-26T11:06:26.539Z</time></trkpt><trkpt lat="46.0252755" lon="11.7691866"><ele>499.50000000000006</ele><time>2026-04-26T11:06:29.537Z</time></trkpt><trkpt lat="46.0253454" lon="11.7691272"><ele>505.0</ele><time>2026-04-26T11:06:32.541Z</time></trkpt><trkpt lat="46.0253958" lon="11.7690607"><ele>505.00000000000006</ele><time>2026-04-26T11:06:34.539Z</time></trkpt><trkpt lat="46.0254512" lon="11.7689672"><ele>505.0</ele><time>2026-04-26T11:06:37.536Z</time></trkpt><trkpt lat="46.0254802" lon="11.7688754"><ele>505.0</ele><time>2026-04-26T11:06:40.538Z</time></trkpt><trkpt lat="46.0255209" lon="11.7687817"><ele>505.0</ele><time>2026-04-26T11:06:43.535Z</time></trkpt><trkpt lat="46.0255762" lon="11.768692"><ele>505.00000000000006</ele><time>2026-04-26T11:06:46.537Z</time></trkpt><trkpt lat="46.0256235" lon="11.7685907"><ele>505.0</ele><time>2026-04-26T11:06:49.538Z</time></trkpt><trkpt lat="46.0256749" lon="11.7684908"><ele>502.1666666666667</ele><time>2026-04-26T11:06:52.539Z</time></trkpt><trkpt lat="46.025735" lon="11.7684021"><ele>499.33333333333337</ele><time>2026-04-26T11:06:55.536Z</time></trkpt><trkpt lat="46.0257828" lon="11.7683085"><ele>496.5</ele><time>2026-04-26T11:06:58.539Z</time></trkpt><trkpt lat="46.0258303" lon="11.7682025"><ele>493.66666666666663</ele><time>2026-04-26T11:07:01.538Z</time></trkpt><trkpt lat="46.0258565" lon="11.7681105"><ele>490.8333333333333</ele><time>2026-04-26T11:07:04.538Z</time></trkpt><trkpt lat="46.0258596" lon="11.7679761"><ele>488.0</ele><time>2026-04-26T11:07:07.538Z</time></trkpt><trkpt lat="46.0258489" lon="11.7678796"><ele>487.99999999999994</ele><time>2026-04-26T11:07:09.537Z</time></trkpt><trkpt lat="46.0258675" lon="11.7677654"><ele>488.0</ele><time>2026-04-26T11:07:12.539Z</time></trkpt><trkpt lat="46.0258851" lon="11.7678759"><ele>488.0</ele><time>2026-04-26T11:07:20.539Z</time></trkpt><trkpt lat="46.0258555" lon="11.7679863"><ele>488.0</ele><time>2026-04-26T11:07:23.538Z</time></trkpt><trkpt lat="46.0258297" lon="11.7680981"><ele>487.99999999999994</ele><time>2026-04-26T11:07:26.537Z</time></trkpt><trkpt lat="46.0258154" lon="11.7682051"><ele>488.0</ele><time>2026-04-26T11:07:29.537Z</time></trkpt><trkpt lat="46.0257906" lon="11.7683199"><ele>487.99999999999994</ele><time>2026-04-26T11:07:32.538Z</time></trkpt><trkpt lat="46.0257643" lon="11.7684058"><ele>488.0</ele><time>2026-04-26T11:07:34.538Z</time></trkpt><trkpt lat="46.0257422" lon="11.7684948"><ele>487.99999999999994</ele><time>2026-04-26T11:07:36.537Z</time></trkpt><trkpt lat="46.0257244" lon="11.768584"><ele>487.99999999999994</ele><time>2026-04-26T11:07:38.539Z</time></trkpt><trkpt lat="46.0256903" lon="11.7687013"><ele>488.0</ele><time>2026-04-26T11:07:41.539Z</time></trkpt><trkpt lat="46.0256543" lon="11.7688012"><ele>487.99999999999994</ele><time>2026-04-26T11:07:44.539Z</time></trkpt><trkpt lat="46.0256009" lon="11.7688945"><ele>487.99999999999994</ele><time>2026-04-26T11:07:47.539Z</time></trkpt><trkpt lat="46.0255563" lon="11.7690116"><ele>490.8333333333333</ele><time>2026-04-26T11:07:50.54Z</time></trkpt><trkpt lat="46.025525" lon="11.7691367"><ele>493.66666666666663</ele><time>2026-04-26T11:07:53.537Z</time></trkpt><trkpt lat="46.0254906" lon="11.7692139"><ele>496.5</ele><time>2026-04-26T11:07:55.538Z</time></trkpt><trkpt lat="46.0254417" lon="11.7692739"><ele>499.33333333333337</ele><time>2026-04-26T11:07:57.538Z</time></trkpt><trkpt lat="46.0253731" lon="11.7693389"><ele>502.1666666666667</ele><time>2026-04-26T11:08:00.54Z</time></trkpt><trkpt lat="46.0253105" lon="11.7694311"><ele>505.0</ele><time>2026-04-26T11:08:03.539Z</time></trkpt><trkpt lat="46.0252604" lon="11.7695374"><ele>508.83333333333337</ele><time>2026-04-26T11:08:06.539Z</time></trkpt><trkpt lat="46.0252027" lon="11.7696371"><ele>512.6666666666667</ele><time>2026-04-26T11:08:09.538Z</time></trkpt><trkpt lat="46.0251568" lon="11.7697485"><ele>516.5</ele><time>2026-04-26T11:08:12.536Z</time></trkpt><trkpt lat="46.0251138" lon="11.769859"><ele>520.3333333333334</ele><time>2026-04-26T11:08:15.536Z</time></trkpt><trkpt lat="46.0250726" lon="11.7699684"><ele>524.1666666666666</ele><time>2026-04-26T11:08:18.539Z</time></trkpt><trkpt lat="46.0250369" lon="11.7700767"><ele>528.0</ele><time>2026-04-26T11:08:21.539Z</time></trkpt><trkpt lat="46.0250058" lon="11.7701952"><ele>522.1666666666666</ele><time>2026-04-26T11:08:24.538Z</time></trkpt><trkpt lat="46.0249686" lon="11.7703137"><ele>516.3333333333334</ele><time>2026-04-26T11:08:27.539Z</time></trkpt><trkpt lat="46.0249347" lon="11.7704358"><ele>510.5</ele><time>2026-04-26T11:08:30.535Z</time></trkpt><trkpt lat="46.0249036" lon="11.7705157"><ele>504.6666666666667</ele><time>2026-04-26T11:08:32.536Z</time></trkpt><trkpt lat="46.0248583" lon="11.7706247"><ele>498.83333333333337</ele><time>2026-04-26T11:08:35.535Z</time></trkpt><trkpt lat="46.0248043" lon="11.7707282"><ele>493.0</ele><time>2026-04-26T11:08:38.536Z</time></trkpt><trkpt lat="46.0247451" lon="11.7708297"><ele>493.00000000000006</ele><time>2026-04-26T11:08:41.537Z</time></trkpt><trkpt lat="46.0247034" lon="11.7709476"><ele>493.0</ele><time>2026-04-26T11:08:44.537Z</time></trkpt><trkpt lat="46.0246839" lon="11.7710722"><ele>493.0</ele><time>2026-04-26T11:08:47.539Z</time></trkpt><trkpt lat="46.0247004" lon="11.7711722"><ele>493.0</ele><time>2026-04-26T11:08:50.538Z</time></trkpt><trkpt lat="46.0247642" lon="11.7711601"><ele>493.00000000000006</ele><time>2026-04-26T11:08:53.539Z</time></trkpt><trkpt lat="46.0247954" lon="11.7710633"><ele>493.0</ele><time>2026-04-26T11:08:56.537Z</time></trkpt><trkpt lat="46.0248198" lon="11.7709629"><ele>493.00000000000006</ele><time>2026-04-26T11:08:59.538Z</time></trkpt><trkpt lat="46.0248554" lon="11.7708532"><ele>493.0</ele><time>2026-04-26T11:09:02.539Z</time></trkpt><trkpt lat="46.0249046" lon="11.7707528"><ele>493.0</ele><time>2026-04-26T11:09:05.537Z</time></trkpt><trkpt lat="46.024946" lon="11.7706435"><ele>493.0</ele><time>2026-04-26T11:09:08.538Z</time></trkpt><trkpt lat="46.0249847" lon="11.7705342"><ele>493.00000000000006</ele><time>2026-04-26T11:09:11.539Z</time></trkpt><trkpt lat="46.0250339" lon="11.7704398"><ele>493.0</ele><time>2026-04-26T11:09:14.537Z</time></trkpt><trkpt lat="46.0250733" lon="11.7703358"><ele>498.83333333333337</ele><time>2026-04-26T11:09:17.537Z</time></trkpt><trkpt lat="46.0251073" lon="11.7702222"><ele>504.6666666666667</ele><time>2026-04-26T11:09:20.537Z</time></trkpt><trkpt lat="46.0251548" lon="11.7701201"><ele>510.5</ele><time>2026-04-26T11:09:23.535Z</time></trkpt><trkpt lat="46.0252033" lon="11.7700066"><ele>516.3333333333334</ele><time>2026-04-26T11:09:26.536Z</time></trkpt><trkpt lat="46.025244" lon="11.7699333"><ele>522.1666666666666</ele><time>2026-04-26T11:09:28.537Z</time></trkpt><trkpt lat="46.02529" lon="11.7698696"><ele>528.0</ele><time>2026-04-26T11:09:30.537Z</time></trkpt><trkpt lat="46.0253447" lon="11.769823"><ele>528.0</ele><time>2026-04-26T11:09:32.539Z</time></trkpt><trkpt lat="46.0254196" lon="11.769744"><ele>528.0</ele><time>2026-04-26T11:09:35.537Z</time></trkpt><trkpt lat="46.025494" lon="11.7696854"><ele>528.0</ele><time>2026-04-26T11:09:38.539Z</time></trkpt><trkpt lat="46.0255684" lon="11.7696404"><ele>528.0</ele><time>2026-04-26T11:09:41.535Z</time></trkpt><trkpt lat="46.0256402" lon="11.7695717"><ele>528.0</ele><time>2026-04-26T11:09:44.539Z</time></trkpt><trkpt lat="46.0257022" lon="11.769476"><ele>528.0</ele><time>2026-04-26T11:09:47.536Z</time></trkpt><trkpt lat="46.025761" lon="11.7693756"><ele>532.1666666666666</ele><time>2026-04-26T11:09:50.536Z</time></trkpt><trkpt lat="46.0258176" lon="11.7692819"><ele>536.3333333333334</ele><time>2026-04-26T11:09:53.539Z</time></trkpt><trkpt lat="46.0258654" lon="11.7692018"><ele>540.5</ele><time>2026-04-26T11:09:56.538Z</time></trkpt><trkpt lat="46.0259049" lon="11.7691136"><ele>544.6666666666667</ele><time>2026-04-26T11:09:59.538Z</time></trkpt><trkpt lat="46.0259379" lon="11.7690041"><ele>548.8333333333334</ele><time>2026-04-26T11:10:02.538Z</time></trkpt><trkpt lat="46.0259872" lon="11.7689237"><ele>553.0</ele><time>2026-04-26T11:10:05.537Z</time></trkpt><trkpt lat="46.0260608" lon="11.7688325"><ele>553.0</ele><time>2026-04-26T11:10:08.539Z</time></trkpt><trkpt lat="46.0261317" lon="11.7687513"><ele>553.0</ele><time>2026-04-26T11:10:11.539Z</time></trkpt><trkpt lat="46.0261841" lon="11.7686473"><ele>553.0</ele><time>2026-04-26T11:10:14.538Z</time></trkpt><trkpt lat="46.0262163" lon="11.7685357"><ele>553.0</ele><time>2026-04-26T11:10:17.539Z</time></trkpt><trkpt lat="46.0262596" lon="11.7684251"><ele>553.0</ele><time>2026-04-26T11:10:20.538Z</time></trkpt><trkpt lat="46.0262991" lon="11.7683133"><ele>553.0</ele><time>2026-04-26T11:10:23.537Z</time></trkpt><trkpt lat="46.0263192" lon="11.7682262"><ele>549.1666666666667</ele><time>2026-04-26T11:10:25.538Z</time></trkpt><trkpt lat="46.0263505" lon="11.7681005"><ele>545.3333333333334</ele><time>2026-04-26T11:10:28.538Z</time></trkpt><trkpt lat="46.0263772" lon="11.7679905"><ele>541.5</ele><time>2026-04-26T11:10:31.537Z</time></trkpt><trkpt lat="46.0264349" lon="11.767887"><ele>537.6666666666666</ele><time>2026-04-26T11:10:34.537Z</time></trkpt><trkpt lat="46.0264858" lon="11.7678311"><ele>533.8333333333333</ele><time>2026-04-26T11:10:36.54Z</time></trkpt><trkpt lat="46.0265606" lon="11.767778"><ele>530.0</ele><time>2026-04-26T11:10:39.538Z</time></trkpt><trkpt lat="46.0266415" lon="11.7677453"><ele>533.3333333333333</ele><time>2026-04-26T11:10:42.539Z</time></trkpt><trkpt lat="46.0267194" lon="11.7677148"><ele>536.6666666666666</ele><time>2026-04-26T11:10:45.536Z</time></trkpt><trkpt lat="46.0267841" lon="11.7676906"><ele>540.0</ele><time>2026-04-26T11:10:48.539Z</time></trkpt><trkpt lat="46.0268587" lon="11.7676651"><ele>543.3333333333334</ele><time>2026-04-26T11:10:51.539Z</time></trkpt><trkpt lat="46.0269509" lon="11.7676265"><ele>546.6666666666667</ele><time>2026-04-26T11:10:54.538Z</time></trkpt><trkpt lat="46.027034" lon="11.7675826"><ele>550.0</ele><time>2026-04-26T11:10:57.539Z</time></trkpt><trkpt lat="46.0271073" lon="11.7675244"><ele>550.0</ele><time>2026-04-26T11:11:00.539Z</time></trkpt><trkpt lat="46.0271888" lon="11.7674695"><ele>550.0</ele><time>2026-04-26T11:11:03.539Z</time></trkpt><trkpt lat="46.0272831" lon="11.7674419"><ele>550.0</ele><time>2026-04-26T11:11:06.539Z</time></trkpt><trkpt lat="46.0273719" lon="11.7674049"><ele>550.0</ele><time>2026-04-26T11:11:09.538Z</time></trkpt><trkpt lat="46.0274344" lon="11.7673725"><ele>550.0</ele><time>2026-04-26T11:11:11.537Z</time></trkpt><trkpt lat="46.027514" lon="11.7673326"><ele>550.0</ele><time>2026-04-26T11:11:14.54Z</time></trkpt><trkpt lat="46.0275924" lon="11.7672745"><ele>553.5</ele><time>2026-04-26T11:11:17.536Z</time></trkpt><trkpt lat="46.0276774" lon="11.7672171"><ele>557.0</ele><time>2026-04-26T11:11:20.54Z</time></trkpt><trkpt lat="46.0277434" lon="11.767185"><ele>560.5</ele><time>2026-04-26T11:11:22.537Z</time></trkpt><trkpt lat="46.0278092" lon="11.7671706"><ele>564.0</ele><time>2026-04-26T11:11:24.538Z</time></trkpt><trkpt lat="46.0278897" lon="11.7672111"><ele>567.5</ele><time>2026-04-26T11:11:27.537Z</time></trkpt><trkpt lat="46.0279513" lon="11.7672735"><ele>571.0</ele><time>2026-04-26T11:11:31.535Z</time></trkpt><trkpt lat="46.0280233" lon="11.7672724"><ele>571.0</ele><time>2026-04-26T11:11:34.538Z</time></trkpt><trkpt lat="46.0281161" lon="11.7672973"><ele>571.0</ele><time>2026-04-26T11:11:37.539Z</time></trkpt><trkpt lat="46.0281862" lon="11.7673155"><ele>571.0</ele><time>2026-04-26T11:11:39.538Z</time></trkpt><trkpt lat="46.028268" lon="11.7673118"><ele>571.0</ele><time>2026-04-26T11:11:41.538Z</time></trkpt><trkpt lat="46.0283481" lon="11.7673058"><ele>571.0</ele><time>2026-04-26T11:11:43.539Z</time></trkpt><trkpt lat="46.0284389" lon="11.7673149"><ele>571.0</ele><time>2026-04-26T11:11:45.537Z</time></trkpt><trkpt lat="46.0285446" lon="11.7673334"><ele>572.0</ele><time>2026-04-26T11:11:47.538Z</time></trkpt><trkpt lat="46.028642" lon="11.7673484"><ele>573.0</ele><time>2026-04-26T11:11:49.538Z</time></trkpt><trkpt lat="46.0287479" lon="11.7673671"><ele>574.0</ele><time>2026-04-26T11:11:51.537Z</time></trkpt><trkpt lat="46.0288588" lon="11.7673926"><ele>575.0</ele><time>2026-04-26T11:11:53.537Z</time></trkpt><trkpt lat="46.0289654" lon="11.7674023"><ele>576.0</ele><time>2026-04-26T11:11:55.538Z</time></trkpt><trkpt lat="46.0290751" lon="11.7674059"><ele>576.0000000000001</ele><time>2026-04-26T11:11:57.538Z</time></trkpt><trkpt lat="46.0291384" lon="11.7673994"><ele>576.0</ele><time>2026-04-26T11:11:58.538Z</time></trkpt><trkpt lat="46.029202" lon="11.7673918"><ele>576.0</ele><time>2026-04-26T11:11:59.539Z</time></trkpt><trkpt lat="46.0293243" lon="11.7673708"><ele>576.0</ele><time>2026-04-26T11:12:01.539Z</time></trkpt><trkpt lat="46.0293879" lon="11.7673562"><ele>576.0</ele><time>2026-04-26T11:12:02.537Z</time></trkpt><trkpt lat="46.0294532" lon="11.7673392"><ele>576.0000000000001</ele><time>2026-04-26T11:12:03.538Z</time></trkpt><trkpt lat="46.0295206" lon="11.7673266"><ele>576.0</ele><time>2026-04-26T11:12:04.538Z</time></trkpt><trkpt lat="46.0295862" lon="11.7673109"><ele>576.1428571428572</ele><time>2026-04-26T11:12:05.538Z</time></trkpt><trkpt lat="46.0296523" lon="11.7672875"><ele>576.2857142857143</ele><time>2026-04-26T11:12:06.536Z</time></trkpt><trkpt lat="46.0297205" lon="11.7672601"><ele>576.4285714285714</ele><time>2026-04-26T11:12:07.536Z</time></trkpt><trkpt lat="46.0297877" lon="11.7672311"><ele>576.5714285714287</ele><time>2026-04-26T11:12:08.538Z</time></trkpt><trkpt lat="46.0298581" lon="11.7672046"><ele>576.7142857142858</ele><time>2026-04-26T11:12:09.537Z</time></trkpt><trkpt lat="46.0299235" lon="11.7671743"><ele>576.8571428571429</ele><time>2026-04-26T11:12:10.537Z</time></trkpt><trkpt lat="46.0299943" lon="11.7671461"><ele>577.0</ele><time>2026-04-26T11:12:11.539Z</time></trkpt><trkpt lat="46.0300595" lon="11.7671157"><ele>578.8333333333334</ele><time>2026-04-26T11:12:12.536Z</time></trkpt><trkpt lat="46.0301285" lon="11.7670915"><ele>580.6666666666667</ele><time>2026-04-26T11:12:13.537Z</time></trkpt><trkpt lat="46.0302023" lon="11.7670712"><ele>582.5</ele><time>2026-04-26T11:12:14.539Z</time></trkpt><trkpt lat="46.0302767" lon="11.7670557"><ele>584.3333333333334</ele><time>2026-04-26T11:12:15.539Z</time></trkpt><trkpt lat="46.0303572" lon="11.7670443"><ele>586.1666666666666</ele><time>2026-04-26T11:12:16.539Z</time></trkpt><trkpt lat="46.0304419" lon="11.767047"><ele>588.0</ele><time>2026-04-26T11:12:17.536Z</time></trkpt><trkpt lat="46.0305249" lon="11.7670567"><ele>588.0</ele><time>2026-04-26T11:12:18.539Z</time></trkpt><trkpt lat="46.0306123" lon="11.7670717"><ele>588.0</ele><time>2026-04-26T11:12:19.537Z</time></trkpt><trkpt lat="46.0306991" lon="11.767097"><ele>588.0</ele><time>2026-04-26T11:12:20.538Z</time></trkpt><trkpt lat="46.0307865" lon="11.7671344"><ele>588.0</ele><time>2026-04-26T11:12:21.538Z</time></trkpt><trkpt lat="46.0308698" lon="11.7671798"><ele>588.0</ele><time>2026-04-26T11:12:22.538Z</time></trkpt><trkpt lat="46.0309528" lon="11.7672276"><ele>588.0</ele><time>2026-04-26T11:12:23.538Z</time></trkpt><trkpt lat="46.0310359" lon="11.7672763"><ele>586.8333333333334</ele><time>2026-04-26T11:12:24.539Z</time></trkpt><trkpt lat="46.0311157" lon="11.7673238"><ele>585.6666666666666</ele><time>2026-04-26T11:12:25.536Z</time></trkpt><trkpt lat="46.0311945" lon="11.7673701"><ele>584.5</ele><time>2026-04-26T11:12:26.537Z</time></trkpt><trkpt lat="46.0312744" lon="11.7674105"><ele>583.3333333333333</ele><time>2026-04-26T11:12:27.537Z</time></trkpt><trkpt lat="46.0313521" lon="11.7674502"><ele>582.1666666666666</ele><time>2026-04-26T11:12:28.539Z</time></trkpt><trkpt lat="46.0314257" lon="11.767494"><ele>581.0</ele><time>2026-04-26T11:12:29.538Z</time></trkpt><trkpt lat="46.0315047" lon="11.7675389"><ele>581.0</ele><time>2026-04-26T11:12:30.538Z</time></trkpt><trkpt lat="46.0315826" lon="11.7675924"><ele>581.0</ele><time>2026-04-26T11:12:31.539Z</time></trkpt><trkpt lat="46.0316648" lon="11.7676368"><ele>581.0</ele><time>2026-04-26T11:12:32.54Z</time></trkpt><trkpt lat="46.0317483" lon="11.7676854"><ele>581.0</ele><time>2026-04-26T11:12:33.539Z</time></trkpt><trkpt lat="46.0318299" lon="11.7677321"><ele>581.0</ele><time>2026-04-26T11:12:34.541Z</time></trkpt><trkpt lat="46.0319122" lon="11.767771"><ele>581.0</ele><time>2026-04-26T11:12:35.538Z</time></trkpt><trkpt lat="46.0319867" lon="11.7678123"><ele>585.3333333333333</ele><time>2026-04-26T11:12:36.536Z</time></trkpt><trkpt lat="46.0320574" lon="11.7678549"><ele>589.6666666666666</ele><time>2026-04-26T11:12:37.538Z</time></trkpt><trkpt lat="46.032132" lon="11.7678969"><ele>594.0</ele><time>2026-04-26T11:12:38.539Z</time></trkpt><trkpt lat="46.0322113" lon="11.7679302"><ele>598.3333333333334</ele><time>2026-04-26T11:12:39.537Z</time></trkpt><trkpt lat="46.0322906" lon="11.7679539"><ele>602.6666666666667</ele><time>2026-04-26T11:12:40.539Z</time></trkpt><trkpt lat="46.0323726" lon="11.7679699"><ele>607.0</ele><time>2026-04-26T11:12:41.538Z</time></trkpt><trkpt lat="46.032451" lon="11.7679946"><ele>602.6</ele><time>2026-04-26T11:12:42.537Z</time></trkpt><trkpt lat="46.0325345" lon="11.7680051"><ele>598.2</ele><time>2026-04-26T11:12:43.538Z</time></trkpt><trkpt lat="46.0326223" lon="11.7679998"><ele>593.8</ele><time>2026-04-26T11:12:44.538Z</time></trkpt><trkpt lat="46.032715" lon="11.7680028"><ele>589.4</ele><time>2026-04-26T11:12:45.538Z</time></trkpt><trkpt lat="46.0328103" lon="11.7679967"><ele>585.0</ele><time>2026-04-26T11:12:46.539Z</time></trkpt><trkpt lat="46.0329032" lon="11.7679863"><ele>585.0</ele><time>2026-04-26T11:12:47.538Z</time></trkpt><trkpt lat="46.0330011" lon="11.76797"><ele>585.0</ele><time>2026-04-26T11:12:48.54Z</time></trkpt><trkpt lat="46.0331045" lon="11.7679461"><ele>585.0</ele><time>2026-04-26T11:12:49.539Z</time></trkpt><trkpt lat="46.0332007" lon="11.7679387"><ele>585.0</ele><time>2026-04-26T11:12:50.539Z</time></trkpt><trkpt lat="46.0332968" lon="11.767914"><ele>585.0</ele><time>2026-04-26T11:12:51.538Z</time></trkpt><trkpt lat="46.033391" lon="11.7679017"><ele>581.2</ele><time>2026-04-26T11:12:52.539Z</time></trkpt><trkpt lat="46.0334869" lon="11.7679001"><ele>577.4</ele><time>2026-04-26T11:12:53.537Z</time></trkpt><trkpt lat="46.0335861" lon="11.7679125"><ele>573.6</ele><time>2026-04-26T11:12:54.538Z</time></trkpt><trkpt lat="46.0336862" lon="11.7679297"><ele>569.8</ele><time>2026-04-26T11:12:55.537Z</time></trkpt><trkpt lat="46.0337786" lon="11.7679573"><ele>566.0</ele><time>2026-04-26T11:12:56.538Z</time></trkpt><trkpt lat="46.0338669" lon="11.7679905"><ele>566.0</ele><time>2026-04-26T11:12:57.539Z</time></trkpt><trkpt lat="46.0339582" lon="11.7680278"><ele>566.0</ele><time>2026-04-26T11:12:58.539Z</time></trkpt><trkpt lat="46.0340471" lon="11.7680633"><ele>566.0</ele><time>2026-04-26T11:12:59.541Z</time></trkpt><trkpt lat="46.0341318" lon="11.768095"><ele>566.0</ele><time>2026-04-26T11:13:00.541Z</time></trkpt><trkpt lat="46.0342124" lon="11.7681267"><ele>566.0</ele><time>2026-04-26T11:13:01.538Z</time></trkpt><trkpt lat="46.034293" lon="11.7681643"><ele>566.0</ele><time>2026-04-26T11:13:02.538Z</time></trkpt><trkpt lat="46.0343739" lon="11.7682148"><ele>565.8333333333333</ele><time>2026-04-26T11:13:03.537Z</time></trkpt><trkpt lat="46.0344549" lon="11.7682681"><ele>565.6666666666666</ele><time>2026-04-26T11:13:04.539Z</time></trkpt><trkpt lat="46.034527" lon="11.7683281"><ele>565.5</ele><time>2026-04-26T11:13:05.537Z</time></trkpt><trkpt lat="46.0346012" lon="11.7683878"><ele>565.3333333333334</ele><time>2026-04-26T11:13:06.538Z</time></trkpt><trkpt lat="46.0346687" lon="11.7684529"><ele>565.1666666666667</ele><time>2026-04-26T11:13:07.539Z</time></trkpt><trkpt lat="46.0347362" lon="11.7685131"><ele>565.0</ele><time>2026-04-26T11:13:08.539Z</time></trkpt><trkpt lat="46.0348042" lon="11.7685822"><ele>565.0</ele><time>2026-04-26T11:13:09.539Z</time></trkpt><trkpt lat="46.0348637" lon="11.7686573"><ele>565.0</ele><time>2026-04-26T11:13:10.538Z</time></trkpt><trkpt lat="46.0349256" lon="11.768735"><ele>565.0</ele><time>2026-04-26T11:13:11.535Z</time></trkpt><trkpt lat="46.0349892" lon="11.7688052"><ele>565.0</ele><time>2026-04-26T11:13:12.539Z</time></trkpt><trkpt lat="46.0350544" lon="11.7688735"><ele>565.0</ele><time>2026-04-26T11:13:13.536Z</time></trkpt><trkpt lat="46.0351196" lon="11.7689367"><ele>565.0</ele><time>2026-04-26T11:13:14.539Z</time></trkpt><trkpt lat="46.0351866" lon="11.7689946"><ele>561.5</ele><time>2026-04-26T11:13:15.538Z</time></trkpt><trkpt lat="46.0352539" lon="11.7690455"><ele>558.0</ele><time>2026-04-26T11:13:16.537Z</time></trkpt><trkpt lat="46.035322" lon="11.7690926"><ele>554.5</ele><time>2026-04-26T11:13:17.535Z</time></trkpt><trkpt lat="46.0353869" lon="11.7691343"><ele>551.0</ele><time>2026-04-26T11:13:18.536Z</time></trkpt><trkpt lat="46.0354526" lon="11.7691728"><ele>547.5</ele><time>2026-04-26T11:13:19.537Z</time></trkpt><trkpt lat="46.0355158" lon="11.7692103"><ele>544.0</ele><time>2026-04-26T11:13:20.538Z</time></trkpt><trkpt lat="46.0356339" lon="11.7692641"><ele>544.0</ele><time>2026-04-26T11:13:22.538Z</time></trkpt><trkpt lat="46.0357502" lon="11.7693321"><ele>544.0</ele><time>2026-04-26T11:13:24.54Z</time></trkpt><trkpt lat="46.0358499" lon="11.7694384"><ele>544.0</ele><time>2026-04-26T11:13:26.539Z</time></trkpt><trkpt lat="46.0359016" lon="11.7694943"><ele>544.0</ele><time>2026-04-26T11:13:27.535Z</time></trkpt><trkpt lat="46.0359557" lon="11.7695492"><ele>544.0</ele><time>2026-04-26T11:13:28.539Z</time></trkpt><trkpt lat="46.0360086" lon="11.7696084"><ele>544.0</ele><time>2026-04-26T11:13:29.539Z</time></trkpt><trkpt lat="46.0360585" lon="11.7696753"><ele>542.1428571428571</ele><time>2026-04-26T11:13:30.538Z</time></trkpt><trkpt lat="46.0361086" lon="11.7697449"><ele>540.2857142857142</ele><time>2026-04-26T11:13:31.539Z</time></trkpt><trkpt lat="46.0361605" lon="11.7698143"><ele>538.4285714285714</ele><time>2026-04-26T11:13:32.54Z</time></trkpt><trkpt lat="46.0362136" lon="11.7698818"><ele>536.5714285714286</ele><time>2026-04-26T11:13:33.538Z</time></trkpt><trkpt lat="46.0362678" lon="11.7699426"><ele>534.7142857142858</ele><time>2026-04-26T11:13:34.539Z</time></trkpt><trkpt lat="46.0363239" lon="11.7699965"><ele>532.8571428571429</ele><time>2026-04-26T11:13:35.538Z</time></trkpt><trkpt lat="46.0363807" lon="11.7700436"><ele>531.0</ele><time>2026-04-26T11:13:36.535Z</time></trkpt><trkpt lat="46.0364379" lon="11.7700882"><ele>531.0</ele><time>2026-04-26T11:13:37.539Z</time></trkpt><trkpt lat="46.0365424" lon="11.7701731"><ele>531.0</ele><time>2026-04-26T11:13:39.538Z</time></trkpt><trkpt lat="46.0366401" lon="11.7702525"><ele>531.0</ele><time>2026-04-26T11:13:41.538Z</time></trkpt><trkpt lat="46.0367191" lon="11.7703621"><ele>531.0</ele><time>2026-04-26T11:13:43.535Z</time></trkpt><trkpt lat="46.0367746" lon="11.7704708"><ele>531.0</ele><time>2026-04-26T11:13:45.538Z</time></trkpt><trkpt lat="46.0368262" lon="11.770539"><ele>531.8333333333334</ele><time>2026-04-26T11:13:47.538Z</time></trkpt><trkpt lat="46.036893" lon="11.7706196"><ele>532.6666666666666</ele><time>2026-04-26T11:13:50.537Z</time></trkpt><trkpt lat="46.0369579" lon="11.7706869"><ele>533.5</ele><time>2026-04-26T11:13:53.538Z</time></trkpt><trkpt lat="46.0370188" lon="11.7707563"><ele>534.3333333333333</ele><time>2026-04-26T11:13:56.54Z</time></trkpt><trkpt lat="46.0370751" lon="11.7708432"><ele>535.1666666666666</ele><time>2026-04-26T11:13:59.538Z</time></trkpt><trkpt lat="46.0371258" lon="11.7709376"><ele>536.0</ele><time>2026-04-26T11:14:02.539Z</time></trkpt><trkpt lat="46.0371667" lon="11.771045"><ele>539.0</ele><time>2026-04-26T11:14:05.538Z</time></trkpt><trkpt lat="46.0371997" lon="11.7711462"><ele>542.0</ele><time>2026-04-26T11:14:08.539Z</time></trkpt><trkpt lat="46.0372401" lon="11.7712491"><ele>545.0</ele><time>2026-04-26T11:14:11.538Z</time></trkpt><trkpt lat="46.0372805" lon="11.7713375"><ele>548.0</ele><time>2026-04-26T11:14:14.538Z</time></trkpt><trkpt lat="46.0373263" lon="11.7714223"><ele>551.0</ele><time>2026-04-26T11:14:17.538Z</time></trkpt><trkpt lat="46.0373719" lon="11.771503"><ele>554.0</ele><time>2026-04-26T11:14:20.539Z</time></trkpt><trkpt lat="46.037419" lon="11.7715701"><ele>557.0</ele><time>2026-04-26T11:14:23.539Z</time></trkpt><trkpt lat="46.0374621" lon="11.77164"><ele>557.7142857142858</ele><time>2026-04-26T11:14:26.539Z</time></trkpt><trkpt lat="46.0375208" lon="11.7717204"><ele>558.4285714285714</ele><time>2026-04-26T11:14:30.538Z</time></trkpt><trkpt lat="46.0375559" lon="11.771799"><ele>559.1428571428571</ele><time>2026-04-26T11:14:33.537Z</time></trkpt><trkpt lat="46.0375918" lon="11.7718738"><ele>559.8571428571429</ele><time>2026-04-26T11:14:36.539Z</time></trkpt><trkpt lat="46.0376284" lon="11.7719544"><ele>560.5714285714286</ele><time>2026-04-26T11:14:39.539Z</time></trkpt><trkpt lat="46.0376627" lon="11.7720449"><ele>561.2857142857143</ele><time>2026-04-26T11:14:42.537Z</time></trkpt><trkpt lat="46.0376713" lon="11.7721391"><ele>562.0</ele><time>2026-04-26T11:14:45.537Z</time></trkpt><trkpt lat="46.0376905" lon="11.7722301"><ele>562.0</ele><time>2026-04-26T11:14:48.538Z</time></trkpt><trkpt lat="46.0377123" lon="11.772333"><ele>562.0</ele><time>2026-04-26T11:14:51.538Z</time></trkpt><trkpt lat="46.0377155" lon="11.7724387"><ele>562.0</ele><time>2026-04-26T11:14:54.539Z</time></trkpt><trkpt lat="46.0377256" lon="11.7725489"><ele>562.0</ele><time>2026-04-26T11:14:57.537Z</time></trkpt><trkpt lat="46.0377683" lon="11.7726577"><ele>562.0</ele><time>2026-04-26T11:15:00.538Z</time></trkpt><trkpt lat="46.0378124" lon="11.7727567"><ele>562.0</ele><time>2026-04-26T11:15:03.537Z</time></trkpt><trkpt lat="46.0378586" lon="11.77286"><ele>564.8571428571429</ele><time>2026-04-26T11:15:06.538Z</time></trkpt><trkpt lat="46.0378931" lon="11.7729664"><ele>567.7142857142858</ele><time>2026-04-26T11:15:09.538Z</time></trkpt><trkpt lat="46.0379217" lon="11.7730544"><ele>570.5714285714286</ele><time>2026-04-26T11:15:12.537Z</time></trkpt><trkpt lat="46.0379372" lon="11.7731464"><ele>573.4285714285714</ele><time>2026-04-26T11:15:16.537Z</time></trkpt><trkpt lat="46.0378688" lon="11.7731458"><ele>576.2857142857142</ele><time>2026-04-26T11:15:20.538Z</time></trkpt><trkpt lat="46.0378046" lon="11.77311"><ele>579.1428571428571</ele><time>2026-04-26T11:15:23.537Z</time></trkpt><trkpt lat="46.0377655" lon="11.773037"><ele>582.0</ele><time>2026-04-26T11:15:26.538Z</time></trkpt><trkpt lat="46.037737" lon="11.7729297"><ele>582.0</ele><time>2026-04-26T11:15:30.538Z</time></trkpt><trkpt lat="46.0377028" lon="11.7728188"><ele>582.0</ele><time>2026-04-26T11:15:34.538Z</time></trkpt><trkpt lat="46.0376645" lon="11.7727302"><ele>582.0</ele><time>2026-04-26T11:15:37.539Z</time></trkpt><trkpt lat="46.0376253" lon="11.7726311"><ele>582.0</ele><time>2026-04-26T11:15:41.539Z</time></trkpt><trkpt lat="46.0375698" lon="11.7725545"><ele>582.0</ele><time>2026-04-26T11:15:45.537Z</time></trkpt><trkpt lat="46.037505" lon="11.7725214"><ele>582.0</ele><time>2026-04-26T11:15:48.538Z</time></trkpt><trkpt lat="46.0374423" lon="11.7725018"><ele>582.0</ele><time>2026-04-26T11:15:51.539Z</time></trkpt><trkpt lat="46.0373772" lon="11.7724855"><ele>581.8571428571429</ele><time>2026-04-26T11:15:54.538Z</time></trkpt><trkpt lat="46.0373012" lon="11.7724843"><ele>581.7142857142857</ele><time>2026-04-26T11:15:57.539Z</time></trkpt><trkpt lat="46.0372185" lon="11.7724637"><ele>581.5714285714286</ele><time>2026-04-26T11:16:00.539Z</time></trkpt><trkpt lat="46.0371569" lon="11.7724351"><ele>581.4285714285714</ele><time>2026-04-26T11:16:03.537Z</time></trkpt><trkpt lat="46.037087" lon="11.7724206"><ele>581.2857142857142</ele><time>2026-04-26T11:16:06.537Z</time></trkpt><trkpt lat="46.0370128" lon="11.7723934"><ele>581.1428571428571</ele><time>2026-04-26T11:16:09.539Z</time></trkpt><trkpt lat="46.036943" lon="11.7723735"><ele>581.0</ele><time>2026-04-26T11:16:12.538Z</time></trkpt><trkpt lat="46.036857" lon="11.7723442"><ele>581.0</ele><time>2026-04-26T11:16:15.537Z</time></trkpt><trkpt lat="46.036775" lon="11.7723006"><ele>581.0</ele><time>2026-04-26T11:16:18.538Z</time></trkpt><trkpt lat="46.036694" lon="11.7722522"><ele>581.0</ele><time>2026-04-26T11:16:21.536Z</time></trkpt><trkpt lat="46.0366131" lon="11.7722181"><ele>581.0</ele><time>2026-04-26T11:16:24.54Z</time></trkpt><trkpt lat="46.0365412" lon="11.7721985"><ele>581.0</ele><time>2026-04-26T11:16:27.538Z</time></trkpt><trkpt lat="46.0364607" lon="11.7721611"><ele>581.0</ele><time>2026-04-26T11:16:30.538Z</time></trkpt><trkpt lat="46.0363725" lon="11.7721564"><ele>583.0</ele><time>2026-04-26T11:16:33.539Z</time></trkpt><trkpt lat="46.0363092" lon="11.7721355"><ele>585.0</ele><time>2026-04-26T11:16:35.539Z</time></trkpt><trkpt lat="46.0362494" lon="11.7721034"><ele>587.0</ele><time>2026-04-26T11:16:37.539Z</time></trkpt><trkpt lat="46.0361625" lon="11.7720492"><ele>589.0</ele><time>2026-04-26T11:16:40.536Z</time></trkpt><trkpt lat="46.0360991" lon="11.7720103"><ele>591.0</ele><time>2026-04-26T11:16:42.539Z</time></trkpt><trkpt lat="46.0360361" lon="11.7719827"><ele>593.0</ele><time>2026-04-26T11:16:44.54Z</time></trkpt><trkpt lat="46.0359504" lon="11.7719295"><ele>593.0</ele><time>2026-04-26T11:16:47.538Z</time></trkpt><trkpt lat="46.0358889" lon="11.7718892"><ele>593.0</ele><time>2026-04-26T11:16:49.536Z</time></trkpt><trkpt lat="46.0358287" lon="11.7718525"><ele>593.0</ele><time>2026-04-26T11:16:51.537Z</time></trkpt><trkpt lat="46.0357505" lon="11.7718106"><ele>593.0</ele><time>2026-04-26T11:16:54.539Z</time></trkpt><trkpt lat="46.0356784" lon="11.7717556"><ele>593.0</ele><time>2026-04-26T11:16:57.539Z</time></trkpt><trkpt lat="46.0356065" lon="11.7716939"><ele>593.0</ele><time>2026-04-26T11:17:00.54Z</time></trkpt><trkpt lat="46.035542" lon="11.7716348"><ele>592.3333333333333</ele><time>2026-04-26T11:17:03.54Z</time></trkpt><trkpt lat="46.0354768" lon="11.77158"><ele>591.6666666666666</ele><time>2026-04-26T11:17:06.539Z</time></trkpt><trkpt lat="46.0354123" lon="11.771522"><ele>591.0</ele><time>2026-04-26T11:17:09.538Z</time></trkpt><trkpt lat="46.0353483" lon="11.7714691"><ele>590.3333333333334</ele><time>2026-04-26T11:17:12.538Z</time></trkpt><trkpt lat="46.0352846" lon="11.7714107"><ele>589.6666666666667</ele><time>2026-04-26T11:17:15.537Z</time></trkpt><trkpt lat="46.0352109" lon="11.7713564"><ele>589.0</ele><time>2026-04-26T11:17:18.539Z</time></trkpt><trkpt lat="46.0351436" lon="11.771306"><ele>589.0</ele><time>2026-04-26T11:17:21.538Z</time></trkpt><trkpt lat="46.0350694" lon="11.7712537"><ele>589.0</ele><time>2026-04-26T11:17:24.539Z</time></trkpt><trkpt lat="46.0349949" lon="11.7712049"><ele>589.0</ele><time>2026-04-26T11:17:27.538Z</time></trkpt><trkpt lat="46.0349201" lon="11.7711523"><ele>589.0</ele><time>2026-04-26T11:17:30.538Z</time></trkpt><trkpt lat="46.0348447" lon="11.7711029"><ele>589.0</ele><time>2026-04-26T11:17:33.538Z</time></trkpt><trkpt lat="46.0347732" lon="11.7710492"><ele>589.0</ele><time>2026-04-26T11:17:36.537Z</time></trkpt><trkpt lat="46.03471" lon="11.7710001"><ele>590.2857142857142</ele><time>2026-04-26T11:17:39.538Z</time></trkpt><trkpt lat="46.0346468" lon="11.7709818"><ele>591.5714285714286</ele><time>2026-04-26T11:17:42.538Z</time></trkpt><trkpt lat="46.0345709" lon="11.7709377"><ele>592.8571428571429</ele><time>2026-04-26T11:17:46.536Z</time></trkpt><trkpt lat="46.0345117" lon="11.7709019"><ele>594.1428571428571</ele><time>2026-04-26T11:17:49.538Z</time></trkpt><trkpt lat="46.0344509" lon="11.7708615"><ele>595.4285714285714</ele><time>2026-04-26T11:17:52.538Z</time></trkpt><trkpt lat="46.0343853" lon="11.7708062"><ele>596.7142857142857</ele><time>2026-04-26T11:17:56.54Z</time></trkpt><trkpt lat="46.0343123" lon="11.7707518"><ele>598.0</ele><time>2026-04-26T11:18:00.538Z</time></trkpt><trkpt lat="46.034254" lon="11.7707152"><ele>598.0</ele><time>2026-04-26T11:18:03.538Z</time></trkpt><trkpt lat="46.0341919" lon="11.7706759"><ele>598.0</ele><time>2026-04-26T11:18:06.537Z</time></trkpt><trkpt lat="46.0341331" lon="11.7706378"><ele>598.0</ele><time>2026-04-26T11:18:09.539Z</time></trkpt><trkpt lat="46.0340762" lon="11.7705989"><ele>598.0</ele><time>2026-04-26T11:18:12.537Z</time></trkpt><trkpt lat="46.0340108" lon="11.7705658"><ele>598.0</ele><time>2026-04-26T11:18:16.538Z</time></trkpt><trkpt lat="46.0339455" lon="11.7705405"><ele>598.0</ele><time>2026-04-26T11:18:20.539Z</time></trkpt><trkpt lat="46.0338785" lon="11.7704901"><ele>598.0</ele><time>2026-04-26T11:18:24.538Z</time></trkpt><trkpt lat="46.033818" lon="11.7704275"><ele>599.2857142857142</ele><time>2026-04-26T11:18:30.537Z</time></trkpt><trkpt lat="46.0337538" lon="11.7704076"><ele>600.5714285714286</ele><time>2026-04-26T11:18:33.538Z</time></trkpt><trkpt lat="46.0336786" lon="11.7703692"><ele>601.8571428571429</ele><time>2026-04-26T11:18:37.536Z</time></trkpt><trkpt lat="46.0336085" lon="11.7703314"><ele>603.1428571428571</ele><time>2026-04-26T11:18:41.537Z</time></trkpt><trkpt lat="46.0335367" lon="11.7702826"><ele>604.4285714285714</ele><time>2026-04-26T11:18:46.537Z</time></trkpt><trkpt lat="46.0334722" lon="11.7702462"><ele>605.7142857142857</ele><time>2026-04-26T11:18:50.539Z</time></trkpt><trkpt lat="46.0334031" lon="11.7702006"><ele>607.0</ele><time>2026-04-26T11:18:55.539Z</time></trkpt><trkpt lat="46.0333313" lon="11.770157"><ele>610.2857142857142</ele><time>2026-04-26T11:18:59.537Z</time></trkpt><trkpt lat="46.033257" lon="11.7701073"><ele>613.5714285714286</ele><time>2026-04-26T11:19:03.538Z</time></trkpt><trkpt lat="46.0331849" lon="11.7700703"><ele>616.8571428571429</ele><time>2026-04-26T11:19:07.539Z</time></trkpt><trkpt lat="46.0331187" lon="11.7700298"><ele>620.1428571428571</ele><time>2026-04-26T11:19:11.537Z</time></trkpt><trkpt lat="46.0330423" lon="11.769991"><ele>623.4285714285714</ele><time>2026-04-26T11:19:15.537Z</time></trkpt><trkpt lat="46.0329763" lon="11.769956"><ele>626.7142857142857</ele><time>2026-04-26T11:19:18.539Z</time></trkpt><trkpt lat="46.0329149" lon="11.7699159"><ele>630.0</ele><time>2026-04-26T11:19:21.539Z</time></trkpt><trkpt lat="46.0328418" lon="11.7698746"><ele>630.0</ele><time>2026-04-26T11:19:24.539Z</time></trkpt><trkpt lat="46.0327697" lon="11.7698401"><ele>630.0</ele><time>2026-04-26T11:19:27.539Z</time></trkpt><trkpt lat="46.0326941" lon="11.7698009"><ele>630.0</ele><time>2026-04-26T11:19:30.538Z</time></trkpt><trkpt lat="46.0326241" lon="11.7697599"><ele>630.0</ele><time>2026-04-26T11:19:33.538Z</time></trkpt><trkpt lat="46.0325614" lon="11.7697106"><ele>630.0</ele><time>2026-04-26T11:19:36.538Z</time></trkpt><trkpt lat="46.0324922" lon="11.7696682"><ele>630.0</ele><time>2026-04-26T11:19:39.537Z</time></trkpt><trkpt lat="46.0324287" lon="11.7696245"><ele>630.0</ele><time>2026-04-26T11:19:42.537Z</time></trkpt><trkpt lat="46.0323513" lon="11.7695957"><ele>633.5</ele><time>2026-04-26T11:19:45.538Z</time></trkpt><trkpt lat="46.0322821" lon="11.7695607"><ele>637.0</ele><time>2026-04-26T11:19:48.538Z</time></trkpt><trkpt lat="46.0322105" lon="11.7695333"><ele>640.5</ele><time>2026-04-26T11:19:51.537Z</time></trkpt><trkpt lat="46.0321381" lon="11.7695219"><ele>644.0</ele><time>2026-04-26T11:19:54.537Z</time></trkpt><trkpt lat="46.0320718" lon="11.7694947"><ele>647.5</ele><time>2026-04-26T11:19:57.539Z</time></trkpt><trkpt lat="46.0319837" lon="11.76948"><ele>651.0</ele><time>2026-04-26T11:20:00.539Z</time></trkpt><trkpt lat="46.0319027" lon="11.7694613"><ele>651.0</ele><time>2026-04-26T11:20:03.536Z</time></trkpt><trkpt lat="46.0318385" lon="11.7694398"><ele>651.0</ele><time>2026-04-26T11:20:06.539Z</time></trkpt><trkpt lat="46.0317639" lon="11.7694013"><ele>651.0</ele><time>2026-04-26T11:20:10.538Z</time></trkpt><trkpt lat="46.0317162" lon="11.7694738"><ele>651.0</ele><time>2026-04-26T11:20:18.538Z</time></trkpt><trkpt lat="46.0317301" lon="11.7695648"><ele>651.0</ele><time>2026-04-26T11:20:22.539Z</time></trkpt><trkpt lat="46.0317631" lon="11.7696653"><ele>651.0</ele><time>2026-04-26T11:20:26.539Z</time></trkpt><trkpt lat="46.0317915" lon="11.7697661"><ele>651.0</ele><time>2026-04-26T11:20:30.537Z</time></trkpt><trkpt lat="46.0318227" lon="11.769846"><ele>651.0</ele><time>2026-04-26T11:20:34.538Z</time></trkpt><trkpt lat="46.0318745" lon="11.7699116"><ele>651.0</ele><time>2026-04-26T11:20:38.54Z</time></trkpt><trkpt lat="46.0319351" lon="11.769959"><ele>651.0</ele><time>2026-04-26T11:20:41.538Z</time></trkpt><trkpt lat="46.0319873" lon="11.7700131"><ele>651.0</ele><time>2026-04-26T11:20:44.539Z</time></trkpt><trkpt lat="46.0320378" lon="11.7701027"><ele>651.0</ele><time>2026-04-26T11:20:48.539Z</time></trkpt><trkpt lat="46.0320932" lon="11.7702043"><ele>651.0</ele><time>2026-04-26T11:20:51.537Z</time></trkpt><trkpt lat="46.0321469" lon="11.7702977"><ele>652.4285714285714</ele><time>2026-04-26T11:20:54.539Z</time></trkpt><trkpt lat="46.0321962" lon="11.7703821"><ele>653.8571428571429</ele><time>2026-04-26T11:20:57.536Z</time></trkpt><trkpt lat="46.0322413" lon="11.7704692"><ele>655.2857142857142</ele><time>2026-04-26T11:21:00.539Z</time></trkpt><trkpt lat="46.032275" lon="11.7705556"><ele>656.7142857142858</ele><time>2026-04-26T11:21:03.537Z</time></trkpt><trkpt lat="46.0323003" lon="11.7706594"><ele>658.1428571428571</ele><time>2026-04-26T11:21:07.536Z</time></trkpt><trkpt lat="46.032328" lon="11.7707522"><ele>659.5714285714286</ele><time>2026-04-26T11:21:11.537Z</time></trkpt><trkpt lat="46.0323514" lon="11.7708644"><ele>661.0</ele><time>2026-04-26T11:21:15.538Z</time></trkpt><trkpt lat="46.0323633" lon="11.7709747"><ele>662.8571428571429</ele><time>2026-04-26T11:21:19.537Z</time></trkpt><trkpt lat="46.0323559" lon="11.7710686"><ele>664.7142857142858</ele><time>2026-04-26T11:21:22.537Z</time></trkpt><trkpt lat="46.0323405" lon="11.7711747"><ele>666.5714285714287</ele><time>2026-04-26T11:21:25.538Z</time></trkpt><trkpt lat="46.0323425" lon="11.7712781"><ele>668.4285714285714</ele><time>2026-04-26T11:21:28.539Z</time></trkpt><trkpt lat="46.032359" lon="11.7713719"><ele>670.2857142857143</ele><time>2026-04-26T11:21:31.537Z</time></trkpt><trkpt lat="46.0323954" lon="11.7714664"><ele>672.1428571428572</ele><time>2026-04-26T11:21:34.539Z</time></trkpt><trkpt lat="46.0324241" lon="11.7715712"><ele>674.0</ele><time>2026-04-26T11:21:37.536Z</time></trkpt><trkpt lat="46.0324596" lon="11.7716655"><ele>672.8571428571429</ele><time>2026-04-26T11:21:40.537Z</time></trkpt><trkpt lat="46.0325037" lon="11.771764"><ele>671.7142857142858</ele><time>2026-04-26T11:21:43.537Z</time></trkpt><trkpt lat="46.0325451" lon="11.7718483"><ele>670.5714285714287</ele><time>2026-04-26T11:21:46.539Z</time></trkpt><trkpt lat="46.0325898" lon="11.7719258"><ele>669.4285714285714</ele><time>2026-04-26T11:21:50.539Z</time></trkpt><trkpt lat="46.0326393" lon="11.7720206"><ele>668.2857142857142</ele><time>2026-04-26T11:21:54.538Z</time></trkpt><trkpt lat="46.0326822" lon="11.7720917"><ele>667.1428571428572</ele><time>2026-04-26T11:21:57.54Z</time></trkpt><trkpt lat="46.0327236" lon="11.7721616"><ele>666.0</ele><time>2026-04-26T11:22:00.538Z</time></trkpt><trkpt lat="46.0327771" lon="11.7722743"><ele>666.0</ele><time>2026-04-26T11:24:09.536Z</time></trkpt><trkpt lat="46.0328149" lon="11.7723724"><ele>666.0</ele><time>2026-04-26T11:24:12.535Z</time></trkpt><trkpt lat="46.0328697" lon="11.7724587"><ele>666.0</ele><time>2026-04-26T11:24:15.535Z</time></trkpt><trkpt lat="46.0329207" lon="11.7725374"><ele>666.0</ele><time>2026-04-26T11:24:18.535Z</time></trkpt><trkpt lat="46.0329664" lon="11.7726142"><ele>666.0</ele><time>2026-04-26T11:24:21.539Z</time></trkpt><trkpt lat="46.0330039" lon="11.7727006"><ele>666.0</ele><time>2026-04-26T11:24:24.535Z</time></trkpt><trkpt lat="46.033035" lon="11.7727901"><ele>666.0</ele><time>2026-04-26T11:24:27.536Z</time></trkpt><trkpt lat="46.0330677" lon="11.7728709"><ele>666.2857142857143</ele><time>2026-04-26T11:24:30.54Z</time></trkpt><trkpt lat="46.0330941" lon="11.7729575"><ele>666.5714285714286</ele><time>2026-04-26T11:24:33.539Z</time></trkpt><trkpt lat="46.0331311" lon="11.7730326"><ele>666.8571428571429</ele><time>2026-04-26T11:24:36.538Z</time></trkpt><trkpt lat="46.0331776" lon="11.773117"><ele>667.1428571428571</ele><time>2026-04-26T11:24:40.534Z</time></trkpt><trkpt lat="46.0332272" lon="11.7731965"><ele>667.4285714285714</ele><time>2026-04-26T11:24:44.539Z</time></trkpt><trkpt lat="46.033277" lon="11.7732744"><ele>667.7142857142857</ele><time>2026-04-26T11:24:48.534Z</time></trkpt><trkpt lat="46.0333221" lon="11.7733452"><ele>668.0</ele><time>2026-04-26T11:24:52.535Z</time></trkpt><trkpt lat="46.033379" lon="11.7734264"><ele>668.0</ele><time>2026-04-26T11:24:56.538Z</time></trkpt><trkpt lat="46.0334271" lon="11.773496"><ele>668.0</ele><time>2026-04-26T11:25:00.538Z</time></trkpt><trkpt lat="46.0334779" lon="11.7735828"><ele>668.0</ele><time>2026-04-26T11:25:04.539Z</time></trkpt><trkpt lat="46.0335306" lon="11.7736646"><ele>668.0</ele><time>2026-04-26T11:25:08.535Z</time></trkpt><trkpt lat="46.0335884" lon="11.7737259"><ele>668.0</ele><time>2026-04-26T11:25:12.536Z</time></trkpt><trkpt lat="46.0336436" lon="11.7737936"><ele>668.0</ele><time>2026-04-26T11:25:16.535Z</time></trkpt><trkpt lat="46.0336952" lon="11.7738725"><ele>668.0</ele><time>2026-04-26T11:25:20.536Z</time></trkpt><trkpt lat="46.0337515" lon="11.773955"><ele>670.5714285714286</ele><time>2026-04-26T11:25:24.539Z</time></trkpt><trkpt lat="46.033789" lon="11.7740311"><ele>673.1428571428571</ele><time>2026-04-26T11:25:27.537Z</time></trkpt><trkpt lat="46.0338265" lon="11.7741146"><ele>675.7142857142858</ele><time>2026-04-26T11:25:30.539Z</time></trkpt><trkpt lat="46.0338739" lon="11.7742109"><ele>678.2857142857142</ele><time>2026-04-26T11:25:34.538Z</time></trkpt><trkpt lat="46.0339169" lon="11.7742991"><ele>680.8571428571429</ele><time>2026-04-26T11:25:38.536Z</time></trkpt><trkpt lat="46.0339644" lon="11.7743833"><ele>683.4285714285714</ele><time>2026-04-26T11:25:42.537Z</time></trkpt><trkpt lat="46.0340108" lon="11.7744613"><ele>686.0</ele><time>2026-04-26T11:25:46.538Z</time></trkpt><trkpt lat="46.0340602" lon="11.7745475"><ele>686.3333333333333</ele><time>2026-04-26T11:25:50.539Z</time></trkpt><trkpt lat="46.0341069" lon="11.7746373"><ele>686.6666666666666</ele><time>2026-04-26T11:25:54.539Z</time></trkpt><trkpt lat="46.0341474" lon="11.7747096"><ele>687.0</ele><time>2026-04-26T11:25:58.538Z</time></trkpt><trkpt lat="46.0341923" lon="11.7747976"><ele>687.3333333333334</ele><time>2026-04-26T11:26:02.539Z</time></trkpt><trkpt lat="46.0342287" lon="11.7748991"><ele>687.6666666666667</ele><time>2026-04-26T11:26:06.539Z</time></trkpt><trkpt lat="46.034257" lon="11.775001"><ele>688.0</ele><time>2026-04-26T11:26:10.536Z</time></trkpt><trkpt lat="46.0342984" lon="11.7750955"><ele>689.8571428571429</ele><time>2026-04-26T11:26:14.539Z</time></trkpt><trkpt lat="46.0343315" lon="11.7751936"><ele>691.7142857142858</ele><time>2026-04-26T11:26:18.536Z</time></trkpt><trkpt lat="46.0343225" lon="11.7752932"><ele>693.5714285714287</ele><time>2026-04-26T11:26:23.536Z</time></trkpt><trkpt lat="46.0342498" lon="11.7753191"><ele>695.4285714285714</ele><time>2026-04-26T11:26:28.535Z</time></trkpt><trkpt lat="46.034184" lon="11.7752736"><ele>697.2857142857142</ele><time>2026-04-26T11:26:32.539Z</time></trkpt><trkpt lat="46.0341261" lon="11.7752199"><ele>699.1428571428572</ele><time>2026-04-26T11:26:35.538Z</time></trkpt><trkpt lat="46.0340641" lon="11.7751634"><ele>701.0</ele><time>2026-04-26T11:26:38.538Z</time></trkpt><trkpt lat="46.0339997" lon="11.7751101"><ele>701.0</ele><time>2026-04-26T11:26:41.539Z</time></trkpt><trkpt lat="46.0339315" lon="11.77505"><ele>701.0</ele><time>2026-04-26T11:26:44.538Z</time></trkpt><trkpt lat="46.033868" lon="11.7749888"><ele>701.0</ele><time>2026-04-26T11:26:47.538Z</time></trkpt><trkpt lat="46.0338024" lon="11.7749356"><ele>701.0</ele><time>2026-04-26T11:26:50.537Z</time></trkpt><trkpt lat="46.0337383" lon="11.7748883"><ele>701.0</ele><time>2026-04-26T11:26:53.538Z</time></trkpt><trkpt lat="46.0336723" lon="11.7748397"><ele>701.0</ele><time>2026-04-26T11:26:56.539Z</time></trkpt><trkpt lat="46.0336071" lon="11.7747917"><ele>701.0</ele><time>2026-04-26T11:26:59.536Z</time></trkpt><trkpt lat="46.0335393" lon="11.7747456"><ele>701.0</ele><time>2026-04-26T11:27:02.539Z</time></trkpt><trkpt lat="46.0334782" lon="11.7747002"><ele>701.0</ele><time>2026-04-26T11:27:05.539Z</time></trkpt><trkpt lat="46.0334121" lon="11.7746489"><ele>701.0</ele><time>2026-04-26T11:27:08.539Z</time></trkpt><trkpt lat="46.0333527" lon="11.7746036"><ele>701.0</ele><time>2026-04-26T11:27:11.538Z</time></trkpt><trkpt lat="46.0332984" lon="11.7745441"><ele>701.0</ele><time>2026-04-26T11:27:14.536Z</time></trkpt><trkpt lat="46.0332424" lon="11.7744978"><ele>701.0</ele><time>2026-04-26T11:27:17.534Z</time></trkpt><trkpt lat="46.0331737" lon="11.7744372"><ele>700.6666666666666</ele><time>2026-04-26T11:27:21.534Z</time></trkpt><trkpt lat="46.0331094" lon="11.7743873"><ele>700.3333333333333</ele><time>2026-04-26T11:27:24.539Z</time></trkpt><trkpt lat="46.0330438" lon="11.7743317"><ele>700.0</ele><time>2026-04-26T11:27:27.538Z</time></trkpt><trkpt lat="46.0329781" lon="11.7742748"><ele>699.6666666666666</ele><time>2026-04-26T11:27:30.538Z</time></trkpt><trkpt lat="46.032913" lon="11.7742135"><ele>699.3333333333334</ele><time>2026-04-26T11:27:33.539Z</time></trkpt><trkpt lat="46.0328433" lon="11.7741497"><ele>699.0</ele><time>2026-04-26T11:27:36.538Z</time></trkpt><trkpt lat="46.0327615" lon="11.7740864"><ele>699.0</ele><time>2026-04-26T11:27:39.539Z</time></trkpt><trkpt lat="46.0327044" lon="11.7740438"><ele>699.0</ele><time>2026-04-26T11:27:41.538Z</time></trkpt><trkpt lat="46.0326465" lon="11.7739994"><ele>699.0</ele><time>2026-04-26T11:27:43.535Z</time></trkpt><trkpt lat="46.0325878" lon="11.7739588"><ele>699.0</ele><time>2026-04-26T11:27:45.539Z</time></trkpt><trkpt lat="46.0325296" lon="11.7739214"><ele>699.0</ele><time>2026-04-26T11:27:47.536Z</time></trkpt><trkpt lat="46.0324455" lon="11.773876"><ele>699.0</ele><time>2026-04-26T11:27:50.538Z</time></trkpt><trkpt lat="46.0323619" lon="11.7738522"><ele>699.0</ele><time>2026-04-26T11:27:53.539Z</time></trkpt><trkpt lat="46.032274" lon="11.7738767"><ele>701.3333333333334</ele><time>2026-04-26T11:27:56.54Z</time></trkpt><trkpt lat="46.0322088" lon="11.7738918"><ele>703.6666666666666</ele><time>2026-04-26T11:27:58.539Z</time></trkpt><trkpt lat="46.032144" lon="11.7738912"><ele>706.0</ele><time>2026-04-26T11:28:00.537Z</time></trkpt><trkpt lat="46.0320526" lon="11.7738677"><ele>708.3333333333333</ele><time>2026-04-26T11:28:03.537Z</time></trkpt><trkpt lat="46.0319599" lon="11.7738522"><ele>710.6666666666666</ele><time>2026-04-26T11:28:06.539Z</time></trkpt><trkpt lat="46.0318718" lon="11.7738211"><ele>713.0</ele><time>2026-04-26T11:28:09.537Z</time></trkpt><trkpt lat="46.0317908" lon="11.7737786"><ele>713.0</ele><time>2026-04-26T11:28:12.536Z</time></trkpt><trkpt lat="46.0317175" lon="11.7737202"><ele>713.0</ele><time>2026-04-26T11:28:15.538Z</time></trkpt><trkpt lat="46.0316429" lon="11.7736567"><ele>713.0</ele><time>2026-04-26T11:28:18.538Z</time></trkpt><trkpt lat="46.0315852" lon="11.7736183"><ele>713.0</ele><time>2026-04-26T11:28:20.538Z</time></trkpt><trkpt lat="46.0315043" lon="11.7735808"><ele>713.0</ele><time>2026-04-26T11:28:23.539Z</time></trkpt><trkpt lat="46.0314255" lon="11.7735424"><ele>713.0</ele><time>2026-04-26T11:28:26.539Z</time></trkpt><trkpt lat="46.0313463" lon="11.773495"><ele>713.3333333333333</ele><time>2026-04-26T11:28:29.539Z</time></trkpt><trkpt lat="46.031264" lon="11.7734516"><ele>713.6666666666666</ele><time>2026-04-26T11:28:32.539Z</time></trkpt><trkpt lat="46.0311777" lon="11.7734135"><ele>714.0</ele><time>2026-04-26T11:28:35.539Z</time></trkpt><trkpt lat="46.0310891" lon="11.7733717"><ele>714.3333333333334</ele><time>2026-04-26T11:28:38.54Z</time></trkpt><trkpt lat="46.0310025" lon="11.773338"><ele>714.6666666666667</ele><time>2026-04-26T11:28:41.539Z</time></trkpt><trkpt lat="46.0309306" lon="11.7733065"><ele>715.0</ele><time>2026-04-26T11:28:44.539Z</time></trkpt><trkpt lat="46.0308667" lon="11.7733198"><ele>715.0</ele><time>2026-04-26T11:28:48.539Z</time></trkpt><trkpt lat="46.0308535" lon="11.7734497"><ele>715.0</ele><time>2026-04-26T11:28:52.538Z</time></trkpt><trkpt lat="46.0308843" lon="11.7735746"><ele>715.0</ele><time>2026-04-26T11:28:55.537Z</time></trkpt><trkpt lat="46.0309257" lon="11.7736468"><ele>715.0</ele><time>2026-04-26T11:28:57.538Z</time></trkpt><trkpt lat="46.0309877" lon="11.7737414"><ele>715.0</ele><time>2026-04-26T11:29:00.537Z</time></trkpt><trkpt lat="46.0310434" lon="11.7738404"><ele>715.0</ele><time>2026-04-26T11:29:03.536Z</time></trkpt><trkpt lat="46.0310966" lon="11.7739419"><ele>716.8333333333334</ele><time>2026-04-26T11:29:06.538Z</time></trkpt><trkpt lat="46.0311581" lon="11.7740324"><ele>718.6666666666667</ele><time>2026-04-26T11:29:09.537Z</time></trkpt><trkpt lat="46.0312236" lon="11.7741182"><ele>720.5</ele><time>2026-04-26T11:29:12.537Z</time></trkpt><trkpt lat="46.0312814" lon="11.7742026"><ele>722.3333333333334</ele><time>2026-04-26T11:29:15.539Z</time></trkpt><trkpt lat="46.0313364" lon="11.7742933"><ele>724.1666666666666</ele><time>2026-04-26T11:29:18.539Z</time></trkpt><trkpt lat="46.0313902" lon="11.7743997"><ele>726.0</ele><time>2026-04-26T11:29:21.538Z</time></trkpt><trkpt lat="46.0314441" lon="11.7744984"><ele>725.9999999999999</ele><time>2026-04-26T11:29:24.539Z</time></trkpt><trkpt lat="46.031491" lon="11.7745604"><ele>726.0</ele><time>2026-04-26T11:29:26.538Z</time></trkpt><trkpt lat="46.0315401" lon="11.774627"><ele>726.0</ele><time>2026-04-26T11:29:28.536Z</time></trkpt><trkpt lat="46.0316004" lon="11.7746972"><ele>726.0</ele><time>2026-04-26T11:29:30.537Z</time></trkpt><trkpt lat="46.0316532" lon="11.7747608"><ele>726.0</ele><time>2026-04-26T11:29:32.54Z</time></trkpt><trkpt lat="46.03171" lon="11.7748518"><ele>725.9999999999999</ele><time>2026-04-26T11:29:35.539Z</time></trkpt><trkpt lat="46.0317642" lon="11.7749337"><ele>726.0</ele><time>2026-04-26T11:29:38.539Z</time></trkpt><trkpt lat="46.0318154" lon="11.7750147"><ele>726.0</ele><time>2026-04-26T11:29:41.536Z</time></trkpt><trkpt lat="46.0318631" lon="11.7751003"><ele>726.0</ele><time>2026-04-26T11:29:44.538Z</time></trkpt><trkpt lat="46.0319169" lon="11.7751864"><ele>726.0</ele><time>2026-04-26T11:29:47.538Z</time></trkpt><trkpt lat="46.0319746" lon="11.7752712"><ele>726.0</ele><time>2026-04-26T11:29:50.539Z</time></trkpt><trkpt lat="46.0320434" lon="11.7753579"><ele>726.0</ele><time>2026-04-26T11:29:53.537Z</time></trkpt><trkpt lat="46.0321175" lon="11.7754371"><ele>726.0</ele><time>2026-04-26T11:29:56.538Z</time></trkpt><trkpt lat="46.0321715" lon="11.7754876"><ele>726.0</ele><time>2026-04-26T11:29:58.538Z</time></trkpt><trkpt lat="46.0322492" lon="11.7755621"><ele>726.0</ele><time>2026-04-26T11:30:01.535Z</time></trkpt><trkpt lat="46.0323278" lon="11.7756285"><ele>726.0</ele><time>2026-04-26T11:30:04.537Z</time></trkpt><trkpt lat="46.0324039" lon="11.7756806"><ele>726.0</ele><time>2026-04-26T11:30:07.538Z</time></trkpt><trkpt lat="46.0324875" lon="11.7757281"><ele>726.0</ele><time>2026-04-26T11:30:10.538Z</time></trkpt><trkpt lat="46.0325716" lon="11.7757693"><ele>726.0</ele><time>2026-04-26T11:30:13.539Z</time></trkpt><trkpt lat="46.0326519" lon="11.7758249"><ele>726.3333333333334</ele><time>2026-04-26T11:30:16.54Z</time></trkpt><trkpt lat="46.032723" lon="11.7758896"><ele>726.6666666666666</ele><time>2026-04-26T11:30:19.538Z</time></trkpt><trkpt lat="46.0327892" lon="11.7759605"><ele>727.0</ele><time>2026-04-26T11:30:22.538Z</time></trkpt><trkpt lat="46.0328497" lon="11.7760405"><ele>727.3333333333333</ele><time>2026-04-26T11:30:25.538Z</time></trkpt><trkpt lat="46.0329065" lon="11.7761299"><ele>727.6666666666666</ele><time>2026-04-26T11:30:28.536Z</time></trkpt><trkpt lat="46.0329595" lon="11.7762221"><ele>728.0</ele><time>2026-04-26T11:30:31.538Z</time></trkpt><trkpt lat="46.0330116" lon="11.7763188"><ele>728.0</ele><time>2026-04-26T11:30:34.539Z</time></trkpt><trkpt lat="46.0330622" lon="11.7764244"><ele>728.0</ele><time>2026-04-26T11:30:37.54Z</time></trkpt><trkpt lat="46.0331147" lon="11.7765182"><ele>728.0</ele><time>2026-04-26T11:30:40.539Z</time></trkpt><trkpt lat="46.0331683" lon="11.7766094"><ele>728.0</ele><time>2026-04-26T11:30:43.538Z</time></trkpt><trkpt lat="46.0332285" lon="11.77669"><ele>728.0</ele><time>2026-04-26T11:30:46.54Z</time></trkpt><trkpt lat="46.0332854" lon="11.7767709"><ele>728.0</ele><time>2026-04-26T11:30:49.539Z</time></trkpt><trkpt lat="46.0333354" lon="11.7768629"><ele>728.8333333333333</ele><time>2026-04-26T11:30:52.537Z</time></trkpt><trkpt lat="46.0333647" lon="11.7769459"><ele>729.6666666666666</ele><time>2026-04-26T11:30:55.539Z</time></trkpt><trkpt lat="46.0334028" lon="11.777022"><ele>730.5</ele><time>2026-04-26T11:30:58.536Z</time></trkpt><trkpt lat="46.0334624" lon="11.7770925"><ele>731.3333333333334</ele><time>2026-04-26T11:31:01.539Z</time></trkpt><trkpt lat="46.0335255" lon="11.7771724"><ele>732.1666666666667</ele><time>2026-04-26T11:31:04.538Z</time></trkpt><trkpt lat="46.0335866" lon="11.7772633"><ele>733.0</ele><time>2026-04-26T11:31:07.539Z</time></trkpt><trkpt lat="46.033652" lon="11.7773552"><ele>733.0</ele><time>2026-04-26T11:31:10.536Z</time></trkpt><trkpt lat="46.033714" lon="11.7774483"><ele>733.0</ele><time>2026-04-26T11:31:13.539Z</time></trkpt><trkpt lat="46.03378" lon="11.7775376"><ele>733.0</ele><time>2026-04-26T11:31:16.535Z</time></trkpt><trkpt lat="46.0338428" lon="11.7776324"><ele>733.0</ele><time>2026-04-26T11:31:19.535Z</time></trkpt><trkpt lat="46.0339043" lon="11.7777216"><ele>733.0</ele><time>2026-04-26T11:31:22.535Z</time></trkpt><trkpt lat="46.0339502" lon="11.7777848"><ele>733.0</ele><time>2026-04-26T11:31:24.534Z</time></trkpt><trkpt lat="46.0339985" lon="11.7778433"><ele>732.3333333333334</ele><time>2026-04-26T11:31:26.536Z</time></trkpt><trkpt lat="46.0340692" lon="11.7779298"><ele>731.6666666666667</ele><time>2026-04-26T11:31:29.534Z</time></trkpt><trkpt lat="46.0341324" lon="11.7780218"><ele>731.0</ele><time>2026-04-26T11:31:32.535Z</time></trkpt><trkpt lat="46.0342002" lon="11.7781123"><ele>730.3333333333334</ele><time>2026-04-26T11:31:35.534Z</time></trkpt><trkpt lat="46.034271" lon="11.7782019"><ele>729.6666666666666</ele><time>2026-04-26T11:31:38.534Z</time></trkpt><trkpt lat="46.0343196" lon="11.7782629"><ele>729.0</ele><time>2026-04-26T11:31:40.534Z</time></trkpt><trkpt lat="46.0343677" lon="11.7783277"><ele>730.3333333333334</ele><time>2026-04-26T11:31:42.537Z</time></trkpt><trkpt lat="46.0344131" lon="11.7783928"><ele>731.6666666666666</ele><time>2026-04-26T11:31:44.535Z</time></trkpt><trkpt lat="46.034457" lon="11.7784657"><ele>733.0</ele><time>2026-04-26T11:31:46.538Z</time></trkpt><trkpt lat="46.0345015" lon="11.7785315"><ele>734.3333333333333</ele><time>2026-04-26T11:31:48.536Z</time></trkpt><trkpt lat="46.0345671" lon="11.7786255"><ele>735.6666666666666</ele><time>2026-04-26T11:31:51.539Z</time></trkpt><trkpt lat="46.0346323" lon="11.7787195"><ele>737.0</ele><time>2026-04-26T11:31:54.538Z</time></trkpt><trkpt lat="46.0347003" lon="11.7788051"><ele>737.0</ele><time>2026-04-26T11:31:57.538Z</time></trkpt><trkpt lat="46.0347676" lon="11.7788916"><ele>737.0</ele><time>2026-04-26T11:32:00.536Z</time></trkpt><trkpt lat="46.0348283" lon="11.7789819"><ele>737.0</ele><time>2026-04-26T11:32:03.539Z</time></trkpt><trkpt lat="46.0348778" lon="11.779061"><ele>737.0</ele><time>2026-04-26T11:32:06.538Z</time></trkpt><trkpt lat="46.0349299" lon="11.7791421"><ele>737.0</ele><time>2026-04-26T11:32:09.538Z</time></trkpt><trkpt lat="46.0349879" lon="11.7792266"><ele>737.0</ele><time>2026-04-26T11:32:12.537Z</time></trkpt><trkpt lat="46.0350502" lon="11.7793035"><ele>738.0</ele><time>2026-04-26T11:32:15.539Z</time></trkpt><trkpt lat="46.0351194" lon="11.779374"><ele>739.0</ele><time>2026-04-26T11:32:18.539Z</time></trkpt><trkpt lat="46.0351937" lon="11.7794326"><ele>740.0</ele><time>2026-04-26T11:32:21.539Z</time></trkpt><trkpt lat="46.0352672" lon="11.7794922"><ele>741.0</ele><time>2026-04-26T11:32:24.536Z</time></trkpt><trkpt lat="46.0353414" lon="11.7795474"><ele>742.0</ele><time>2026-04-26T11:32:27.536Z</time></trkpt><trkpt lat="46.035426" lon="11.7796022"><ele>743.0</ele><time>2026-04-26T11:32:30.538Z</time></trkpt><trkpt lat="46.0354836" lon="11.77964"><ele>743.0</ele><time>2026-04-26T11:32:32.536Z</time></trkpt><trkpt lat="46.0355454" lon="11.7796762"><ele>743.0</ele><time>2026-04-26T11:32:34.539Z</time></trkpt><trkpt lat="46.0356046" lon="11.779713"><ele>743.0</ele><time>2026-04-26T11:32:36.536Z</time></trkpt><trkpt lat="46.0356631" lon="11.7797549"><ele>743.0</ele><time>2026-04-26T11:32:38.538Z</time></trkpt><trkpt lat="46.0357212" lon="11.7797953"><ele>743.0</ele><time>2026-04-26T11:32:40.537Z</time></trkpt><trkpt lat="46.0357782" lon="11.7798391"><ele>743.0</ele><time>2026-04-26T11:32:42.537Z</time></trkpt><trkpt lat="46.0358344" lon="11.7798811"><ele>743.0</ele><time>2026-04-26T11:32:44.535Z</time></trkpt><trkpt lat="46.0359131" lon="11.7799463"><ele>743.0</ele><time>2026-04-26T11:32:47.536Z</time></trkpt><trkpt lat="46.0359869" lon="11.7800182"><ele>743.0</ele><time>2026-04-26T11:32:50.539Z</time></trkpt><trkpt lat="46.0360598" lon="11.7800806"><ele>743.0</ele><time>2026-04-26T11:32:53.54Z</time></trkpt><trkpt lat="46.0361343" lon="11.7801455"><ele>743.0</ele><time>2026-04-26T11:32:56.538Z</time></trkpt><trkpt lat="46.0362139" lon="11.7802084"><ele>743.0</ele><time>2026-04-26T11:32:59.537Z</time></trkpt><trkpt lat="46.0362933" lon="11.7802575"><ele>743.0</ele><time>2026-04-26T11:33:02.538Z</time></trkpt><trkpt lat="46.0363803" lon="11.7802781"><ele>743.0</ele><time>2026-04-26T11:33:05.539Z</time></trkpt><trkpt lat="46.0364664" lon="11.780283"><ele>743.0</ele><time>2026-04-26T11:33:08.537Z</time></trkpt><trkpt lat="46.0365484" lon="11.7802915"><ele>743.0</ele><time>2026-04-26T11:33:11.539Z</time></trkpt><trkpt lat="46.0366294" lon="11.7803055"><ele>743.0</ele><time>2026-04-26T11:33:14.539Z</time></trkpt><trkpt lat="46.0367087" lon="11.7803587"><ele>743.0</ele><time>2026-04-26T11:33:17.538Z</time></trkpt><trkpt lat="46.0367828" lon="11.7804171"><ele>743.0</ele><time>2026-04-26T11:33:20.538Z</time></trkpt><trkpt lat="46.0368499" lon="11.7804859"><ele>745.2857142857143</ele><time>2026-04-26T11:33:23.539Z</time></trkpt><trkpt lat="46.0369056" lon="11.7805665"><ele>747.5714285714286</ele><time>2026-04-26T11:33:26.538Z</time></trkpt><trkpt lat="46.0369496" lon="11.7806463"><ele>749.8571428571429</ele><time>2026-04-26T11:33:29.539Z</time></trkpt><trkpt lat="46.036991" lon="11.7807349"><ele>752.1428571428571</ele><time>2026-04-26T11:33:32.537Z</time></trkpt><trkpt lat="46.0370478" lon="11.7806787"><ele>754.4285714285713</ele><time>2026-04-26T11:33:37.538Z</time></trkpt><trkpt lat="46.037042" lon="11.780581"><ele>756.7142857142857</ele><time>2026-04-26T11:33:40.536Z</time></trkpt><trkpt lat="46.037059" lon="11.7804934"><ele>759.0</ele><time>2026-04-26T11:33:43.538Z</time></trkpt><trkpt lat="46.0371127" lon="11.7804408"><ele>759.0</ele><time>2026-04-26T11:33:46.539Z</time></trkpt><trkpt lat="46.0371814" lon="11.780408"><ele>759.0</ele><time>2026-04-26T11:33:49.536Z</time></trkpt><trkpt lat="46.0372606" lon="11.7803839"><ele>759.0</ele><time>2026-04-26T11:33:52.536Z</time></trkpt><trkpt lat="46.0373499" lon="11.7803838"><ele>759.0</ele><time>2026-04-26T11:33:55.537Z</time></trkpt><trkpt lat="46.0374376" lon="11.780405"><ele>759.0</ele><time>2026-04-26T11:33:58.538Z</time></trkpt><trkpt lat="46.0375228" lon="11.7804258"><ele>759.0</ele><time>2026-04-26T11:34:01.538Z</time></trkpt><trkpt lat="46.0376121" lon="11.7804638"><ele>761.4285714285714</ele><time>2026-04-26T11:34:04.539Z</time></trkpt><trkpt lat="46.0376753" lon="11.780502"><ele>763.8571428571429</ele><time>2026-04-26T11:34:06.538Z</time></trkpt><trkpt lat="46.0377333" lon="11.7805402"><ele>766.2857142857142</ele><time>2026-04-26T11:34:08.539Z</time></trkpt><trkpt lat="46.0377927" lon="11.780573"><ele>768.7142857142858</ele><time>2026-04-26T11:34:10.537Z</time></trkpt><trkpt lat="46.0378784" lon="11.7806194"><ele>771.1428571428572</ele><time>2026-04-26T11:34:13.539Z</time></trkpt><trkpt lat="46.0379477" lon="11.7806569"><ele>773.5714285714286</ele><time>2026-04-26T11:34:16.539Z</time></trkpt><trkpt lat="46.038026" lon="11.7806919"><ele>776.0</ele><time>2026-04-26T11:34:19.54Z</time></trkpt><trkpt lat="46.0381065" lon="11.7807138"><ele>776.0000000000001</ele><time>2026-04-26T11:34:22.538Z</time></trkpt><trkpt lat="46.03819" lon="11.7807502"><ele>776.0</ele><time>2026-04-26T11:34:25.538Z</time></trkpt><trkpt lat="46.0382712" lon="11.7807875"><ele>776.0</ele><time>2026-04-26T11:34:28.537Z</time></trkpt><trkpt lat="46.0383322" lon="11.7808128"><ele>776.0</ele><time>2026-04-26T11:34:30.538Z</time></trkpt><trkpt lat="46.0383976" lon="11.7808471"><ele>776.0000000000001</ele><time>2026-04-26T11:34:32.539Z</time></trkpt><trkpt lat="46.0384886" lon="11.7808911"><ele>776.0</ele><time>2026-04-26T11:34:35.538Z</time></trkpt><trkpt lat="46.0385702" lon="11.7809345"><ele>776.5000000000001</ele><time>2026-04-26T11:34:38.538Z</time></trkpt><trkpt lat="46.0386488" lon="11.7809717"><ele>777.0</ele><time>2026-04-26T11:34:41.538Z</time></trkpt><trkpt lat="46.038731" lon="11.7810046"><ele>777.5</ele><time>2026-04-26T11:34:44.537Z</time></trkpt><trkpt lat="46.0388024" lon="11.7810302"><ele>778.0</ele><time>2026-04-26T11:34:47.54Z</time></trkpt><trkpt lat="46.0388754" lon="11.7810937"><ele>778.5000000000001</ele><time>2026-04-26T11:34:51.538Z</time></trkpt><trkpt lat="46.0389211" lon="11.7811762"><ele>779.0</ele><time>2026-04-26T11:34:54.539Z</time></trkpt><trkpt lat="46.0389322" lon="11.7812791"><ele>782.1666666666667</ele><time>2026-04-26T11:34:57.537Z</time></trkpt><trkpt lat="46.0389111" lon="11.7813993"><ele>785.3333333333334</ele><time>2026-04-26T11:35:00.538Z</time></trkpt><trkpt lat="46.0388779" lon="11.7815211"><ele>788.5</ele><time>2026-04-26T11:35:03.538Z</time></trkpt><trkpt lat="46.0388512" lon="11.781649"><ele>791.6666666666667</ele><time>2026-04-26T11:35:06.539Z</time></trkpt><trkpt lat="46.0388471" lon="11.7817492"><ele>794.8333333333334</ele><time>2026-04-26T11:35:08.538Z</time></trkpt><trkpt lat="46.0388434" lon="11.7818544"><ele>798.0</ele><time>2026-04-26T11:35:10.537Z</time></trkpt><trkpt lat="46.0388504" lon="11.7819937"><ele>798.5714285714286</ele><time>2026-04-26T11:35:13.539Z</time></trkpt><trkpt lat="46.0388597" lon="11.7820928"><ele>799.1428571428571</ele><time>2026-04-26T11:35:15.539Z</time></trkpt><trkpt lat="46.0388803" lon="11.7821908"><ele>799.7142857142858</ele><time>2026-04-26T11:35:17.537Z</time></trkpt><trkpt lat="46.0389185" lon="11.7822657"><ele>800.2857142857142</ele><time>2026-04-26T11:35:19.537Z</time></trkpt><trkpt lat="46.0389708" lon="11.782323"><ele>800.8571428571429</ele><time>2026-04-26T11:35:21.537Z</time></trkpt><trkpt lat="46.0390364" lon="11.7823803"><ele>801.4285714285714</ele><time>2026-04-26T11:35:23.534Z</time></trkpt><trkpt lat="46.0391195" lon="11.7824523"><ele>802.0</ele><time>2026-04-26T11:35:25.539Z</time></trkpt><trkpt lat="46.0392013" lon="11.7825313"><ele>797.8</ele><time>2026-04-26T11:35:27.537Z</time></trkpt><trkpt lat="46.0392851" lon="11.7826099"><ele>793.6</ele><time>2026-04-26T11:35:29.537Z</time></trkpt><trkpt lat="46.0393655" lon="11.7826929"><ele>789.4</ele><time>2026-04-26T11:35:31.537Z</time></trkpt><trkpt lat="46.0394444" lon="11.7827841"><ele>785.1999999999999</ele><time>2026-04-26T11:35:33.539Z</time></trkpt><trkpt lat="46.0395072" lon="11.7828916"><ele>781.0</ele><time>2026-04-26T11:35:35.539Z</time></trkpt><trkpt lat="46.039514" lon="11.7830058"><ele>780.5714285714286</ele><time>2026-04-26T11:35:37.537Z</time></trkpt><trkpt lat="46.0394784" lon="11.7830849"><ele>780.1428571428571</ele><time>2026-04-26T11:35:39.537Z</time></trkpt><trkpt lat="46.0394189" lon="11.783139"><ele>779.7142857142858</ele><time>2026-04-26T11:35:41.537Z</time></trkpt><trkpt lat="46.0393443" lon="11.7831758"><ele>779.2857142857142</ele><time>2026-04-26T11:35:43.539Z</time></trkpt><trkpt lat="46.039274" lon="11.7831984"><ele>778.8571428571428</ele><time>2026-04-26T11:35:45.537Z</time></trkpt><trkpt lat="46.03921" lon="11.7832057"><ele>778.4285714285714</ele><time>2026-04-26T11:35:47.538Z</time></trkpt><trkpt lat="46.0391214" lon="11.7832204"><ele>778.0</ele><time>2026-04-26T11:35:50.538Z</time></trkpt><trkpt lat="46.0390405" lon="11.783241"><ele>776.6666666666666</ele><time>2026-04-26T11:35:53.535Z</time></trkpt><trkpt lat="46.038962" lon="11.7832734"><ele>775.3333333333333</ele><time>2026-04-26T11:35:56.539Z</time></trkpt><trkpt lat="46.0388864" lon="11.7832932"><ele>774.0</ele><time>2026-04-26T11:35:59.539Z</time></trkpt><trkpt lat="46.0388069" lon="11.7833322"><ele>772.6666666666667</ele><time>2026-04-26T11:36:02.539Z</time></trkpt><trkpt lat="46.0387419" lon="11.7833992"><ele>771.3333333333334</ele><time>2026-04-26T11:36:05.539Z</time></trkpt><trkpt lat="46.0386743" lon="11.7834728"><ele>770.0</ele><time>2026-04-26T11:36:08.539Z</time></trkpt><trkpt lat="46.0385935" lon="11.7835179"><ele>770.0000000000001</ele><time>2026-04-26T11:36:11.538Z</time></trkpt><trkpt lat="46.0385046" lon="11.7835298"><ele>770.0</ele><time>2026-04-26T11:36:14.537Z</time></trkpt><trkpt lat="46.0384306" lon="11.7835297"><ele>770.0</ele><time>2026-04-26T11:36:16.538Z</time></trkpt><trkpt lat="46.0383613" lon="11.7835172"><ele>770.0</ele><time>2026-04-26T11:36:18.535Z</time></trkpt><trkpt lat="46.0382741" lon="11.7834988"><ele>770.0000000000001</ele><time>2026-04-26T11:36:20.539Z</time></trkpt><trkpt lat="46.0381725" lon="11.7834848"><ele>770.0</ele><time>2026-04-26T11:36:22.539Z</time></trkpt><trkpt lat="46.0380675" lon="11.7835087"><ele>771.0000000000001</ele><time>2026-04-26T11:36:24.535Z</time></trkpt><trkpt lat="46.0379682" lon="11.7835135"><ele>772.0</ele><time>2026-04-26T11:36:26.538Z</time></trkpt><trkpt lat="46.0378779" lon="11.7835132"><ele>773.0</ele><time>2026-04-26T11:36:28.539Z</time></trkpt><trkpt lat="46.0377926" lon="11.7835131"><ele>774.0</ele><time>2026-04-26T11:36:30.536Z</time></trkpt><trkpt lat="46.0377122" lon="11.7835147"><ele>775.0000000000001</ele><time>2026-04-26T11:36:32.537Z</time></trkpt><trkpt lat="46.037645" lon="11.7835291"><ele>776.0</ele><time>2026-04-26T11:36:34.537Z</time></trkpt><trkpt lat="46.0375799" lon="11.7835399"><ele>776.0</ele><time>2026-04-26T11:36:36.537Z</time></trkpt><trkpt lat="46.0375142" lon="11.7835599"><ele>776.0</ele><time>2026-04-26T11:36:38.538Z</time></trkpt><trkpt lat="46.0374495" lon="11.7835685"><ele>776.0</ele><time>2026-04-26T11:36:40.537Z</time></trkpt><trkpt lat="46.0373574" lon="11.7835914"><ele>776.0</ele><time>2026-04-26T11:36:43.537Z</time></trkpt><trkpt lat="46.0372849" lon="11.7836219"><ele>776.0</ele><time>2026-04-26T11:36:45.538Z</time></trkpt><trkpt lat="46.0372229" lon="11.7836625"><ele>776.0</ele><time>2026-04-26T11:36:47.537Z</time></trkpt><trkpt lat="46.0371556" lon="11.7837221"><ele>776.0</ele><time>2026-04-26T11:36:49.538Z</time></trkpt><trkpt lat="46.0370918" lon="11.7837862"><ele>777.3333333333334</ele><time>2026-04-26T11:36:51.539Z</time></trkpt><trkpt lat="46.0370314" lon="11.7838485"><ele>778.6666666666667</ele><time>2026-04-26T11:36:53.538Z</time></trkpt><trkpt lat="46.0369752" lon="11.7839154"><ele>780.0</ele><time>2026-04-26T11:36:55.539Z</time></trkpt><trkpt lat="46.0369072" lon="11.7840475"><ele>781.3333333333333</ele><time>2026-04-26T11:36:58.534Z</time></trkpt><trkpt lat="46.0368501" lon="11.7841444"><ele>782.6666666666666</ele><time>2026-04-26T11:37:00.534Z</time></trkpt><trkpt lat="46.0368011" lon="11.7842424"><ele>784.0</ele><time>2026-04-26T11:37:02.534Z</time></trkpt><trkpt lat="46.0367475" lon="11.7843257"><ele>782.8571428571429</ele><time>2026-04-26T11:37:04.534Z</time></trkpt><trkpt lat="46.0366998" lon="11.7844072"><ele>781.7142857142858</ele><time>2026-04-26T11:37:06.535Z</time></trkpt><trkpt lat="46.0366479" lon="11.7844794"><ele>780.5714285714286</ele><time>2026-04-26T11:37:08.536Z</time></trkpt><trkpt lat="46.0365888" lon="11.7845262"><ele>779.4285714285714</ele><time>2026-04-26T11:37:10.535Z</time></trkpt><trkpt lat="46.0365136" lon="11.7845754"><ele>778.2857142857143</ele><time>2026-04-26T11:37:13.536Z</time></trkpt><trkpt lat="46.0364502" lon="11.7845938"><ele>777.1428571428571</ele><time>2026-04-26T11:37:17.536Z</time></trkpt><trkpt lat="46.036451" lon="11.7846959"><ele>776.0</ele><time>2026-04-26T11:37:21.537Z</time></trkpt><trkpt lat="46.0364397" lon="11.7848263"><ele>775.3333333333334</ele><time>2026-04-26T11:37:24.534Z</time></trkpt><trkpt lat="46.0364216" lon="11.7849273"><ele>774.6666666666667</ele><time>2026-04-26T11:37:26.535Z</time></trkpt><trkpt lat="46.036357" lon="11.7849886"><ele>774.0</ele><time>2026-04-26T11:37:28.534Z</time></trkpt><trkpt lat="46.0362676" lon="11.7850402"><ele>773.3333333333333</ele><time>2026-04-26T11:37:30.536Z</time></trkpt><trkpt lat="46.0361912" lon="11.7851003"><ele>772.6666666666666</ele><time>2026-04-26T11:37:32.536Z</time></trkpt><trkpt lat="46.0361295" lon="11.7851677"><ele>772.0</ele><time>2026-04-26T11:37:34.534Z</time></trkpt><trkpt lat="46.0360727" lon="11.7852412"><ele>775.1666666666666</ele><time>2026-04-26T11:37:36.534Z</time></trkpt><trkpt lat="46.0360108" lon="11.7853142"><ele>778.3333333333333</ele><time>2026-04-26T11:37:38.536Z</time></trkpt><trkpt lat="46.0359497" lon="11.7853804"><ele>781.5</ele><time>2026-04-26T11:37:40.535Z</time></trkpt><trkpt lat="46.0359004" lon="11.7854554"><ele>784.6666666666667</ele><time>2026-04-26T11:37:42.535Z</time></trkpt><trkpt lat="46.0358498" lon="11.7855306"><ele>787.8333333333334</ele><time>2026-04-26T11:37:44.535Z</time></trkpt><trkpt lat="46.0357954" lon="11.7856026"><ele>791.0</ele><time>2026-04-26T11:37:46.535Z</time></trkpt><trkpt lat="46.0357103" lon="11.7856517"><ele>792.6666666666667</ele><time>2026-04-26T11:37:48.535Z</time></trkpt><trkpt lat="46.0356364" lon="11.7856262"><ele>794.3333333333334</ele><time>2026-04-26T11:37:50.535Z</time></trkpt><trkpt lat="46.0355703" lon="11.7855659"><ele>796.0</ele><time>2026-04-26T11:37:52.535Z</time></trkpt><trkpt lat="46.0355152" lon="11.785507"><ele>797.6666666666667</ele><time>2026-04-26T11:37:54.535Z</time></trkpt><trkpt lat="46.035457" lon="11.7854465"><ele>799.3333333333334</ele><time>2026-04-26T11:37:56.535Z</time></trkpt><trkpt lat="46.0353901" lon="11.7853817"><ele>801.0</ele><time>2026-04-26T11:37:58.534Z</time></trkpt><trkpt lat="46.0353234" lon="11.7853198"><ele>801.0</ele><time>2026-04-26T11:38:00.536Z</time></trkpt><trkpt lat="46.0352529" lon="11.7852671"><ele>801.0</ele><time>2026-04-26T11:38:02.535Z</time></trkpt><trkpt lat="46.0351779" lon="11.7852279"><ele>801.0</ele><time>2026-04-26T11:38:04.535Z</time></trkpt><trkpt lat="46.0350995" lon="11.7851944"><ele>801.0</ele><time>2026-04-26T11:38:06.535Z</time></trkpt><trkpt lat="46.0350214" lon="11.7851655"><ele>801.0</ele><time>2026-04-26T11:38:08.536Z</time></trkpt><trkpt lat="46.0349422" lon="11.7851432"><ele>801.0</ele><time>2026-04-26T11:38:10.535Z</time></trkpt><trkpt lat="46.0348667" lon="11.7851166"><ele>798.6666666666666</ele><time>2026-04-26T11:38:12.535Z</time></trkpt><trkpt lat="46.0347882" lon="11.7850949"><ele>796.3333333333333</ele><time>2026-04-26T11:38:14.535Z</time></trkpt><trkpt lat="46.0347088" lon="11.7850713"><ele>794.0</ele><time>2026-04-26T11:38:16.535Z</time></trkpt><trkpt lat="46.0346322" lon="11.7850476"><ele>791.6666666666666</ele><time>2026-04-26T11:38:18.536Z</time></trkpt><trkpt lat="46.0345584" lon="11.7850209"><ele>789.3333333333333</ele><time>2026-04-26T11:38:20.535Z</time></trkpt><trkpt lat="46.034486" lon="11.7849874"><ele>787.0</ele><time>2026-04-26T11:38:22.536Z</time></trkpt><trkpt lat="46.0344129" lon="11.7849547"><ele>787.0</ele><time>2026-04-26T11:38:24.535Z</time></trkpt><trkpt lat="46.0343414" lon="11.7849201"><ele>787.0</ele><time>2026-04-26T11:38:26.536Z</time></trkpt><trkpt lat="46.0342731" lon="11.7848782"><ele>787.0</ele><time>2026-04-26T11:38:28.535Z</time></trkpt><trkpt lat="46.0342046" lon="11.7848295"><ele>787.0</ele><time>2026-04-26T11:38:30.539Z</time></trkpt><trkpt lat="46.03414" lon="11.784771"><ele>787.0</ele><time>2026-04-26T11:38:32.538Z</time></trkpt><trkpt lat="46.0340801" lon="11.784711"><ele>787.0</ele><time>2026-04-26T11:38:34.538Z</time></trkpt><trkpt lat="46.0340177" lon="11.7846582"><ele>787.0</ele><time>2026-04-26T11:38:36.539Z</time></trkpt><trkpt lat="46.0339528" lon="11.7846187"><ele>788.0</ele><time>2026-04-26T11:38:38.538Z</time></trkpt><trkpt lat="46.0338873" lon="11.7845819"><ele>789.0</ele><time>2026-04-26T11:38:40.539Z</time></trkpt><trkpt lat="46.0338231" lon="11.7845489"><ele>790.0</ele><time>2026-04-26T11:38:42.537Z</time></trkpt><trkpt lat="46.033761" lon="11.7845225"><ele>791.0</ele><time>2026-04-26T11:38:44.538Z</time></trkpt><trkpt lat="46.0336942" lon="11.7844982"><ele>792.0</ele><time>2026-04-26T11:38:46.537Z</time></trkpt><trkpt lat="46.0336293" lon="11.7844829"><ele>793.0</ele><time>2026-04-26T11:38:48.538Z</time></trkpt><trkpt lat="46.033552" lon="11.7844842"><ele>794.0</ele><time>2026-04-26T11:38:50.538Z</time></trkpt><trkpt lat="46.0334816" lon="11.7844923"><ele>794.0000000000001</ele><time>2026-04-26T11:38:52.536Z</time></trkpt><trkpt lat="46.0333937" lon="11.784549"><ele>794.0</ele><time>2026-04-26T11:38:55.536Z</time></trkpt><trkpt lat="46.0332913" lon="11.7845741"><ele>794.0</ele><time>2026-04-26T11:38:57.537Z</time></trkpt><trkpt lat="46.033215" lon="11.7846185"><ele>794.0</ele><time>2026-04-26T11:38:59.536Z</time></trkpt><trkpt lat="46.033133" lon="11.7846465"><ele>794.0000000000001</ele><time>2026-04-26T11:39:01.536Z</time></trkpt><trkpt lat="46.0330563" lon="11.784668"><ele>794.0</ele><time>2026-04-26T11:39:03.536Z</time></trkpt><trkpt lat="46.0329737" lon="11.7846947"><ele>792.1666666666667</ele><time>2026-04-26T11:39:05.536Z</time></trkpt><trkpt lat="46.032896" lon="11.7847228"><ele>790.3333333333334</ele><time>2026-04-26T11:39:07.535Z</time></trkpt><trkpt lat="46.0328155" lon="11.7847499"><ele>788.5</ele><time>2026-04-26T11:39:09.536Z</time></trkpt><trkpt lat="46.0327339" lon="11.7847953"><ele>786.6666666666667</ele><time>2026-04-26T11:39:11.537Z</time></trkpt><trkpt lat="46.0326579" lon="11.7848609"><ele>784.8333333333334</ele><time>2026-04-26T11:39:13.539Z</time></trkpt><trkpt lat="46.0326045" lon="11.7849643"><ele>783.0</ele><time>2026-04-26T11:39:15.537Z</time></trkpt><trkpt lat="46.0325736" lon="11.7850884"><ele>782.5</ele><time>2026-04-26T11:39:17.538Z</time></trkpt><trkpt lat="46.0325589" lon="11.7852398"><ele>782.0</ele><time>2026-04-26T11:39:19.538Z</time></trkpt><trkpt lat="46.0325511" lon="11.7854147"><ele>781.5</ele><time>2026-04-26T11:39:21.539Z</time></trkpt><trkpt lat="46.0325375" lon="11.7855871"><ele>781.0</ele><time>2026-04-26T11:39:23.535Z</time></trkpt><trkpt lat="46.0325252" lon="11.7857394"><ele>780.9999999999999</ele><time>2026-04-26T11:39:25.538Z</time></trkpt><trkpt lat="46.0325205" lon="11.7858742"><ele>781.0</ele><time>2026-04-26T11:39:27.536Z</time></trkpt><trkpt lat="46.0325249" lon="11.7859877"><ele>781.0</ele><time>2026-04-26T11:39:29.537Z</time></trkpt><trkpt lat="46.0325328" lon="11.7860923"><ele>781.0</ele><time>2026-04-26T11:39:31.538Z</time></trkpt><trkpt lat="46.032543" lon="11.7861904"><ele>780.9999999999999</ele><time>2026-04-26T11:39:33.539Z</time></trkpt><trkpt lat="46.0325564" lon="11.7862979"><ele>781.0</ele><time>2026-04-26T11:39:35.539Z</time></trkpt><trkpt lat="46.0325778" lon="11.7864035"><ele>780.9999999999999</ele><time>2026-04-26T11:39:37.538Z</time></trkpt><trkpt lat="46.0326017" lon="11.7865053"><ele>781.0</ele><time>2026-04-26T11:39:39.537Z</time></trkpt><trkpt lat="46.0326144" lon="11.7866088"><ele>781.0</ele><time>2026-04-26T11:39:41.539Z</time></trkpt><trkpt lat="46.0326275" lon="11.7867118"><ele>781.0</ele><time>2026-04-26T11:39:43.535Z</time></trkpt><trkpt lat="46.0326487" lon="11.7868154"><ele>780.9999999999999</ele><time>2026-04-26T11:39:45.537Z</time></trkpt><trkpt lat="46.0326673" lon="11.7869272"><ele>781.0</ele><time>2026-04-26T11:39:47.539Z</time></trkpt><trkpt lat="46.0326828" lon="11.7870431"><ele>782.1999999999999</ele><time>2026-04-26T11:39:49.539Z</time></trkpt><trkpt lat="46.0326952" lon="11.7871571"><ele>783.4</ele><time>2026-04-26T11:39:51.538Z</time></trkpt><trkpt lat="46.0326969" lon="11.7872822"><ele>784.6</ele><time>2026-04-26T11:39:53.538Z</time></trkpt><trkpt lat="46.0326995" lon="11.7874098"><ele>785.8</ele><time>2026-04-26T11:39:55.537Z</time></trkpt><trkpt lat="46.0326743" lon="11.7875402"><ele>787.0</ele><time>2026-04-26T11:39:57.539Z</time></trkpt><trkpt lat="46.0326353" lon="11.7876844"><ele>789.0</ele><time>2026-04-26T11:39:59.539Z</time></trkpt><trkpt lat="46.0325949" lon="11.7878343"><ele>791.0</ele><time>2026-04-26T11:40:01.538Z</time></trkpt><trkpt lat="46.0325705" lon="11.7879886"><ele>793.0</ele><time>2026-04-26T11:40:03.537Z</time></trkpt><trkpt lat="46.0325529" lon="11.7881333"><ele>795.0</ele><time>2026-04-26T11:40:05.539Z</time></trkpt><trkpt lat="46.0325324" lon="11.7882602"><ele>797.0</ele><time>2026-04-26T11:40:07.538Z</time></trkpt><trkpt lat="46.0325124" lon="11.7883722"><ele>797.0000000000001</ele><time>2026-04-26T11:40:09.539Z</time></trkpt><trkpt lat="46.0324925" lon="11.7884675"><ele>797.0</ele><time>2026-04-26T11:40:11.539Z</time></trkpt><trkpt lat="46.0324683" lon="11.7885813"><ele>797.0</ele><time>2026-04-26T11:40:13.538Z</time></trkpt><trkpt lat="46.0324396" lon="11.7886761"><ele>797.0</ele><time>2026-04-26T11:40:15.539Z</time></trkpt><trkpt lat="46.032383" lon="11.7887419"><ele>797.0000000000001</ele><time>2026-04-26T11:40:17.539Z</time></trkpt><trkpt lat="46.0322995" lon="11.7887691"><ele>797.0</ele><time>2026-04-26T11:40:20.539Z</time></trkpt><trkpt lat="46.032231" lon="11.7887889"><ele>798.3333333333334</ele><time>2026-04-26T11:40:22.538Z</time></trkpt><trkpt lat="46.0321734" lon="11.7888275"><ele>799.6666666666667</ele><time>2026-04-26T11:40:24.537Z</time></trkpt><trkpt lat="46.0321078" lon="11.7889254"><ele>801.0</ele><time>2026-04-26T11:40:27.536Z</time></trkpt><trkpt lat="46.032055" lon="11.7890232"><ele>802.3333333333333</ele><time>2026-04-26T11:40:29.539Z</time></trkpt><trkpt lat="46.0320113" lon="11.7891443"><ele>803.6666666666666</ele><time>2026-04-26T11:40:31.539Z</time></trkpt><trkpt lat="46.0319714" lon="11.7892519"><ele>805.0</ele><time>2026-04-26T11:40:33.539Z</time></trkpt><trkpt lat="46.0319488" lon="11.7893483"><ele>807.6666666666666</ele><time>2026-04-26T11:40:35.539Z</time></trkpt><trkpt lat="46.0319338" lon="11.7894488"><ele>810.3333333333333</ele><time>2026-04-26T11:40:37.538Z</time></trkpt><trkpt lat="46.0319024" lon="11.7895368"><ele>813.0</ele><time>2026-04-26T11:40:39.538Z</time></trkpt><trkpt lat="46.0318252" lon="11.7896191"><ele>815.6666666666667</ele><time>2026-04-26T11:40:41.534Z</time></trkpt><trkpt lat="46.0317555" lon="11.7896843"><ele>818.3333333333334</ele><time>2026-04-26T11:40:43.539Z</time></trkpt><trkpt lat="46.0316874" lon="11.7897251"><ele>821.0</ele><time>2026-04-26T11:40:45.538Z</time></trkpt><trkpt lat="46.0316117" lon="11.78978"><ele>822.8333333333334</ele><time>2026-04-26T11:40:48.537Z</time></trkpt><trkpt lat="46.0315348" lon="11.7898317"><ele>824.6666666666667</ele><time>2026-04-26T11:40:51.538Z</time></trkpt><trkpt lat="46.031476" lon="11.7898796"><ele>826.5</ele><time>2026-04-26T11:40:53.538Z</time></trkpt><trkpt lat="46.0314068" lon="11.7898944"><ele>828.3333333333333</ele><time>2026-04-26T11:40:55.539Z</time></trkpt><trkpt lat="46.0313322" lon="11.7898614"><ele>830.1666666666666</ele><time>2026-04-26T11:40:58.537Z</time></trkpt><trkpt lat="46.0312877" lon="11.7897814"><ele>832.0</ele><time>2026-04-26T11:41:00.539Z</time></trkpt><trkpt lat="46.0312588" lon="11.7896627"><ele>831.9999999999999</ele><time>2026-04-26T11:41:03.539Z</time></trkpt><trkpt lat="46.0312272" lon="11.789542"><ele>832.0</ele><time>2026-04-26T11:41:06.535Z</time></trkpt><trkpt lat="46.0311645" lon="11.7894545"><ele>832.0</ele><time>2026-04-26T11:41:09.538Z</time></trkpt><trkpt lat="46.0311065" lon="11.7894094"><ele>832.0</ele><time>2026-04-26T11:41:12.538Z</time></trkpt><trkpt lat="46.0310718" lon="11.7893257"><ele>831.9999999999999</ele><time>2026-04-26T11:41:16.537Z</time></trkpt><trkpt lat="46.0310277" lon="11.7892461"><ele>832.0</ele><time>2026-04-26T11:41:20.538Z</time></trkpt><trkpt lat="46.030965" lon="11.7891742"><ele>832.3333333333333</ele><time>2026-04-26T11:41:24.538Z</time></trkpt><trkpt lat="46.0309017" lon="11.7891105"><ele>832.6666666666666</ele><time>2026-04-26T11:41:28.538Z</time></trkpt><trkpt lat="46.0308684" lon="11.7890323"><ele>833.0</ele><time>2026-04-26T11:41:31.537Z</time></trkpt><trkpt lat="46.0308262" lon="11.7889446"><ele>833.3333333333333</ele><time>2026-04-26T11:41:34.536Z</time></trkpt><trkpt lat="46.0307776" lon="11.7888504"><ele>833.6666666666666</ele><time>2026-04-26T11:41:37.538Z</time></trkpt><trkpt lat="46.0307294" lon="11.7887655"><ele>834.0</ele><time>2026-04-26T11:41:40.538Z</time></trkpt><trkpt lat="46.0306781" lon="11.7886769"><ele>834.0</ele><time>2026-04-26T11:41:43.538Z</time></trkpt><trkpt lat="46.0306274" lon="11.7885873"><ele>834.0</ele><time>2026-04-26T11:41:46.539Z</time></trkpt><trkpt lat="46.0305766" lon="11.7884984"><ele>834.0</ele><time>2026-04-26T11:41:49.538Z</time></trkpt><trkpt lat="46.0305287" lon="11.7883993"><ele>834.0</ele><time>2026-04-26T11:41:52.538Z</time></trkpt><trkpt lat="46.0304713" lon="11.788309"><ele>834.0</ele><time>2026-04-26T11:41:55.539Z</time></trkpt><trkpt lat="46.0303987" lon="11.7882386"><ele>834.0</ele><time>2026-04-26T11:41:58.538Z</time></trkpt><trkpt lat="46.0303314" lon="11.7881744"><ele>834.0</ele><time>2026-04-26T11:42:01.538Z</time></trkpt><trkpt lat="46.0302517" lon="11.78814"><ele>834.0</ele><time>2026-04-26T11:42:04.536Z</time></trkpt><trkpt lat="46.030178" lon="11.7881861"><ele>834.0</ele><time>2026-04-26T11:42:07.54Z</time></trkpt><trkpt lat="46.0301316" lon="11.7882875"><ele>834.0</ele><time>2026-04-26T11:42:10.539Z</time></trkpt><trkpt lat="46.0300998" lon="11.7884113"><ele>834.0</ele><time>2026-04-26T11:42:13.538Z</time></trkpt><trkpt lat="46.0300664" lon="11.7885327"><ele>834.0</ele><time>2026-04-26T11:42:16.537Z</time></trkpt><trkpt lat="46.0300203" lon="11.7886524"><ele>834.0</ele><time>2026-04-26T11:42:19.537Z</time></trkpt><trkpt lat="46.0299774" lon="11.7887314"><ele>834.0</ele><time>2026-04-26T11:42:21.537Z</time></trkpt><trkpt lat="46.0299294" lon="11.7888082"><ele>834.0</ele><time>2026-04-26T11:42:23.535Z</time></trkpt><trkpt lat="46.029882" lon="11.7888879"><ele>834.0</ele><time>2026-04-26T11:42:25.537Z</time></trkpt><trkpt lat="46.0298287" lon="11.7889682"><ele>834.0</ele><time>2026-04-26T11:42:27.537Z</time></trkpt><trkpt lat="46.0297725" lon="11.7890406"><ele>834.0</ele><time>2026-04-26T11:42:29.539Z</time></trkpt><trkpt lat="46.0297027" lon="11.7890881"><ele>834.0</ele><time>2026-04-26T11:42:31.538Z</time></trkpt><trkpt lat="46.0296317" lon="11.7891137"><ele>837.0</ele><time>2026-04-26T11:42:33.535Z</time></trkpt><trkpt lat="46.0295568" lon="11.7891068"><ele>840.0</ele><time>2026-04-26T11:42:35.534Z</time></trkpt><trkpt lat="46.0294936" lon="11.7890731"><ele>843.0</ele><time>2026-04-26T11:42:37.536Z</time></trkpt><trkpt lat="46.0294255" lon="11.7890144"><ele>846.0</ele><time>2026-04-26T11:42:39.535Z</time></trkpt><trkpt lat="46.0293622" lon="11.7889645"><ele>849.0</ele><time>2026-04-26T11:42:41.536Z</time></trkpt><trkpt lat="46.0293014" lon="11.7889144"><ele>852.0</ele><time>2026-04-26T11:42:43.537Z</time></trkpt><trkpt lat="46.0292418" lon="11.7888636"><ele>855.0</ele><time>2026-04-26T11:42:45.539Z</time></trkpt><trkpt lat="46.0291838" lon="11.7888168"><ele>854.6666666666666</ele><time>2026-04-26T11:42:47.537Z</time></trkpt><trkpt lat="46.0291136" lon="11.7887738"><ele>854.3333333333333</ele><time>2026-04-26T11:42:49.539Z</time></trkpt><trkpt lat="46.0290522" lon="11.7887395"><ele>854.0</ele><time>2026-04-26T11:42:51.537Z</time></trkpt><trkpt lat="46.0289622" lon="11.7886931"><ele>853.6666666666666</ele><time>2026-04-26T11:42:54.539Z</time></trkpt><trkpt lat="46.0288999" lon="11.7886326"><ele>853.3333333333333</ele><time>2026-04-26T11:42:56.539Z</time></trkpt><trkpt lat="46.0288385" lon="11.7885581"><ele>853.0</ele><time>2026-04-26T11:42:58.535Z</time></trkpt><trkpt lat="46.0287897" lon="11.7884653"><ele>853.0</ele><time>2026-04-26T11:43:00.538Z</time></trkpt><trkpt lat="46.0287432" lon="11.7883713"><ele>853.0</ele><time>2026-04-26T11:43:02.536Z</time></trkpt><trkpt lat="46.0286862" lon="11.7882918"><ele>853.0</ele><time>2026-04-26T11:43:04.537Z</time></trkpt><trkpt lat="46.0286283" lon="11.7882401"><ele>853.0</ele><time>2026-04-26T11:43:06.538Z</time></trkpt><trkpt lat="46.0285671" lon="11.7882044"><ele>853.0</ele><time>2026-04-26T11:43:08.537Z</time></trkpt><trkpt lat="46.0285004" lon="11.7881928"><ele>853.0</ele><time>2026-04-26T11:43:10.536Z</time></trkpt><trkpt lat="46.0284311" lon="11.7881961"><ele>853.0</ele><time>2026-04-26T11:43:12.538Z</time></trkpt><trkpt lat="46.0283523" lon="11.7882221"><ele>853.3333333333333</ele><time>2026-04-26T11:43:15.539Z</time></trkpt><trkpt lat="46.0282648" lon="11.7882252"><ele>853.6666666666666</ele><time>2026-04-26T11:43:19.535Z</time></trkpt><trkpt lat="46.0281901" lon="11.7882198"><ele>854.0</ele><time>2026-04-26T11:43:22.536Z</time></trkpt><trkpt lat="46.0281229" lon="11.7882081"><ele>854.3333333333333</ele><time>2026-04-26T11:43:25.538Z</time></trkpt><trkpt lat="46.0280385" lon="11.7881917"><ele>854.6666666666666</ele><time>2026-04-26T11:43:28.536Z</time></trkpt><trkpt lat="46.0279544" lon="11.7881613"><ele>855.0</ele><time>2026-04-26T11:43:31.538Z</time></trkpt><trkpt lat="46.0278787" lon="11.7881355"><ele>855.0</ele><time>2026-04-26T11:43:34.539Z</time></trkpt><trkpt lat="46.0277872" lon="11.7881068"><ele>855.0</ele><time>2026-04-26T11:43:37.537Z</time></trkpt><trkpt lat="46.0276989" lon="11.7881002"><ele>855.0</ele><time>2026-04-26T11:43:40.537Z</time></trkpt><trkpt lat="46.0276159" lon="11.788088"><ele>855.0</ele><time>2026-04-26T11:43:43.539Z</time></trkpt><trkpt lat="46.0275437" lon="11.7880816"><ele>855.0</ele><time>2026-04-26T11:43:46.537Z</time></trkpt><trkpt lat="46.0274724" lon="11.7880673"><ele>855.0</ele><time>2026-04-26T11:43:49.538Z</time></trkpt><trkpt lat="46.0274123" lon="11.7881011"><ele>855.0</ele><time>2026-04-26T11:43:55.538Z</time></trkpt><trkpt lat="46.0273748" lon="11.7882179"><ele>855.0</ele><time>2026-04-26T11:45:33.539Z</time></trkpt><trkpt lat="46.0274347" lon="11.7882462"><ele>855.0</ele><time>2026-04-26T11:45:37.539Z</time></trkpt><trkpt lat="46.0274931" lon="11.7882945"><ele>855.0</ele><time>2026-04-26T11:45:40.539Z</time></trkpt><trkpt lat="46.0275442" lon="11.7883685"><ele>855.0</ele><time>2026-04-26T11:45:43.539Z</time></trkpt><trkpt lat="46.0275979" lon="11.7884491"><ele>855.0</ele><time>2026-04-26T11:45:46.535Z</time></trkpt><trkpt lat="46.0276438" lon="11.7885264"><ele>855.0</ele><time>2026-04-26T11:45:49.537Z</time></trkpt><trkpt lat="46.0276994" lon="11.788601"><ele>857.1666666666666</ele><time>2026-04-26T11:45:52.535Z</time></trkpt><trkpt lat="46.0277337" lon="11.7886978"><ele>859.3333333333333</ele><time>2026-04-26T11:45:55.536Z</time></trkpt><trkpt lat="46.0277667" lon="11.7887922"><ele>861.5</ele><time>2026-04-26T11:45:58.538Z</time></trkpt><trkpt lat="46.0278081" lon="11.7888896"><ele>863.6666666666666</ele><time>2026-04-26T11:46:01.539Z</time></trkpt><trkpt lat="46.0278438" lon="11.7889862"><ele>865.8333333333333</ele><time>2026-04-26T11:46:04.536Z</time></trkpt><trkpt lat="46.0278822" lon="11.7890822"><ele>868.0</ele><time>2026-04-26T11:46:07.539Z</time></trkpt><trkpt lat="46.0279242" lon="11.7891801"><ele>867.9999999999999</ele><time>2026-04-26T11:46:10.537Z</time></trkpt><trkpt lat="46.0279691" lon="11.7892798"><ele>868.0</ele><time>2026-04-26T11:46:13.537Z</time></trkpt><trkpt lat="46.0280119" lon="11.7893705"><ele>868.0</ele><time>2026-04-26T11:46:16.534Z</time></trkpt><trkpt lat="46.0280532" lon="11.7894662"><ele>868.0</ele><time>2026-04-26T11:46:19.536Z</time></trkpt><trkpt lat="46.0280925" lon="11.7895702"><ele>867.9999999999999</ele><time>2026-04-26T11:46:22.538Z</time></trkpt><trkpt lat="46.0281309" lon="11.7896733"><ele>868.0</ele><time>2026-04-26T11:46:25.537Z</time></trkpt><trkpt lat="46.0281594" lon="11.7897818"><ele>869.9999999999999</ele><time>2026-04-26T11:46:28.537Z</time></trkpt><trkpt lat="46.0281845" lon="11.7898987"><ele>872.0</ele><time>2026-04-26T11:46:31.539Z</time></trkpt><trkpt lat="46.0281985" lon="11.7900129"><ele>874.0</ele><time>2026-04-26T11:46:34.539Z</time></trkpt><trkpt lat="46.028208" lon="11.7901307"><ele>876.0</ele><time>2026-04-26T11:46:37.536Z</time></trkpt><trkpt lat="46.0282241" lon="11.7902495"><ele>877.9999999999999</ele><time>2026-04-26T11:46:40.538Z</time></trkpt><trkpt lat="46.0282311" lon="11.7903621"><ele>880.0</ele><time>2026-04-26T11:46:43.537Z</time></trkpt><trkpt lat="46.028247" lon="11.7904798"><ele>881.4999999999999</ele><time>2026-04-26T11:46:46.539Z</time></trkpt><trkpt lat="46.0282924" lon="11.7905636"><ele>883.0</ele><time>2026-04-26T11:46:49.536Z</time></trkpt><trkpt lat="46.0283637" lon="11.7906139"><ele>884.5</ele><time>2026-04-26T11:46:52.538Z</time></trkpt><trkpt lat="46.0284355" lon="11.7906577"><ele>886.0</ele><time>2026-04-26T11:46:55.538Z</time></trkpt><trkpt lat="46.0284942" lon="11.7907549"><ele>887.4999999999999</ele><time>2026-04-26T11:46:58.538Z</time></trkpt><trkpt lat="46.028534" lon="11.7908786"><ele>889.0</ele><time>2026-04-26T11:47:01.538Z</time></trkpt><trkpt lat="46.0285504" lon="11.7909698"><ele>890.5714285714286</ele><time>2026-04-26T11:47:03.538Z</time></trkpt><trkpt lat="46.02857" lon="11.7910598"><ele>892.1428571428571</ele><time>2026-04-26T11:47:05.537Z</time></trkpt><trkpt lat="46.0285918" lon="11.7911473"><ele>893.7142857142858</ele><time>2026-04-26T11:47:07.539Z</time></trkpt><trkpt lat="46.028616" lon="11.7912339"><ele>895.2857142857143</ele><time>2026-04-26T11:47:09.535Z</time></trkpt><trkpt lat="46.0286296" lon="11.791323"><ele>896.8571428571429</ele><time>2026-04-26T11:47:11.535Z</time></trkpt><trkpt lat="46.0286615" lon="11.7914485"><ele>898.4285714285716</ele><time>2026-04-26T11:47:14.539Z</time></trkpt><trkpt lat="46.0286999" lon="11.7915216"><ele>900.0000000000001</ele><time>2026-04-26T11:47:16.534Z</time></trkpt><trkpt lat="46.0287764" lon="11.7915821"><ele>900.0</ele><time>2026-04-26T11:47:19.537Z</time></trkpt><trkpt lat="46.0288499" lon="11.7916156"><ele>900.0</ele><time>2026-04-26T11:47:22.537Z</time></trkpt><trkpt lat="46.0289267" lon="11.7916815"><ele>900.0</ele><time>2026-04-26T11:47:25.537Z</time></trkpt><trkpt lat="46.0289103" lon="11.7917842"><ele>900.0</ele><time>2026-04-26T11:47:29.539Z</time></trkpt><trkpt lat="46.0288333" lon="11.7918241"><ele>900.0</ele><time>2026-04-26T11:47:32.538Z</time></trkpt><trkpt lat="46.0287512" lon="11.791863"><ele>900.0</ele><time>2026-04-26T11:47:35.537Z</time></trkpt><trkpt lat="46.0286638" lon="11.7919127"><ele>901.1666666666666</ele><time>2026-04-26T11:47:38.538Z</time></trkpt><trkpt lat="46.0286031" lon="11.7919383"><ele>902.3333333333333</ele><time>2026-04-26T11:47:40.539Z</time></trkpt><trkpt lat="46.0285378" lon="11.7919485"><ele>903.5</ele><time>2026-04-26T11:47:42.539Z</time></trkpt><trkpt lat="46.028447" lon="11.7919561"><ele>904.6666666666666</ele><time>2026-04-26T11:47:45.538Z</time></trkpt><trkpt lat="46.0283603" lon="11.7919535"><ele>905.8333333333333</ele><time>2026-04-26T11:47:48.539Z</time></trkpt><trkpt lat="46.0282945" lon="11.7919678"><ele>907.0</ele><time>2026-04-26T11:47:51.538Z</time></trkpt><trkpt lat="46.0282887" lon="11.7920856"><ele>907.857142857143</ele><time>2026-04-26T11:47:55.537Z</time></trkpt><trkpt lat="46.0283562" lon="11.7921674"><ele>908.7142857142858</ele><time>2026-04-26T11:47:58.538Z</time></trkpt><trkpt lat="46.0284163" lon="11.7922214"><ele>909.5714285714286</ele><time>2026-04-26T11:48:00.538Z</time></trkpt><trkpt lat="46.0284696" lon="11.7922786"><ele>910.4285714285714</ele><time>2026-04-26T11:48:02.539Z</time></trkpt><trkpt lat="46.0285242" lon="11.7923343"><ele>911.2857142857142</ele><time>2026-04-26T11:48:04.538Z</time></trkpt><trkpt lat="46.0285796" lon="11.7923823"><ele>912.142857142857</ele><time>2026-04-26T11:48:06.538Z</time></trkpt><trkpt lat="46.0286383" lon="11.7924262"><ele>912.9999999999999</ele><time>2026-04-26T11:48:08.537Z</time></trkpt><trkpt lat="46.028698" lon="11.7924721"><ele>912.9999999999999</ele><time>2026-04-26T11:48:10.539Z</time></trkpt><trkpt lat="46.028774" lon="11.7925363"><ele>913.0</ele><time>2026-04-26T11:48:13.539Z</time></trkpt><trkpt lat="46.0288326" lon="11.7925762"><ele>913.0</ele><time>2026-04-26T11:48:15.538Z</time></trkpt><trkpt lat="46.0289155" lon="11.7925941"><ele>913.0</ele><time>2026-04-26T11:48:18.539Z</time></trkpt><trkpt lat="46.0289823" lon="11.792672"><ele>912.9999999999999</ele><time>2026-04-26T11:48:21.539Z</time></trkpt><trkpt lat="46.0289261" lon="11.792734"><ele>913.0</ele><time>2026-04-26T11:48:25.534Z</time></trkpt><trkpt lat="46.0288303" lon="11.7927437"><ele>914.2857142857142</ele><time>2026-04-26T11:48:28.539Z</time></trkpt><trkpt lat="46.028763" lon="11.792739"><ele>915.5714285714286</ele><time>2026-04-26T11:48:30.537Z</time></trkpt><trkpt lat="46.0286928" lon="11.7927327"><ele>916.8571428571429</ele><time>2026-04-26T11:48:32.537Z</time></trkpt><trkpt lat="46.028622" lon="11.7927274"><ele>918.1428571428571</ele><time>2026-04-26T11:48:34.538Z</time></trkpt><trkpt lat="46.028552" lon="11.792723"><ele>919.4285714285716</ele><time>2026-04-26T11:48:36.537Z</time></trkpt><trkpt lat="46.0284804" lon="11.7927284"><ele>920.7142857142858</ele><time>2026-04-26T11:48:38.539Z</time></trkpt><trkpt lat="46.0284081" lon="11.7927345"><ele>922.0</ele><time>2026-04-26T11:48:40.539Z</time></trkpt><trkpt lat="46.0283401" lon="11.7927477"><ele>921.3333333333333</ele><time>2026-04-26T11:48:42.538Z</time></trkpt><trkpt lat="46.0282744" lon="11.7927708"><ele>920.6666666666666</ele><time>2026-04-26T11:48:44.539Z</time></trkpt><trkpt lat="46.0281879" lon="11.7928206"><ele>920.0</ele><time>2026-04-26T11:48:47.539Z</time></trkpt><trkpt lat="46.0281037" lon="11.7928697"><ele>919.3333333333333</ele><time>2026-04-26T11:48:50.538Z</time></trkpt><trkpt lat="46.0280475" lon="11.7929613"><ele>918.6666666666666</ele><time>2026-04-26T11:48:53.539Z</time></trkpt><trkpt lat="46.0280317" lon="11.7930862"><ele>918.0</ele><time>2026-04-26T11:48:56.538Z</time></trkpt><trkpt lat="46.028082" lon="11.7931838"><ele>918.0</ele><time>2026-04-26T11:48:59.538Z</time></trkpt><trkpt lat="46.0281432" lon="11.793238"><ele>918.0</ele><time>2026-04-26T11:49:01.539Z</time></trkpt><trkpt lat="46.0282017" lon="11.7932737"><ele>918.0</ele><time>2026-04-26T11:49:03.538Z</time></trkpt><trkpt lat="46.0282711" lon="11.7933149"><ele>918.0</ele><time>2026-04-26T11:49:05.534Z</time></trkpt><trkpt lat="46.0283356" lon="11.7933439"><ele>918.0</ele><time>2026-04-26T11:49:07.539Z</time></trkpt><trkpt lat="46.0284196" lon="11.7933741"><ele>918.0</ele><time>2026-04-26T11:49:10.538Z</time></trkpt><trkpt lat="46.0285103" lon="11.7933822"><ele>918.6666666666666</ele><time>2026-04-26T11:49:13.538Z</time></trkpt><trkpt lat="46.0285804" lon="11.7933888"><ele>919.3333333333333</ele><time>2026-04-26T11:49:15.539Z</time></trkpt><trkpt lat="46.0286722" lon="11.7934131"><ele>920.0</ele><time>2026-04-26T11:49:18.539Z</time></trkpt><trkpt lat="46.0287545" lon="11.7934711"><ele>920.6666666666666</ele><time>2026-04-26T11:49:21.539Z</time></trkpt><trkpt lat="46.0288326" lon="11.7935265"><ele>921.3333333333333</ele><time>2026-04-26T11:49:24.537Z</time></trkpt><trkpt lat="46.0289114" lon="11.7935816"><ele>922.0</ele><time>2026-04-26T11:49:27.538Z</time></trkpt><trkpt lat="46.0289814" lon="11.7936327"><ele>924.9999999999999</ele><time>2026-04-26T11:49:29.54Z</time></trkpt><trkpt lat="46.0290519" lon="11.7936706"><ele>928.0</ele><time>2026-04-26T11:49:31.539Z</time></trkpt><trkpt lat="46.0291146" lon="11.7937177"><ele>931.0</ele><time>2026-04-26T11:49:33.537Z</time></trkpt><trkpt lat="46.0291732" lon="11.7937561"><ele>934.0</ele><time>2026-04-26T11:49:35.539Z</time></trkpt><trkpt lat="46.0292275" lon="11.7938048"><ele>936.9999999999999</ele><time>2026-04-26T11:49:37.539Z</time></trkpt><trkpt lat="46.029301" lon="11.7938834"><ele>940.0</ele><time>2026-04-26T11:49:40.539Z</time></trkpt><trkpt lat="46.0293745" lon="11.7939524"><ele>940.4285714285713</ele><time>2026-04-26T11:49:43.539Z</time></trkpt><trkpt lat="46.0294356" lon="11.7939775"><ele>940.8571428571428</ele><time>2026-04-26T11:49:45.537Z</time></trkpt><trkpt lat="46.0295007" lon="11.7939982"><ele>941.2857142857142</ele><time>2026-04-26T11:49:47.537Z</time></trkpt><trkpt lat="46.0295653" lon="11.794022"><ele>941.7142857142858</ele><time>2026-04-26T11:49:49.539Z</time></trkpt><trkpt lat="46.0296307" lon="11.7940549"><ele>942.1428571428572</ele><time>2026-04-26T11:49:51.537Z</time></trkpt><trkpt lat="46.0296948" lon="11.7941085"><ele>942.5714285714287</ele><time>2026-04-26T11:49:53.539Z</time></trkpt><trkpt lat="46.0297609" lon="11.7941762"><ele>943.0</ele><time>2026-04-26T11:49:55.538Z</time></trkpt><trkpt lat="46.0298178" lon="11.7942617"><ele>944.5714285714287</ele><time>2026-04-26T11:49:57.538Z</time></trkpt><trkpt lat="46.029866" lon="11.7943521"><ele>946.1428571428572</ele><time>2026-04-26T11:49:59.538Z</time></trkpt><trkpt lat="46.0299122" lon="11.7944411"><ele>947.7142857142858</ele><time>2026-04-26T11:50:01.539Z</time></trkpt><trkpt lat="46.029954" lon="11.7945312"><ele>949.2857142857142</ele><time>2026-04-26T11:50:03.539Z</time></trkpt><trkpt lat="46.0299901" lon="11.7946178"><ele>950.8571428571428</ele><time>2026-04-26T11:50:05.535Z</time></trkpt><trkpt lat="46.0300325" lon="11.794697"><ele>952.4285714285713</ele><time>2026-04-26T11:50:07.538Z</time></trkpt><trkpt lat="46.030078" lon="11.7947737"><ele>954.0</ele><time>2026-04-26T11:50:09.539Z</time></trkpt><trkpt lat="46.0301275" lon="11.7948404"><ele>954.0</ele><time>2026-04-26T11:50:11.536Z</time></trkpt><trkpt lat="46.0301952" lon="11.7949279"><ele>954.0</ele><time>2026-04-26T11:50:14.537Z</time></trkpt><trkpt lat="46.0302474" lon="11.7949876"><ele>954.0</ele><time>2026-04-26T11:50:16.537Z</time></trkpt><trkpt lat="46.0303189" lon="11.7950734"><ele>954.0</ele><time>2026-04-26T11:50:19.538Z</time></trkpt><trkpt lat="46.0303793" lon="11.7951193"><ele>954.0</ele><time>2026-04-26T11:50:22.538Z</time></trkpt><trkpt lat="46.0304502" lon="11.7951453"><ele>954.0</ele><time>2026-04-26T11:50:25.537Z</time></trkpt><trkpt lat="46.0305194" lon="11.7951607"><ele>956.2857142857142</ele><time>2026-04-26T11:50:28.536Z</time></trkpt><trkpt lat="46.0305993" lon="11.7951932"><ele>958.5714285714284</ele><time>2026-04-26T11:50:31.538Z</time></trkpt><trkpt lat="46.0306817" lon="11.7952457"><ele>960.8571428571429</ele><time>2026-04-26T11:50:34.536Z</time></trkpt><trkpt lat="46.030738" lon="11.7952871"><ele>963.1428571428571</ele><time>2026-04-26T11:50:36.536Z</time></trkpt><trkpt lat="46.0307909" lon="11.795344"><ele>965.4285714285714</ele><time>2026-04-26T11:50:38.536Z</time></trkpt><trkpt lat="46.0308366" lon="11.7954078"><ele>967.7142857142858</ele><time>2026-04-26T11:50:40.537Z</time></trkpt><trkpt lat="46.0308854" lon="11.795467"><ele>970.0000000000001</ele><time>2026-04-26T11:50:42.539Z</time></trkpt><trkpt lat="46.0309492" lon="11.7955597"><ele>970.0000000000001</ele><time>2026-04-26T11:50:45.539Z</time></trkpt><trkpt lat="46.0310032" lon="11.7956178"><ele>970.0</ele><time>2026-04-26T11:50:47.539Z</time></trkpt><trkpt lat="46.0310884" lon="11.7956757"><ele>970.0000000000001</ele><time>2026-04-26T11:50:50.539Z</time></trkpt><trkpt lat="46.0311485" lon="11.7957061"><ele>970.0000000000001</ele><time>2026-04-26T11:50:52.538Z</time></trkpt><trkpt lat="46.0312118" lon="11.7957228"><ele>970.0</ele><time>2026-04-26T11:50:54.538Z</time></trkpt><trkpt lat="46.0312765" lon="11.7957405"><ele>970.0000000000001</ele><time>2026-04-26T11:50:56.539Z</time></trkpt><trkpt lat="46.0313382" lon="11.795771"><ele>970.0000000000001</ele><time>2026-04-26T11:50:58.537Z</time></trkpt><trkpt lat="46.0313979" lon="11.795815"><ele>970.0000000000001</ele><time>2026-04-26T11:51:00.537Z</time></trkpt><trkpt lat="46.0314589" lon="11.7958527"><ele>970.0</ele><time>2026-04-26T11:51:02.539Z</time></trkpt><trkpt lat="46.0315238" lon="11.7958841"><ele>970.0000000000001</ele><time>2026-04-26T11:51:04.539Z</time></trkpt><trkpt lat="46.0315926" lon="11.7959317"><ele>970.0000000000001</ele><time>2026-04-26T11:51:06.538Z</time></trkpt><trkpt lat="46.0316575" lon="11.7959784"><ele>970.0</ele><time>2026-04-26T11:51:08.537Z</time></trkpt><trkpt lat="46.0317433" lon="11.7960319"><ele>970.0000000000001</ele><time>2026-04-26T11:51:11.539Z</time></trkpt><trkpt lat="46.0317987" lon="11.7960765"><ele>970.0000000000001</ele><time>2026-04-26T11:51:13.539Z</time></trkpt><trkpt lat="46.0318805" lon="11.7961282"><ele>972.6666666666666</ele><time>2026-04-26T11:51:16.538Z</time></trkpt><trkpt lat="46.0319567" lon="11.7961537"><ele>975.3333333333333</ele><time>2026-04-26T11:51:19.539Z</time></trkpt><trkpt lat="46.0320321" lon="11.796175"><ele>978.0</ele><time>2026-04-26T11:51:22.538Z</time></trkpt><trkpt lat="46.0321114" lon="11.796185"><ele>980.6666666666667</ele><time>2026-04-26T11:51:25.537Z</time></trkpt><trkpt lat="46.0321964" lon="11.7961886"><ele>983.3333333333334</ele><time>2026-04-26T11:51:28.537Z</time></trkpt><trkpt lat="46.032277" lon="11.7961955"><ele>986.0</ele><time>2026-04-26T11:51:31.539Z</time></trkpt><trkpt lat="46.0323587" lon="11.7962172"><ele>986.0000000000001</ele><time>2026-04-26T11:51:34.539Z</time></trkpt><trkpt lat="46.0324369" lon="11.7962618"><ele>986.0</ele><time>2026-04-26T11:51:37.538Z</time></trkpt><trkpt lat="46.0325159" lon="11.7963081"><ele>986.0</ele><time>2026-04-26T11:51:40.538Z</time></trkpt><trkpt lat="46.0325937" lon="11.7963653"><ele>986.0</ele><time>2026-04-26T11:51:43.537Z</time></trkpt><trkpt lat="46.0326575" lon="11.7964199"><ele>986.0000000000001</ele><time>2026-04-26T11:51:46.537Z</time></trkpt><trkpt lat="46.0327038" lon="11.7964976"><ele>986.0</ele><time>2026-04-26T11:51:49.539Z</time></trkpt><trkpt lat="46.0327457" lon="11.796583"><ele>985.6666666666667</ele><time>2026-04-26T11:51:52.538Z</time></trkpt><trkpt lat="46.0327907" lon="11.7966725"><ele>985.3333333333334</ele><time>2026-04-26T11:51:55.538Z</time></trkpt><trkpt lat="46.0328255" lon="11.7967696"><ele>985.0</ele><time>2026-04-26T11:51:58.538Z</time></trkpt><trkpt lat="46.032871" lon="11.7968688"><ele>984.6666666666667</ele><time>2026-04-26T11:52:02.538Z</time></trkpt><trkpt lat="46.0329201" lon="11.7969688"><ele>984.3333333333334</ele><time>2026-04-26T11:52:05.536Z</time></trkpt><trkpt lat="46.0329655" lon="11.7970819"><ele>984.0</ele><time>2026-04-26T11:52:08.538Z</time></trkpt><trkpt lat="46.0330071" lon="11.7971556"><ele>986.4000000000001</ele><time>2026-04-26T11:52:10.538Z</time></trkpt><trkpt lat="46.0330549" lon="11.7972544"><ele>988.8000000000001</ele><time>2026-04-26T11:52:12.539Z</time></trkpt><trkpt lat="46.0331123" lon="11.7973466"><ele>991.1999999999999</ele><time>2026-04-26T11:52:14.539Z</time></trkpt><trkpt lat="46.0331818" lon="11.7974479"><ele>993.5999999999999</ele><time>2026-04-26T11:52:16.538Z</time></trkpt><trkpt lat="46.0332474" lon="11.7975515"><ele>996.0</ele><time>2026-04-26T11:52:18.538Z</time></trkpt><trkpt lat="46.0333015" lon="11.7976675"><ele>993.8</ele><time>2026-04-26T11:52:20.538Z</time></trkpt><trkpt lat="46.0333494" lon="11.7977935"><ele>991.5999999999999</ele><time>2026-04-26T11:52:22.539Z</time></trkpt><trkpt lat="46.0334016" lon="11.7979203"><ele>989.4</ele><time>2026-04-26T11:52:24.538Z</time></trkpt><trkpt lat="46.0334507" lon="11.7980352"><ele>987.2</ele><time>2026-04-26T11:52:26.538Z</time></trkpt><trkpt lat="46.0335143" lon="11.7981217"><ele>985.0</ele><time>2026-04-26T11:52:28.538Z</time></trkpt><trkpt lat="46.0335884" lon="11.7981669"><ele>984.9999999999999</ele><time>2026-04-26T11:52:30.538Z</time></trkpt><trkpt lat="46.0336643" lon="11.7981903"><ele>985.0</ele><time>2026-04-26T11:52:33.537Z</time></trkpt><trkpt lat="46.0337374" lon="11.7981704"><ele>985.0</ele><time>2026-04-26T11:52:36.539Z</time></trkpt><trkpt lat="46.0338033" lon="11.7981597"><ele>985.0</ele><time>2026-04-26T11:52:38.539Z</time></trkpt><trkpt lat="46.0338747" lon="11.7981287"><ele>984.9999999999999</ele><time>2026-04-26T11:52:41.535Z</time></trkpt><trkpt lat="46.0339614" lon="11.7980955"><ele>985.0</ele><time>2026-04-26T11:52:44.538Z</time></trkpt><trkpt lat="46.0340268" lon="11.7980744"><ele>984.9999999999999</ele><time>2026-04-26T11:52:46.54Z</time></trkpt><trkpt lat="46.034119" lon="11.798058"><ele>985.0</ele><time>2026-04-26T11:52:49.536Z</time></trkpt><trkpt lat="46.0342146" lon="11.7980487"><ele>985.0</ele><time>2026-04-26T11:52:52.538Z</time></trkpt><trkpt lat="46.034292" lon="11.7980605"><ele>985.0</ele><time>2026-04-26T11:52:54.539Z</time></trkpt><trkpt lat="46.0343601" lon="11.7980741"><ele>984.9999999999999</ele><time>2026-04-26T11:52:56.537Z</time></trkpt><trkpt lat="46.0344218" lon="11.7981185"><ele>985.0</ele><time>2026-04-26T11:52:58.538Z</time></trkpt><trkpt lat="46.0344798" lon="11.7981761"><ele>984.3333333333333</ele><time>2026-04-26T11:53:00.538Z</time></trkpt><trkpt lat="46.0345428" lon="11.7982423"><ele>983.6666666666666</ele><time>2026-04-26T11:53:02.537Z</time></trkpt><trkpt lat="46.0346033" lon="11.798314"><ele>983.0</ele><time>2026-04-26T11:53:04.539Z</time></trkpt><trkpt lat="46.0346729" lon="11.7983984"><ele>982.3333333333333</ele><time>2026-04-26T11:53:06.537Z</time></trkpt><trkpt lat="46.0347108" lon="11.7984974"><ele>981.6666666666666</ele><time>2026-04-26T11:53:08.539Z</time></trkpt><trkpt lat="46.0347343" lon="11.7985994"><ele>981.0</ele><time>2026-04-26T11:53:10.538Z</time></trkpt><trkpt lat="46.0347465" lon="11.7986889"><ele>983.8571428571429</ele><time>2026-04-26T11:53:12.539Z</time></trkpt><trkpt lat="46.0347503" lon="11.798782"><ele>986.7142857142857</ele><time>2026-04-26T11:53:14.539Z</time></trkpt><trkpt lat="46.0347411" lon="11.7989151"><ele>989.5714285714286</ele><time>2026-04-26T11:53:17.537Z</time></trkpt><trkpt lat="46.0347292" lon="11.7990141"><ele>992.4285714285714</ele><time>2026-04-26T11:53:19.537Z</time></trkpt><trkpt lat="46.0347135" lon="11.7991161"><ele>995.2857142857142</ele><time>2026-04-26T11:53:21.539Z</time></trkpt><trkpt lat="46.0346882" lon="11.7992109"><ele>998.1428571428571</ele><time>2026-04-26T11:53:23.538Z</time></trkpt><trkpt lat="46.0346539" lon="11.7993019"><ele>1001.0</ele><time>2026-04-26T11:53:25.537Z</time></trkpt><trkpt lat="46.0346205" lon="11.7993899"><ele>1002.8333333333334</ele><time>2026-04-26T11:53:27.539Z</time></trkpt><trkpt lat="46.0346072" lon="11.7994923"><ele>1004.6666666666667</ele><time>2026-04-26T11:53:29.537Z</time></trkpt><trkpt lat="46.034636" lon="11.7995865"><ele>1006.5</ele><time>2026-04-26T11:53:31.539Z</time></trkpt><trkpt lat="46.0346897" lon="11.7996668"><ele>1008.3333333333333</ele><time>2026-04-26T11:53:33.537Z</time></trkpt><trkpt lat="46.0347658" lon="11.79975"><ele>1010.1666666666666</ele><time>2026-04-26T11:53:35.536Z</time></trkpt><trkpt lat="46.0348345" lon="11.7998159"><ele>1012.0</ele><time>2026-04-26T11:53:37.539Z</time></trkpt><trkpt lat="46.0348984" lon="11.799882"><ele>1011.9999999999999</ele><time>2026-04-26T11:53:39.539Z</time></trkpt><trkpt lat="46.0349648" lon="11.7999477"><ele>1012.0</ele><time>2026-04-26T11:53:41.539Z</time></trkpt><trkpt lat="46.0350235" lon="11.8000199"><ele>1012.0</ele><time>2026-04-26T11:53:43.539Z</time></trkpt><trkpt lat="46.0350833" lon="11.8000932"><ele>1012.0</ele><time>2026-04-26T11:53:45.539Z</time></trkpt><trkpt lat="46.0351328" lon="11.800157"><ele>1011.9999999999999</ele><time>2026-04-26T11:53:47.536Z</time></trkpt><trkpt lat="46.0351877" lon="11.8002458"><ele>1012.0</ele><time>2026-04-26T11:53:50.538Z</time></trkpt><trkpt lat="46.0352424" lon="11.8003059"><ele>1011.2857142857144</ele><time>2026-04-26T11:53:52.539Z</time></trkpt><trkpt lat="46.0353129" lon="11.8003365"><ele>1010.5714285714287</ele><time>2026-04-26T11:53:54.539Z</time></trkpt><trkpt lat="46.0353834" lon="11.8003254"><ele>1009.8571428571429</ele><time>2026-04-26T11:53:56.536Z</time></trkpt><trkpt lat="46.0354597" lon="11.8002471"><ele>1009.1428571428572</ele><time>2026-04-26T11:53:59.539Z</time></trkpt><trkpt lat="46.0354952" lon="11.8001665"><ele>1008.4285714285716</ele><time>2026-04-26T11:54:01.538Z</time></trkpt><trkpt lat="46.0355202" lon="11.8000713"><ele>1007.7142857142857</ele><time>2026-04-26T11:54:03.539Z</time></trkpt><trkpt lat="46.0355608" lon="11.7999946"><ele>1007.0</ele><time>2026-04-26T11:54:05.538Z</time></trkpt><trkpt lat="46.0356268" lon="11.7999242"><ele>1001.3333333333334</ele><time>2026-04-26T11:54:08.536Z</time></trkpt><trkpt lat="46.0357069" lon="11.7998842"><ele>995.6666666666667</ele><time>2026-04-26T11:54:11.536Z</time></trkpt><trkpt lat="46.0357885" lon="11.7998438"><ele>990.0</ele><time>2026-04-26T11:54:14.539Z</time></trkpt><trkpt lat="46.0358536" lon="11.7998319"><ele>984.3333333333333</ele><time>2026-04-26T11:54:16.539Z</time></trkpt><trkpt lat="46.0359412" lon="11.7998071"><ele>978.6666666666666</ele><time>2026-04-26T11:54:19.536Z</time></trkpt><trkpt lat="46.036034" lon="11.7997999"><ele>973.0</ele><time>2026-04-26T11:54:22.539Z</time></trkpt><trkpt lat="46.0361009" lon="11.7998072"><ele>972.9999999999999</ele><time>2026-04-26T11:54:24.539Z</time></trkpt><trkpt lat="46.0361661" lon="11.7998285"><ele>973.0</ele><time>2026-04-26T11:54:26.539Z</time></trkpt><trkpt lat="46.0362352" lon="11.7998603"><ele>973.0</ele><time>2026-04-26T11:54:28.538Z</time></trkpt><trkpt lat="46.0363067" lon="11.7998959"><ele>973.0</ele><time>2026-04-26T11:54:30.537Z</time></trkpt><trkpt lat="46.036377" lon="11.7999408"><ele>972.9999999999999</ele><time>2026-04-26T11:54:32.538Z</time></trkpt><trkpt lat="46.0364468" lon="11.7999908"><ele>973.0</ele><time>2026-04-26T11:54:34.538Z</time></trkpt><trkpt lat="46.0365171" lon="11.8000461"><ele>972.9999999999999</ele><time>2026-04-26T11:54:36.538Z</time></trkpt><trkpt lat="46.0365865" lon="11.8000954"><ele>973.0</ele><time>2026-04-26T11:54:38.539Z</time></trkpt><trkpt lat="46.0366564" lon="11.8001375"><ele>973.0</ele><time>2026-04-26T11:54:40.538Z</time></trkpt><trkpt lat="46.0367234" lon="11.8001831"><ele>973.0</ele><time>2026-04-26T11:54:42.536Z</time></trkpt><trkpt lat="46.0367904" lon="11.8002436"><ele>972.9999999999999</ele><time>2026-04-26T11:54:44.537Z</time></trkpt><trkpt lat="46.0368561" lon="11.8003149"><ele>973.0</ele><time>2026-04-26T11:54:46.539Z</time></trkpt><trkpt lat="46.0369068" lon="11.8003748"><ele>974.6666666666666</ele><time>2026-04-26T11:54:48.538Z</time></trkpt><trkpt lat="46.0369903" lon="11.8004131"><ele>976.3333333333333</ele><time>2026-04-26T11:54:51.538Z</time></trkpt><trkpt lat="46.037065" lon="11.8003737"><ele>978.0</ele><time>2026-04-26T11:54:54.538Z</time></trkpt><trkpt lat="46.0371132" lon="11.8002636"><ele>979.6666666666667</ele><time>2026-04-26T11:54:57.538Z</time></trkpt><trkpt lat="46.0371419" lon="11.8001431"><ele>981.3333333333334</ele><time>2026-04-26T11:55:00.54Z</time></trkpt><trkpt lat="46.0371672" lon="11.8000147"><ele>983.0</ele><time>2026-04-26T11:55:03.536Z</time></trkpt><trkpt lat="46.037182" lon="11.7999248"><ele>982.9999999999999</ele><time>2026-04-26T11:55:05.539Z</time></trkpt><trkpt lat="46.0371969" lon="11.7998349"><ele>983.0</ele><time>2026-04-26T11:55:07.537Z</time></trkpt><trkpt lat="46.0372066" lon="11.7997434"><ele>982.9999999999999</ele><time>2026-04-26T11:55:09.538Z</time></trkpt><trkpt lat="46.0372143" lon="11.7996439"><ele>982.9999999999999</ele><time>2026-04-26T11:55:11.541Z</time></trkpt><trkpt lat="46.0372184" lon="11.7995435"><ele>983.0</ele><time>2026-04-26T11:55:13.538Z</time></trkpt><trkpt lat="46.0372305" lon="11.7994484"><ele>982.9999999999999</ele><time>2026-04-26T11:55:15.537Z</time></trkpt><trkpt lat="46.0372506" lon="11.7993592"><ele>982.9999999999999</ele><time>2026-04-26T11:55:17.538Z</time></trkpt><trkpt lat="46.0373033" lon="11.7992645"><ele>982.5000000000001</ele><time>2026-04-26T11:55:20.538Z</time></trkpt><trkpt lat="46.037392" lon="11.7992448"><ele>982.0</ele><time>2026-04-26T11:55:23.538Z</time></trkpt><trkpt lat="46.037457" lon="11.7992531"><ele>981.5</ele><time>2026-04-26T11:55:25.537Z</time></trkpt><trkpt lat="46.0375223" lon="11.7992671"><ele>981.0</ele><time>2026-04-26T11:55:27.539Z</time></trkpt><trkpt lat="46.0375916" lon="11.7993137"><ele>980.5000000000001</ele><time>2026-04-26T11:55:29.537Z</time></trkpt><trkpt lat="46.0376592" lon="11.7993755"><ele>980.0</ele><time>2026-04-26T11:55:31.539Z</time></trkpt><trkpt lat="46.0377192" lon="11.7994547"><ele>983.0</ele><time>2026-04-26T11:55:33.537Z</time></trkpt><trkpt lat="46.0377878" lon="11.7995329"><ele>986.0</ele><time>2026-04-26T11:55:35.538Z</time></trkpt><trkpt lat="46.0378603" lon="11.7996015"><ele>989.0</ele><time>2026-04-26T11:55:37.538Z</time></trkpt><trkpt lat="46.0379427" lon="11.7996712"><ele>992.0</ele><time>2026-04-26T11:55:39.538Z</time></trkpt><trkpt lat="46.0380331" lon="11.799735"><ele>995.0</ele><time>2026-04-26T11:55:41.539Z</time></trkpt><trkpt lat="46.038123" lon="11.7997957"><ele>995.0</ele><time>2026-04-26T11:55:43.539Z</time></trkpt><trkpt lat="46.0382147" lon="11.7998357"><ele>995.0</ele><time>2026-04-26T11:55:45.538Z</time></trkpt><trkpt lat="46.0383093" lon="11.7998421"><ele>995.0</ele><time>2026-04-26T11:55:47.538Z</time></trkpt><trkpt lat="46.0384032" lon="11.7998133"><ele>995.0</ele><time>2026-04-26T11:55:49.538Z</time></trkpt><trkpt lat="46.0384949" lon="11.7997788"><ele>995.0</ele><time>2026-04-26T11:55:51.539Z</time></trkpt><trkpt lat="46.0385918" lon="11.7997492"><ele>994.6</ele><time>2026-04-26T11:55:53.539Z</time></trkpt><trkpt lat="46.0386979" lon="11.7997259"><ele>994.2</ele><time>2026-04-26T11:55:55.538Z</time></trkpt><trkpt lat="46.0388057" lon="11.7997045"><ele>993.8</ele><time>2026-04-26T11:55:57.539Z</time></trkpt><trkpt lat="46.0389058" lon="11.7996619"><ele>993.4</ele><time>2026-04-26T11:55:59.537Z</time></trkpt><trkpt lat="46.0389864" lon="11.7996273"><ele>993.0</ele><time>2026-04-26T11:56:01.538Z</time></trkpt><trkpt lat="46.0390671" lon="11.7995936"><ele>993.6666666666666</ele><time>2026-04-26T11:56:03.535Z</time></trkpt><trkpt lat="46.0391437" lon="11.7995622"><ele>994.3333333333333</ele><time>2026-04-26T11:56:05.535Z</time></trkpt><trkpt lat="46.0392209" lon="11.7995385"><ele>995.0</ele><time>2026-04-26T11:56:07.534Z</time></trkpt><trkpt lat="46.0392945" lon="11.7995192"><ele>995.6666666666666</ele><time>2026-04-26T11:56:09.535Z</time></trkpt><trkpt lat="46.0393602" lon="11.7995525"><ele>996.3333333333333</ele><time>2026-04-26T11:56:11.537Z</time></trkpt><trkpt lat="46.0394219" lon="11.7996062"><ele>997.0</ele><time>2026-04-26T11:56:13.536Z</time></trkpt><trkpt lat="46.0395045" lon="11.7996708"><ele>996.9999999999999</ele><time>2026-04-26T11:56:16.535Z</time></trkpt><trkpt lat="46.0395842" lon="11.7997116"><ele>997.0</ele><time>2026-04-26T11:56:19.539Z</time></trkpt><trkpt lat="46.0396647" lon="11.7997495"><ele>997.0</ele><time>2026-04-26T11:56:22.538Z</time></trkpt><trkpt lat="46.0397262" lon="11.7997769"><ele>997.0</ele><time>2026-04-26T11:56:24.539Z</time></trkpt><trkpt lat="46.0398214" lon="11.7998154"><ele>996.9999999999999</ele><time>2026-04-26T11:56:26.538Z</time></trkpt><trkpt lat="46.0399302" lon="11.7998635"><ele>997.0</ele><time>2026-04-26T11:56:28.537Z</time></trkpt><trkpt lat="46.0400139" lon="11.7999194"><ele>996.6666666666666</ele><time>2026-04-26T11:56:30.538Z</time></trkpt><trkpt lat="46.0400972" lon="11.7999618"><ele>996.3333333333333</ele><time>2026-04-26T11:56:32.539Z</time></trkpt><trkpt lat="46.0401792" lon="11.8000052"><ele>996.0</ele><time>2026-04-26T11:56:34.536Z</time></trkpt><trkpt lat="46.0402386" lon="11.8000453"><ele>995.6666666666667</ele><time>2026-04-26T11:56:36.537Z</time></trkpt><trkpt lat="46.0403088" lon="11.8000881"><ele>995.3333333333334</ele><time>2026-04-26T11:56:38.535Z</time></trkpt><trkpt lat="46.0403738" lon="11.8001493"><ele>995.0</ele><time>2026-04-26T11:56:40.54Z</time></trkpt><trkpt lat="46.0404254" lon="11.8002151"><ele>997.8333333333334</ele><time>2026-04-26T11:56:42.539Z</time></trkpt><trkpt lat="46.040495" lon="11.8002971"><ele>1000.6666666666667</ele><time>2026-04-26T11:56:45.538Z</time></trkpt><trkpt lat="46.0405436" lon="11.8003641"><ele>1003.5</ele><time>2026-04-26T11:56:47.536Z</time></trkpt><trkpt lat="46.0406026" lon="11.8004306"><ele>1006.3333333333333</ele><time>2026-04-26T11:56:49.538Z</time></trkpt><trkpt lat="46.0406775" lon="11.8004993"><ele>1009.1666666666666</ele><time>2026-04-26T11:56:51.537Z</time></trkpt><trkpt lat="46.040743" lon="11.8005503"><ele>1012.0</ele><time>2026-04-26T11:56:53.539Z</time></trkpt><trkpt lat="46.0408064" lon="11.8005908"><ele>1011.9999999999999</ele><time>2026-04-26T11:56:55.538Z</time></trkpt><trkpt lat="46.0408786" lon="11.800619"><ele>1012.0</ele><time>2026-04-26T11:56:58.538Z</time></trkpt><trkpt lat="46.0409435" lon="11.8006096"><ele>1012.0</ele><time>2026-04-26T11:57:00.539Z</time></trkpt><trkpt lat="46.0410588" lon="11.8005999"><ele>1012.0</ele><time>2026-04-26T11:57:03.539Z</time></trkpt><trkpt lat="46.0411559" lon="11.8005874"><ele>1011.9999999999999</ele><time>2026-04-26T11:57:05.539Z</time></trkpt><trkpt lat="46.0412476" lon="11.8005681"><ele>1012.0</ele><time>2026-04-26T11:57:07.536Z</time></trkpt><trkpt lat="46.0413295" lon="11.8005368"><ele>1011.9999999999999</ele><time>2026-04-26T11:57:09.538Z</time></trkpt><trkpt lat="46.0413999" lon="11.8004767"><ele>1012.0</ele><time>2026-04-26T11:57:11.538Z</time></trkpt><trkpt lat="46.0414618" lon="11.8004146"><ele>1012.0</ele><time>2026-04-26T11:57:13.538Z</time></trkpt><trkpt lat="46.0415396" lon="11.8003396"><ele>1012.0</ele><time>2026-04-26T11:57:15.538Z</time></trkpt><trkpt lat="46.0416151" lon="11.8002545"><ele>1011.9999999999999</ele><time>2026-04-26T11:57:17.539Z</time></trkpt><trkpt lat="46.04167" lon="11.8001613"><ele>1012.0</ele><time>2026-04-26T11:57:19.537Z</time></trkpt><trkpt lat="46.0417338" lon="11.800067"><ele>1006.9999999999999</ele><time>2026-04-26T11:57:22.539Z</time></trkpt><trkpt lat="46.0417826" lon="11.8000057"><ele>1002.0</ele><time>2026-04-26T11:57:24.539Z</time></trkpt><trkpt lat="46.0418405" lon="11.7999483"><ele>997.0</ele><time>2026-04-26T11:57:26.539Z</time></trkpt><trkpt lat="46.0419048" lon="11.7999065"><ele>992.0</ele><time>2026-04-26T11:57:28.539Z</time></trkpt><trkpt lat="46.0419646" lon="11.7998757"><ele>986.9999999999999</ele><time>2026-04-26T11:57:30.539Z</time></trkpt><trkpt lat="46.0420557" lon="11.7998391"><ele>982.0</ele><time>2026-04-26T11:57:33.537Z</time></trkpt><trkpt lat="46.0421484" lon="11.7998353"><ele>981.9999999999999</ele><time>2026-04-26T11:57:36.537Z</time></trkpt><trkpt lat="46.0422121" lon="11.799851"><ele>982.0</ele><time>2026-04-26T11:57:38.539Z</time></trkpt><trkpt lat="46.0422969" lon="11.7998939"><ele>982.0</ele><time>2026-04-26T11:57:41.539Z</time></trkpt><trkpt lat="46.0423694" lon="11.799956"><ele>982.0</ele><time>2026-04-26T11:57:44.539Z</time></trkpt><trkpt lat="46.0424568" lon="11.7999957"><ele>981.9999999999999</ele><time>2026-04-26T11:57:47.537Z</time></trkpt><trkpt lat="46.0425401" lon="11.8000405"><ele>982.0</ele><time>2026-04-26T11:57:50.539Z</time></trkpt><trkpt lat="46.0426143" lon="11.8000705"><ele>981.8333333333333</ele><time>2026-04-26T11:57:52.539Z</time></trkpt><trkpt lat="46.042703" lon="11.8000872"><ele>981.6666666666666</ele><time>2026-04-26T11:57:55.538Z</time></trkpt><trkpt lat="46.0427743" lon="11.8000921"><ele>981.5</ele><time>2026-04-26T11:57:57.538Z</time></trkpt><trkpt lat="46.0428528" lon="11.8000866"><ele>981.3333333333333</ele><time>2026-04-26T11:57:59.539Z</time></trkpt><trkpt lat="46.0429424" lon="11.8000635"><ele>981.1666666666666</ele><time>2026-04-26T11:58:01.539Z</time></trkpt><trkpt lat="46.0430291" lon="11.8000275"><ele>981.0</ele><time>2026-04-26T11:58:03.539Z</time></trkpt><trkpt lat="46.0431232" lon="11.7999511"><ele>981.0</ele><time>2026-04-26T11:58:05.539Z</time></trkpt><trkpt lat="46.0431878" lon="11.7998674"><ele>980.9999999999999</ele><time>2026-04-26T11:58:07.539Z</time></trkpt><trkpt lat="46.0432452" lon="11.7997958"><ele>980.9999999999999</ele><time>2026-04-26T11:58:09.538Z</time></trkpt><trkpt lat="46.0433367" lon="11.7997358"><ele>981.0</ele><time>2026-04-26T11:58:11.538Z</time></trkpt><trkpt lat="46.0434372" lon="11.7996878"><ele>981.0</ele><time>2026-04-26T11:58:13.539Z</time></trkpt><trkpt lat="46.043539" lon="11.7996481"><ele>981.1666666666666</ele><time>2026-04-26T11:58:15.537Z</time></trkpt><trkpt lat="46.0436361" lon="11.79958"><ele>981.3333333333333</ele><time>2026-04-26T11:58:17.538Z</time></trkpt><trkpt lat="46.0437097" lon="11.7994901"><ele>981.5</ele><time>2026-04-26T11:58:19.537Z</time></trkpt><trkpt lat="46.0437735" lon="11.7993995"><ele>981.6666666666666</ele><time>2026-04-26T11:58:21.537Z</time></trkpt><trkpt lat="46.0438237" lon="11.7993265"><ele>981.8333333333333</ele><time>2026-04-26T11:58:23.539Z</time></trkpt><trkpt lat="46.0438708" lon="11.7992556"><ele>982.0</ele><time>2026-04-26T11:58:25.538Z</time></trkpt><trkpt lat="46.0439282" lon="11.7991681"><ele>979.9999999999999</ele><time>2026-04-26T11:58:28.539Z</time></trkpt><trkpt lat="46.0440105" lon="11.7991632"><ele>978.0</ele><time>2026-04-26T11:58:31.538Z</time></trkpt><trkpt lat="46.0440828" lon="11.7991843"><ele>976.0</ele><time>2026-04-26T11:58:34.536Z</time></trkpt><trkpt lat="46.0441675" lon="11.7992137"><ele>974.0</ele><time>2026-04-26T11:58:37.539Z</time></trkpt><trkpt lat="46.0442648" lon="11.7992213"><ele>971.9999999999999</ele><time>2026-04-26T11:58:40.538Z</time></trkpt><trkpt lat="46.0443356" lon="11.7992242"><ele>970.0</ele><time>2026-04-26T11:58:42.537Z</time></trkpt><trkpt lat="46.0444036" lon="11.7992398"><ele>969.9999999999999</ele><time>2026-04-26T11:58:44.538Z</time></trkpt><trkpt lat="46.0444716" lon="11.7993316"><ele>970.0</ele><time>2026-04-26T11:58:47.538Z</time></trkpt><trkpt lat="46.0445072" lon="11.79946"><ele>970.0</ele><time>2026-04-26T11:58:50.538Z</time></trkpt><trkpt lat="46.0445276" lon="11.7995471"><ele>970.0</ele><time>2026-04-26T11:58:52.539Z</time></trkpt><trkpt lat="46.044554" lon="11.7996654"><ele>969.9999999999999</ele><time>2026-04-26T11:58:55.539Z</time></trkpt><trkpt lat="46.0445963" lon="11.7997554"><ele>970.0</ele><time>2026-04-26T11:58:58.539Z</time></trkpt><trkpt lat="46.0446247" lon="11.7998431"><ele>973.857142857143</ele><time>2026-04-26T11:59:01.539Z</time></trkpt><trkpt lat="46.0446693" lon="11.7999239"><ele>977.7142857142858</ele><time>2026-04-26T11:59:04.537Z</time></trkpt><trkpt lat="46.044708" lon="11.8000024"><ele>981.5714285714286</ele><time>2026-04-26T11:59:07.539Z</time></trkpt><trkpt lat="46.0447408" lon="11.8000832"><ele>985.4285714285714</ele><time>2026-04-26T11:59:10.539Z</time></trkpt><trkpt lat="46.0447682" lon="11.8001949"><ele>989.2857142857142</ele><time>2026-04-26T11:59:14.537Z</time></trkpt><trkpt lat="46.0447998" lon="11.800297"><ele>993.142857142857</ele><time>2026-04-26T11:59:17.538Z</time></trkpt><trkpt lat="46.0448152" lon="11.8003929"><ele>996.9999999999999</ele><time>2026-04-26T11:59:20.539Z</time></trkpt><trkpt lat="46.0448442" lon="11.8004861"><ele>999.3333333333333</ele><time>2026-04-26T11:59:23.537Z</time></trkpt><trkpt lat="46.0448691" lon="11.8005975"><ele>1001.6666666666666</ele><time>2026-04-26T11:59:26.538Z</time></trkpt><trkpt lat="46.0448837" lon="11.8006876"><ele>1004.0</ele><time>2026-04-26T11:59:28.539Z</time></trkpt><trkpt lat="46.0449366" lon="11.8008004"><ele>1006.3333333333333</ele><time>2026-04-26T11:59:31.539Z</time></trkpt><trkpt lat="46.0449843" lon="11.8009037"><ele>1008.6666666666666</ele><time>2026-04-26T11:59:34.539Z</time></trkpt><trkpt lat="46.0450213" lon="11.8009836"><ele>1011.0</ele><time>2026-04-26T11:59:36.539Z</time></trkpt><trkpt lat="46.0450596" lon="11.8010602"><ele>1014.1666666666666</ele><time>2026-04-26T11:59:38.538Z</time></trkpt><trkpt lat="46.0451031" lon="11.8011557"><ele>1017.3333333333333</ele><time>2026-04-26T11:59:41.539Z</time></trkpt><trkpt lat="46.0451411" lon="11.8012455"><ele>1020.5</ele><time>2026-04-26T11:59:44.539Z</time></trkpt><trkpt lat="46.0451782" lon="11.8013316"><ele>1023.6666666666666</ele><time>2026-04-26T11:59:48.538Z</time></trkpt><trkpt lat="46.0452209" lon="11.8014134"><ele>1026.8333333333333</ele><time>2026-04-26T11:59:53.537Z</time></trkpt><trkpt lat="46.0452872" lon="11.8014702"><ele>1030.0</ele><time>2026-04-26T11:59:57.538Z</time></trkpt><trkpt lat="46.0453567" lon="11.8015311"><ele>1030.0</ele><time>2026-04-26T12:00:01.536Z</time></trkpt><trkpt lat="46.0454187" lon="11.8015812"><ele>1030.0</ele><time>2026-04-26T12:00:04.537Z</time></trkpt><trkpt lat="46.0454682" lon="11.8016476"><ele>1030.0</ele><time>2026-04-26T12:00:07.538Z</time></trkpt><trkpt lat="46.0455151" lon="11.8017097"><ele>1030.0</ele><time>2026-04-26T12:00:11.538Z</time></trkpt><trkpt lat="46.0455619" lon="11.8017715"><ele>1030.0</ele><time>2026-04-26T12:00:14.54Z</time></trkpt><trkpt lat="46.0456163" lon="11.8018226"><ele>1030.0</ele><time>2026-04-26T12:00:17.538Z</time></trkpt><trkpt lat="46.0456883" lon="11.8018907"><ele>1030.0</ele><time>2026-04-26T12:00:21.536Z</time></trkpt><trkpt lat="46.0457384" lon="11.8019797"><ele>1029.3333333333333</ele><time>2026-04-26T12:00:24.539Z</time></trkpt><trkpt lat="46.0457774" lon="11.8020646"><ele>1028.6666666666665</ele><time>2026-04-26T12:00:26.538Z</time></trkpt><trkpt lat="46.0458078" lon="11.8021589"><ele>1028.0</ele><time>2026-04-26T12:00:29.538Z</time></trkpt><trkpt lat="46.0458463" lon="11.8022706"><ele>1027.3333333333333</ele><time>2026-04-26T12:00:32.537Z</time></trkpt><trkpt lat="46.045875" lon="11.8023879"><ele>1026.6666666666667</ele><time>2026-04-26T12:00:35.539Z</time></trkpt><trkpt lat="46.0459053" lon="11.8024922"><ele>1026.0</ele><time>2026-04-26T12:00:38.539Z</time></trkpt><trkpt lat="46.0459285" lon="11.8025786"><ele>1027.8333333333333</ele><time>2026-04-26T12:00:41.539Z</time></trkpt><trkpt lat="46.0459286" lon="11.8026834"><ele>1029.6666666666667</ele><time>2026-04-26T12:00:44.538Z</time></trkpt><trkpt lat="46.0459123" lon="11.8027821"><ele>1031.5</ele><time>2026-04-26T12:00:47.539Z</time></trkpt><trkpt lat="46.0459105" lon="11.8028944"><ele>1033.3333333333335</ele><time>2026-04-26T12:00:50.538Z</time></trkpt><trkpt lat="46.0459304" lon="11.8030025"><ele>1035.1666666666667</ele><time>2026-04-26T12:00:53.537Z</time></trkpt><trkpt lat="46.0459553" lon="11.8030953"><ele>1037.0</ele><time>2026-04-26T12:00:56.539Z</time></trkpt><trkpt lat="46.0460172" lon="11.8031892"><ele>1037.0</ele><time>2026-04-26T12:00:59.537Z</time></trkpt><trkpt lat="46.0460549" lon="11.8032806"><ele>1037.0</ele><time>2026-04-26T12:01:02.539Z</time></trkpt><trkpt lat="46.0460668" lon="11.8033786"><ele>1037.0</ele><time>2026-04-26T12:01:06.539Z</time></trkpt><trkpt lat="46.0460626" lon="11.8034836"><ele>1037.0</ele><time>2026-04-26T12:01:10.539Z</time></trkpt><trkpt lat="46.0460447" lon="11.8035798"><ele>1037.0</ele><time>2026-04-26T12:01:13.539Z</time></trkpt><trkpt lat="46.0460208" lon="11.803677"><ele>1037.0</ele><time>2026-04-26T12:01:16.538Z</time></trkpt><trkpt lat="46.0460134" lon="11.8037914"><ele>1037.0</ele><time>2026-04-26T12:01:19.538Z</time></trkpt><trkpt lat="46.0459939" lon="11.8039014"><ele>1038.1666666666667</ele><time>2026-04-26T12:01:22.538Z</time></trkpt><trkpt lat="46.0459797" lon="11.8040159"><ele>1039.3333333333335</ele><time>2026-04-26T12:01:25.539Z</time></trkpt><trkpt lat="46.0459525" lon="11.8041151"><ele>1040.5</ele><time>2026-04-26T12:01:28.539Z</time></trkpt><trkpt lat="46.0459161" lon="11.8042189"><ele>1041.6666666666667</ele><time>2026-04-26T12:01:32.537Z</time></trkpt><trkpt lat="46.0459187" lon="11.8043245"><ele>1042.8333333333333</ele><time>2026-04-26T12:01:35.538Z</time></trkpt><trkpt lat="46.0459494" lon="11.8044227"><ele>1044.0</ele><time>2026-04-26T12:01:38.539Z</time></trkpt><trkpt lat="46.0459663" lon="11.8045515"><ele>1045.857142857143</ele><time>2026-04-26T12:01:41.539Z</time></trkpt><trkpt lat="46.0459722" lon="11.8046418"><ele>1047.7142857142858</ele><time>2026-04-26T12:01:43.539Z</time></trkpt><trkpt lat="46.0459716" lon="11.8048033"><ele>1049.5714285714284</ele><time>2026-04-26T12:01:47.534Z</time></trkpt><trkpt lat="46.0459845" lon="11.8048967"><ele>1051.4285714285716</ele><time>2026-04-26T12:01:50.534Z</time></trkpt><trkpt lat="46.0460084" lon="11.8049853"><ele>1053.2857142857142</ele><time>2026-04-26T12:01:55.534Z</time></trkpt><trkpt lat="46.0460558" lon="11.8050485"><ele>1055.142857142857</ele><time>2026-04-26T12:02:19.534Z</time></trkpt><trkpt lat="46.0460747" lon="11.8051529"><ele>1057.0</ele><time>2026-04-26T12:02:22.534Z</time></trkpt><trkpt lat="46.0460824" lon="11.8052828"><ele>1057.6</ele><time>2026-04-26T12:02:24.535Z</time></trkpt><trkpt lat="46.0461047" lon="11.8054481"><ele>1058.2</ele><time>2026-04-26T12:02:26.535Z</time></trkpt><trkpt lat="46.0461031" lon="11.8056223"><ele>1058.8</ele><time>2026-04-26T12:02:28.534Z</time></trkpt><trkpt lat="46.0460828" lon="11.8057801"><ele>1059.4</ele><time>2026-04-26T12:02:30.534Z</time></trkpt><trkpt lat="46.0460602" lon="11.8058945"><ele>1060.0</ele><time>2026-04-26T12:02:32.534Z</time></trkpt><trkpt lat="46.0460411" lon="11.8060234"><ele>1060.0</ele><time>2026-04-26T12:02:35.536Z</time></trkpt><trkpt lat="46.0460206" lon="11.8061283"><ele>1060.0</ele><time>2026-04-26T12:02:38.539Z</time></trkpt><trkpt lat="46.0460176" lon="11.8062287"><ele>1060.0</ele><time>2026-04-26T12:02:41.54Z</time></trkpt><trkpt lat="46.0460218" lon="11.806333"><ele>1060.0</ele><time>2026-04-26T12:02:44.539Z</time></trkpt><trkpt lat="46.0460239" lon="11.8064534"><ele>1060.0</ele><time>2026-04-26T12:02:47.538Z</time></trkpt><trkpt lat="46.0459848" lon="11.8065727"><ele>1060.0</ele><time>2026-04-26T12:02:50.54Z</time></trkpt><trkpt lat="46.0459509" lon="11.806702"><ele>1060.0</ele><time>2026-04-26T12:02:53.536Z</time></trkpt><trkpt lat="46.0459053" lon="11.8068213"><ele>1060.0</ele><time>2026-04-26T12:02:56.534Z</time></trkpt><trkpt lat="46.0458706" lon="11.8069454"><ele>1060.0</ele><time>2026-04-26T12:02:59.538Z</time></trkpt><trkpt lat="46.0458394" lon="11.8070514"><ele>1060.0</ele><time>2026-04-26T12:03:02.538Z</time></trkpt><trkpt lat="46.0458011" lon="11.8071438"><ele>1060.0</ele><time>2026-04-26T12:03:05.538Z</time></trkpt><trkpt lat="46.0457648" lon="11.8072245"><ele>1060.0</ele><time>2026-04-26T12:03:08.536Z</time></trkpt><trkpt lat="46.045717" lon="11.8073172"><ele>1065.8333333333333</ele><time>2026-04-26T12:03:12.537Z</time></trkpt><trkpt lat="46.0456657" lon="11.8074094"><ele>1071.6666666666665</ele><time>2026-04-26T12:03:16.535Z</time></trkpt><trkpt lat="46.0456109" lon="11.8074711"><ele>1077.5</ele><time>2026-04-26T12:03:19.539Z</time></trkpt><trkpt lat="46.0455424" lon="11.8075555"><ele>1083.3333333333333</ele><time>2026-04-26T12:03:22.538Z</time></trkpt><trkpt lat="46.0454896" lon="11.807634"><ele>1089.1666666666667</ele><time>2026-04-26T12:03:25.537Z</time></trkpt><trkpt lat="46.0454502" lon="11.8077298"><ele>1095.0</ele><time>2026-04-26T12:03:28.535Z</time></trkpt><trkpt lat="46.0454491" lon="11.8078387"><ele>1095.0</ele><time>2026-04-26T12:03:31.537Z</time></trkpt><trkpt lat="46.0454784" lon="11.8079501"><ele>1095.0</ele><time>2026-04-26T12:03:34.535Z</time></trkpt><trkpt lat="46.0455092" lon="11.8080339"><ele>1095.0</ele><time>2026-04-26T12:03:36.538Z</time></trkpt><trkpt lat="46.0455483" lon="11.8081447"><ele>1095.0</ele><time>2026-04-26T12:03:39.538Z</time></trkpt><trkpt lat="46.045568" lon="11.8082486"><ele>1095.0</ele><time>2026-04-26T12:03:42.539Z</time></trkpt><trkpt lat="46.0456159" lon="11.8083449"><ele>1095.0</ele><time>2026-04-26T12:03:45.539Z</time></trkpt><trkpt lat="46.0456797" lon="11.8084383"><ele>1095.0</ele><time>2026-04-26T12:03:48.537Z</time></trkpt><trkpt lat="46.045736" lon="11.8084826"><ele>1095.0</ele><time>2026-04-26T12:03:50.539Z</time></trkpt><trkpt lat="46.0458013" lon="11.8085112"><ele>1095.0</ele><time>2026-04-26T12:03:52.539Z</time></trkpt><trkpt lat="46.0458716" lon="11.8085193"><ele>1095.0</ele><time>2026-04-26T12:03:54.536Z</time></trkpt><trkpt lat="46.0459644" lon="11.8085153"><ele>1095.0</ele><time>2026-04-26T12:03:57.539Z</time></trkpt><trkpt lat="46.0460451" lon="11.8084953"><ele>1095.0</ele><time>2026-04-26T12:04:00.535Z</time></trkpt><trkpt lat="46.0461331" lon="11.8084907"><ele>1092.4285714285713</ele><time>2026-04-26T12:04:03.535Z</time></trkpt><trkpt lat="46.0461961" lon="11.8084778"><ele>1089.857142857143</ele><time>2026-04-26T12:04:05.538Z</time></trkpt><trkpt lat="46.0462929" lon="11.8084709"><ele>1087.2857142857142</ele><time>2026-04-26T12:04:08.539Z</time></trkpt><trkpt lat="46.0463647" lon="11.8084774"><ele>1084.7142857142858</ele><time>2026-04-26T12:04:10.538Z</time></trkpt><trkpt lat="46.046439" lon="11.8084932"><ele>1082.142857142857</ele><time>2026-04-26T12:04:12.537Z</time></trkpt><trkpt lat="46.0465054" lon="11.8085355"><ele>1079.5714285714284</ele><time>2026-04-26T12:04:14.539Z</time></trkpt><trkpt lat="46.0465603" lon="11.8085937"><ele>1077.0</ele><time>2026-04-26T12:04:16.538Z</time></trkpt><trkpt lat="46.0466038" lon="11.8086912"><ele>1077.0</ele><time>2026-04-26T12:04:18.537Z</time></trkpt><trkpt lat="46.0466263" lon="11.808806"><ele>1077.0</ele><time>2026-04-26T12:04:20.539Z</time></trkpt><trkpt lat="46.0466218" lon="11.8089126"><ele>1077.0</ele><time>2026-04-26T12:04:22.539Z</time></trkpt><trkpt lat="46.0466129" lon="11.8090112"><ele>1077.0</ele><time>2026-04-26T12:04:24.535Z</time></trkpt><trkpt lat="46.0465912" lon="11.8091011"><ele>1077.0</ele><time>2026-04-26T12:04:26.54Z</time></trkpt><trkpt lat="46.0465331" lon="11.8091902"><ele>1077.0</ele><time>2026-04-26T12:04:29.54Z</time></trkpt><trkpt lat="46.0464613" lon="11.8092724"><ele>1077.0</ele><time>2026-04-26T12:04:32.539Z</time></trkpt><trkpt lat="46.0463818" lon="11.8093157"><ele>1077.0</ele><time>2026-04-26T12:04:35.539Z</time></trkpt><trkpt lat="46.0462943" lon="11.8093471"><ele>1077.0</ele><time>2026-04-26T12:04:38.539Z</time></trkpt><trkpt lat="46.0462391" lon="11.8093996"><ele>1077.0</ele><time>2026-04-26T12:04:40.538Z</time></trkpt><trkpt lat="46.0461763" lon="11.8094939"><ele>1077.0</ele><time>2026-04-26T12:04:43.538Z</time></trkpt><trkpt lat="46.0461108" lon="11.8095858"><ele>1077.0</ele><time>2026-04-26T12:04:46.538Z</time></trkpt><trkpt lat="46.0460469" lon="11.8096707"><ele>1077.3333333333333</ele><time>2026-04-26T12:04:49.539Z</time></trkpt><trkpt lat="46.0459834" lon="11.8097601"><ele>1077.6666666666667</ele><time>2026-04-26T12:04:52.536Z</time></trkpt><trkpt lat="46.0459258" lon="11.8098576"><ele>1078.0</ele><time>2026-04-26T12:04:55.54Z</time></trkpt><trkpt lat="46.0458973" lon="11.8099571"><ele>1078.3333333333335</ele><time>2026-04-26T12:04:58.538Z</time></trkpt><trkpt lat="46.0458576" lon="11.8100295"><ele>1078.6666666666667</ele><time>2026-04-26T12:05:00.538Z</time></trkpt><trkpt lat="46.0458216" lon="11.8101161"><ele>1079.0</ele><time>2026-04-26T12:05:02.54Z</time></trkpt><trkpt lat="46.0457893" lon="11.8102013"><ele>1078.3333333333335</ele><time>2026-04-26T12:05:04.537Z</time></trkpt><trkpt lat="46.0457421" lon="11.8103145"><ele>1077.6666666666667</ele><time>2026-04-26T12:05:07.539Z</time></trkpt><trkpt lat="46.0457154" lon="11.8103996"><ele>1077.0</ele><time>2026-04-26T12:05:09.537Z</time></trkpt><trkpt lat="46.045703" lon="11.8104958"><ele>1076.3333333333333</ele><time>2026-04-26T12:05:11.539Z</time></trkpt><trkpt lat="46.0457313" lon="11.8105925"><ele>1075.6666666666665</ele><time>2026-04-26T12:05:13.539Z</time></trkpt><trkpt lat="46.045784" lon="11.8106889"><ele>1075.0</ele><time>2026-04-26T12:05:15.539Z</time></trkpt><trkpt lat="46.045833" lon="11.8107714"><ele>1075.0</ele><time>2026-04-26T12:05:17.537Z</time></trkpt><trkpt lat="46.0458884" lon="11.8108458"><ele>1075.0</ele><time>2026-04-26T12:05:19.538Z</time></trkpt><trkpt lat="46.0459442" lon="11.8109144"><ele>1075.0</ele><time>2026-04-26T12:05:21.537Z</time></trkpt><trkpt lat="46.0459925" lon="11.8109881"><ele>1075.0</ele><time>2026-04-26T12:05:23.536Z</time></trkpt><trkpt lat="46.0460516" lon="11.8111005"><ele>1075.0</ele><time>2026-04-26T12:05:26.537Z</time></trkpt><trkpt lat="46.046097" lon="11.8111741"><ele>1075.0</ele><time>2026-04-26T12:05:28.536Z</time></trkpt><trkpt lat="46.0461376" lon="11.8112452"><ele>1078.1428571428573</ele><time>2026-04-26T12:05:30.539Z</time></trkpt><trkpt lat="46.0461874" lon="11.8113209"><ele>1081.2857142857142</ele><time>2026-04-26T12:05:32.539Z</time></trkpt><trkpt lat="46.0462386" lon="11.8113823"><ele>1084.4285714285716</ele><time>2026-04-26T12:05:34.54Z</time></trkpt><trkpt lat="46.0462937" lon="11.8114504"><ele>1087.5714285714287</ele><time>2026-04-26T12:05:36.534Z</time></trkpt><trkpt lat="46.0463534" lon="11.8115056"><ele>1090.7142857142858</ele><time>2026-04-26T12:05:38.54Z</time></trkpt><trkpt lat="46.046412" lon="11.8115581"><ele>1093.857142857143</ele><time>2026-04-26T12:05:40.539Z</time></trkpt><trkpt lat="46.0464624" lon="11.8116164"><ele>1097.0</ele><time>2026-04-26T12:05:42.539Z</time></trkpt><trkpt lat="46.0465088" lon="11.8116802"><ele>1097.0</ele><time>2026-04-26T12:05:44.539Z</time></trkpt><trkpt lat="46.0465648" lon="11.8117496"><ele>1097.0</ele><time>2026-04-26T12:05:46.54Z</time></trkpt><trkpt lat="46.0466058" lon="11.8118304"><ele>1097.0</ele><time>2026-04-26T12:05:48.539Z</time></trkpt><trkpt lat="46.0466424" lon="11.8119138"><ele>1097.0</ele><time>2026-04-26T12:05:50.538Z</time></trkpt><trkpt lat="46.0466747" lon="11.8119951"><ele>1097.0</ele><time>2026-04-26T12:05:52.536Z</time></trkpt><trkpt lat="46.0467098" lon="11.8121118"><ele>1097.0</ele><time>2026-04-26T12:05:55.537Z</time></trkpt><trkpt lat="46.046748" lon="11.8122174"><ele>1097.0</ele><time>2026-04-26T12:05:58.536Z</time></trkpt><trkpt lat="46.0467753" lon="11.8123011"><ele>1095.8333333333335</ele><time>2026-04-26T12:06:00.54Z</time></trkpt><trkpt lat="46.0467994" lon="11.8123928"><ele>1094.6666666666667</ele><time>2026-04-26T12:06:02.536Z</time></trkpt><trkpt lat="46.0468319" lon="11.8124895"><ele>1093.5</ele><time>2026-04-26T12:06:04.536Z</time></trkpt><trkpt lat="46.0468579" lon="11.812583"><ele>1092.3333333333333</ele><time>2026-04-26T12:06:06.539Z</time></trkpt><trkpt lat="46.0468666" lon="11.8126878"><ele>1091.1666666666665</ele><time>2026-04-26T12:06:08.535Z</time></trkpt><trkpt lat="46.046879" lon="11.8128041"><ele>1090.0</ele><time>2026-04-26T12:06:10.538Z</time></trkpt><trkpt lat="46.0468896" lon="11.8129255"><ele>1090.0</ele><time>2026-04-26T12:06:12.538Z</time></trkpt><trkpt lat="46.0469038" lon="11.8130292"><ele>1090.0</ele><time>2026-04-26T12:06:14.539Z</time></trkpt><trkpt lat="46.0469147" lon="11.8131192"><ele>1090.0</ele><time>2026-04-26T12:06:16.537Z</time></trkpt><trkpt lat="46.04692" lon="11.8132159"><ele>1090.0</ele><time>2026-04-26T12:06:18.538Z</time></trkpt><trkpt lat="46.0469306" lon="11.8133131"><ele>1090.0</ele><time>2026-04-26T12:06:20.536Z</time></trkpt><trkpt lat="46.0469561" lon="11.8134358"><ele>1090.0</ele><time>2026-04-26T12:06:23.54Z</time></trkpt><trkpt lat="46.0470065" lon="11.8135264"><ele>1090.0</ele><time>2026-04-26T12:06:25.54Z</time></trkpt><trkpt lat="46.04708" lon="11.8136116"><ele>1093.0</ele><time>2026-04-26T12:06:27.539Z</time></trkpt><trkpt lat="46.0471629" lon="11.813688"><ele>1096.0</ele><time>2026-04-26T12:06:29.538Z</time></trkpt><trkpt lat="46.0472394" lon="11.8137635"><ele>1099.0</ele><time>2026-04-26T12:06:31.539Z</time></trkpt><trkpt lat="46.0473156" lon="11.8138303"><ele>1102.0</ele><time>2026-04-26T12:06:33.539Z</time></trkpt><trkpt lat="46.0473897" lon="11.8138996"><ele>1105.0</ele><time>2026-04-26T12:06:35.538Z</time></trkpt><trkpt lat="46.0474616" lon="11.8139653"><ele>1100.4</ele><time>2026-04-26T12:06:37.539Z</time></trkpt><trkpt lat="46.0475341" lon="11.8140286"><ele>1095.8</ele><time>2026-04-26T12:06:39.536Z</time></trkpt><trkpt lat="46.0475969" lon="11.8141038"><ele>1091.2</ele><time>2026-04-26T12:06:41.537Z</time></trkpt><trkpt lat="46.0476514" lon="11.8141879"><ele>1086.6</ele><time>2026-04-26T12:06:43.538Z</time></trkpt><trkpt lat="46.0477175" lon="11.8142941"><ele>1082.0</ele><time>2026-04-26T12:06:45.536Z</time></trkpt><trkpt lat="46.0477924" lon="11.8144121"><ele>1082.0000000000002</ele><time>2026-04-26T12:06:47.539Z</time></trkpt><trkpt lat="46.0478358" lon="11.8144779"><ele>1082.0</ele><time>2026-04-26T12:06:48.539Z</time></trkpt><trkpt lat="46.0478808" lon="11.8145446"><ele>1082.0</ele><time>2026-04-26T12:06:49.538Z</time></trkpt><trkpt lat="46.0479274" lon="11.8146169"><ele>1082.0</ele><time>2026-04-26T12:06:50.537Z</time></trkpt><trkpt lat="46.0479791" lon="11.8146981"><ele>1082.0</ele><time>2026-04-26T12:06:51.538Z</time></trkpt><trkpt lat="46.048029" lon="11.8147764"><ele>1082.0000000000002</ele><time>2026-04-26T12:06:52.538Z</time></trkpt><trkpt lat="46.0480827" lon="11.8148501"><ele>1082.0</ele><time>2026-04-26T12:06:53.538Z</time></trkpt><trkpt lat="46.0481358" lon="11.8149265"><ele>1082.0</ele><time>2026-04-26T12:06:54.536Z</time></trkpt><trkpt lat="46.0481865" lon="11.8149995"><ele>1082.0</ele><time>2026-04-26T12:06:55.536Z</time></trkpt><trkpt lat="46.0482308" lon="11.8150759"><ele>1082.0</ele><time>2026-04-26T12:06:56.537Z</time></trkpt><trkpt lat="46.0482695" lon="11.8151535"><ele>1082.0</ele><time>2026-04-26T12:06:57.537Z</time></trkpt><trkpt lat="46.0483305" lon="11.8152881"><ele>1082.0</ele><time>2026-04-26T12:06:59.539Z</time></trkpt><trkpt lat="46.048367" lon="11.8153823"><ele>1082.0</ele><time>2026-04-26T12:07:01.539Z</time></trkpt><trkpt lat="46.048401" lon="11.8154785"><ele>1079.5714285714287</ele><time>2026-04-26T12:07:04.539Z</time></trkpt><trkpt lat="46.0484539" lon="11.8155608"><ele>1077.142857142857</ele><time>2026-04-26T12:07:07.539Z</time></trkpt><trkpt lat="46.0485243" lon="11.8156159"><ele>1074.7142857142858</ele><time>2026-04-26T12:07:10.538Z</time></trkpt><trkpt lat="46.0485886" lon="11.8156836"><ele>1072.2857142857142</ele><time>2026-04-26T12:07:13.54Z</time></trkpt><trkpt lat="46.0486421" lon="11.8157378"><ele>1069.857142857143</ele><time>2026-04-26T12:07:16.537Z</time></trkpt><trkpt lat="46.0487016" lon="11.815789"><ele>1067.4285714285716</ele><time>2026-04-26T12:07:19.539Z</time></trkpt><trkpt lat="46.048767" lon="11.8158249"><ele>1065.0</ele><time>2026-04-26T12:07:21.541Z</time></trkpt><trkpt lat="46.0488344" lon="11.8158504"><ele>1065.0</ele><time>2026-04-26T12:07:23.536Z</time></trkpt><trkpt lat="46.0489011" lon="11.8158633"><ele>1065.0</ele><time>2026-04-26T12:07:25.537Z</time></trkpt><trkpt lat="46.0489839" lon="11.8158942"><ele>1065.0</ele><time>2026-04-26T12:07:28.537Z</time></trkpt><trkpt lat="46.0490482" lon="11.8158994"><ele>1065.0</ele><time>2026-04-26T12:07:30.54Z</time></trkpt><trkpt lat="46.0491244" lon="11.8159068"><ele>1065.0</ele><time>2026-04-26T12:07:32.538Z</time></trkpt><trkpt lat="46.0492049" lon="11.8159047"><ele>1065.0</ele><time>2026-04-26T12:07:34.537Z</time></trkpt><trkpt lat="46.0492849" lon="11.8158719"><ele>1064.0</ele><time>2026-04-26T12:07:36.539Z</time></trkpt><trkpt lat="46.0493626" lon="11.815848"><ele>1063.0</ele><time>2026-04-26T12:07:38.539Z</time></trkpt><trkpt lat="46.0494311" lon="11.8158726"><ele>1062.0</ele><time>2026-04-26T12:07:40.536Z</time></trkpt><trkpt lat="46.0495011" lon="11.8159106"><ele>1061.0</ele><time>2026-04-26T12:07:42.536Z</time></trkpt><trkpt lat="46.0495649" lon="11.8159527"><ele>1060.0</ele><time>2026-04-26T12:07:44.536Z</time></trkpt><trkpt lat="46.0496328" lon="11.8159868"><ele>1059.0</ele><time>2026-04-26T12:07:46.538Z</time></trkpt><trkpt lat="46.0496968" lon="11.8160193"><ele>1058.0</ele><time>2026-04-26T12:07:48.537Z</time></trkpt><trkpt lat="46.0497602" lon="11.8160615"><ele>1058.0</ele><time>2026-04-26T12:07:50.538Z</time></trkpt><trkpt lat="46.0498152" lon="11.8161162"><ele>1058.0</ele><time>2026-04-26T12:07:52.539Z</time></trkpt><trkpt lat="46.0498613" lon="11.8161945"><ele>1058.0</ele><time>2026-04-26T12:07:54.536Z</time></trkpt><trkpt lat="46.0499103" lon="11.8162749"><ele>1058.0</ele><time>2026-04-26T12:07:56.539Z</time></trkpt><trkpt lat="46.0499678" lon="11.8163339"><ele>1058.0</ele><time>2026-04-26T12:07:58.539Z</time></trkpt><trkpt lat="46.0500409" lon="11.8163754"><ele>1058.0</ele><time>2026-04-26T12:08:00.539Z</time></trkpt><trkpt lat="46.0501304" lon="11.8164074"><ele>1053.8</ele><time>2026-04-26T12:08:02.538Z</time></trkpt><trkpt lat="46.0502175" lon="11.8164302"><ele>1049.6</ele><time>2026-04-26T12:08:04.538Z</time></trkpt><trkpt lat="46.0502967" lon="11.8164388"><ele>1045.4</ele><time>2026-04-26T12:08:06.539Z</time></trkpt><trkpt lat="46.0503881" lon="11.8164453"><ele>1041.2</ele><time>2026-04-26T12:08:08.537Z</time></trkpt><trkpt lat="46.0504906" lon="11.8164688"><ele>1037.0</ele><time>2026-04-26T12:08:10.539Z</time></trkpt><trkpt lat="46.050583" lon="11.8165255"><ele>1037.0</ele><time>2026-04-26T12:08:12.537Z</time></trkpt><trkpt lat="46.0506505" lon="11.81662"><ele>1037.0</ele><time>2026-04-26T12:08:14.539Z</time></trkpt><trkpt lat="46.0507081" lon="11.8167214"><ele>1037.0</ele><time>2026-04-26T12:08:16.537Z</time></trkpt><trkpt lat="46.0507638" lon="11.8168414"><ele>1037.0</ele><time>2026-04-26T12:08:18.538Z</time></trkpt><trkpt lat="46.0508013" lon="11.8169514"><ele>1037.0</ele><time>2026-04-26T12:08:20.539Z</time></trkpt><trkpt lat="46.0508256" lon="11.8170643"><ele>1036.142857142857</ele><time>2026-04-26T12:08:23.536Z</time></trkpt><trkpt lat="46.0508331" lon="11.8171816"><ele>1035.2857142857142</ele><time>2026-04-26T12:08:26.536Z</time></trkpt><trkpt lat="46.0508402" lon="11.8172718"><ele>1034.4285714285713</ele><time>2026-04-26T12:08:28.535Z</time></trkpt><trkpt lat="46.0508386" lon="11.8173642"><ele>1033.5714285714284</ele><time>2026-04-26T12:08:30.538Z</time></trkpt><trkpt lat="46.0508516" lon="11.8174597"><ele>1032.7142857142856</ele><time>2026-04-26T12:08:32.536Z</time></trkpt><trkpt lat="46.0508558" lon="11.8175586"><ele>1031.857142857143</ele><time>2026-04-26T12:08:34.539Z</time></trkpt><trkpt lat="46.050852" lon="11.8176544"><ele>1031.0</ele><time>2026-04-26T12:08:36.536Z</time></trkpt><trkpt lat="46.0508561" lon="11.817786"><ele>1030.857142857143</ele><time>2026-04-26T12:08:39.539Z</time></trkpt><trkpt lat="46.0508483" lon="11.8179226"><ele>1030.7142857142856</ele><time>2026-04-26T12:08:42.537Z</time></trkpt><trkpt lat="46.0508318" lon="11.8180165"><ele>1030.5714285714284</ele><time>2026-04-26T12:08:44.539Z</time></trkpt><trkpt lat="46.0508105" lon="11.8181065"><ele>1030.4285714285713</ele><time>2026-04-26T12:08:46.537Z</time></trkpt><trkpt lat="46.0507745" lon="11.8181853"><ele>1030.2857142857142</ele><time>2026-04-26T12:08:48.537Z</time></trkpt><trkpt lat="46.050725" lon="11.8182624"><ele>1030.142857142857</ele><time>2026-04-26T12:08:50.537Z</time></trkpt><trkpt lat="46.0506774" lon="11.818329"><ele>1030.0</ele><time>2026-04-26T12:08:52.539Z</time></trkpt><trkpt lat="46.050616" lon="11.8184065"><ele>1032.4285714285716</ele><time>2026-04-26T12:08:55.539Z</time></trkpt><trkpt lat="46.0505544" lon="11.8184598"><ele>1034.857142857143</ele><time>2026-04-26T12:08:57.539Z</time></trkpt><trkpt lat="46.0504926" lon="11.8185081"><ele>1037.2857142857142</ele><time>2026-04-26T12:08:59.538Z</time></trkpt><trkpt lat="46.0504355" lon="11.8185521"><ele>1039.7142857142858</ele><time>2026-04-26T12:09:01.537Z</time></trkpt><trkpt lat="46.0503775" lon="11.8185937"><ele>1042.142857142857</ele><time>2026-04-26T12:09:03.54Z</time></trkpt><trkpt lat="46.0503155" lon="11.8186251"><ele>1044.5714285714287</ele><time>2026-04-26T12:09:05.537Z</time></trkpt><trkpt lat="46.0502273" lon="11.8186726"><ele>1047.0</ele><time>2026-04-26T12:09:08.538Z</time></trkpt><trkpt lat="46.0501426" lon="11.818733"><ele>1047.0000000000002</ele><time>2026-04-26T12:09:11.539Z</time></trkpt><trkpt lat="46.0500799" lon="11.8187686"><ele>1047.0</ele><time>2026-04-26T12:09:13.539Z</time></trkpt><trkpt lat="46.0500266" lon="11.8188186"><ele>1047.0</ele><time>2026-04-26T12:09:15.537Z</time></trkpt><trkpt lat="46.0499586" lon="11.8188736"><ele>1047.0</ele><time>2026-04-26T12:09:17.535Z</time></trkpt><trkpt lat="46.0499037" lon="11.8189314"><ele>1047.0</ele><time>2026-04-26T12:09:19.536Z</time></trkpt><trkpt lat="46.0498546" lon="11.8190097"><ele>1047.0000000000002</ele><time>2026-04-26T12:09:21.535Z</time></trkpt><trkpt lat="46.0498007" lon="11.8190715"><ele>1047.0</ele><time>2026-04-26T12:09:23.537Z</time></trkpt><trkpt lat="46.0497483" lon="11.8191325"><ele>1049.6666666666667</ele><time>2026-04-26T12:09:25.538Z</time></trkpt><trkpt lat="46.0496953" lon="11.8191914"><ele>1052.3333333333333</ele><time>2026-04-26T12:09:27.535Z</time></trkpt><trkpt lat="46.0496401" lon="11.8192514"><ele>1055.0</ele><time>2026-04-26T12:09:29.539Z</time></trkpt><trkpt lat="46.0495815" lon="11.8193264"><ele>1057.6666666666665</ele><time>2026-04-26T12:09:31.539Z</time></trkpt><trkpt lat="46.0495282" lon="11.8194136"><ele>1060.3333333333333</ele><time>2026-04-26T12:09:33.539Z</time></trkpt><trkpt lat="46.0494787" lon="11.8195005"><ele>1063.0</ele><time>2026-04-26T12:09:35.537Z</time></trkpt><trkpt lat="46.049436" lon="11.8195926"><ele>1063.0</ele><time>2026-04-26T12:09:37.537Z</time></trkpt><trkpt lat="46.0494026" lon="11.8196974"><ele>1063.0</ele><time>2026-04-26T12:09:39.537Z</time></trkpt><trkpt lat="46.0493899" lon="11.8198132"><ele>1063.0</ele><time>2026-04-26T12:09:41.539Z</time></trkpt><trkpt lat="46.0494105" lon="11.8199263"><ele>1063.0</ele><time>2026-04-26T12:09:43.536Z</time></trkpt><trkpt lat="46.0494744" lon="11.8200224"><ele>1063.0</ele><time>2026-04-26T12:09:45.539Z</time></trkpt><trkpt lat="46.0495559" lon="11.8200898"><ele>1063.0</ele><time>2026-04-26T12:09:47.538Z</time></trkpt><trkpt lat="46.0496403" lon="11.8201359"><ele>1064.8333333333333</ele><time>2026-04-26T12:09:49.537Z</time></trkpt><trkpt lat="46.0497215" lon="11.8201663"><ele>1066.6666666666665</ele><time>2026-04-26T12:09:51.538Z</time></trkpt><trkpt lat="46.0498003" lon="11.8201893"><ele>1068.5</ele><time>2026-04-26T12:09:53.537Z</time></trkpt><trkpt lat="46.0498713" lon="11.8202001"><ele>1070.3333333333333</ele><time>2026-04-26T12:09:55.539Z</time></trkpt><trkpt lat="46.0499431" lon="11.8202124"><ele>1072.1666666666667</ele><time>2026-04-26T12:09:57.539Z</time></trkpt><trkpt lat="46.0500222" lon="11.8202275"><ele>1074.0</ele><time>2026-04-26T12:09:59.536Z</time></trkpt><trkpt lat="46.0500953" lon="11.8202175"><ele>1075.4285714285713</ele><time>2026-04-26T12:10:01.539Z</time></trkpt><trkpt lat="46.050175" lon="11.8202076"><ele>1076.857142857143</ele><time>2026-04-26T12:10:03.538Z</time></trkpt><trkpt lat="46.050246" lon="11.820205"><ele>1078.2857142857142</ele><time>2026-04-26T12:10:05.538Z</time></trkpt><trkpt lat="46.0503171" lon="11.820201"><ele>1079.7142857142858</ele><time>2026-04-26T12:10:07.538Z</time></trkpt><trkpt lat="46.0503835" lon="11.8201951"><ele>1081.142857142857</ele><time>2026-04-26T12:10:09.538Z</time></trkpt><trkpt lat="46.0504505" lon="11.8201853"><ele>1082.5714285714284</ele><time>2026-04-26T12:10:11.539Z</time></trkpt><trkpt lat="46.050524" lon="11.8201988"><ele>1084.0</ele><time>2026-04-26T12:10:13.539Z</time></trkpt><trkpt lat="46.0506072" lon="11.8202272"><ele>1084.0</ele><time>2026-04-26T12:10:16.539Z</time></trkpt><trkpt lat="46.0506759" lon="11.820237"><ele>1084.0</ele><time>2026-04-26T12:10:18.539Z</time></trkpt><trkpt lat="46.0507509" lon="11.8202686"><ele>1084.0</ele><time>2026-04-26T12:10:20.539Z</time></trkpt><trkpt lat="46.0508253" lon="11.8203055"><ele>1084.0</ele><time>2026-04-26T12:10:22.537Z</time></trkpt><trkpt lat="46.05089" lon="11.8203412"><ele>1084.0</ele><time>2026-04-26T12:10:24.538Z</time></trkpt><trkpt lat="46.0509487" lon="11.8203924"><ele>1084.0</ele><time>2026-04-26T12:10:26.538Z</time></trkpt><trkpt lat="46.0510275" lon="11.8204139"><ele>1084.0</ele><time>2026-04-26T12:10:28.539Z</time></trkpt><trkpt lat="46.0511074" lon="11.8204077"><ele>1083.8333333333333</ele><time>2026-04-26T12:10:30.538Z</time></trkpt><trkpt lat="46.0511822" lon="11.8203854"><ele>1083.6666666666665</ele><time>2026-04-26T12:10:32.539Z</time></trkpt><trkpt lat="46.0512557" lon="11.8203603"><ele>1083.5</ele><time>2026-04-26T12:10:34.539Z</time></trkpt><trkpt lat="46.0513287" lon="11.8203684"><ele>1083.3333333333333</ele><time>2026-04-26T12:10:36.539Z</time></trkpt><trkpt lat="46.051405" lon="11.8203885"><ele>1083.1666666666667</ele><time>2026-04-26T12:10:38.539Z</time></trkpt><trkpt lat="46.0514911" lon="11.8204097"><ele>1083.0</ele><time>2026-04-26T12:10:40.535Z</time></trkpt><trkpt lat="46.0515722" lon="11.8204342"><ele>1081.8333333333333</ele><time>2026-04-26T12:10:42.538Z</time></trkpt><trkpt lat="46.051651" lon="11.8204562"><ele>1080.6666666666667</ele><time>2026-04-26T12:10:44.538Z</time></trkpt><trkpt lat="46.0517235" lon="11.8204695"><ele>1079.5</ele><time>2026-04-26T12:10:46.536Z</time></trkpt><trkpt lat="46.0518001" lon="11.8204772"><ele>1078.3333333333335</ele><time>2026-04-26T12:10:48.535Z</time></trkpt><trkpt lat="46.0518807" lon="11.8204806"><ele>1077.1666666666667</ele><time>2026-04-26T12:10:50.539Z</time></trkpt><trkpt lat="46.051955" lon="11.8204887"><ele>1076.0</ele><time>2026-04-26T12:10:52.535Z</time></trkpt><trkpt lat="46.0520364" lon="11.8204937"><ele>1076.0</ele><time>2026-04-26T12:10:54.535Z</time></trkpt><trkpt lat="46.0521106" lon="11.8205041"><ele>1076.0</ele><time>2026-04-26T12:10:56.536Z</time></trkpt><trkpt lat="46.0521811" lon="11.8204957"><ele>1076.0</ele><time>2026-04-26T12:10:58.538Z</time></trkpt><trkpt lat="46.0522511" lon="11.8204878"><ele>1076.0</ele><time>2026-04-26T12:11:00.537Z</time></trkpt><trkpt lat="46.052324" lon="11.8204909"><ele>1076.0</ele><time>2026-04-26T12:11:02.539Z</time></trkpt><trkpt lat="46.0523973" lon="11.8205198"><ele>1076.0</ele><time>2026-04-26T12:11:04.536Z</time></trkpt><trkpt lat="46.0524504" lon="11.82058"><ele>1076.0</ele><time>2026-04-26T12:11:06.538Z</time></trkpt><trkpt lat="46.0524918" lon="11.8206534"><ele>1074.5714285714287</ele><time>2026-04-26T12:11:08.538Z</time></trkpt><trkpt lat="46.0525223" lon="11.8207375"><ele>1073.1428571428573</ele><time>2026-04-26T12:11:10.537Z</time></trkpt><trkpt lat="46.0525416" lon="11.8208329"><ele>1071.7142857142858</ele><time>2026-04-26T12:11:12.538Z</time></trkpt><trkpt lat="46.0525571" lon="11.8209327"><ele>1070.2857142857142</ele><time>2026-04-26T12:11:14.539Z</time></trkpt><trkpt lat="46.0525737" lon="11.8210333"><ele>1068.8571428571427</ele><time>2026-04-26T12:11:16.535Z</time></trkpt><trkpt lat="46.0525605" lon="11.8211333"><ele>1067.4285714285713</ele><time>2026-04-26T12:11:18.536Z</time></trkpt><trkpt lat="46.0525261" lon="11.8212138"><ele>1066.0</ele><time>2026-04-26T12:11:20.536Z</time></trkpt><trkpt lat="46.0524889" lon="11.8212892"><ele>1071.0</ele><time>2026-04-26T12:11:22.537Z</time></trkpt><trkpt lat="46.0524477" lon="11.8213612"><ele>1076.0</ele><time>2026-04-26T12:11:24.537Z</time></trkpt><trkpt lat="46.0524052" lon="11.8214393"><ele>1081.0</ele><time>2026-04-26T12:11:26.539Z</time></trkpt><trkpt lat="46.0523847" lon="11.8215311"><ele>1086.0</ele><time>2026-04-26T12:11:28.538Z</time></trkpt><trkpt lat="46.0523667" lon="11.8216311"><ele>1091.0</ele><time>2026-04-26T12:11:30.538Z</time></trkpt><trkpt lat="46.0523456" lon="11.8217309"><ele>1096.0</ele><time>2026-04-26T12:11:32.539Z</time></trkpt><trkpt lat="46.0523065" lon="11.8218307"><ele>1101.0</ele><time>2026-04-26T12:11:34.538Z</time></trkpt><trkpt lat="46.052304" lon="11.8219384"><ele>1103.142857142857</ele><time>2026-04-26T12:11:36.538Z</time></trkpt><trkpt lat="46.0522972" lon="11.8220429"><ele>1105.2857142857142</ele><time>2026-04-26T12:11:38.539Z</time></trkpt><trkpt lat="46.0523113" lon="11.8221475"><ele>1107.4285714285713</ele><time>2026-04-26T12:11:40.538Z</time></trkpt><trkpt lat="46.0523309" lon="11.8222424"><ele>1109.5714285714284</ele><time>2026-04-26T12:11:42.539Z</time></trkpt><trkpt lat="46.0523503" lon="11.8223323"><ele>1111.7142857142858</ele><time>2026-04-26T12:11:44.539Z</time></trkpt><trkpt lat="46.0523942" lon="11.8224184"><ele>1113.8571428571427</ele><time>2026-04-26T12:11:46.537Z</time></trkpt><trkpt lat="46.0524614" lon="11.8224668"><ele>1116.0</ele><time>2026-04-26T12:11:48.538Z</time></trkpt><trkpt lat="46.0525499" lon="11.8224882"><ele>1110.0</ele><time>2026-04-26T12:11:50.539Z</time></trkpt><trkpt lat="46.0526179" lon="11.8224824"><ele>1104.0</ele><time>2026-04-26T12:11:52.537Z</time></trkpt><trkpt lat="46.0527001" lon="11.8224606"><ele>1098.0</ele><time>2026-04-26T12:11:55.536Z</time></trkpt><trkpt lat="46.0527801" lon="11.8224297"><ele>1092.0</ele><time>2026-04-26T12:11:58.539Z</time></trkpt><trkpt lat="46.0528695" lon="11.8224098"><ele>1086.0</ele><time>2026-04-26T12:12:01.539Z</time></trkpt><trkpt lat="46.0529576" lon="11.8224087"><ele>1080.0</ele><time>2026-04-26T12:12:04.537Z</time></trkpt><trkpt lat="46.0530317" lon="11.8223956"><ele>1080.0</ele><time>2026-04-26T12:12:06.537Z</time></trkpt><trkpt lat="46.0531115" lon="11.822394"><ele>1080.0</ele><time>2026-04-26T12:12:08.537Z</time></trkpt><trkpt lat="46.0532006" lon="11.8224065"><ele>1080.0</ele><time>2026-04-26T12:12:10.537Z</time></trkpt><trkpt lat="46.0532727" lon="11.8224264"><ele>1080.0</ele><time>2026-04-26T12:12:12.538Z</time></trkpt><trkpt lat="46.0533441" lon="11.822448"><ele>1080.0</ele><time>2026-04-26T12:12:14.538Z</time></trkpt><trkpt lat="46.0534077" lon="11.8224696"><ele>1080.0</ele><time>2026-04-26T12:12:16.536Z</time></trkpt><trkpt lat="46.0534734" lon="11.8224911"><ele>1080.0</ele><time>2026-04-26T12:12:18.538Z</time></trkpt><trkpt lat="46.0535364" lon="11.8225045"><ele>1079.8333333333333</ele><time>2026-04-26T12:12:20.539Z</time></trkpt><trkpt lat="46.0536331" lon="11.8225303"><ele>1079.6666666666667</ele><time>2026-04-26T12:12:23.538Z</time></trkpt><trkpt lat="46.0537061" lon="11.8225506"><ele>1079.5</ele><time>2026-04-26T12:12:25.538Z</time></trkpt><trkpt lat="46.0537805" lon="11.8225713"><ele>1079.3333333333335</ele><time>2026-04-26T12:12:27.537Z</time></trkpt><trkpt lat="46.0538491" lon="11.8226066"><ele>1079.1666666666667</ele><time>2026-04-26T12:12:29.538Z</time></trkpt><trkpt lat="46.0539125" lon="11.8226633"><ele>1079.0</ele><time>2026-04-26T12:12:31.538Z</time></trkpt><trkpt lat="46.0539551" lon="11.8227504"><ele>1081.5714285714287</ele><time>2026-04-26T12:12:33.538Z</time></trkpt><trkpt lat="46.0539495" lon="11.8228409"><ele>1084.142857142857</ele><time>2026-04-26T12:12:35.538Z</time></trkpt><trkpt lat="46.0539249" lon="11.822968"><ele>1086.7142857142858</ele><time>2026-04-26T12:12:38.537Z</time></trkpt><trkpt lat="46.0539137" lon="11.8230654"><ele>1089.2857142857142</ele><time>2026-04-26T12:12:40.536Z</time></trkpt><trkpt lat="46.0539056" lon="11.823163"><ele>1091.857142857143</ele><time>2026-04-26T12:12:42.538Z</time></trkpt><trkpt lat="46.0539032" lon="11.8232587"><ele>1094.4285714285716</ele><time>2026-04-26T12:12:44.539Z</time></trkpt><trkpt lat="46.0539045" lon="11.8233615"><ele>1097.0</ele><time>2026-04-26T12:12:46.538Z</time></trkpt><trkpt lat="46.0539077" lon="11.8234649"><ele>1099.5</ele><time>2026-04-26T12:12:48.537Z</time></trkpt><trkpt lat="46.0539103" lon="11.8235602"><ele>1102.0</ele><time>2026-04-26T12:12:50.539Z</time></trkpt><trkpt lat="46.0539057" lon="11.8236651"><ele>1104.5</ele><time>2026-04-26T12:12:52.536Z</time></trkpt><trkpt lat="46.0539046" lon="11.8237698"><ele>1107.0</ele><time>2026-04-26T12:12:54.537Z</time></trkpt><trkpt lat="46.0538995" lon="11.8238692"><ele>1109.5</ele><time>2026-04-26T12:12:56.537Z</time></trkpt><trkpt lat="46.0538918" lon="11.8239899"><ele>1112.0</ele><time>2026-04-26T12:12:59.538Z</time></trkpt><trkpt lat="46.0539077" lon="11.8241118"><ele>1112.0</ele><time>2026-04-26T12:13:02.539Z</time></trkpt><trkpt lat="46.0539441" lon="11.8242261"><ele>1112.0</ele><time>2026-04-26T12:13:05.538Z</time></trkpt><trkpt lat="46.053981" lon="11.8243004"><ele>1112.0</ele><time>2026-04-26T12:13:07.537Z</time></trkpt><trkpt lat="46.0540237" lon="11.8244137"><ele>1112.0</ele><time>2026-04-26T12:13:10.537Z</time></trkpt><trkpt lat="46.0540439" lon="11.8245451"><ele>1112.0</ele><time>2026-04-26T12:13:13.536Z</time></trkpt><trkpt lat="46.0540419" lon="11.8246785"><ele>1112.0</ele><time>2026-04-26T12:13:16.537Z</time></trkpt><trkpt lat="46.0540287" lon="11.8248"><ele>1114.3333333333335</ele><time>2026-04-26T12:13:19.539Z</time></trkpt><trkpt lat="46.0540061" lon="11.824898"><ele>1116.6666666666667</ele><time>2026-04-26T12:13:22.538Z</time></trkpt><trkpt lat="46.0539531" lon="11.8249758"><ele>1119.0</ele><time>2026-04-26T12:13:25.538Z</time></trkpt><trkpt lat="46.0539137" lon="11.8250548"><ele>1121.3333333333333</ele><time>2026-04-26T12:13:28.537Z</time></trkpt><trkpt lat="46.0538637" lon="11.825142"><ele>1123.6666666666665</ele><time>2026-04-26T12:13:31.538Z</time></trkpt><trkpt lat="46.0538123" lon="11.8252412"><ele>1126.0</ele><time>2026-04-26T12:13:34.537Z</time></trkpt><trkpt lat="46.0537856" lon="11.8253506"><ele>1127.1666666666665</ele><time>2026-04-26T12:13:37.539Z</time></trkpt><trkpt lat="46.053761" lon="11.8254732"><ele>1128.3333333333333</ele><time>2026-04-26T12:13:40.539Z</time></trkpt><trkpt lat="46.0537398" lon="11.8255923"><ele>1129.5</ele><time>2026-04-26T12:13:43.538Z</time></trkpt><trkpt lat="46.0537399" lon="11.825715"><ele>1130.6666666666667</ele><time>2026-04-26T12:13:46.539Z</time></trkpt><trkpt lat="46.053766" lon="11.8258"><ele>1131.8333333333335</ele><time>2026-04-26T12:13:48.538Z</time></trkpt><trkpt lat="46.0537911" lon="11.825892"><ele>1133.0</ele><time>2026-04-26T12:13:50.537Z</time></trkpt><trkpt lat="46.0538214" lon="11.8260184"><ele>1134.142857142857</ele><time>2026-04-26T12:13:53.537Z</time></trkpt><trkpt lat="46.0538623" lon="11.8261115"><ele>1135.2857142857142</ele><time>2026-04-26T12:13:55.536Z</time></trkpt><trkpt lat="46.0539125" lon="11.8261927"><ele>1136.4285714285716</ele><time>2026-04-26T12:13:57.539Z</time></trkpt><trkpt lat="46.0539693" lon="11.8262577"><ele>1137.5714285714284</ele><time>2026-04-26T12:13:59.537Z</time></trkpt><trkpt lat="46.054027" lon="11.8263227"><ele>1138.7142857142858</ele><time>2026-04-26T12:14:01.538Z</time></trkpt><trkpt lat="46.0540657" lon="11.8263978"><ele>1139.857142857143</ele><time>2026-04-26T12:14:03.535Z</time></trkpt><trkpt lat="46.0541242" lon="11.8264611"><ele>1141.0</ele><time>2026-04-26T12:14:05.536Z</time></trkpt><trkpt lat="46.0541619" lon="11.8265349"><ele>1138.5714285714287</ele><time>2026-04-26T12:14:07.537Z</time></trkpt><trkpt lat="46.0542027" lon="11.8266088"><ele>1136.142857142857</ele><time>2026-04-26T12:14:09.538Z</time></trkpt><trkpt lat="46.0542551" lon="11.826676"><ele>1133.7142857142858</ele><time>2026-04-26T12:14:11.539Z</time></trkpt><trkpt lat="46.0543215" lon="11.8267779"><ele>1131.2857142857142</ele><time>2026-04-26T12:14:14.539Z</time></trkpt><trkpt lat="46.0543576" lon="11.8268617"><ele>1128.857142857143</ele><time>2026-04-26T12:14:16.537Z</time></trkpt><trkpt lat="46.0544093" lon="11.8269418"><ele>1126.4285714285716</ele><time>2026-04-26T12:14:18.534Z</time></trkpt><trkpt lat="46.05445" lon="11.8270145"><ele>1124.0</ele><time>2026-04-26T12:14:20.536Z</time></trkpt><trkpt lat="46.0544893" lon="11.8270866"><ele>1124.0</ele><time>2026-04-26T12:14:22.537Z</time></trkpt><trkpt lat="46.0545265" lon="11.8271629"><ele>1124.0</ele><time>2026-04-26T12:14:24.538Z</time></trkpt><trkpt lat="46.0545967" lon="11.8272912"><ele>1124.0</ele><time>2026-04-26T12:14:28.534Z</time></trkpt><trkpt lat="46.0546369" lon="11.8274137"><ele>1124.0</ele><time>2026-04-26T12:14:31.535Z</time></trkpt><trkpt lat="46.0546597" lon="11.8275115"><ele>1124.0</ele><time>2026-04-26T12:14:33.535Z</time></trkpt><trkpt lat="46.0546818" lon="11.8276135"><ele>1124.0</ele><time>2026-04-26T12:14:35.535Z</time></trkpt><trkpt lat="46.0547015" lon="11.8277148"><ele>1124.1666666666667</ele><time>2026-04-26T12:14:38.535Z</time></trkpt><trkpt lat="46.0547202" lon="11.8278099"><ele>1124.3333333333335</ele><time>2026-04-26T12:17:41.537Z</time></trkpt><trkpt lat="46.0547482" lon="11.8278942"><ele>1124.5</ele><time>2026-04-26T12:17:43.539Z</time></trkpt><trkpt lat="46.0547945" lon="11.8279911"><ele>1124.6666666666667</ele><time>2026-04-26T12:17:45.54Z</time></trkpt><trkpt lat="46.0548549" lon="11.828088"><ele>1124.8333333333333</ele><time>2026-04-26T12:17:47.539Z</time></trkpt><trkpt lat="46.0549297" lon="11.8281613"><ele>1125.0</ele><time>2026-04-26T12:17:49.537Z</time></trkpt><trkpt lat="46.0550307" lon="11.8282207"><ele>1121.5</ele><time>2026-04-26T12:17:51.539Z</time></trkpt><trkpt lat="46.0551557" lon="11.8282649"><ele>1118.0</ele><time>2026-04-26T12:17:53.538Z</time></trkpt><trkpt lat="46.0552259" lon="11.8282866"><ele>1114.5</ele><time>2026-04-26T12:17:54.537Z</time></trkpt><trkpt lat="46.0553027" lon="11.8283092"><ele>1111.0</ele><time>2026-04-26T12:17:55.538Z</time></trkpt><trkpt lat="46.0553814" lon="11.8283309"><ele>1107.5</ele><time>2026-04-26T12:17:56.537Z</time></trkpt><trkpt lat="46.0554661" lon="11.8283546"><ele>1104.0</ele><time>2026-04-26T12:17:57.539Z</time></trkpt><trkpt lat="46.0555529" lon="11.8283826"><ele>1104.0</ele><time>2026-04-26T12:17:58.539Z</time></trkpt><trkpt lat="46.0556415" lon="11.8284173"><ele>1104.0</ele><time>2026-04-26T12:17:59.535Z</time></trkpt><trkpt lat="46.055735" lon="11.8284534"><ele>1104.0</ele><time>2026-04-26T12:18:00.537Z</time></trkpt><trkpt lat="46.0558304" lon="11.8284847"><ele>1104.0</ele><time>2026-04-26T12:18:01.537Z</time></trkpt><trkpt lat="46.0559291" lon="11.8285166"><ele>1104.0</ele><time>2026-04-26T12:18:02.54Z</time></trkpt><trkpt lat="46.0560334" lon="11.8285486"><ele>1100.8</ele><time>2026-04-26T12:18:03.539Z</time></trkpt><trkpt lat="46.0561392" lon="11.8285797"><ele>1097.6000000000001</ele><time>2026-04-26T12:18:04.54Z</time></trkpt><trkpt lat="46.0562447" lon="11.8286133"><ele>1094.4</ele><time>2026-04-26T12:18:05.539Z</time></trkpt><trkpt lat="46.0563466" lon="11.8286493"><ele>1091.2</ele><time>2026-04-26T12:18:06.537Z</time></trkpt><trkpt lat="46.0564478" lon="11.8286815"><ele>1088.0</ele><time>2026-04-26T12:18:07.54Z</time></trkpt><trkpt lat="46.0565471" lon="11.8287116"><ele>1087.8</ele><time>2026-04-26T12:18:08.539Z</time></trkpt><trkpt lat="46.0566477" lon="11.8287396"><ele>1087.6</ele><time>2026-04-26T12:18:09.539Z</time></trkpt><trkpt lat="46.0567473" lon="11.8287683"><ele>1087.4</ele><time>2026-04-26T12:18:10.536Z</time></trkpt><trkpt lat="46.0568447" lon="11.828798"><ele>1087.2</ele><time>2026-04-26T12:18:11.539Z</time></trkpt><trkpt lat="46.0569379" lon="11.8288298"><ele>1087.0</ele><time>2026-04-26T12:18:12.536Z</time></trkpt><trkpt lat="46.057033" lon="11.8288591"><ele>1087.0</ele><time>2026-04-26T12:18:13.537Z</time></trkpt><trkpt lat="46.0571207" lon="11.8288849"><ele>1087.0</ele><time>2026-04-26T12:18:14.537Z</time></trkpt><trkpt lat="46.0572143" lon="11.8289153"><ele>1087.0</ele><time>2026-04-26T12:18:15.537Z</time></trkpt><trkpt lat="46.057309" lon="11.8289385"><ele>1087.0</ele><time>2026-04-26T12:18:16.537Z</time></trkpt><trkpt lat="46.0574017" lon="11.8289368"><ele>1087.0</ele><time>2026-04-26T12:18:17.538Z</time></trkpt><trkpt lat="46.0574923" lon="11.8289179"><ele>1085.0</ele><time>2026-04-26T12:18:18.537Z</time></trkpt><trkpt lat="46.0575903" lon="11.8288888"><ele>1083.0</ele><time>2026-04-26T12:18:19.537Z</time></trkpt><trkpt lat="46.0576905" lon="11.8288465"><ele>1081.0</ele><time>2026-04-26T12:18:20.539Z</time></trkpt><trkpt lat="46.0577911" lon="11.8287983"><ele>1079.0</ele><time>2026-04-26T12:18:21.539Z</time></trkpt><trkpt lat="46.0578904" lon="11.8287525"><ele>1077.0</ele><time>2026-04-26T12:18:22.539Z</time></trkpt><trkpt lat="46.0579874" lon="11.8287062"><ele>1077.0</ele><time>2026-04-26T12:18:23.539Z</time></trkpt><trkpt lat="46.0580746" lon="11.8286453"><ele>1077.0</ele><time>2026-04-26T12:18:24.537Z</time></trkpt><trkpt lat="46.0581597" lon="11.8285688"><ele>1077.0</ele><time>2026-04-26T12:18:25.537Z</time></trkpt><trkpt lat="46.0582413" lon="11.8284821"><ele>1077.0</ele><time>2026-04-26T12:18:26.539Z</time></trkpt><trkpt lat="46.0583156" lon="11.8284023"><ele>1077.0</ele><time>2026-04-26T12:18:27.537Z</time></trkpt><trkpt lat="46.0583835" lon="11.8283382"><ele>1075.8333333333333</ele><time>2026-04-26T12:18:28.537Z</time></trkpt><trkpt lat="46.0584466" lon="11.8282783"><ele>1074.6666666666667</ele><time>2026-04-26T12:18:29.535Z</time></trkpt><trkpt lat="46.0585481" lon="11.8282129"><ele>1073.5</ele><time>2026-04-26T12:18:31.539Z</time></trkpt><trkpt lat="46.0586285" lon="11.8282196"><ele>1072.3333333333335</ele><time>2026-04-26T12:18:33.536Z</time></trkpt><trkpt lat="46.0586921" lon="11.8282828"><ele>1071.1666666666667</ele><time>2026-04-26T12:18:35.539Z</time></trkpt><trkpt lat="46.0586838" lon="11.8284316"><ele>1070.0</ele><time>2026-04-26T12:18:37.539Z</time></trkpt><trkpt lat="46.0586506" lon="11.828521"><ele>1068.6666666666667</ele><time>2026-04-26T12:18:38.538Z</time></trkpt><trkpt lat="46.0586103" lon="11.8286054"><ele>1067.3333333333335</ele><time>2026-04-26T12:18:39.538Z</time></trkpt><trkpt lat="46.0585663" lon="11.8286804"><ele>1066.0</ele><time>2026-04-26T12:18:40.538Z</time></trkpt><trkpt lat="46.0584751" lon="11.8287908"><ele>1064.6666666666667</ele><time>2026-04-26T12:18:42.539Z</time></trkpt><trkpt lat="46.0584128" lon="11.8288936"><ele>1063.3333333333333</ele><time>2026-04-26T12:18:44.539Z</time></trkpt><trkpt lat="46.0584439" lon="11.8289991"><ele>1062.0</ele><time>2026-04-26T12:18:47.539Z</time></trkpt><trkpt lat="46.0585548" lon="11.828984"><ele>1062.0</ele><time>2026-04-26T12:18:49.538Z</time></trkpt><trkpt lat="46.0586261" lon="11.8289555"><ele>1062.0</ele><time>2026-04-26T12:18:50.539Z</time></trkpt><trkpt lat="46.058701" lon="11.8289314"><ele>1062.0</ele><time>2026-04-26T12:18:51.538Z</time></trkpt><trkpt lat="46.0587714" lon="11.8289037"><ele>1062.0</ele><time>2026-04-26T12:18:52.539Z</time></trkpt><trkpt lat="46.0588438" lon="11.8288702"><ele>1062.0</ele><time>2026-04-26T12:18:53.536Z</time></trkpt><trkpt lat="46.0589176" lon="11.8288377"><ele>1062.0</ele><time>2026-04-26T12:18:54.538Z</time></trkpt><trkpt lat="46.0589916" lon="11.8288132"><ele>1062.0</ele><time>2026-04-26T12:18:55.538Z</time></trkpt><trkpt lat="46.0590655" lon="11.8287958"><ele>1062.0</ele><time>2026-04-26T12:18:56.537Z</time></trkpt><trkpt lat="46.0591357" lon="11.8287814"><ele>1062.0</ele><time>2026-04-26T12:18:57.537Z</time></trkpt><trkpt lat="46.0592142" lon="11.8287782"><ele>1062.0</ele><time>2026-04-26T12:18:58.537Z</time></trkpt><trkpt lat="46.0592881" lon="11.8287868"><ele>1062.0</ele><time>2026-04-26T12:18:59.538Z</time></trkpt><trkpt lat="46.0593625" lon="11.8288137"><ele>1062.0</ele><time>2026-04-26T12:19:00.538Z</time></trkpt><trkpt lat="46.0594344" lon="11.8288586"><ele>1060.1666666666667</ele><time>2026-04-26T12:19:01.539Z</time></trkpt><trkpt lat="46.059503" lon="11.8289156"><ele>1058.3333333333333</ele><time>2026-04-26T12:19:02.539Z</time></trkpt><trkpt lat="46.0595698" lon="11.8289839"><ele>1056.5</ele><time>2026-04-26T12:19:03.538Z</time></trkpt><trkpt lat="46.0596394" lon="11.8290505"><ele>1054.6666666666665</ele><time>2026-04-26T12:19:04.539Z</time></trkpt><trkpt lat="46.0597111" lon="11.8291174"><ele>1052.8333333333333</ele><time>2026-04-26T12:19:05.538Z</time></trkpt><trkpt lat="46.0597849" lon="11.8291686"><ele>1051.0</ele><time>2026-04-26T12:19:06.537Z</time></trkpt><trkpt lat="46.0598649" lon="11.8292086"><ele>1051.0</ele><time>2026-04-26T12:19:07.54Z</time></trkpt><trkpt lat="46.0599443" lon="11.8292244"><ele>1051.0</ele><time>2026-04-26T12:19:08.539Z</time></trkpt><trkpt lat="46.0600245" lon="11.8292367"><ele>1051.0</ele><time>2026-04-26T12:19:09.537Z</time></trkpt><trkpt lat="46.0601039" lon="11.829245"><ele>1051.0</ele><time>2026-04-26T12:19:10.538Z</time></trkpt><trkpt lat="46.0601839" lon="11.8292502"><ele>1051.0</ele><time>2026-04-26T12:19:11.536Z</time></trkpt><trkpt lat="46.0602636" lon="11.8292542"><ele>1051.0</ele><time>2026-04-26T12:19:12.536Z</time></trkpt><trkpt lat="46.0603347" lon="11.8292517"><ele>1050.6666666666665</ele><time>2026-04-26T12:19:13.538Z</time></trkpt><trkpt lat="46.060408" lon="11.8292479"><ele>1050.3333333333333</ele><time>2026-04-26T12:19:14.538Z</time></trkpt><trkpt lat="46.0605212" lon="11.8292358"><ele>1050.0</ele><time>2026-04-26T12:19:16.536Z</time></trkpt><trkpt lat="46.0605891" lon="11.829265"><ele>1049.6666666666667</ele><time>2026-04-26T12:19:18.537Z</time></trkpt><trkpt lat="46.0605454" lon="11.8293447"><ele>1049.3333333333335</ele><time>2026-04-26T12:19:20.536Z</time></trkpt><trkpt lat="46.0604451" lon="11.8293571"><ele>1049.0</ele><time>2026-04-26T12:19:22.539Z</time></trkpt><trkpt lat="46.0603242" lon="11.8293812"><ele>1046.1666666666667</ele><time>2026-04-26T12:19:24.538Z</time></trkpt><trkpt lat="46.0602635" lon="11.8294106"><ele>1043.3333333333335</ele><time>2026-04-26T12:19:25.538Z</time></trkpt><trkpt lat="46.0602008" lon="11.8294436"><ele>1040.5</ele><time>2026-04-26T12:19:26.536Z</time></trkpt><trkpt lat="46.0601373" lon="11.829476"><ele>1037.6666666666667</ele><time>2026-04-26T12:19:27.538Z</time></trkpt><trkpt lat="46.0600227" lon="11.8295193"><ele>1034.8333333333333</ele><time>2026-04-26T12:19:29.539Z</time></trkpt><trkpt lat="46.0599488" lon="11.8295685"><ele>1032.0</ele><time>2026-04-26T12:19:31.537Z</time></trkpt><trkpt lat="46.0599919" lon="11.8296723"><ele>1031.5</ele><time>2026-04-26T12:19:34.538Z</time></trkpt><trkpt lat="46.0600997" lon="11.8296698"><ele>1031.0</ele><time>2026-04-26T12:19:36.539Z</time></trkpt><trkpt lat="46.0601694" lon="11.8296645"><ele>1030.5</ele><time>2026-04-26T12:19:37.54Z</time></trkpt><trkpt lat="46.060249" lon="11.82965"><ele>1030.0</ele><time>2026-04-26T12:19:38.539Z</time></trkpt><trkpt lat="46.060326" lon="11.8296504"><ele>1029.5</ele><time>2026-04-26T12:19:39.54Z</time></trkpt><trkpt lat="46.0603942" lon="11.8296624"><ele>1029.0</ele><time>2026-04-26T12:19:40.537Z</time></trkpt><trkpt lat="46.0605109" lon="11.8297098"><ele>1029.0</ele><time>2026-04-26T12:19:42.538Z</time></trkpt><trkpt lat="46.0605714" lon="11.8297372"><ele>1029.0</ele><time>2026-04-26T12:19:43.538Z</time></trkpt><trkpt lat="46.060689" lon="11.829769"><ele>1029.0</ele><time>2026-04-26T12:19:45.539Z</time></trkpt><trkpt lat="46.0607528" lon="11.8297816"><ele>1029.0</ele><time>2026-04-26T12:19:46.537Z</time></trkpt><trkpt lat="46.0608186" lon="11.8297852"><ele>1029.0</ele><time>2026-04-26T12:19:47.539Z</time></trkpt><trkpt lat="46.0608832" lon="11.8297665"><ele>1029.0</ele><time>2026-04-26T12:19:48.537Z</time></trkpt><trkpt lat="46.0609546" lon="11.8297142"><ele>1027.6000000000001</ele><time>2026-04-26T12:19:49.539Z</time></trkpt><trkpt lat="46.0610237" lon="11.82965"><ele>1026.2</ele><time>2026-04-26T12:19:50.539Z</time></trkpt><trkpt lat="46.061158" lon="11.8295391"><ele>1024.8000000000002</ele><time>2026-04-26T12:19:52.537Z</time></trkpt><trkpt lat="46.0612285" lon="11.8295103"><ele>1023.4000000000001</ele><time>2026-04-26T12:19:53.538Z</time></trkpt><trkpt lat="46.0613015" lon="11.8295036"><ele>1022.0</ele><time>2026-04-26T12:19:54.537Z</time></trkpt><trkpt lat="46.0613749" lon="11.8295103"><ele>1022.0000000000001</ele><time>2026-04-26T12:19:55.536Z</time></trkpt><trkpt lat="46.0614454" lon="11.8295338"><ele>1022.0</ele><time>2026-04-26T12:19:56.638Z</time></trkpt><trkpt lat="46.0615082" lon="11.8295664"><ele>1022.0</ele><time>2026-04-26T12:19:57.539Z</time></trkpt><trkpt lat="46.0615668" lon="11.8296061"><ele>1022.0</ele><time>2026-04-26T12:19:58.539Z</time></trkpt><trkpt lat="46.0616246" lon="11.829648"><ele>1022.0000000000001</ele><time>2026-04-26T12:19:59.538Z</time></trkpt><trkpt lat="46.0617374" lon="11.8297263"><ele>1022.0</ele><time>2026-04-26T12:20:01.539Z</time></trkpt><trkpt lat="46.0618445" lon="11.8297943"><ele>1020.2</ele><time>2026-04-26T12:20:03.538Z</time></trkpt><trkpt lat="46.0619309" lon="11.8298506"><ele>1018.4000000000001</ele><time>2026-04-26T12:20:05.536Z</time></trkpt><trkpt lat="46.0619865" lon="11.8299297"><ele>1016.5999999999999</ele><time>2026-04-26T12:20:07.537Z</time></trkpt><trkpt lat="46.0619825" lon="11.8300259"><ele>1014.8</ele><time>2026-04-26T12:20:09.536Z</time></trkpt><trkpt lat="46.0618951" lon="11.8300909"><ele>1013.0</ele><time>2026-04-26T12:20:11.538Z</time></trkpt><trkpt lat="46.0617746" lon="11.8301073"><ele>1013.0000000000001</ele><time>2026-04-26T12:20:13.539Z</time></trkpt><trkpt lat="46.0617075" lon="11.8300969"><ele>1013.0</ele><time>2026-04-26T12:20:14.538Z</time></trkpt><trkpt lat="46.061638" lon="11.8300845"><ele>1013.0</ele><time>2026-04-26T12:20:15.539Z</time></trkpt><trkpt lat="46.0615691" lon="11.8300703"><ele>1013.0</ele><time>2026-04-26T12:20:16.538Z</time></trkpt><trkpt lat="46.0615041" lon="11.830056"><ele>1013.0000000000001</ele><time>2026-04-26T12:20:17.538Z</time></trkpt><trkpt lat="46.061399" lon="11.8300472"><ele>1013.0</ele><time>2026-04-26T12:20:19.539Z</time></trkpt><trkpt lat="46.0613528" lon="11.8301464"><ele>1014.8</ele><time>2026-04-26T12:20:21.536Z</time></trkpt><trkpt lat="46.0613942" lon="11.8302899"><ele>1016.5999999999999</ele><time>2026-04-26T12:20:23.537Z</time></trkpt><trkpt lat="46.0614515" lon="11.8303496"><ele>1018.4000000000001</ele><time>2026-04-26T12:20:24.536Z</time></trkpt><trkpt lat="46.0615242" lon="11.8304117"><ele>1020.2</ele><time>2026-04-26T12:20:25.539Z</time></trkpt><trkpt lat="46.0615993" lon="11.8304707"><ele>1022.0</ele><time>2026-04-26T12:20:26.537Z</time></trkpt><trkpt lat="46.0613015" lon="11.8295036"><ele>1022.0000000000001</ele><time>2026-04-26T12:19:54.537Z</time></trkpt><trkpt lat="46.0613749" lon="11.8295103"><ele>1022.0</ele><time>2026-04-26T12:19:55.536Z</time></trkpt><trkpt lat="46.0614454" lon="11.8295338"><ele>1022.0</ele><time>2026-04-26T12:19:56.638Z</time></trkpt><trkpt lat="46.0615082" lon="11.8295664"><ele>1022.0</ele><time>2026-04-26T12:19:57.539Z</time></trkpt><trkpt lat="46.0615668" lon="11.8296061"><ele>1022.0000000000001</ele><time>2026-04-26T12:19:58.539Z</time></trkpt><trkpt lat="46.0616246" lon="11.829648"><ele>1022.0</ele><time>2026-04-26T12:19:59.538Z</time></trkpt><trkpt lat="46.0617374" lon="11.8297263"><ele>1020.2</ele><time>2026-04-26T12:20:01.539Z</time></trkpt><trkpt lat="46.0618445" lon="11.8297943"><ele>1018.4000000000001</ele><time>2026-04-26T12:20:03.538Z</time></trkpt><trkpt lat="46.0619309" lon="11.8298506"><ele>1016.5999999999999</ele><time>2026-04-26T12:20:05.536Z</time></trkpt><trkpt lat="46.0619865" lon="11.8299297"><ele>1014.8</ele><time>2026-04-26T12:20:07.537Z</time></trkpt><trkpt lat="46.0619825" lon="11.8300259"><ele>1013.0</ele><time>2026-04-26T12:20:09.536Z</time></trkpt><trkpt lat="46.0618951" lon="11.8300909"><ele>1013.0000000000001</ele><time>2026-04-26T12:20:11.538Z</time></trkpt><trkpt lat="46.0617746" lon="11.8301073"><ele>1013.0</ele><time>2026-04-26T12:20:13.539Z</time></trkpt><trkpt lat="46.0617075" lon="11.8300969"><ele>1013.0</ele><time>2026-04-26T12:20:14.538Z</time></trkpt><trkpt lat="46.061638" lon="11.8300845"><ele>1013.0</ele><time>2026-04-26T12:20:15.539Z</time></trkpt><trkpt lat="46.0615691" lon="11.8300703"><ele>1013.0000000000001</ele><time>2026-04-26T12:20:16.538Z</time></trkpt><trkpt lat="46.0615041" lon="11.830056"><ele>1013.0</ele><time>2026-04-26T12:20:17.538Z</time></trkpt><trkpt lat="46.061399" lon="11.8300472"><ele>1010.8333333333334</ele><time>2026-04-26T12:20:19.539Z</time></trkpt><trkpt lat="46.0613528" lon="11.8301464"><ele>1008.6666666666667</ele><time>2026-04-26T12:20:21.536Z</time></trkpt><trkpt lat="46.0613942" lon="11.8302899"><ele>1006.5</ele><time>2026-04-26T12:20:23.537Z</time></trkpt><trkpt lat="46.0614515" lon="11.8303496"><ele>1004.3333333333333</ele><time>2026-04-26T12:20:24.536Z</time></trkpt><trkpt lat="46.0615242" lon="11.8304117"><ele>1002.1666666666666</ele><time>2026-04-26T12:20:25.539Z</time></trkpt><trkpt lat="46.0615993" lon="11.8304707"><ele>1000.0</ele><time>2026-04-26T12:20:26.537Z</time></trkpt><trkpt lat="46.0616804" lon="11.8305249"><ele>999.9999999999999</ele><time>2026-04-26T12:20:27.539Z</time></trkpt><trkpt lat="46.0617617" lon="11.8305718"><ele>1000.0</ele><time>2026-04-26T12:20:28.539Z</time></trkpt><trkpt lat="46.0618439" lon="11.8306119"><ele>1000.0</ele><time>2026-04-26T12:20:29.54Z</time></trkpt><trkpt lat="46.0619198" lon="11.830642"><ele>1000.0</ele><time>2026-04-26T12:20:30.537Z</time></trkpt><trkpt lat="46.0619901" lon="11.8306582"><ele>999.9999999999999</ele><time>2026-04-26T12:20:31.539Z</time></trkpt><trkpt lat="46.0621015" lon="11.8306666"><ele>1000.0</ele><time>2026-04-26T12:20:33.538Z</time></trkpt><trkpt lat="46.0621734" lon="11.8307076"><ele>999.9999999999999</ele><time>2026-04-26T12:20:35.538Z</time></trkpt><trkpt lat="46.0621321" lon="11.8307938"><ele>1000.0</ele><time>2026-04-26T12:20:38.539Z</time></trkpt><trkpt lat="46.0620018" lon="11.8307823"><ele>1000.0</ele><time>2026-04-26T12:20:40.537Z</time></trkpt><trkpt lat="46.0619351" lon="11.8307733"><ele>1000.0</ele><time>2026-04-26T12:20:41.539Z</time></trkpt><trkpt lat="46.0618669" lon="11.8307728"><ele>999.9999999999999</ele><time>2026-04-26T12:20:42.54Z</time></trkpt><trkpt lat="46.0617963" lon="11.8307759"><ele>1000.0</ele><time>2026-04-26T12:20:43.538Z</time></trkpt><trkpt lat="46.0617189" lon="11.8307769"><ele>999.9999999999999</ele><time>2026-04-26T12:20:44.538Z</time></trkpt><trkpt lat="46.0616414" lon="11.8307783"><ele>1000.0</ele><time>2026-04-26T12:20:45.539Z</time></trkpt><trkpt lat="46.0615582" lon="11.8307872"><ele>1000.0</ele><time>2026-04-26T12:20:46.538Z</time></trkpt><trkpt lat="46.0614697" lon="11.8307953"><ele>1000.0</ele><time>2026-04-26T12:20:47.539Z</time></trkpt><trkpt lat="46.0613777" lon="11.8308107"><ele>999.9999999999999</ele><time>2026-04-26T12:20:48.536Z</time></trkpt><trkpt lat="46.061288" lon="11.8308373"><ele>1000.0</ele><time>2026-04-26T12:20:49.538Z</time></trkpt><trkpt lat="46.0611939" lon="11.830857"><ele>999.2</ele><time>2026-04-26T12:20:50.54Z</time></trkpt><trkpt lat="46.0610942" lon="11.8308756"><ele>998.4</ele><time>2026-04-26T12:20:51.536Z</time></trkpt><trkpt lat="46.0609982" lon="11.8309033"><ele>997.5999999999999</ele><time>2026-04-26T12:20:52.537Z</time></trkpt><trkpt lat="46.0609003" lon="11.8309196"><ele>996.8</ele><time>2026-04-26T12:20:53.538Z</time></trkpt><trkpt lat="46.0608013" lon="11.8309401"><ele>996.0</ele><time>2026-04-26T12:20:54.535Z</time></trkpt><trkpt lat="46.0606956" lon="11.8309684"><ele>989.8</ele><time>2026-04-26T12:20:55.538Z</time></trkpt><trkpt lat="46.0605906" lon="11.8309871"><ele>983.5999999999999</ele><time>2026-04-26T12:20:56.539Z</time></trkpt><trkpt lat="46.0604839" lon="11.8310083"><ele>977.4</ele><time>2026-04-26T12:20:57.539Z</time></trkpt><trkpt lat="46.0603729" lon="11.8310316"><ele>971.2</ele><time>2026-04-26T12:20:58.537Z</time></trkpt><trkpt lat="46.0602645" lon="11.8310571"><ele>965.0</ele><time>2026-04-26T12:20:59.537Z</time></trkpt><trkpt lat="46.0601585" lon="11.8310775"><ele>965.0</ele><time>2026-04-26T12:21:00.539Z</time></trkpt><trkpt lat="46.0600545" lon="11.8310837"><ele>965.0</ele><time>2026-04-26T12:21:01.537Z</time></trkpt><trkpt lat="46.059943" lon="11.8310494"><ele>965.0</ele><time>2026-04-26T12:21:02.537Z</time></trkpt><trkpt lat="46.0598338" lon="11.8309868"><ele>965.0</ele><time>2026-04-26T12:21:03.539Z</time></trkpt><trkpt lat="46.0597329" lon="11.830916"><ele>965.0</ele><time>2026-04-26T12:21:04.539Z</time></trkpt><trkpt lat="46.0596351" lon="11.8308611"><ele>972.4</ele><time>2026-04-26T12:21:05.538Z</time></trkpt><trkpt lat="46.0595366" lon="11.830811"><ele>979.8</ele><time>2026-04-26T12:21:06.537Z</time></trkpt><trkpt lat="46.0594365" lon="11.8307828"><ele>987.2</ele><time>2026-04-26T12:21:07.539Z</time></trkpt><trkpt lat="46.0593464" lon="11.8307913"><ele>994.6</ele><time>2026-04-26T12:21:08.54Z</time></trkpt><trkpt lat="46.0592712" lon="11.8308432"><ele>1002.0</ele><time>2026-04-26T12:21:09.539Z</time></trkpt><trkpt lat="46.0591906" lon="11.8309082"><ele>1002.0</ele><time>2026-04-26T12:21:10.536Z</time></trkpt><trkpt lat="46.0591233" lon="11.8310109"><ele>1002.0</ele><time>2026-04-26T12:21:11.538Z</time></trkpt><trkpt lat="46.059049" lon="11.8311262"><ele>1002.0</ele><time>2026-04-26T12:21:12.538Z</time></trkpt><trkpt lat="46.0589923" lon="11.831267"><ele>1002.0</ele><time>2026-04-26T12:21:13.538Z</time></trkpt><trkpt lat="46.0589603" lon="11.83142"><ele>1002.0</ele><time>2026-04-26T12:21:14.54Z</time></trkpt><trkpt lat="46.0589458" lon="11.8315686"><ele>1002.0</ele><time>2026-04-26T12:21:15.538Z</time></trkpt><trkpt lat="46.0589271" lon="11.8317264"><ele>1002.0</ele><time>2026-04-26T12:21:16.537Z</time></trkpt><trkpt lat="46.058922" lon="11.8318834"><ele>1002.0</ele><time>2026-04-26T12:21:17.54Z</time></trkpt><trkpt lat="46.0589171" lon="11.8320541"><ele>1002.0</ele><time>2026-04-26T12:21:18.539Z</time></trkpt><trkpt lat="46.0589105" lon="11.8322139"><ele>998.8</ele><time>2026-04-26T12:21:19.539Z</time></trkpt><trkpt lat="46.0589048" lon="11.8323634"><ele>995.6</ele><time>2026-04-26T12:21:20.538Z</time></trkpt><trkpt lat="46.0588995" lon="11.8325058"><ele>992.3999999999999</ele><time>2026-04-26T12:21:21.539Z</time></trkpt><trkpt lat="46.0588861" lon="11.8326456"><ele>989.1999999999999</ele><time>2026-04-26T12:21:22.536Z</time></trkpt><trkpt lat="46.0588479" lon="11.8327742"><ele>986.0</ele><time>2026-04-26T12:21:23.538Z</time></trkpt><trkpt lat="46.0588023" lon="11.8328929"><ele>981.1999999999999</ele><time>2026-04-26T12:21:24.536Z</time></trkpt><trkpt lat="46.0587358" lon="11.8329959"><ele>976.3999999999999</ele><time>2026-04-26T12:21:25.538Z</time></trkpt><trkpt lat="46.058647" lon="11.8330791"><ele>971.6</ele><time>2026-04-26T12:21:26.537Z</time></trkpt><trkpt lat="46.0585486" lon="11.8331366"><ele>966.8</ele><time>2026-04-26T12:21:27.538Z</time></trkpt><trkpt lat="46.05845" lon="11.8331815"><ele>962.0</ele><time>2026-04-26T12:21:28.538Z</time></trkpt><trkpt lat="46.058347" lon="11.8332203"><ele>962.8</ele><time>2026-04-26T12:21:29.539Z</time></trkpt><trkpt lat="46.0582441" lon="11.8332502"><ele>963.6</ele><time>2026-04-26T12:21:30.537Z</time></trkpt><trkpt lat="46.05814" lon="11.8332798"><ele>964.3999999999999</ele><time>2026-04-26T12:21:31.539Z</time></trkpt><trkpt lat="46.058034" lon="11.8333026"><ele>965.1999999999999</ele><time>2026-04-26T12:21:32.539Z</time></trkpt><trkpt lat="46.0579293" lon="11.833314"><ele>966.0</ele><time>2026-04-26T12:21:33.539Z</time></trkpt><trkpt lat="46.0578267" lon="11.8333265"><ele>966.0</ele><time>2026-04-26T12:21:34.538Z</time></trkpt><trkpt lat="46.0577201" lon="11.8333354"><ele>965.9999999999999</ele><time>2026-04-26T12:21:35.538Z</time></trkpt><trkpt lat="46.0576115" lon="11.8333537"><ele>965.9999999999999</ele><time>2026-04-26T12:21:36.539Z</time></trkpt><trkpt lat="46.0575012" lon="11.833365"><ele>966.0</ele><time>2026-04-26T12:21:37.538Z</time></trkpt><trkpt lat="46.0573964" lon="11.8333827"><ele>966.0</ele><time>2026-04-26T12:21:38.539Z</time></trkpt><trkpt lat="46.0572945" lon="11.8333946"><ele>969.0</ele><time>2026-04-26T12:21:39.537Z</time></trkpt><trkpt lat="46.057196" lon="11.8333953"><ele>971.9999999999999</ele><time>2026-04-26T12:21:40.537Z</time></trkpt><trkpt lat="46.057099" lon="11.833375"><ele>974.9999999999999</ele><time>2026-04-26T12:21:41.539Z</time></trkpt><trkpt lat="46.0570101" lon="11.8333733"><ele>978.0</ele><time>2026-04-26T12:21:42.537Z</time></trkpt><trkpt lat="46.0569261" lon="11.8333751"><ele>981.0</ele><time>2026-04-26T12:21:43.539Z</time></trkpt><trkpt lat="46.0568364" lon="11.8333956"><ele>981.0</ele><time>2026-04-26T12:21:44.538Z</time></trkpt><trkpt lat="46.0567656" lon="11.8334537"><ele>980.9999999999999</ele><time>2026-04-26T12:21:45.538Z</time></trkpt><trkpt lat="46.0567229" lon="11.8335619"><ele>980.9999999999999</ele><time>2026-04-26T12:21:46.538Z</time></trkpt><trkpt lat="46.0566758" lon="11.8336831"><ele>981.0</ele><time>2026-04-26T12:21:47.538Z</time></trkpt><trkpt lat="46.0566378" lon="11.8338143"><ele>981.0</ele><time>2026-04-26T12:21:48.539Z</time></trkpt><trkpt lat="46.0565918" lon="11.8339336"><ele>979.1666666666666</ele><time>2026-04-26T12:21:49.539Z</time></trkpt><trkpt lat="46.0565439" lon="11.8340402"><ele>977.3333333333333</ele><time>2026-04-26T12:21:50.538Z</time></trkpt><trkpt lat="46.056503" lon="11.8341384"><ele>975.5</ele><time>2026-04-26T12:21:51.535Z</time></trkpt><trkpt lat="46.0564643" lon="11.8342182"><ele>973.6666666666666</ele><time>2026-04-26T12:21:52.536Z</time></trkpt><trkpt lat="46.0564229" lon="11.8343306"><ele>971.8333333333333</ele><time>2026-04-26T12:21:54.539Z</time></trkpt><trkpt lat="46.0564457" lon="11.8344358"><ele>970.0</ele><time>2026-04-26T12:21:56.539Z</time></trkpt><trkpt lat="46.0565108" lon="11.8345028"><ele>966.2</ele><time>2026-04-26T12:21:58.539Z</time></trkpt><trkpt lat="46.0565961" lon="11.8344625"><ele>962.4</ele><time>2026-04-26T12:22:00.539Z</time></trkpt><trkpt lat="46.0566746" lon="11.8343537"><ele>958.5999999999999</ele><time>2026-04-26T12:22:02.538Z</time></trkpt><trkpt lat="46.056757" lon="11.8342207"><ele>954.8</ele><time>2026-04-26T12:22:04.535Z</time></trkpt><trkpt lat="46.0568004" lon="11.8341372"><ele>951.0</ele><time>2026-04-26T12:22:05.538Z</time></trkpt><trkpt lat="46.0568473" lon="11.834055"><ele>951.0</ele><time>2026-04-26T12:22:06.537Z</time></trkpt><trkpt lat="46.0569062" lon="11.8339796"><ele>951.0</ele><time>2026-04-26T12:22:07.539Z</time></trkpt><trkpt lat="46.0569603" lon="11.8339195"><ele>951.0</ele><time>2026-04-26T12:22:08.539Z</time></trkpt><trkpt lat="46.0570166" lon="11.8338772"><ele>951.0</ele><time>2026-04-26T12:22:09.539Z</time></trkpt><trkpt lat="46.0570864" lon="11.8338645"><ele>951.0</ele><time>2026-04-26T12:22:10.538Z</time></trkpt><trkpt lat="46.0572483" lon="11.8338864"><ele>951.0</ele><time>2026-04-26T12:22:12.538Z</time></trkpt><trkpt lat="46.057356" lon="11.8339182"><ele>947.4</ele><time>2026-04-26T12:22:13.539Z</time></trkpt><trkpt lat="46.057453" lon="11.8339452"><ele>943.8</ele><time>2026-04-26T12:22:14.539Z</time></trkpt><trkpt lat="46.057547" lon="11.8339713"><ele>940.1999999999999</ele><time>2026-04-26T12:22:15.538Z</time></trkpt><trkpt lat="46.0576367" lon="11.8339888"><ele>936.5999999999999</ele><time>2026-04-26T12:22:16.537Z</time></trkpt><trkpt lat="46.0577306" lon="11.8340196"><ele>933.0</ele><time>2026-04-26T12:22:17.538Z</time></trkpt><trkpt lat="46.0578144" lon="11.8340825"><ele>933.0</ele><time>2026-04-26T12:22:18.539Z</time></trkpt><trkpt lat="46.0578844" lon="11.8341622"><ele>933.0</ele><time>2026-04-26T12:22:19.539Z</time></trkpt><trkpt lat="46.0579566" lon="11.8342447"><ele>933.0</ele><time>2026-04-26T12:22:20.539Z</time></trkpt><trkpt lat="46.0580331" lon="11.8343387"><ele>933.0</ele><time>2026-04-26T12:22:21.538Z</time></trkpt><trkpt lat="46.0581115" lon="11.8344231"><ele>933.0</ele><time>2026-04-26T12:22:22.538Z</time></trkpt><trkpt lat="46.0581971" lon="11.8344989"><ele>930.2</ele><time>2026-04-26T12:22:23.537Z</time></trkpt><trkpt lat="46.0582821" lon="11.8345825"><ele>927.4</ele><time>2026-04-26T12:22:24.537Z</time></trkpt><trkpt lat="46.058366" lon="11.8346639"><ele>924.6000000000001</ele><time>2026-04-26T12:22:25.539Z</time></trkpt><trkpt lat="46.0584517" lon="11.834744"><ele>921.8000000000001</ele><time>2026-04-26T12:22:26.54Z</time></trkpt><trkpt lat="46.0585358" lon="11.8348281"><ele>919.0</ele><time>2026-04-26T12:22:27.538Z</time></trkpt><trkpt lat="46.0586135" lon="11.8349009"><ele>918.9999999999999</ele><time>2026-04-26T12:22:28.535Z</time></trkpt><trkpt lat="46.0586878" lon="11.834969"><ele>919.0</ele><time>2026-04-26T12:22:29.536Z</time></trkpt><trkpt lat="46.0587626" lon="11.8350435"><ele>919.0</ele><time>2026-04-26T12:22:30.534Z</time></trkpt><trkpt lat="46.0588371" lon="11.8351031"><ele>919.0</ele><time>2026-04-26T12:22:31.535Z</time></trkpt><trkpt lat="46.0589157" lon="11.8351319"><ele>918.9999999999999</ele><time>2026-04-26T12:22:32.535Z</time></trkpt><trkpt lat="46.0590011" lon="11.8351407"><ele>919.0</ele><time>2026-04-26T12:22:33.534Z</time></trkpt><trkpt lat="46.0590831" lon="11.8351408"><ele>918.6666666666666</ele><time>2026-04-26T12:22:34.536Z</time></trkpt><trkpt lat="46.0591613" lon="11.8351192"><ele>918.3333333333333</ele><time>2026-04-26T12:22:35.538Z</time></trkpt><trkpt lat="46.0592312" lon="11.8350534"><ele>918.0</ele><time>2026-04-26T12:22:36.538Z</time></trkpt><trkpt lat="46.0592903" lon="11.8349564"><ele>917.6666666666667</ele><time>2026-04-26T12:22:37.536Z</time></trkpt><trkpt lat="46.0593401" lon="11.8348734"><ele>917.3333333333334</ele><time>2026-04-26T12:22:38.536Z</time></trkpt><trkpt lat="46.059399" lon="11.83473"><ele>917.0</ele><time>2026-04-26T12:22:40.536Z</time></trkpt><trkpt lat="46.0594644" lon="11.8347063"><ele>917.0000000000001</ele><time>2026-04-26T12:22:42.539Z</time></trkpt><trkpt lat="46.0594837" lon="11.8348483"><ele>917.0</ele><time>2026-04-26T12:22:44.539Z</time></trkpt><trkpt lat="46.0594545" lon="11.8349507"><ele>917.0</ele><time>2026-04-26T12:22:45.537Z</time></trkpt><trkpt lat="46.0594206" lon="11.8350475"><ele>917.0</ele><time>2026-04-26T12:22:46.539Z</time></trkpt><trkpt lat="46.0593884" lon="11.8351503"><ele>917.0000000000001</ele><time>2026-04-26T12:22:47.537Z</time></trkpt><trkpt lat="46.0593571" lon="11.8352561"><ele>917.0</ele><time>2026-04-26T12:22:48.537Z</time></trkpt><trkpt lat="46.0593206" lon="11.8353648"><ele>915.0000000000001</ele><time>2026-04-26T12:22:49.536Z</time></trkpt><trkpt lat="46.0592759" lon="11.835468"><ele>913.0</ele><time>2026-04-26T12:22:50.537Z</time></trkpt><trkpt lat="46.0592269" lon="11.8355626"><ele>911.0</ele><time>2026-04-26T12:22:51.539Z</time></trkpt><trkpt lat="46.0591778" lon="11.8356536"><ele>909.0</ele><time>2026-04-26T12:22:52.539Z</time></trkpt><trkpt lat="46.0591317" lon="11.8357406"><ele>907.0000000000001</ele><time>2026-04-26T12:22:53.539Z</time></trkpt><trkpt lat="46.0590821" lon="11.8358217"><ele>905.0</ele><time>2026-04-26T12:22:54.539Z</time></trkpt><trkpt lat="46.0590277" lon="11.8359025"><ele>903.0000000000001</ele><time>2026-04-26T12:22:55.538Z</time></trkpt><trkpt lat="46.0589816" lon="11.8359834"><ele>901.0</ele><time>2026-04-26T12:22:56.538Z</time></trkpt><trkpt lat="46.0589402" lon="11.8360723"><ele>899.0</ele><time>2026-04-26T12:22:57.535Z</time></trkpt><trkpt lat="46.0588901" lon="11.8361653"><ele>897.0</ele><time>2026-04-26T12:22:58.537Z</time></trkpt><trkpt lat="46.0588311" lon="11.8362596"><ele>895.0000000000001</ele><time>2026-04-26T12:22:59.535Z</time></trkpt><trkpt lat="46.0587709" lon="11.8363513"><ele>893.0</ele><time>2026-04-26T12:23:00.537Z</time></trkpt><trkpt lat="46.0587027" lon="11.8364366"><ele>893.0</ele><time>2026-04-26T12:23:01.539Z</time></trkpt><trkpt lat="46.0586328" lon="11.8365242"><ele>893.0</ele><time>2026-04-26T12:23:02.538Z</time></trkpt><trkpt lat="46.058561" lon="11.8366047"><ele>893.0</ele><time>2026-04-26T12:23:03.534Z</time></trkpt><trkpt lat="46.0584831" lon="11.8366826"><ele>893.0</ele><time>2026-04-26T12:23:04.536Z</time></trkpt><trkpt lat="46.0584066" lon="11.8367387"><ele>893.0</ele><time>2026-04-26T12:23:05.539Z</time></trkpt><trkpt lat="46.0583173" lon="11.8367823"><ele>891.3333333333334</ele><time>2026-04-26T12:23:06.538Z</time></trkpt><trkpt lat="46.0582246" lon="11.8367957"><ele>889.6666666666667</ele><time>2026-04-26T12:23:07.539Z</time></trkpt><trkpt lat="46.0581365" lon="11.8367879"><ele>888.0</ele><time>2026-04-26T12:23:08.536Z</time></trkpt><trkpt lat="46.0580565" lon="11.8367543"><ele>886.3333333333333</ele><time>2026-04-26T12:23:09.538Z</time></trkpt><trkpt lat="46.0579776" lon="11.8366983"><ele>884.6666666666666</ele><time>2026-04-26T12:23:10.538Z</time></trkpt><trkpt lat="46.0579128" lon="11.8365964"><ele>883.0</ele><time>2026-04-26T12:23:11.539Z</time></trkpt><trkpt lat="46.0578627" lon="11.8364846"><ele>883.0</ele><time>2026-04-26T12:23:12.54Z</time></trkpt><trkpt lat="46.0578224" lon="11.8363561"><ele>883.0</ele><time>2026-04-26T12:23:13.538Z</time></trkpt><trkpt lat="46.0577896" lon="11.8362261"><ele>883.0</ele><time>2026-04-26T12:23:14.54Z</time></trkpt><trkpt lat="46.0577612" lon="11.8360932"><ele>883.0</ele><time>2026-04-26T12:23:15.538Z</time></trkpt><trkpt lat="46.0577332" lon="11.8359682"><ele>883.0</ele><time>2026-04-26T12:23:16.54Z</time></trkpt><trkpt lat="46.057699" lon="11.8358638"><ele>885.4999999999999</ele><time>2026-04-26T12:23:17.536Z</time></trkpt><trkpt lat="46.057655" lon="11.8357839"><ele>888.0</ele><time>2026-04-26T12:23:18.538Z</time></trkpt><trkpt lat="46.0575562" lon="11.8356862"><ele>890.5</ele><time>2026-04-26T12:23:20.538Z</time></trkpt><trkpt lat="46.057483" lon="11.8356989"><ele>893.0</ele><time>2026-04-26T12:23:21.539Z</time></trkpt><trkpt lat="46.0574116" lon="11.8357497"><ele>895.4999999999999</ele><time>2026-04-26T12:23:22.538Z</time></trkpt><trkpt lat="46.057346" lon="11.8358227"><ele>898.0</ele><time>2026-04-26T12:23:23.539Z</time></trkpt><trkpt lat="46.0572985" lon="11.8359246"><ele>895.8</ele><time>2026-04-26T12:23:24.539Z</time></trkpt><trkpt lat="46.0572669" lon="11.8360681"><ele>893.5999999999999</ele><time>2026-04-26T12:23:25.54Z</time></trkpt><trkpt lat="46.0572469" lon="11.836223"><ele>891.4000000000001</ele><time>2026-04-26T12:23:26.539Z</time></trkpt><trkpt lat="46.0572117" lon="11.8363669"><ele>889.2</ele><time>2026-04-26T12:23:27.539Z</time></trkpt><trkpt lat="46.0571651" lon="11.836496"><ele>887.0</ele><time>2026-04-26T12:23:28.54Z</time></trkpt><trkpt lat="46.0571092" lon="11.8366076"><ele>887.0</ele><time>2026-04-26T12:23:29.539Z</time></trkpt><trkpt lat="46.057044" lon="11.8367093"><ele>887.0</ele><time>2026-04-26T12:23:30.54Z</time></trkpt><trkpt lat="46.0569663" lon="11.8367846"><ele>887.0</ele><time>2026-04-26T12:23:31.539Z</time></trkpt><trkpt lat="46.0568779" lon="11.8368281"><ele>887.0</ele><time>2026-04-26T12:23:32.539Z</time></trkpt><trkpt lat="46.0567863" lon="11.8368449"><ele>887.0</ele><time>2026-04-26T12:23:33.539Z</time></trkpt><trkpt lat="46.0566913" lon="11.8368457"><ele>885.4000000000001</ele><time>2026-04-26T12:23:34.54Z</time></trkpt><trkpt lat="46.0565931" lon="11.8368385"><ele>883.8000000000001</ele><time>2026-04-26T12:23:35.536Z</time></trkpt><trkpt lat="46.0564909" lon="11.8368319"><ele>882.2</ele><time>2026-04-26T12:23:36.538Z</time></trkpt><trkpt lat="46.0563897" lon="11.8368217"><ele>880.6</ele><time>2026-04-26T12:23:37.54Z</time></trkpt><trkpt lat="46.056286" lon="11.8368076"><ele>879.0</ele><time>2026-04-26T12:23:38.539Z</time></trkpt><trkpt lat="46.0561835" lon="11.8367915"><ele>879.0</ele><time>2026-04-26T12:23:39.539Z</time></trkpt><trkpt lat="46.0560861" lon="11.8367741"><ele>879.0000000000001</ele><time>2026-04-26T12:23:40.539Z</time></trkpt><trkpt lat="46.0559879" lon="11.8367514"><ele>879.0000000000001</ele><time>2026-04-26T12:23:41.539Z</time></trkpt><trkpt lat="46.0558872" lon="11.8367281"><ele>879.0</ele><time>2026-04-26T12:23:42.539Z</time></trkpt><trkpt lat="46.0557838" lon="11.8367177"><ele>879.0</ele><time>2026-04-26T12:23:43.538Z</time></trkpt><trkpt lat="46.0556822" lon="11.8367026"><ele>878.0</ele><time>2026-04-26T12:23:44.538Z</time></trkpt><trkpt lat="46.0555759" lon="11.8366874"><ele>877.0000000000001</ele><time>2026-04-26T12:23:45.539Z</time></trkpt><trkpt lat="46.0554701" lon="11.8366783"><ele>876.0000000000001</ele><time>2026-04-26T12:23:46.538Z</time></trkpt><trkpt lat="46.055368" lon="11.8366654"><ele>875.0</ele><time>2026-04-26T12:23:47.538Z</time></trkpt><trkpt lat="46.0552659" lon="11.8366465"><ele>874.0</ele><time>2026-04-26T12:23:48.539Z</time></trkpt><trkpt lat="46.0551632" lon="11.8366252"><ele>874.0</ele><time>2026-04-26T12:23:49.537Z</time></trkpt><trkpt lat="46.0550605" lon="11.8366153"><ele>874.0000000000001</ele><time>2026-04-26T12:23:50.539Z</time></trkpt><trkpt lat="46.0549574" lon="11.8366175"><ele>874.0000000000001</ele><time>2026-04-26T12:23:51.539Z</time></trkpt><trkpt lat="46.0548488" lon="11.8366267"><ele>874.0</ele><time>2026-04-26T12:23:52.537Z</time></trkpt><trkpt lat="46.0547439" lon="11.836663"><ele>874.0</ele><time>2026-04-26T12:23:53.538Z</time></trkpt><trkpt lat="46.0546435" lon="11.836716"><ele>876.2</ele><time>2026-04-26T12:23:54.537Z</time></trkpt><trkpt lat="46.0545536" lon="11.8367948"><ele>878.4000000000001</ele><time>2026-04-26T12:23:55.539Z</time></trkpt><trkpt lat="46.054459" lon="11.8368757"><ele>880.6</ele><time>2026-04-26T12:23:56.539Z</time></trkpt><trkpt lat="46.0543689" lon="11.8369633"><ele>882.8</ele><time>2026-04-26T12:23:57.537Z</time></trkpt><trkpt lat="46.0542864" lon="11.8370497"><ele>885.0</ele><time>2026-04-26T12:23:58.538Z</time></trkpt><trkpt lat="46.0542058" lon="11.8371311"><ele>883.8333333333334</ele><time>2026-04-26T12:23:59.539Z</time></trkpt><trkpt lat="46.0541292" lon="11.8372005"><ele>882.6666666666667</ele><time>2026-04-26T12:24:00.539Z</time></trkpt><trkpt lat="46.0540584" lon="11.8372644"><ele>881.5</ele><time>2026-04-26T12:24:01.538Z</time></trkpt><trkpt lat="46.0539843" lon="11.8373289"><ele>880.3333333333334</ele><time>2026-04-26T12:24:02.537Z</time></trkpt><trkpt lat="46.0539133" lon="11.8374001"><ele>879.1666666666667</ele><time>2026-04-26T12:24:03.534Z</time></trkpt><trkpt lat="46.053846" lon="11.8374823"><ele>878.0</ele><time>2026-04-26T12:24:04.537Z</time></trkpt><trkpt lat="46.0537829" lon="11.8375759"><ele>872.4</ele><time>2026-04-26T12:24:05.535Z</time></trkpt><trkpt lat="46.0537327" lon="11.8376902"><ele>866.8</ele><time>2026-04-26T12:24:06.535Z</time></trkpt><trkpt lat="46.0536894" lon="11.8378126"><ele>861.2</ele><time>2026-04-26T12:24:07.538Z</time></trkpt><trkpt lat="46.0536429" lon="11.8379355"><ele>855.6</ele><time>2026-04-26T12:24:08.538Z</time></trkpt><trkpt lat="46.0535867" lon="11.838048"><ele>850.0</ele><time>2026-04-26T12:24:09.536Z</time></trkpt><trkpt lat="46.0535227" lon="11.8381552"><ele>850.0</ele><time>2026-04-26T12:24:10.536Z</time></trkpt><trkpt lat="46.0534523" lon="11.8382556"><ele>850.0</ele><time>2026-04-26T12:24:11.536Z</time></trkpt><trkpt lat="46.0533725" lon="11.8383371"><ele>850.0</ele><time>2026-04-26T12:24:12.534Z</time></trkpt><trkpt lat="46.0532898" lon="11.8384128"><ele>850.0</ele><time>2026-04-26T12:24:13.537Z</time></trkpt><trkpt lat="46.0532032" lon="11.8384834"><ele>850.0</ele><time>2026-04-26T12:24:14.536Z</time></trkpt><trkpt lat="46.0531108" lon="11.8385497"><ele>847.2</ele><time>2026-04-26T12:24:15.536Z</time></trkpt><trkpt lat="46.0530172" lon="11.8386094"><ele>844.4</ele><time>2026-04-26T12:24:16.54Z</time></trkpt><trkpt lat="46.0529239" lon="11.8386766"><ele>841.5999999999999</ele><time>2026-04-26T12:24:17.536Z</time></trkpt><trkpt lat="46.0528297" lon="11.8387383"><ele>838.8</ele><time>2026-04-26T12:24:18.539Z</time></trkpt><trkpt lat="46.0527344" lon="11.838799"><ele>836.0</ele><time>2026-04-26T12:24:19.537Z</time></trkpt><trkpt lat="46.0526379" lon="11.8388642"><ele>836.0</ele><time>2026-04-26T12:24:20.538Z</time></trkpt><trkpt lat="46.0525444" lon="11.8389347"><ele>836.0</ele><time>2026-04-26T12:24:21.536Z</time></trkpt><trkpt lat="46.0524494" lon="11.8389979"><ele>836.0</ele><time>2026-04-26T12:24:22.538Z</time></trkpt><trkpt lat="46.0523538" lon="11.8390622"><ele>836.0</ele><time>2026-04-26T12:24:23.539Z</time></trkpt><trkpt lat="46.052262" lon="11.8391245"><ele>836.0</ele><time>2026-04-26T12:24:24.537Z</time></trkpt><trkpt lat="46.0521782" lon="11.839173"><ele>832.8333333333334</ele><time>2026-04-26T12:24:25.539Z</time></trkpt><trkpt lat="46.0520947" lon="11.8392044"><ele>829.6666666666667</ele><time>2026-04-26T12:24:26.539Z</time></trkpt><trkpt lat="46.0520149" lon="11.839227"><ele>826.5</ele><time>2026-04-26T12:24:27.537Z</time></trkpt><trkpt lat="46.0519041" lon="11.8392432"><ele>823.3333333333333</ele><time>2026-04-26T12:24:29.537Z</time></trkpt><trkpt lat="46.0518248" lon="11.8392806"><ele>820.1666666666666</ele><time>2026-04-26T12:24:31.539Z</time></trkpt><trkpt lat="46.0518153" lon="11.8393899"><ele>817.0</ele><time>2026-04-26T12:24:33.537Z</time></trkpt><trkpt lat="46.051885" lon="11.8394879"><ele>816.9999999999999</ele><time>2026-04-26T12:24:35.539Z</time></trkpt><trkpt lat="46.0520053" lon="11.8394754"><ele>817.0</ele><time>2026-04-26T12:24:37.538Z</time></trkpt><trkpt lat="46.0520808" lon="11.8394554"><ele>817.0</ele><time>2026-04-26T12:24:38.539Z</time></trkpt><trkpt lat="46.0521525" lon="11.8394421"><ele>817.0</ele><time>2026-04-26T12:24:39.539Z</time></trkpt><trkpt lat="46.0522359" lon="11.8394329"><ele>816.9999999999999</ele><time>2026-04-26T12:24:40.537Z</time></trkpt><trkpt lat="46.0523157" lon="11.8394241"><ele>817.0</ele><time>2026-04-26T12:24:41.537Z</time></trkpt><trkpt lat="46.0524013" lon="11.8394153"><ele>815.0</ele><time>2026-04-26T12:24:42.538Z</time></trkpt><trkpt lat="46.0524849" lon="11.839404"><ele>813.0</ele><time>2026-04-26T12:24:43.538Z</time></trkpt><trkpt lat="46.0525748" lon="11.8393844"><ele>811.0</ele><time>2026-04-26T12:24:44.538Z</time></trkpt><trkpt lat="46.0526687" lon="11.8393648"><ele>809.0</ele><time>2026-04-26T12:24:45.537Z</time></trkpt><trkpt lat="46.0527595" lon="11.8393357"><ele>807.0</ele><time>2026-04-26T12:24:46.537Z</time></trkpt><trkpt lat="46.0528574" lon="11.8393113"><ele>810.2</ele><time>2026-04-26T12:24:47.539Z</time></trkpt><trkpt lat="46.0529532" lon="11.8392806"><ele>813.4000000000001</ele><time>2026-04-26T12:24:48.536Z</time></trkpt><trkpt lat="46.0530515" lon="11.8392536"><ele>816.5999999999999</ele><time>2026-04-26T12:24:49.535Z</time></trkpt><trkpt lat="46.0531529" lon="11.8392221"><ele>819.8</ele><time>2026-04-26T12:24:50.539Z</time></trkpt><trkpt lat="46.0532491" lon="11.8391924"><ele>823.0</ele><time>2026-04-26T12:24:51.537Z</time></trkpt><trkpt lat="46.0533419" lon="11.8391669"><ele>822.9999999999999</ele><time>2026-04-26T12:24:52.536Z</time></trkpt><trkpt lat="46.053429" lon="11.8391429"><ele>823.0</ele><time>2026-04-26T12:24:53.537Z</time></trkpt><trkpt lat="46.0535149" lon="11.8391209"><ele>823.0</ele><time>2026-04-26T12:24:54.537Z</time></trkpt><trkpt lat="46.0535952" lon="11.8390989"><ele>823.0</ele><time>2026-04-26T12:24:55.538Z</time></trkpt><trkpt lat="46.0536723" lon="11.8390725"><ele>822.9999999999999</ele><time>2026-04-26T12:24:56.539Z</time></trkpt><trkpt lat="46.0537529" lon="11.8390482"><ele>823.0</ele><time>2026-04-26T12:24:57.536Z</time></trkpt><trkpt lat="46.0538328" lon="11.8390478"><ele>822.9999999999999</ele><time>2026-04-26T12:24:58.537Z</time></trkpt><trkpt lat="46.0539134" lon="11.8390704"><ele>823.0</ele><time>2026-04-26T12:24:59.539Z</time></trkpt><trkpt lat="46.0539832" lon="11.8391249"><ele>823.0</ele><time>2026-04-26T12:25:00.538Z</time></trkpt><trkpt lat="46.0540342" lon="11.8392138"><ele>823.0</ele><time>2026-04-26T12:25:01.539Z</time></trkpt><trkpt lat="46.0540373" lon="11.839356"><ele>822.9999999999999</ele><time>2026-04-26T12:25:02.538Z</time></trkpt><trkpt lat="46.0540268" lon="11.8395022"><ele>823.0</ele><time>2026-04-26T12:25:03.538Z</time></trkpt><trkpt lat="46.0539792" lon="11.8396249"><ele>818.2</ele><time>2026-04-26T12:25:04.537Z</time></trkpt><trkpt lat="46.0538987" lon="11.8397114"><ele>813.4</ele><time>2026-04-26T12:25:05.537Z</time></trkpt><trkpt lat="46.0538048" lon="11.8397848"><ele>808.6</ele><time>2026-04-26T12:25:06.538Z</time></trkpt><trkpt lat="46.0537045" lon="11.8398537"><ele>803.8000000000001</ele><time>2026-04-26T12:25:07.537Z</time></trkpt><trkpt lat="46.0536054" lon="11.8399211"><ele>799.0</ele><time>2026-04-26T12:25:08.539Z</time></trkpt><trkpt lat="46.0535065" lon="11.8399947"><ele>799.0</ele><time>2026-04-26T12:25:09.537Z</time></trkpt><trkpt lat="46.0534052" lon="11.8400658"><ele>799.0</ele><time>2026-04-26T12:25:10.536Z</time></trkpt><trkpt lat="46.0533039" lon="11.8401437"><ele>799.0</ele><time>2026-04-26T12:25:11.538Z</time></trkpt><trkpt lat="46.0531979" lon="11.8402247"><ele>799.0</ele><time>2026-04-26T12:25:12.539Z</time></trkpt><trkpt lat="46.0530906" lon="11.8403065"><ele>796.5</ele><time>2026-04-26T12:25:13.538Z</time></trkpt><trkpt lat="46.052986" lon="11.8403919"><ele>794.0</ele><time>2026-04-26T12:25:14.537Z</time></trkpt><trkpt lat="46.0528834" lon="11.8404792"><ele>791.5</ele><time>2026-04-26T12:25:15.537Z</time></trkpt><trkpt lat="46.0527803" lon="11.8405652"><ele>789.0</ele><time>2026-04-26T12:25:16.539Z</time></trkpt><trkpt lat="46.0526748" lon="11.8406497"><ele>789.0</ele><time>2026-04-26T12:25:17.538Z</time></trkpt><trkpt lat="46.0525724" lon="11.840736"><ele>789.0</ele><time>2026-04-26T12:25:18.539Z</time></trkpt><trkpt lat="46.0524722" lon="11.8408325"><ele>789.0</ele><time>2026-04-26T12:25:19.537Z</time></trkpt><trkpt lat="46.0523683" lon="11.8409259"><ele>789.0</ele><time>2026-04-26T12:25:20.539Z</time></trkpt><trkpt lat="46.0522663" lon="11.8410152"><ele>787.75</ele><time>2026-04-26T12:25:21.536Z</time></trkpt><trkpt lat="46.052166" lon="11.8411129"><ele>786.5</ele><time>2026-04-26T12:25:22.539Z</time></trkpt><trkpt lat="46.0520661" lon="11.841208"><ele>785.25</ele><time>2026-04-26T12:25:23.537Z</time></trkpt><trkpt lat="46.0519722" lon="11.841305"><ele>784.0</ele><time>2026-04-26T12:25:24.538Z</time></trkpt><trkpt lat="46.0518749" lon="11.8413979"><ele>784.0</ele><time>2026-04-26T12:25:25.538Z</time></trkpt><trkpt lat="46.0517759" lon="11.8414915"><ele>784.0</ele><time>2026-04-26T12:25:26.538Z</time></trkpt><trkpt lat="46.0516782" lon="11.8415797"><ele>784.0</ele><time>2026-04-26T12:25:27.538Z</time></trkpt><trkpt lat="46.0515846" lon="11.8416733"><ele>784.0</ele><time>2026-04-26T12:25:28.537Z</time></trkpt><trkpt lat="46.0514858" lon="11.84176"><ele>785.2</ele><time>2026-04-26T12:25:29.536Z</time></trkpt><trkpt lat="46.0513938" lon="11.8418486"><ele>786.4000000000001</ele><time>2026-04-26T12:25:30.537Z</time></trkpt><trkpt lat="46.0513065" lon="11.8419381"><ele>787.6</ele><time>2026-04-26T12:25:31.539Z</time></trkpt><trkpt lat="46.0512248" lon="11.8420342"><ele>788.8</ele><time>2026-04-26T12:25:32.539Z</time></trkpt><trkpt lat="46.0511501" lon="11.8421421"><ele>790.0</ele><time>2026-04-26T12:25:33.539Z</time></trkpt><trkpt lat="46.0510804" lon="11.842259"><ele>790.0</ele><time>2026-04-26T12:25:34.538Z</time></trkpt><trkpt lat="46.0510147" lon="11.8423782"><ele>790.0</ele><time>2026-04-26T12:25:35.539Z</time></trkpt><trkpt lat="46.0509535" lon="11.8425085"><ele>790.0</ele><time>2026-04-26T12:25:36.537Z</time></trkpt><trkpt lat="46.0509018" lon="11.8426512"><ele>790.0</ele><time>2026-04-26T12:25:37.538Z</time></trkpt><trkpt lat="46.0508586" lon="11.8428062"><ele>790.0</ele><time>2026-04-26T12:25:38.539Z</time></trkpt><trkpt lat="46.0508247" lon="11.8429738"><ele>789.5</ele><time>2026-04-26T12:25:39.537Z</time></trkpt><trkpt lat="46.0507999" lon="11.8431519"><ele>789.0</ele><time>2026-04-26T12:25:40.539Z</time></trkpt><trkpt lat="46.0507749" lon="11.8433353"><ele>788.5</ele><time>2026-04-26T12:25:41.537Z</time></trkpt><trkpt lat="46.0507505" lon="11.8435188"><ele>788.0</ele><time>2026-04-26T12:25:42.539Z</time></trkpt><trkpt lat="46.0507309" lon="11.8437035"><ele>788.0</ele><time>2026-04-26T12:25:43.539Z</time></trkpt><trkpt lat="46.0507045" lon="11.8438928"><ele>788.0</ele><time>2026-04-26T12:25:44.539Z</time></trkpt><trkpt lat="46.0506728" lon="11.844081"><ele>788.0</ele><time>2026-04-26T12:25:45.538Z</time></trkpt><trkpt lat="46.0506442" lon="11.8442731"><ele>788.0</ele><time>2026-04-26T12:25:46.538Z</time></trkpt><trkpt lat="46.0506149" lon="11.8444632"><ele>785.25</ele><time>2026-04-26T12:25:47.537Z</time></trkpt><trkpt lat="46.0505918" lon="11.8446604"><ele>782.5</ele><time>2026-04-26T12:25:48.533Z</time></trkpt><trkpt lat="46.0505708" lon="11.8448647"><ele>779.75</ele><time>2026-04-26T12:25:49.538Z</time></trkpt><trkpt lat="46.0505534" lon="11.8450652"><ele>777.0</ele><time>2026-04-26T12:25:50.536Z</time></trkpt><trkpt lat="46.0505331" lon="11.8452732"><ele>775.25</ele><time>2026-04-26T12:25:51.537Z</time></trkpt><trkpt lat="46.0505027" lon="11.8454787"><ele>773.5</ele><time>2026-04-26T12:25:52.539Z</time></trkpt><trkpt lat="46.050487" lon="11.8456835"><ele>771.75</ele><time>2026-04-26T12:25:53.538Z</time></trkpt><trkpt lat="46.050476" lon="11.8458998"><ele>770.0</ele><time>2026-04-26T12:25:54.536Z</time></trkpt><trkpt lat="46.0504809" lon="11.8461193"><ele>768.0</ele><time>2026-04-26T12:25:55.537Z</time></trkpt><trkpt lat="46.0504863" lon="11.8463337"><ele>766.0</ele><time>2026-04-26T12:25:56.539Z</time></trkpt><trkpt lat="46.0504914" lon="11.8465561"><ele>764.0</ele><time>2026-04-26T12:25:57.537Z</time></trkpt><trkpt lat="46.0504874" lon="11.8467707"><ele>762.25</ele><time>2026-04-26T12:25:58.538Z</time></trkpt><trkpt lat="46.0504851" lon="11.8469798"><ele>760.5</ele><time>2026-04-26T12:25:59.538Z</time></trkpt><trkpt lat="46.0504806" lon="11.8471867"><ele>758.75</ele><time>2026-04-26T12:26:00.537Z</time></trkpt><trkpt lat="46.0504759" lon="11.8473917"><ele>757.0</ele><time>2026-04-26T12:26:01.539Z</time></trkpt><trkpt lat="46.0504622" lon="11.8475954"><ele>756.25</ele><time>2026-04-26T12:26:02.539Z</time></trkpt><trkpt lat="46.0504511" lon="11.8477919"><ele>755.5</ele><time>2026-04-26T12:26:03.538Z</time></trkpt><trkpt lat="46.0504334" lon="11.8479696"><ele>754.75</ele><time>2026-04-26T12:26:04.539Z</time></trkpt><trkpt lat="46.0504091" lon="11.8481278"><ele>754.0</ele><time>2026-04-26T12:26:05.539Z</time></trkpt><trkpt lat="46.0503719" lon="11.8482753"><ele>754.0</ele><time>2026-04-26T12:26:06.534Z</time></trkpt><trkpt lat="46.0503297" lon="11.8484207"><ele>754.0</ele><time>2026-04-26T12:26:07.538Z</time></trkpt><trkpt lat="46.0502862" lon="11.8485636"><ele>754.0</ele><time>2026-04-26T12:26:08.539Z</time></trkpt><trkpt lat="46.0502479" lon="11.8486984"><ele>754.0</ele><time>2026-04-26T12:26:09.538Z</time></trkpt><trkpt lat="46.0502019" lon="11.8488242"><ele>754.0</ele><time>2026-04-26T12:26:10.539Z</time></trkpt><trkpt lat="46.0501404" lon="11.8489367"><ele>751.0</ele><time>2026-04-26T12:26:11.535Z</time></trkpt><trkpt lat="46.0500586" lon="11.849036"><ele>748.0</ele><time>2026-04-26T12:26:12.536Z</time></trkpt><trkpt lat="46.0499713" lon="11.8491177"><ele>745.0</ele><time>2026-04-26T12:26:13.539Z</time></trkpt><trkpt lat="46.049883" lon="11.8491849"><ele>742.0</ele><time>2026-04-26T12:26:14.539Z</time></trkpt><trkpt lat="46.0497929" lon="11.8492355"><ele>739.0</ele><time>2026-04-26T12:26:15.539Z</time></trkpt><trkpt lat="46.0497087" lon="11.8492705"><ele>744.0</ele><time>2026-04-26T12:26:16.534Z</time></trkpt><trkpt lat="46.04962" lon="11.849313"><ele>749.0</ele><time>2026-04-26T12:26:17.539Z</time></trkpt><trkpt lat="46.0495313" lon="11.8493688"><ele>754.0</ele><time>2026-04-26T12:26:18.537Z</time></trkpt><trkpt lat="46.0494862" lon="11.8494622"><ele>759.0</ele><time>2026-04-26T12:26:19.538Z</time></trkpt><trkpt lat="46.0495172" lon="11.8495966"><ele>763.9999999999999</ele><time>2026-04-26T12:26:20.536Z</time></trkpt><trkpt lat="46.0495334" lon="11.8497086"><ele>769.0</ele><time>2026-04-26T12:26:21.537Z</time></trkpt><trkpt lat="46.0495391" lon="11.8498156"><ele>768.9999999999999</ele><time>2026-04-26T12:26:22.538Z</time></trkpt><trkpt lat="46.0495688" lon="11.8499194"><ele>769.0</ele><time>2026-04-26T12:26:23.539Z</time></trkpt><trkpt lat="46.0495998" lon="11.8500209"><ele>769.0</ele><time>2026-04-26T12:26:24.539Z</time></trkpt><trkpt lat="46.0496242" lon="11.850125"><ele>769.0</ele><time>2026-04-26T12:26:25.538Z</time></trkpt><trkpt lat="46.0496496" lon="11.8502235"><ele>768.9999999999999</ele><time>2026-04-26T12:26:26.535Z</time></trkpt><trkpt lat="46.0496786" lon="11.8503233"><ele>769.0</ele><time>2026-04-26T12:26:27.536Z</time></trkpt><trkpt lat="46.0497049" lon="11.8504304"><ele>767.9999999999999</ele><time>2026-04-26T12:26:28.538Z</time></trkpt><trkpt lat="46.0497334" lon="11.8505355"><ele>767.0</ele><time>2026-04-26T12:26:29.538Z</time></trkpt><trkpt lat="46.049783" lon="11.8506333"><ele>766.0</ele><time>2026-04-26T12:26:30.536Z</time></trkpt><trkpt lat="46.0498194" lon="11.8507363"><ele>765.0</ele><time>2026-04-26T12:26:31.539Z</time></trkpt><trkpt lat="46.0498507" lon="11.8508425"><ele>764.0</ele><time>2026-04-26T12:26:32.539Z</time></trkpt><trkpt lat="46.0498737" lon="11.8509595"><ele>763.0</ele><time>2026-04-26T12:26:33.537Z</time></trkpt><trkpt lat="46.0498904" lon="11.85108"><ele>760.4</ele><time>2026-04-26T12:26:34.539Z</time></trkpt><trkpt lat="46.0498952" lon="11.8512053"><ele>757.8</ele><time>2026-04-26T12:26:35.539Z</time></trkpt><trkpt lat="46.0498866" lon="11.8513373"><ele>755.2</ele><time>2026-04-26T12:26:36.538Z</time></trkpt><trkpt lat="46.0498678" lon="11.8514679"><ele>752.6</ele><time>2026-04-26T12:26:37.536Z</time></trkpt><trkpt lat="46.0498373" lon="11.8516"><ele>750.0</ele><time>2026-04-26T12:26:38.539Z</time></trkpt><trkpt lat="46.0498043" lon="11.85173"><ele>747.4</ele><time>2026-04-26T12:26:39.539Z</time></trkpt><trkpt lat="46.0497646" lon="11.8518652"><ele>744.8</ele><time>2026-04-26T12:26:40.538Z</time></trkpt><trkpt lat="46.0497235" lon="11.8519997"><ele>742.2</ele><time>2026-04-26T12:26:41.537Z</time></trkpt><trkpt lat="46.0496792" lon="11.8521349"><ele>739.6</ele><time>2026-04-26T12:26:42.539Z</time></trkpt><trkpt lat="46.0496289" lon="11.8522683"><ele>737.0</ele><time>2026-04-26T12:26:43.539Z</time></trkpt><trkpt lat="46.0495734" lon="11.852395"><ele>737.0</ele><time>2026-04-26T12:26:44.539Z</time></trkpt><trkpt lat="46.0495129" lon="11.8525198"><ele>737.0</ele><time>2026-04-26T12:26:45.538Z</time></trkpt><trkpt lat="46.0494509" lon="11.8526457"><ele>737.0</ele><time>2026-04-26T12:26:46.534Z</time></trkpt><trkpt lat="46.0493861" lon="11.8527706"><ele>737.0</ele><time>2026-04-26T12:26:47.534Z</time></trkpt><trkpt lat="46.0493191" lon="11.8528983"><ele>737.0</ele><time>2026-04-26T12:26:48.537Z</time></trkpt><trkpt lat="46.0492682" lon="11.8530316"><ele>740.0</ele><time>2026-04-26T12:26:49.539Z</time></trkpt><trkpt lat="46.0492109" lon="11.853166"><ele>743.0</ele><time>2026-04-26T12:26:50.539Z</time></trkpt><trkpt lat="46.0491757" lon="11.8533134"><ele>746.0</ele><time>2026-04-26T12:26:51.539Z</time></trkpt><trkpt lat="46.0491418" lon="11.8534668"><ele>749.0</ele><time>2026-04-26T12:26:52.537Z</time></trkpt><trkpt lat="46.0491336" lon="11.8536363"><ele>752.0</ele><time>2026-04-26T12:26:53.539Z</time></trkpt><trkpt lat="46.0491155" lon="11.8538052"><ele>752.0</ele><time>2026-04-26T12:26:54.538Z</time></trkpt><trkpt lat="46.0490911" lon="11.8539736"><ele>752.0</ele><time>2026-04-26T12:26:55.538Z</time></trkpt><trkpt lat="46.049059" lon="11.854148"><ele>752.0</ele><time>2026-04-26T12:26:56.539Z</time></trkpt><trkpt lat="46.0490157" lon="11.8543173"><ele>752.0</ele><time>2026-04-26T12:26:57.538Z</time></trkpt><trkpt lat="46.048964" lon="11.8544815"><ele>746.75</ele><time>2026-04-26T12:26:58.539Z</time></trkpt><trkpt lat="46.0489118" lon="11.854649"><ele>741.5</ele><time>2026-04-26T12:26:59.537Z</time></trkpt><trkpt lat="46.0488565" lon="11.8548205"><ele>736.25</ele><time>2026-04-26T12:27:00.539Z</time></trkpt><trkpt lat="46.0487948" lon="11.8549899"><ele>731.0</ele><time>2026-04-26T12:27:01.539Z</time></trkpt><trkpt lat="46.0487453" lon="11.8551635"><ele>725.25</ele><time>2026-04-26T12:27:02.538Z</time></trkpt><trkpt lat="46.0486893" lon="11.8553308"><ele>719.5</ele><time>2026-04-26T12:27:03.537Z</time></trkpt><trkpt lat="46.0486287" lon="11.8554931"><ele>713.75</ele><time>2026-04-26T12:27:04.537Z</time></trkpt><trkpt lat="46.0485657" lon="11.8556589"><ele>708.0</ele><time>2026-04-26T12:27:05.537Z</time></trkpt><trkpt lat="46.0485011" lon="11.8558239"><ele>703.0</ele><time>2026-04-26T12:27:06.539Z</time></trkpt><trkpt lat="46.0484354" lon="11.8559831"><ele>698.0</ele><time>2026-04-26T12:27:07.539Z</time></trkpt><trkpt lat="46.0483761" lon="11.8561327"><ele>693.0</ele><time>2026-04-26T12:27:08.539Z</time></trkpt><trkpt lat="46.0483143" lon="11.8562726"><ele>688.0</ele><time>2026-04-26T12:27:09.539Z</time></trkpt><trkpt lat="46.0482504" lon="11.8564109"><ele>690.75</ele><time>2026-04-26T12:27:10.536Z</time></trkpt><trkpt lat="46.048186" lon="11.8565511"><ele>693.5</ele><time>2026-04-26T12:27:11.539Z</time></trkpt><trkpt lat="46.0481208" lon="11.856688"><ele>696.25</ele><time>2026-04-26T12:27:12.538Z</time></trkpt><trkpt lat="46.0480589" lon="11.8568211"><ele>699.0</ele><time>2026-04-26T12:27:13.537Z</time></trkpt><trkpt lat="46.0480011" lon="11.8569566"><ele>699.0</ele><time>2026-04-26T12:27:14.54Z</time></trkpt><trkpt lat="46.0479393" lon="11.8570914"><ele>699.0</ele><time>2026-04-26T12:27:15.539Z</time></trkpt><trkpt lat="46.0478794" lon="11.8572241"><ele>699.0</ele><time>2026-04-26T12:27:16.539Z</time></trkpt><trkpt lat="46.0478185" lon="11.857354"><ele>699.0</ele><time>2026-04-26T12:27:17.54Z</time></trkpt><trkpt lat="46.0477542" lon="11.8574739"><ele>699.0</ele><time>2026-04-26T12:27:18.539Z</time></trkpt><trkpt lat="46.0476842" lon="11.8575781"><ele>701.0</ele><time>2026-04-26T12:27:19.539Z</time></trkpt><trkpt lat="46.0476112" lon="11.8576736"><ele>703.0</ele><time>2026-04-26T12:27:20.539Z</time></trkpt><trkpt lat="46.0475425" lon="11.8577514"><ele>705.0</ele><time>2026-04-26T12:27:21.538Z</time></trkpt><trkpt lat="46.0474816" lon="11.8578205"><ele>707.0</ele><time>2026-04-26T12:27:22.536Z</time></trkpt><trkpt lat="46.0473857" lon="11.8579235"><ele>709.0</ele><time>2026-04-26T12:27:24.536Z</time></trkpt><trkpt lat="46.0473468" lon="11.8580374"><ele>709.0</ele><time>2026-04-26T12:27:26.538Z</time></trkpt><trkpt lat="46.047435" lon="11.8580498"><ele>709.0</ele><time>2026-04-26T12:27:28.537Z</time></trkpt><trkpt lat="46.0475469" lon="11.8579764"><ele>709.0</ele><time>2026-04-26T12:27:30.538Z</time></trkpt><trkpt lat="46.0475932" lon="11.8579135"><ele>709.0</ele><time>2026-04-26T12:27:31.539Z</time></trkpt><trkpt lat="46.04765" lon="11.8578486"><ele>709.0</ele><time>2026-04-26T12:27:32.538Z</time></trkpt><trkpt lat="46.0477057" lon="11.857786"><ele>709.0</ele><time>2026-04-26T12:27:33.539Z</time></trkpt><trkpt lat="46.0477573" lon="11.8577214"><ele>707.3333333333334</ele><time>2026-04-26T12:27:34.537Z</time></trkpt><trkpt lat="46.0478149" lon="11.8576493"><ele>705.6666666666667</ele><time>2026-04-26T12:27:35.538Z</time></trkpt><trkpt lat="46.0478741" lon="11.8575731"><ele>704.0</ele><time>2026-04-26T12:27:36.538Z</time></trkpt><trkpt lat="46.0479342" lon="11.8574942"><ele>702.3333333333334</ele><time>2026-04-26T12:27:37.538Z</time></trkpt><trkpt lat="46.0480051" lon="11.8574211"><ele>700.6666666666666</ele><time>2026-04-26T12:27:38.54Z</time></trkpt><trkpt lat="46.0480774" lon="11.8573457"><ele>699.0</ele><time>2026-04-26T12:27:39.538Z</time></trkpt><trkpt lat="46.0481524" lon="11.8572666"><ele>699.0</ele><time>2026-04-26T12:27:40.539Z</time></trkpt><trkpt lat="46.0482302" lon="11.8571835"><ele>699.0</ele><time>2026-04-26T12:27:41.538Z</time></trkpt><trkpt lat="46.0483074" lon="11.8570946"><ele>699.0</ele><time>2026-04-26T12:27:42.539Z</time></trkpt><trkpt lat="46.0483823" lon="11.8570094"><ele>699.0</ele><time>2026-04-26T12:27:43.539Z</time></trkpt><trkpt lat="46.0484659" lon="11.8569283"><ele>699.0</ele><time>2026-04-26T12:27:44.54Z</time></trkpt><trkpt lat="46.0485478" lon="11.8568494"><ele>696.8000000000001</ele><time>2026-04-26T12:27:45.537Z</time></trkpt><trkpt lat="46.0486336" lon="11.8567712"><ele>694.6</ele><time>2026-04-26T12:27:46.539Z</time></trkpt><trkpt lat="46.0487165" lon="11.8566942"><ele>692.4</ele><time>2026-04-26T12:27:47.538Z</time></trkpt><trkpt lat="46.0487968" lon="11.8566117"><ele>690.2</ele><time>2026-04-26T12:27:48.536Z</time></trkpt><trkpt lat="46.0488808" lon="11.8565335"><ele>688.0</ele><time>2026-04-26T12:27:49.539Z</time></trkpt><trkpt lat="46.0489686" lon="11.8564602"><ele>688.0</ele><time>2026-04-26T12:27:50.538Z</time></trkpt><trkpt lat="46.0490579" lon="11.8563809"><ele>688.0</ele><time>2026-04-26T12:27:51.539Z</time></trkpt><trkpt lat="46.0491442" lon="11.856296"><ele>688.0</ele><time>2026-04-26T12:27:52.537Z</time></trkpt><trkpt lat="46.049229" lon="11.8562183"><ele>688.0</ele><time>2026-04-26T12:27:53.538Z</time></trkpt><trkpt lat="46.0493104" lon="11.8561517"><ele>688.0</ele><time>2026-04-26T12:27:54.538Z</time></trkpt><trkpt lat="46.0493854" lon="11.8560815"><ele>685.0</ele><time>2026-04-26T12:27:55.539Z</time></trkpt><trkpt lat="46.0494641" lon="11.8560089"><ele>682.0</ele><time>2026-04-26T12:27:56.538Z</time></trkpt><trkpt lat="46.0495379" lon="11.8559349"><ele>679.0</ele><time>2026-04-26T12:27:57.536Z</time></trkpt><trkpt lat="46.0496077" lon="11.8558619"><ele>676.0</ele><time>2026-04-26T12:27:58.537Z</time></trkpt><trkpt lat="46.0496645" lon="11.8557869"><ele>673.0</ele><time>2026-04-26T12:27:59.539Z</time></trkpt><trkpt lat="46.0497153" lon="11.8557191"><ele>670.0</ele><time>2026-04-26T12:28:00.537Z</time></trkpt><trkpt lat="46.049807" lon="11.8556324"><ele>670.0</ele><time>2026-04-26T12:28:02.538Z</time></trkpt><trkpt lat="46.0498715" lon="11.8556412"><ele>670.0</ele><time>2026-04-26T12:28:04.537Z</time></trkpt><trkpt lat="46.0498561" lon="11.8557834"><ele>670.0</ele><time>2026-04-26T12:28:06.537Z</time></trkpt><trkpt lat="46.049813" lon="11.8558713"><ele>670.0</ele><time>2026-04-26T12:28:07.538Z</time></trkpt><trkpt lat="46.0497517" lon="11.8559578"><ele>670.0</ele><time>2026-04-26T12:28:08.539Z</time></trkpt><trkpt lat="46.0496922" lon="11.8560559"><ele>670.0</ele><time>2026-04-26T12:28:09.537Z</time></trkpt><trkpt lat="46.049631" lon="11.8561632"><ele>666.8</ele><time>2026-04-26T12:28:10.539Z</time></trkpt><trkpt lat="46.0495721" lon="11.8562737"><ele>663.6</ele><time>2026-04-26T12:28:11.538Z</time></trkpt><trkpt lat="46.0495179" lon="11.8563876"><ele>660.4000000000001</ele><time>2026-04-26T12:28:12.539Z</time></trkpt><trkpt lat="46.0494618" lon="11.8564979"><ele>657.2</ele><time>2026-04-26T12:28:13.539Z</time></trkpt><trkpt lat="46.0494067" lon="11.8566103"><ele>654.0</ele><time>2026-04-26T12:28:14.539Z</time></trkpt><trkpt lat="46.049352" lon="11.8567167"><ele>656.2</ele><time>2026-04-26T12:28:15.538Z</time></trkpt><trkpt lat="46.0493002" lon="11.8568246"><ele>658.4000000000001</ele><time>2026-04-26T12:28:16.537Z</time></trkpt><trkpt lat="46.0492488" lon="11.8569321"><ele>660.6</ele><time>2026-04-26T12:28:17.539Z</time></trkpt><trkpt lat="46.0491953" lon="11.8570392"><ele>662.8</ele><time>2026-04-26T12:28:18.539Z</time></trkpt><trkpt lat="46.0491341" lon="11.8571469"><ele>665.0</ele><time>2026-04-26T12:28:19.538Z</time></trkpt><trkpt lat="46.0490731" lon="11.8572625"><ele>665.0</ele><time>2026-04-26T12:28:20.539Z</time></trkpt><trkpt lat="46.0490151" lon="11.8573853"><ele>665.0</ele><time>2026-04-26T12:28:21.539Z</time></trkpt><trkpt lat="46.0489505" lon="11.8575012"><ele>665.0</ele><time>2026-04-26T12:28:22.538Z</time></trkpt><trkpt lat="46.0488901" lon="11.8576239"><ele>665.0</ele><time>2026-04-26T12:28:23.537Z</time></trkpt><trkpt lat="46.048828" lon="11.8577446"><ele>665.0</ele><time>2026-04-26T12:28:24.538Z</time></trkpt><trkpt lat="46.0487732" lon="11.8578775"><ele>659.25</ele><time>2026-04-26T12:28:25.539Z</time></trkpt><trkpt lat="46.0487101" lon="11.858009"><ele>653.5</ele><time>2026-04-26T12:28:26.539Z</time></trkpt><trkpt lat="46.048644" lon="11.8581427"><ele>647.75</ele><time>2026-04-26T12:28:27.536Z</time></trkpt><trkpt lat="46.0485816" lon="11.8582871"><ele>642.0</ele><time>2026-04-26T12:28:28.536Z</time></trkpt><trkpt lat="46.0485178" lon="11.8584346"><ele>643.5</ele><time>2026-04-26T12:28:29.539Z</time></trkpt><trkpt lat="46.0484562" lon="11.858588"><ele>645.0</ele><time>2026-04-26T12:28:30.538Z</time></trkpt><trkpt lat="46.0483993" lon="11.8587402"><ele>646.5</ele><time>2026-04-26T12:28:31.538Z</time></trkpt><trkpt lat="46.0483442" lon="11.8588876"><ele>648.0</ele><time>2026-04-26T12:28:32.538Z</time></trkpt><trkpt lat="46.0482874" lon="11.859037"><ele>648.0</ele><time>2026-04-26T12:28:33.538Z</time></trkpt><trkpt lat="46.0482275" lon="11.8591791"><ele>648.0</ele><time>2026-04-26T12:28:34.539Z</time></trkpt><trkpt lat="46.0481744" lon="11.8593249"><ele>648.0</ele><time>2026-04-26T12:28:35.539Z</time></trkpt><trkpt lat="46.0481196" lon="11.8594677"><ele>648.0</ele><time>2026-04-26T12:28:36.539Z</time></trkpt><trkpt lat="46.0480519" lon="11.8596051"><ele>641.5</ele><time>2026-04-26T12:28:37.538Z</time></trkpt><trkpt lat="46.0479685" lon="11.8597301"><ele>635.0</ele><time>2026-04-26T12:28:38.539Z</time></trkpt><trkpt lat="46.047871" lon="11.8598307"><ele>628.5</ele><time>2026-04-26T12:28:39.537Z</time></trkpt><trkpt lat="46.047771" lon="11.8599243"><ele>622.0</ele><time>2026-04-26T12:28:40.538Z</time></trkpt><trkpt lat="46.0476686" lon="11.8600191"><ele>624.0</ele><time>2026-04-26T12:28:41.539Z</time></trkpt><trkpt lat="46.0475689" lon="11.860121"><ele>626.0</ele><time>2026-04-26T12:28:42.539Z</time></trkpt><trkpt lat="46.0474741" lon="11.8602247"><ele>628.0</ele><time>2026-04-26T12:28:43.538Z</time></trkpt><trkpt lat="46.0473791" lon="11.8603275"><ele>630.0</ele><time>2026-04-26T12:28:44.538Z</time></trkpt><trkpt lat="46.0472879" lon="11.8604284"><ele>630.0</ele><time>2026-04-26T12:28:45.539Z</time></trkpt><trkpt lat="46.0472082" lon="11.8605371"><ele>630.0</ele><time>2026-04-26T12:28:46.537Z</time></trkpt><trkpt lat="46.0471388" lon="11.8606629"><ele>630.0</ele><time>2026-04-26T12:28:47.539Z</time></trkpt><trkpt lat="46.0470924" lon="11.8608095"><ele>630.0</ele><time>2026-04-26T12:28:48.537Z</time></trkpt><trkpt lat="46.0470552" lon="11.860962"><ele>630.0</ele><time>2026-04-26T12:28:49.537Z</time></trkpt><trkpt lat="46.0470069" lon="11.861107"><ele>631.8</ele><time>2026-04-26T12:28:50.539Z</time></trkpt><trkpt lat="46.0469457" lon="11.861232"><ele>633.6</ele><time>2026-04-26T12:28:51.539Z</time></trkpt><trkpt lat="46.0468699" lon="11.8613447"><ele>635.4</ele><time>2026-04-26T12:28:52.536Z</time></trkpt><trkpt lat="46.0467908" lon="11.8614539"><ele>637.2</ele><time>2026-04-26T12:28:53.536Z</time></trkpt><trkpt lat="46.0467113" lon="11.8615601"><ele>639.0</ele><time>2026-04-26T12:28:54.539Z</time></trkpt><trkpt lat="46.0466269" lon="11.8616789"><ele>631.25</ele><time>2026-04-26T12:28:55.539Z</time></trkpt><trkpt lat="46.0465351" lon="11.8617912"><ele>623.5</ele><time>2026-04-26T12:28:56.538Z</time></trkpt><trkpt lat="46.0464495" lon="11.8619031"><ele>615.75</ele><time>2026-04-26T12:28:57.538Z</time></trkpt><trkpt lat="46.0463648" lon="11.862016"><ele>608.0</ele><time>2026-04-26T12:28:58.539Z</time></trkpt><trkpt lat="46.0462778" lon="11.862124"><ele>608.0</ele><time>2026-04-26T12:28:59.539Z</time></trkpt><trkpt lat="46.0461925" lon="11.8622352"><ele>608.0</ele><time>2026-04-26T12:29:00.538Z</time></trkpt><trkpt lat="46.0461038" lon="11.8623462"><ele>608.0</ele><time>2026-04-26T12:29:01.538Z</time></trkpt><trkpt lat="46.0460145" lon="11.8624536"><ele>608.0</ele><time>2026-04-26T12:29:02.539Z</time></trkpt><trkpt lat="46.0459271" lon="11.8625627"><ele>608.6</ele><time>2026-04-26T12:29:03.538Z</time></trkpt><trkpt lat="46.0458523" lon="11.8626798"><ele>609.1999999999999</ele><time>2026-04-26T12:29:04.539Z</time></trkpt><trkpt lat="46.0457774" lon="11.8627967"><ele>609.8</ele><time>2026-04-26T12:29:05.538Z</time></trkpt><trkpt lat="46.0456977" lon="11.8629039"><ele>610.4</ele><time>2026-04-26T12:29:06.538Z</time></trkpt><trkpt lat="46.0456188" lon="11.8630148"><ele>611.0</ele><time>2026-04-26T12:29:07.539Z</time></trkpt><trkpt lat="46.045539" lon="11.863128"><ele>611.0</ele><time>2026-04-26T12:29:08.539Z</time></trkpt><trkpt lat="46.0454692" lon="11.8632454"><ele>611.0</ele><time>2026-04-26T12:29:09.538Z</time></trkpt><trkpt lat="46.0453848" lon="11.8633428"><ele>611.0</ele><time>2026-04-26T12:29:10.539Z</time></trkpt><trkpt lat="46.0453017" lon="11.8634568"><ele>611.0</ele><time>2026-04-26T12:29:11.538Z</time></trkpt><trkpt lat="46.0452208" lon="11.8635737"><ele>611.0</ele><time>2026-04-26T12:29:12.537Z</time></trkpt><trkpt lat="46.0451403" lon="11.8636876"><ele>609.75</ele><time>2026-04-26T12:29:13.539Z</time></trkpt><trkpt lat="46.0450583" lon="11.8637942"><ele>608.5</ele><time>2026-04-26T12:29:14.54Z</time></trkpt><trkpt lat="46.0449779" lon="11.8639032"><ele>607.25</ele><time>2026-04-26T12:29:15.539Z</time></trkpt><trkpt lat="46.0448994" lon="11.864023"><ele>606.0</ele><time>2026-04-26T12:29:16.539Z</time></trkpt><trkpt lat="46.0448176" lon="11.8641475"><ele>606.0</ele><time>2026-04-26T12:29:17.539Z</time></trkpt><trkpt lat="46.0447327" lon="11.8642663"><ele>606.0</ele><time>2026-04-26T12:29:18.54Z</time></trkpt><trkpt lat="46.0446451" lon="11.8643753"><ele>606.0</ele><time>2026-04-26T12:29:19.537Z</time></trkpt><trkpt lat="46.0445569" lon="11.8644828"><ele>606.0</ele><time>2026-04-26T12:29:20.539Z</time></trkpt><trkpt lat="46.0444616" lon="11.864593"><ele>602.75</ele><time>2026-04-26T12:29:21.539Z</time></trkpt><trkpt lat="46.0443693" lon="11.864699"><ele>599.5</ele><time>2026-04-26T12:29:22.538Z</time></trkpt><trkpt lat="46.0442867" lon="11.8648128"><ele>596.25</ele><time>2026-04-26T12:29:23.538Z</time></trkpt><trkpt lat="46.0442082" lon="11.8649226"><ele>593.0</ele><time>2026-04-26T12:29:24.536Z</time></trkpt><trkpt lat="46.0441255" lon="11.8650226"><ele>584.0</ele><time>2026-04-26T12:29:25.539Z</time></trkpt><trkpt lat="46.0440341" lon="11.8651156"><ele>575.0</ele><time>2026-04-26T12:29:26.539Z</time></trkpt><trkpt lat="46.0439369" lon="11.8652007"><ele>566.0</ele><time>2026-04-26T12:29:27.539Z</time></trkpt><trkpt lat="46.0438311" lon="11.8652713"><ele>557.0</ele><time>2026-04-26T12:29:28.538Z</time></trkpt><trkpt lat="46.0437229" lon="11.8653398"><ele>557.0</ele><time>2026-04-26T12:29:29.539Z</time></trkpt><trkpt lat="46.0436121" lon="11.8654051"><ele>557.0</ele><time>2026-04-26T12:29:30.539Z</time></trkpt><trkpt lat="46.0434976" lon="11.8654648"><ele>557.0</ele><time>2026-04-26T12:29:31.537Z</time></trkpt><trkpt lat="46.043377" lon="11.8655139"><ele>557.0</ele><time>2026-04-26T12:29:32.539Z</time></trkpt><trkpt lat="46.0432607" lon="11.8655646"><ele>555.8000000000001</ele><time>2026-04-26T12:29:33.537Z</time></trkpt><trkpt lat="46.0431529" lon="11.8656207"><ele>554.6</ele><time>2026-04-26T12:29:34.538Z</time></trkpt><trkpt lat="46.0430439" lon="11.8656655"><ele>553.4000000000001</ele><time>2026-04-26T12:29:35.538Z</time></trkpt><trkpt lat="46.0429363" lon="11.8656955"><ele>552.2</ele><time>2026-04-26T12:29:36.539Z</time></trkpt><trkpt lat="46.0428339" lon="11.8657093"><ele>551.0</ele><time>2026-04-26T12:29:37.539Z</time></trkpt><trkpt lat="46.0427338" lon="11.8657116"><ele>551.0</ele><time>2026-04-26T12:29:38.539Z</time></trkpt><trkpt lat="46.042633" lon="11.8656945"><ele>551.0</ele><time>2026-04-26T12:29:39.538Z</time></trkpt><trkpt lat="46.0425324" lon="11.8656496"><ele>551.0</ele><time>2026-04-26T12:29:40.538Z</time></trkpt><trkpt lat="46.0424329" lon="11.86559"><ele>551.0</ele><time>2026-04-26T12:29:41.537Z</time></trkpt><trkpt lat="46.0423294" lon="11.8655165"><ele>551.0</ele><time>2026-04-26T12:29:42.539Z</time></trkpt><trkpt lat="46.0422297" lon="11.8654478"><ele>547.8</ele><time>2026-04-26T12:29:43.539Z</time></trkpt><trkpt lat="46.042129" lon="11.8653831"><ele>544.6</ele><time>2026-04-26T12:29:44.539Z</time></trkpt><trkpt lat="46.04203" lon="11.8653133"><ele>541.4</ele><time>2026-04-26T12:29:45.539Z</time></trkpt><trkpt lat="46.041934" lon="11.8652548"><ele>538.2</ele><time>2026-04-26T12:29:46.536Z</time></trkpt><trkpt lat="46.0418318" lon="11.8652183"><ele>535.0</ele><time>2026-04-26T12:29:47.538Z</time></trkpt><trkpt lat="46.0417274" lon="11.8651988"><ele>535.4</ele><time>2026-04-26T12:29:48.536Z</time></trkpt><trkpt lat="46.0416269" lon="11.8651718"><ele>535.8</ele><time>2026-04-26T12:29:49.539Z</time></trkpt><trkpt lat="46.0415249" lon="11.8651527"><ele>536.2</ele><time>2026-04-26T12:29:50.538Z</time></trkpt><trkpt lat="46.0414215" lon="11.8651523"><ele>536.6</ele><time>2026-04-26T12:29:51.537Z</time></trkpt><trkpt lat="46.0413227" lon="11.8651676"><ele>537.0</ele><time>2026-04-26T12:29:52.538Z</time></trkpt><trkpt lat="46.041227" lon="11.8651987"><ele>537.0</ele><time>2026-04-26T12:29:53.539Z</time></trkpt><trkpt lat="46.0411342" lon="11.8652437"><ele>537.0</ele><time>2026-04-26T12:29:54.536Z</time></trkpt><trkpt lat="46.0410455" lon="11.8652954"><ele>537.0</ele><time>2026-04-26T12:29:55.539Z</time></trkpt><trkpt lat="46.0409555" lon="11.8653586"><ele>537.0</ele><time>2026-04-26T12:29:56.538Z</time></trkpt><trkpt lat="46.0408648" lon="11.8654278"><ele>537.0</ele><time>2026-04-26T12:29:57.538Z</time></trkpt><trkpt lat="46.040779" lon="11.8655006"><ele>535.8000000000001</ele><time>2026-04-26T12:29:58.538Z</time></trkpt><trkpt lat="46.0407028" lon="11.8655657"><ele>534.6</ele><time>2026-04-26T12:29:59.536Z</time></trkpt><trkpt lat="46.0406265" lon="11.8656162"><ele>533.4000000000001</ele><time>2026-04-26T12:30:00.537Z</time></trkpt><trkpt lat="46.040545" lon="11.8656535"><ele>532.2</ele><time>2026-04-26T12:30:01.539Z</time></trkpt><trkpt lat="46.0404543" lon="11.8656704"><ele>531.0</ele><time>2026-04-26T12:30:02.538Z</time></trkpt><trkpt lat="46.040353" lon="11.8656736"><ele>531.0</ele><time>2026-04-26T12:30:03.536Z</time></trkpt><trkpt lat="46.0402478" lon="11.8656753"><ele>531.0</ele><time>2026-04-26T12:30:04.538Z</time></trkpt><trkpt lat="46.0401389" lon="11.8656757"><ele>531.0</ele><time>2026-04-26T12:30:05.537Z</time></trkpt><trkpt lat="46.0400342" lon="11.8656774"><ele>531.0</ele><time>2026-04-26T12:30:06.54Z</time></trkpt><trkpt lat="46.0399317" lon="11.8656762"><ele>531.0</ele><time>2026-04-26T12:30:07.539Z</time></trkpt><trkpt lat="46.0398429" lon="11.8656751"><ele>530.0</ele><time>2026-04-26T12:30:08.539Z</time></trkpt><trkpt lat="46.0397667" lon="11.8656744"><ele>529.0</ele><time>2026-04-26T12:30:09.538Z</time></trkpt><trkpt lat="46.0396953" lon="11.8656699"><ele>528.0</ele><time>2026-04-26T12:30:10.54Z</time></trkpt><trkpt lat="46.0396305" lon="11.865658"><ele>527.0</ele><time>2026-04-26T12:30:11.537Z</time></trkpt><trkpt lat="46.0395703" lon="11.8656302"><ele>526.0</ele><time>2026-04-26T12:30:12.539Z</time></trkpt><trkpt lat="46.0394658" lon="11.8655587"><ele>525.0</ele><time>2026-04-26T12:30:14.539Z</time></trkpt><trkpt lat="46.0393739" lon="11.8655741"><ele>525.0</ele><time>2026-04-26T12:30:16.539Z</time></trkpt><trkpt lat="46.0393302" lon="11.8657074"><ele>525.0</ele><time>2026-04-26T12:30:18.537Z</time></trkpt><trkpt lat="46.0394068" lon="11.8658371"><ele>525.0</ele><time>2026-04-26T12:30:20.538Z</time></trkpt><trkpt lat="46.0395191" lon="11.8658831"><ele>525.0</ele><time>2026-04-26T12:30:22.539Z</time></trkpt><trkpt lat="46.039632" lon="11.8659314"><ele>521.1666666666666</ele><time>2026-04-26T12:30:24.538Z</time></trkpt><trkpt lat="46.0397532" lon="11.8659999"><ele>517.3333333333334</ele><time>2026-04-26T12:30:26.539Z</time></trkpt><trkpt lat="46.039819" lon="11.8660379"><ele>513.5</ele><time>2026-04-26T12:30:27.536Z</time></trkpt><trkpt lat="46.0398901" lon="11.8660809"><ele>509.6666666666667</ele><time>2026-04-26T12:30:28.538Z</time></trkpt><trkpt lat="46.0399619" lon="11.8661206"><ele>505.83333333333337</ele><time>2026-04-26T12:30:29.539Z</time></trkpt><trkpt lat="46.0400323" lon="11.8661612"><ele>502.0</ele><time>2026-04-26T12:30:30.539Z</time></trkpt><trkpt lat="46.0401045" lon="11.8661946"><ele>502.00000000000006</ele><time>2026-04-26T12:30:31.538Z</time></trkpt><trkpt lat="46.0401821" lon="11.8662342"><ele>502.0</ele><time>2026-04-26T12:30:32.539Z</time></trkpt><trkpt lat="46.0402592" lon="11.8662685"><ele>502.0</ele><time>2026-04-26T12:30:33.539Z</time></trkpt><trkpt lat="46.0403345" lon="11.8662902"><ele>502.0</ele><time>2026-04-26T12:30:34.539Z</time></trkpt><trkpt lat="46.0404076" lon="11.866294"><ele>502.00000000000006</ele><time>2026-04-26T12:30:35.538Z</time></trkpt><trkpt lat="46.0404833" lon="11.8662804"><ele>502.0</ele><time>2026-04-26T12:30:36.539Z</time></trkpt><trkpt lat="46.0405628" lon="11.8662566"><ele>502.00000000000006</ele><time>2026-04-26T12:30:37.538Z</time></trkpt><trkpt lat="46.0406393" lon="11.8662261"><ele>502.0</ele><time>2026-04-26T12:30:38.54Z</time></trkpt><trkpt lat="46.040716" lon="11.8661981"><ele>502.0</ele><time>2026-04-26T12:30:39.537Z</time></trkpt><trkpt lat="46.0407914" lon="11.8661686"><ele>502.0</ele><time>2026-04-26T12:30:40.538Z</time></trkpt><trkpt lat="46.0408763" lon="11.86615"><ele>502.00000000000006</ele><time>2026-04-26T12:30:41.539Z</time></trkpt><trkpt lat="46.0409636" lon="11.8661372"><ele>502.0</ele><time>2026-04-26T12:30:42.539Z</time></trkpt><trkpt lat="46.0410547" lon="11.8661279"><ele>501.0</ele><time>2026-04-26T12:30:43.538Z</time></trkpt><trkpt lat="46.0411433" lon="11.8661444"><ele>500.00000000000006</ele><time>2026-04-26T12:30:44.539Z</time></trkpt><trkpt lat="46.0412325" lon="11.8661669"><ele>499.00000000000006</ele><time>2026-04-26T12:30:45.538Z</time></trkpt><trkpt lat="46.041324" lon="11.8662001"><ele>498.0</ele><time>2026-04-26T12:30:46.539Z</time></trkpt><trkpt lat="46.0414182" lon="11.8662311"><ele>497.0</ele><time>2026-04-26T12:30:47.539Z</time></trkpt><trkpt lat="46.0415169" lon="11.8662667"><ele>497.0</ele><time>2026-04-26T12:30:48.538Z</time></trkpt><trkpt lat="46.0416125" lon="11.8663109"><ele>497.00000000000006</ele><time>2026-04-26T12:30:49.539Z</time></trkpt><trkpt lat="46.0417086" lon="11.8663512"><ele>497.00000000000006</ele><time>2026-04-26T12:30:50.536Z</time></trkpt><trkpt lat="46.0418035" lon="11.8663922"><ele>497.0</ele><time>2026-04-26T12:30:51.539Z</time></trkpt><trkpt lat="46.0418978" lon="11.8664327"><ele>497.0</ele><time>2026-04-26T12:30:52.538Z</time></trkpt><trkpt lat="46.0419898" lon="11.8664764"><ele>498.20000000000005</ele><time>2026-04-26T12:30:53.538Z</time></trkpt><trkpt lat="46.0420782" lon="11.8665273"><ele>499.40000000000003</ele><time>2026-04-26T12:30:54.54Z</time></trkpt><trkpt lat="46.0421614" lon="11.8665947"><ele>500.59999999999997</ele><time>2026-04-26T12:30:55.536Z</time></trkpt><trkpt lat="46.0422379" lon="11.8666694"><ele>501.79999999999995</ele><time>2026-04-26T12:30:56.539Z</time></trkpt><trkpt lat="46.0423092" lon="11.8667524"><ele>503.0</ele><time>2026-04-26T12:30:57.539Z</time></trkpt><trkpt lat="46.0423826" lon="11.8668444"><ele>500.0</ele><time>2026-04-26T12:30:58.537Z</time></trkpt><trkpt lat="46.0424599" lon="11.8669484"><ele>496.99999999999994</ele><time>2026-04-26T12:30:59.539Z</time></trkpt><trkpt lat="46.0425391" lon="11.8670528"><ele>493.99999999999994</ele><time>2026-04-26T12:31:00.538Z</time></trkpt><trkpt lat="46.0426105" lon="11.8671412"><ele>491.0</ele><time>2026-04-26T12:31:01.539Z</time></trkpt><trkpt lat="46.0426814" lon="11.8672205"><ele>488.0</ele><time>2026-04-26T12:31:02.538Z</time></trkpt><trkpt lat="46.042752" lon="11.8673088"><ele>488.0</ele><time>2026-04-26T12:31:03.537Z</time></trkpt><trkpt lat="46.0428228" lon="11.8673925"><ele>487.99999999999994</ele><time>2026-04-26T12:31:04.538Z</time></trkpt><trkpt lat="46.0428949" lon="11.8674839"><ele>487.99999999999994</ele><time>2026-04-26T12:31:05.538Z</time></trkpt><trkpt lat="46.0429645" lon="11.8675769"><ele>488.0</ele><time>2026-04-26T12:31:06.539Z</time></trkpt><trkpt lat="46.0430325" lon="11.8676625"><ele>488.0</ele><time>2026-04-26T12:31:07.538Z</time></trkpt><trkpt lat="46.0431056" lon="11.867737"><ele>485.49999999999994</ele><time>2026-04-26T12:31:08.539Z</time></trkpt><trkpt lat="46.0431809" lon="11.8678042"><ele>483.0</ele><time>2026-04-26T12:31:09.537Z</time></trkpt><trkpt lat="46.0432553" lon="11.8678629"><ele>480.5</ele><time>2026-04-26T12:31:10.537Z</time></trkpt><trkpt lat="46.0433336" lon="11.8679079"><ele>478.0</ele><time>2026-04-26T12:31:11.539Z</time></trkpt><trkpt lat="46.0434233" lon="11.8679295"><ele>475.49999999999994</ele><time>2026-04-26T12:31:12.536Z</time></trkpt><trkpt lat="46.0435171" lon="11.8679222"><ele>473.0</ele><time>2026-04-26T12:31:13.538Z</time></trkpt><trkpt lat="46.0436113" lon="11.8679109"><ele>473.0</ele><time>2026-04-26T12:31:14.539Z</time></trkpt><trkpt lat="46.0437078" lon="11.8679045"><ele>472.99999999999994</ele><time>2026-04-26T12:31:15.538Z</time></trkpt><trkpt lat="46.0437996" lon="11.8678894"><ele>472.99999999999994</ele><time>2026-04-26T12:31:16.539Z</time></trkpt><trkpt lat="46.0438933" lon="11.8678768"><ele>473.0</ele><time>2026-04-26T12:31:17.537Z</time></trkpt><trkpt lat="46.0439881" lon="11.8678662"><ele>473.0</ele><time>2026-04-26T12:31:18.538Z</time></trkpt><trkpt lat="46.0440847" lon="11.8678596"><ele>473.59999999999997</ele><time>2026-04-26T12:31:19.539Z</time></trkpt><trkpt lat="46.0441825" lon="11.8678634"><ele>474.19999999999993</ele><time>2026-04-26T12:31:20.537Z</time></trkpt><trkpt lat="46.0442858" lon="11.8678793"><ele>474.8</ele><time>2026-04-26T12:31:21.538Z</time></trkpt><trkpt lat="46.0443821" lon="11.8679228"><ele>475.4</ele><time>2026-04-26T12:31:22.537Z</time></trkpt><trkpt lat="46.0444785" lon="11.8679873"><ele>476.0</ele><time>2026-04-26T12:31:23.538Z</time></trkpt><trkpt lat="46.0445759" lon="11.8680551"><ele>476.0</ele><time>2026-04-26T12:31:24.537Z</time></trkpt><trkpt lat="46.0446727" lon="11.8681245"><ele>476.0</ele><time>2026-04-26T12:31:25.539Z</time></trkpt><trkpt lat="46.0447632" lon="11.8681941"><ele>476.0</ele><time>2026-04-26T12:31:26.537Z</time></trkpt><trkpt lat="46.0448495" lon="11.8682611"><ele>476.0</ele><time>2026-04-26T12:31:27.538Z</time></trkpt><trkpt lat="46.0449309" lon="11.8683192"><ele>476.0</ele><time>2026-04-26T12:31:28.538Z</time></trkpt><trkpt lat="46.045012" lon="11.8683751"><ele>475.16666666666663</ele><time>2026-04-26T12:31:29.538Z</time></trkpt><trkpt lat="46.0450892" lon="11.868422"><ele>474.3333333333333</ele><time>2026-04-26T12:31:30.539Z</time></trkpt><trkpt lat="46.045164" lon="11.8684755"><ele>473.5</ele><time>2026-04-26T12:31:31.539Z</time></trkpt><trkpt lat="46.0452403" lon="11.8685092"><ele>472.66666666666663</ele><time>2026-04-26T12:31:32.539Z</time></trkpt><trkpt lat="46.045317" lon="11.8685086"><ele>471.8333333333333</ele><time>2026-04-26T12:31:33.539Z</time></trkpt><trkpt lat="46.0453886" lon="11.8684827"><ele>471.0</ele><time>2026-04-26T12:31:34.539Z</time></trkpt><trkpt lat="46.0454507" lon="11.8684477"><ele>471.0</ele><time>2026-04-26T12:31:35.539Z</time></trkpt><trkpt lat="46.0455477" lon="11.868386"><ele>471.0</ele><time>2026-04-26T12:31:37.538Z</time></trkpt><trkpt lat="46.0456294" lon="11.8683967"><ele>471.0</ele><time>2026-04-26T12:31:39.539Z</time></trkpt><trkpt lat="46.0456108" lon="11.8685587"><ele>471.0</ele><time>2026-04-26T12:31:41.539Z</time></trkpt><trkpt lat="46.0455061" lon="11.8686952"><ele>471.0</ele><time>2026-04-26T12:31:43.539Z</time></trkpt><trkpt lat="46.0454324" lon="11.8687717"><ele>468.6</ele><time>2026-04-26T12:31:44.538Z</time></trkpt><trkpt lat="46.0453576" lon="11.8688532"><ele>466.20000000000005</ele><time>2026-04-26T12:31:45.539Z</time></trkpt><trkpt lat="46.0452871" lon="11.8689364"><ele>463.79999999999995</ele><time>2026-04-26T12:31:46.537Z</time></trkpt><trkpt lat="46.0452158" lon="11.8690181"><ele>461.4</ele><time>2026-04-26T12:31:47.538Z</time></trkpt><trkpt lat="46.0451501" lon="11.8690989"><ele>459.0</ele><time>2026-04-26T12:31:48.538Z</time></trkpt><trkpt lat="46.045083" lon="11.8691804"><ele>459.0</ele><time>2026-04-26T12:31:49.538Z</time></trkpt><trkpt lat="46.0450179" lon="11.869263"><ele>459.0</ele><time>2026-04-26T12:31:50.539Z</time></trkpt><trkpt lat="46.0449571" lon="11.8693385"><ele>459.0</ele><time>2026-04-26T12:31:51.538Z</time></trkpt><trkpt lat="46.0449032" lon="11.8694183"><ele>459.0</ele><time>2026-04-26T12:31:52.538Z</time></trkpt><trkpt lat="46.0448489" lon="11.8694998"><ele>459.0</ele><time>2026-04-26T12:31:53.537Z</time></trkpt><trkpt lat="46.0447914" lon="11.8695807"><ele>459.0</ele><time>2026-04-26T12:31:54.538Z</time></trkpt><trkpt lat="46.044731" lon="11.8696586"><ele>457.3333333333333</ele><time>2026-04-26T12:31:55.538Z</time></trkpt><trkpt lat="46.0446655" lon="11.8697267"><ele>455.66666666666663</ele><time>2026-04-26T12:31:56.539Z</time></trkpt><trkpt lat="46.0445903" lon="11.869784"><ele>454.0</ele><time>2026-04-26T12:31:57.54Z</time></trkpt><trkpt lat="46.0445108" lon="11.8698343"><ele>452.3333333333333</ele><time>2026-04-26T12:31:58.539Z</time></trkpt><trkpt lat="46.0444269" lon="11.8698927"><ele>450.66666666666663</ele><time>2026-04-26T12:31:59.539Z</time></trkpt><trkpt lat="46.0443444" lon="11.8699611"><ele>449.0</ele><time>2026-04-26T12:32:00.539Z</time></trkpt><trkpt lat="46.0442799" lon="11.8700564"><ele>447.16666666666663</ele><time>2026-04-26T12:32:01.54Z</time></trkpt><trkpt lat="46.044228" lon="11.8701562"><ele>445.3333333333333</ele><time>2026-04-26T12:32:02.539Z</time></trkpt><trkpt lat="46.0441889" lon="11.8702602"><ele>443.5</ele><time>2026-04-26T12:32:03.537Z</time></trkpt><trkpt lat="46.0441497" lon="11.8703598"><ele>441.66666666666663</ele><time>2026-04-26T12:32:04.538Z</time></trkpt><trkpt lat="46.0441097" lon="11.8704549"><ele>439.8333333333333</ele><time>2026-04-26T12:32:05.539Z</time></trkpt><trkpt lat="46.04407" lon="11.8705462"><ele>438.0</ele><time>2026-04-26T12:32:06.54Z</time></trkpt><trkpt lat="46.044034" lon="11.8706368"><ele>438.0</ele><time>2026-04-26T12:32:07.539Z</time></trkpt><trkpt lat="46.0439993" lon="11.8707202"><ele>438.0</ele><time>2026-04-26T12:32:08.539Z</time></trkpt><trkpt lat="46.0439679" lon="11.8708037"><ele>438.0</ele><time>2026-04-26T12:32:09.538Z</time></trkpt><trkpt lat="46.0439354" lon="11.870887"><ele>438.0</ele><time>2026-04-26T12:32:10.538Z</time></trkpt><trkpt lat="46.0439028" lon="11.8709725"><ele>438.0</ele><time>2026-04-26T12:32:11.539Z</time></trkpt><trkpt lat="46.0438693" lon="11.8710591"><ele>438.0</ele><time>2026-04-26T12:32:12.539Z</time></trkpt><trkpt lat="46.0438369" lon="11.8711531"><ele>438.0</ele><time>2026-04-26T12:32:13.54Z</time></trkpt><trkpt lat="46.0438045" lon="11.8712522"><ele>437.0</ele><time>2026-04-26T12:32:14.538Z</time></trkpt><trkpt lat="46.0437656" lon="11.8713485"><ele>436.0</ele><time>2026-04-26T12:32:15.539Z</time></trkpt><trkpt lat="46.0437276" lon="11.8714449"><ele>435.0</ele><time>2026-04-26T12:32:16.536Z</time></trkpt><trkpt lat="46.0436976" lon="11.8715453"><ele>434.0</ele><time>2026-04-26T12:32:17.539Z</time></trkpt><trkpt lat="46.0436665" lon="11.8716392"><ele>433.0</ele><time>2026-04-26T12:32:18.539Z</time></trkpt><trkpt lat="46.0436268" lon="11.8717237"><ele>432.0</ele><time>2026-04-26T12:32:19.539Z</time></trkpt><trkpt lat="46.043578" lon="11.8717941"><ele>431.0</ele><time>2026-04-26T12:32:20.539Z</time></trkpt><trkpt lat="46.043524" lon="11.8718504"><ele>429.8333333333333</ele><time>2026-04-26T12:32:21.536Z</time></trkpt><trkpt lat="46.0434614" lon="11.8719074"><ele>428.66666666666663</ele><time>2026-04-26T12:32:22.537Z</time></trkpt><trkpt lat="46.0433906" lon="11.8719367"><ele>427.5</ele><time>2026-04-26T12:32:23.537Z</time></trkpt><trkpt lat="46.0433138" lon="11.8719472"><ele>426.33333333333337</ele><time>2026-04-26T12:32:24.538Z</time></trkpt><trkpt lat="46.0432341" lon="11.871946"><ele>425.1666666666667</ele><time>2026-04-26T12:32:25.538Z</time></trkpt><trkpt lat="46.0431532" lon="11.8719437"><ele>424.0</ele><time>2026-04-26T12:32:26.539Z</time></trkpt><trkpt lat="46.0430705" lon="11.8719414"><ele>421.83333333333337</ele><time>2026-04-26T12:32:27.537Z</time></trkpt><trkpt lat="46.0429869" lon="11.8719383"><ele>419.6666666666667</ele><time>2026-04-26T12:32:28.536Z</time></trkpt><trkpt lat="46.0429047" lon="11.8719377"><ele>417.5</ele><time>2026-04-26T12:32:29.537Z</time></trkpt><trkpt lat="46.0428249" lon="11.8719365"><ele>415.33333333333337</ele><time>2026-04-26T12:32:30.537Z</time></trkpt><trkpt lat="46.0427463" lon="11.8719399"><ele>413.1666666666667</ele><time>2026-04-26T12:32:31.539Z</time></trkpt><trkpt lat="46.0426704" lon="11.8719554"><ele>411.0</ele><time>2026-04-26T12:32:32.539Z</time></trkpt><trkpt lat="46.0425973" lon="11.8719854"><ele>411.0</ele><time>2026-04-26T12:32:33.539Z</time></trkpt><trkpt lat="46.0425271" lon="11.8720339"><ele>411.0</ele><time>2026-04-26T12:32:34.539Z</time></trkpt><trkpt lat="46.0424599" lon="11.8720993"><ele>411.0</ele><time>2026-04-26T12:32:35.539Z</time></trkpt><trkpt lat="46.0424026" lon="11.8721861"><ele>411.0</ele><time>2026-04-26T12:32:36.538Z</time></trkpt><trkpt lat="46.0423537" lon="11.8722848"><ele>411.0</ele><time>2026-04-26T12:32:37.539Z</time></trkpt><trkpt lat="46.0423099" lon="11.872387"><ele>411.0</ele><time>2026-04-26T12:32:38.539Z</time></trkpt><trkpt lat="46.0422663" lon="11.8724942"><ele>410.0</ele><time>2026-04-26T12:32:39.538Z</time></trkpt><trkpt lat="46.0422228" lon="11.8726012"><ele>409.0</ele><time>2026-04-26T12:32:40.538Z</time></trkpt><trkpt lat="46.0421783" lon="11.8727126"><ele>408.0</ele><time>2026-04-26T12:32:41.539Z</time></trkpt><trkpt lat="46.0421297" lon="11.8728374"><ele>407.0</ele><time>2026-04-26T12:32:42.539Z</time></trkpt><trkpt lat="46.0420806" lon="11.8729637"><ele>406.0</ele><time>2026-04-26T12:32:43.541Z</time></trkpt><trkpt lat="46.0420275" lon="11.8730902"><ele>404.4</ele><time>2026-04-26T12:32:44.538Z</time></trkpt><trkpt lat="46.0419731" lon="11.8732135"><ele>402.8</ele><time>2026-04-26T12:32:45.539Z</time></trkpt><trkpt lat="46.0419167" lon="11.8733382"><ele>401.2</ele><time>2026-04-26T12:32:46.539Z</time></trkpt><trkpt lat="46.0418582" lon="11.8734735"><ele>399.59999999999997</ele><time>2026-04-26T12:32:47.538Z</time></trkpt><trkpt lat="46.0418016" lon="11.8736169"><ele>398.0</ele><time>2026-04-26T12:32:48.538Z</time></trkpt><trkpt lat="46.0417411" lon="11.8737603"><ele>397.75</ele><time>2026-04-26T12:32:49.54Z</time></trkpt><trkpt lat="46.0416772" lon="11.8739071"><ele>397.5</ele><time>2026-04-26T12:32:50.538Z</time></trkpt><trkpt lat="46.0416142" lon="11.874057"><ele>397.25</ele><time>2026-04-26T12:32:51.537Z</time></trkpt><trkpt lat="46.0415544" lon="11.8742034"><ele>397.0</ele><time>2026-04-26T12:32:52.535Z</time></trkpt><trkpt lat="46.0415011" lon="11.8743376"><ele>394.00000000000006</ele><time>2026-04-26T12:32:53.539Z</time></trkpt><trkpt lat="46.0414507" lon="11.8744596"><ele>391.0</ele><time>2026-04-26T12:32:54.537Z</time></trkpt><trkpt lat="46.0414011" lon="11.8745799"><ele>388.0</ele><time>2026-04-26T12:32:55.538Z</time></trkpt><trkpt lat="46.0413607" lon="11.8746874"><ele>385.0</ele><time>2026-04-26T12:32:56.539Z</time></trkpt><trkpt lat="46.0413303" lon="11.874798"><ele>382.0</ele><time>2026-04-26T12:32:57.539Z</time></trkpt><trkpt lat="46.0413143" lon="11.8749061"><ele>379.0</ele><time>2026-04-26T12:32:58.539Z</time></trkpt><trkpt lat="46.0413139" lon="11.8750237"><ele>377.16666666666663</ele><time>2026-04-26T12:32:59.539Z</time></trkpt><trkpt lat="46.0413284" lon="11.8751455"><ele>375.3333333333333</ele><time>2026-04-26T12:33:00.537Z</time></trkpt><trkpt lat="46.041358" lon="11.8752634"><ele>373.5</ele><time>2026-04-26T12:33:01.539Z</time></trkpt><trkpt lat="46.0414018" lon="11.8753729"><ele>371.6666666666667</ele><time>2026-04-26T12:33:02.54Z</time></trkpt><trkpt lat="46.0414627" lon="11.8754739"><ele>369.83333333333337</ele><time>2026-04-26T12:33:03.535Z</time></trkpt><trkpt lat="46.0415376" lon="11.8755592"><ele>368.0</ele><time>2026-04-26T12:33:04.537Z</time></trkpt><trkpt lat="46.0416146" lon="11.8756318"><ele>367.83333333333337</ele><time>2026-04-26T12:33:05.539Z</time></trkpt><trkpt lat="46.0416908" lon="11.8756983"><ele>367.6666666666667</ele><time>2026-04-26T12:33:06.538Z</time></trkpt><trkpt lat="46.041768" lon="11.8757668"><ele>367.5</ele><time>2026-04-26T12:33:07.539Z</time></trkpt><trkpt lat="46.0418495" lon="11.875833"><ele>367.3333333333333</ele><time>2026-04-26T12:33:08.54Z</time></trkpt><trkpt lat="46.0419305" lon="11.8758949"><ele>367.16666666666663</ele><time>2026-04-26T12:33:09.537Z</time></trkpt><trkpt lat="46.0420011" lon="11.8759527"><ele>367.0</ele><time>2026-04-26T12:33:10.537Z</time></trkpt><trkpt lat="46.0420703" lon="11.8760023"><ele>367.0</ele><time>2026-04-26T12:33:11.54Z</time></trkpt><trkpt lat="46.042138" lon="11.8760517"><ele>367.0</ele><time>2026-04-26T12:33:12.537Z</time></trkpt><trkpt lat="46.0422" lon="11.8761009"><ele>367.0</ele><time>2026-04-26T12:33:13.54Z</time></trkpt><trkpt lat="46.0422597" lon="11.8761571"><ele>367.0</ele><time>2026-04-26T12:33:14.539Z</time></trkpt><trkpt lat="46.0423163" lon="11.8762138"><ele>367.0</ele><time>2026-04-26T12:33:15.539Z</time></trkpt><trkpt lat="46.0423742" lon="11.8762618"><ele>367.0</ele><time>2026-04-26T12:33:16.538Z</time></trkpt><trkpt lat="46.0424276" lon="11.8763207"><ele>367.0</ele><time>2026-04-26T12:33:17.538Z</time></trkpt><trkpt lat="46.0424751" lon="11.8763899"><ele>366.57142857142856</ele><time>2026-04-26T12:33:18.538Z</time></trkpt><trkpt lat="46.0425148" lon="11.876468"><ele>366.14285714285717</ele><time>2026-04-26T12:33:19.539Z</time></trkpt><trkpt lat="46.0425484" lon="11.8765536"><ele>365.7142857142857</ele><time>2026-04-26T12:33:20.537Z</time></trkpt><trkpt lat="46.0425672" lon="11.8766519"><ele>365.2857142857143</ele><time>2026-04-26T12:33:21.539Z</time></trkpt><trkpt lat="46.0425877" lon="11.8767489"><ele>364.8571428571429</ele><time>2026-04-26T12:33:22.539Z</time></trkpt><trkpt lat="46.042612" lon="11.8768433"><ele>364.42857142857144</ele><time>2026-04-26T12:33:23.537Z</time></trkpt><trkpt lat="46.0426372" lon="11.8769387"><ele>364.0</ele><time>2026-04-26T12:33:24.537Z</time></trkpt><trkpt lat="46.042662" lon="11.8770415"><ele>364.0</ele><time>2026-04-26T12:33:25.539Z</time></trkpt><trkpt lat="46.0426908" lon="11.8771471"><ele>364.0</ele><time>2026-04-26T12:33:26.539Z</time></trkpt><trkpt lat="46.0427188" lon="11.8772447"><ele>364.0</ele><time>2026-04-26T12:33:27.539Z</time></trkpt><trkpt lat="46.0427454" lon="11.8773328"><ele>364.0</ele><time>2026-04-26T12:33:28.538Z</time></trkpt><trkpt lat="46.0427797" lon="11.8774834"><ele>364.0</ele><time>2026-04-26T12:33:30.538Z</time></trkpt><trkpt lat="46.0427783" lon="11.8776352"><ele>364.0</ele><time>2026-04-26T12:33:32.539Z</time></trkpt><trkpt lat="46.0427177" lon="11.8777924"><ele>363.16666666666663</ele><time>2026-04-26T12:33:34.538Z</time></trkpt><trkpt lat="46.0426608" lon="11.8778599"><ele>362.3333333333333</ele><time>2026-04-26T12:33:35.538Z</time></trkpt><trkpt lat="46.0425963" lon="11.8779189"><ele>361.5</ele><time>2026-04-26T12:33:36.539Z</time></trkpt><trkpt lat="46.0425192" lon="11.8779596"><ele>360.6666666666667</ele><time>2026-04-26T12:33:37.539Z</time></trkpt><trkpt lat="46.042439" lon="11.8780031"><ele>359.83333333333337</ele><time>2026-04-26T12:33:38.538Z</time></trkpt><trkpt lat="46.0423553" lon="11.8780392"><ele>359.0</ele><time>2026-04-26T12:33:39.539Z</time></trkpt><trkpt lat="46.0422716" lon="11.8780759"><ele>358.33333333333337</ele><time>2026-04-26T12:33:40.536Z</time></trkpt><trkpt lat="46.0421899" lon="11.8781151"><ele>357.6666666666667</ele><time>2026-04-26T12:33:41.537Z</time></trkpt><trkpt lat="46.0421129" lon="11.878162"><ele>357.0</ele><time>2026-04-26T12:33:42.538Z</time></trkpt><trkpt lat="46.0420341" lon="11.8782093"><ele>356.3333333333333</ele><time>2026-04-26T12:33:43.538Z</time></trkpt><trkpt lat="46.0419559" lon="11.8782569"><ele>355.66666666666663</ele><time>2026-04-26T12:33:44.54Z</time></trkpt><trkpt lat="46.0418867" lon="11.8783106"><ele>355.0</ele><time>2026-04-26T12:33:45.539Z</time></trkpt><trkpt lat="46.0418193" lon="11.878374"><ele>354.66666666666663</ele><time>2026-04-26T12:33:46.539Z</time></trkpt><trkpt lat="46.0417514" lon="11.8784377"><ele>354.3333333333333</ele><time>2026-04-26T12:33:47.537Z</time></trkpt><trkpt lat="46.0416826" lon="11.8785043"><ele>354.0</ele><time>2026-04-26T12:33:48.536Z</time></trkpt><trkpt lat="46.041613" lon="11.8785758"><ele>353.6666666666667</ele><time>2026-04-26T12:33:49.539Z</time></trkpt><trkpt lat="46.0415407" lon="11.8786412"><ele>353.33333333333337</ele><time>2026-04-26T12:33:50.539Z</time></trkpt><trkpt lat="46.0414729" lon="11.8787175"><ele>353.0</ele><time>2026-04-26T12:33:51.537Z</time></trkpt><trkpt lat="46.0414083" lon="11.8787968"><ele>352.6666666666667</ele><time>2026-04-26T12:33:52.538Z</time></trkpt><trkpt lat="46.0413354" lon="11.8788575"><ele>352.33333333333337</ele><time>2026-04-26T12:33:53.54Z</time></trkpt><trkpt lat="46.0412655" lon="11.8789158"><ele>352.0</ele><time>2026-04-26T12:33:54.539Z</time></trkpt><trkpt lat="46.0411948" lon="11.8789709"><ele>351.6666666666667</ele><time>2026-04-26T12:33:55.539Z</time></trkpt><trkpt lat="46.0411285" lon="11.879024"><ele>351.3333333333333</ele><time>2026-04-26T12:33:56.54Z</time></trkpt><trkpt lat="46.041056" lon="11.879069"><ele>351.0</ele><time>2026-04-26T12:33:57.539Z</time></trkpt><trkpt lat="46.0409838" lon="11.8791126"><ele>351.0</ele><time>2026-04-26T12:33:58.536Z</time></trkpt><trkpt lat="46.0409129" lon="11.8791531"><ele>351.0</ele><time>2026-04-26T12:33:59.539Z</time></trkpt><trkpt lat="46.0408373" lon="11.8791823"><ele>351.0</ele><time>2026-04-26T12:34:00.538Z</time></trkpt><trkpt lat="46.0407614" lon="11.8792015"><ele>351.0</ele><time>2026-04-26T12:34:01.538Z</time></trkpt><trkpt lat="46.0406919" lon="11.879214"><ele>351.0</ele><time>2026-04-26T12:34:02.54Z</time></trkpt><trkpt lat="46.0406249" lon="11.8792177"><ele>351.0</ele><time>2026-04-26T12:34:03.538Z</time></trkpt><trkpt lat="46.0404995" lon="11.8792263"><ele>350.5714285714286</ele><time>2026-04-26T12:34:05.539Z</time></trkpt><trkpt lat="46.0404367" lon="11.8792401"><ele>350.14285714285717</ele><time>2026-04-26T12:34:06.539Z</time></trkpt><trkpt lat="46.0403733" lon="11.8792553"><ele>349.7142857142857</ele><time>2026-04-26T12:34:07.539Z</time></trkpt><trkpt lat="46.0403019" lon="11.8792633"><ele>349.28571428571433</ele><time>2026-04-26T12:34:08.538Z</time></trkpt><trkpt lat="46.0402378" lon="11.8792636"><ele>348.8571428571429</ele><time>2026-04-26T12:34:09.539Z</time></trkpt><trkpt lat="46.040174" lon="11.8792615"><ele>348.42857142857144</ele><time>2026-04-26T12:34:10.536Z</time></trkpt><trkpt lat="46.0400749" lon="11.8792701"><ele>348.0</ele><time>2026-04-26T12:34:12.537Z</time></trkpt><trkpt lat="46.0400279" lon="11.8794126"><ele>347.6666666666667</ele><time>2026-04-26T12:34:15.54Z</time></trkpt><trkpt lat="46.0400373" lon="11.8795459"><ele>347.3333333333333</ele><time>2026-04-26T12:34:17.539Z</time></trkpt><trkpt lat="46.0400535" lon="11.8796542"><ele>347.0</ele><time>2026-04-26T12:34:19.539Z</time></trkpt><trkpt lat="46.0400741" lon="11.8797594"><ele>346.66666666666663</ele><time>2026-04-26T12:34:21.539Z</time></trkpt><trkpt lat="46.0400759" lon="11.8798561"><ele>346.3333333333333</ele><time>2026-04-26T12:34:23.539Z</time></trkpt><trkpt lat="46.0400585" lon="11.8799817"><ele>346.0</ele><time>2026-04-26T12:34:25.539Z</time></trkpt><trkpt lat="46.0399886" lon="11.8800913"><ele>345.20000000000005</ele><time>2026-04-26T12:34:27.539Z</time></trkpt><trkpt lat="46.0399125" lon="11.880177"><ele>344.40000000000003</ele><time>2026-04-26T12:34:29.539Z</time></trkpt><trkpt lat="46.0398716" lon="11.8802949"><ele>343.6</ele><time>2026-04-26T12:34:31.538Z</time></trkpt><trkpt lat="46.0398917" lon="11.8804315"><ele>342.8</ele><time>2026-04-26T12:34:33.537Z</time></trkpt><trkpt lat="46.0399148" lon="11.8805461"><ele>342.0</ele><time>2026-04-26T12:34:35.537Z</time></trkpt><trkpt lat="46.0399466" lon="11.8806607"><ele>342.0</ele><time>2026-04-26T12:34:37.539Z</time></trkpt><trkpt lat="46.0399443" lon="11.8807686"><ele>342.0</ele><time>2026-04-26T12:34:39.537Z</time></trkpt><trkpt lat="46.0398944" lon="11.8808501"><ele>342.0</ele><time>2026-04-26T12:34:41.539Z</time></trkpt><trkpt lat="46.0398114" lon="11.8809215"><ele>342.0</ele><time>2026-04-26T12:34:43.535Z</time></trkpt><trkpt lat="46.0397219" lon="11.8810139"><ele>342.0</ele><time>2026-04-26T12:34:45.535Z</time></trkpt><trkpt lat="46.0396383" lon="11.8810925"><ele>341.75</ele><time>2026-04-26T12:34:47.534Z</time></trkpt><trkpt lat="46.0394881" lon="11.8811792"><ele>341.5</ele><time>2026-04-26T12:34:50.536Z</time></trkpt><trkpt lat="46.0393855" lon="11.8812708"><ele>341.25</ele><time>2026-04-26T12:34:52.534Z</time></trkpt><trkpt lat="46.0393381" lon="11.8813313"><ele>341.0</ele><time>2026-04-26T12:34:53.534Z</time></trkpt><trkpt lat="46.0392782" lon="11.8814697"><ele>341.0</ele><time>2026-04-26T12:34:55.535Z</time></trkpt><trkpt lat="46.0392301" lon="11.8816379"><ele>341.0</ele><time>2026-04-26T12:34:57.537Z</time></trkpt><trkpt lat="46.0392179" lon="11.8817293"><ele>341.0</ele><time>2026-04-26T12:34:58.537Z</time></trkpt><trkpt lat="46.0392385" lon="11.8819015"><ele>341.0</ele><time>2026-04-26T12:35:00.535Z</time></trkpt><trkpt lat="46.0392533" lon="11.8819916"><ele>341.0</ele><time>2026-04-26T12:35:01.537Z</time></trkpt><trkpt lat="46.0392761" lon="11.8821781"><ele>340.75</ele><time>2026-04-26T12:35:03.539Z</time></trkpt><trkpt lat="46.0392839" lon="11.882344"><ele>340.5</ele><time>2026-04-26T12:35:05.535Z</time></trkpt><trkpt lat="46.0392254" lon="11.8825007"><ele>340.25</ele><time>2026-04-26T12:35:07.539Z</time></trkpt><trkpt lat="46.0391611" lon="11.882643"><ele>340.0</ele><time>2026-04-26T12:35:09.538Z</time></trkpt><trkpt lat="46.0390766" lon="11.8827752"><ele>339.2857142857143</ele><time>2026-04-26T12:35:11.538Z</time></trkpt><trkpt lat="46.0390309" lon="11.8828476"><ele>338.57142857142856</ele><time>2026-04-26T12:35:12.537Z</time></trkpt><trkpt lat="46.0389879" lon="11.8829276"><ele>337.85714285714283</ele><time>2026-04-26T12:35:13.54Z</time></trkpt><trkpt lat="46.0389468" lon="11.8830018"><ele>337.1428571428571</ele><time>2026-04-26T12:35:14.537Z</time></trkpt><trkpt lat="46.0389015" lon="11.8830783"><ele>336.42857142857144</ele><time>2026-04-26T12:35:15.535Z</time></trkpt><trkpt lat="46.0388533" lon="11.8831589"><ele>335.71428571428567</ele><time>2026-04-26T12:35:16.538Z</time></trkpt><trkpt lat="46.0387957" lon="11.8832226"><ele>335.0</ele><time>2026-04-26T12:35:17.539Z</time></trkpt><trkpt lat="46.0387341" lon="11.8832751"><ele>334.99999999999994</ele><time>2026-04-26T12:35:18.539Z</time></trkpt><trkpt lat="46.0386634" lon="11.8833026"><ele>335.0</ele><time>2026-04-26T12:35:19.54Z</time></trkpt><trkpt lat="46.0385946" lon="11.8833315"><ele>335.0</ele><time>2026-04-26T12:35:20.539Z</time></trkpt><trkpt lat="46.03853" lon="11.8833702"><ele>335.0</ele><time>2026-04-26T12:35:21.538Z</time></trkpt><trkpt lat="46.0384674" lon="11.8834258"><ele>335.0</ele><time>2026-04-26T12:35:22.537Z</time></trkpt><trkpt lat="46.0384085" lon="11.8834969"><ele>334.99999999999994</ele><time>2026-04-26T12:35:23.535Z</time></trkpt><trkpt lat="46.0383545" lon="11.8835826"><ele>335.0</ele><time>2026-04-26T12:35:24.537Z</time></trkpt><trkpt lat="46.0383097" lon="11.8836765"><ele>334.5</ele><time>2026-04-26T12:35:25.534Z</time></trkpt><trkpt lat="46.0382681" lon="11.8837701"><ele>334.0</ele><time>2026-04-26T12:35:26.54Z</time></trkpt><trkpt lat="46.0382253" lon="11.8838629"><ele>333.5</ele><time>2026-04-26T12:35:27.537Z</time></trkpt><trkpt lat="46.0381836" lon="11.8839541"><ele>333.0</ele><time>2026-04-26T12:35:28.537Z</time></trkpt><trkpt lat="46.0381472" lon="11.8840493"><ele>332.5</ele><time>2026-04-26T12:35:29.537Z</time></trkpt><trkpt lat="46.0381128" lon="11.8841441"><ele>332.0</ele><time>2026-04-26T12:35:30.537Z</time></trkpt><trkpt lat="46.0380826" lon="11.8842428"><ele>331.57142857142856</ele><time>2026-04-26T12:35:31.536Z</time></trkpt><trkpt lat="46.0380568" lon="11.8843393"><ele>331.14285714285717</ele><time>2026-04-26T12:35:32.539Z</time></trkpt><trkpt lat="46.0380319" lon="11.884435"><ele>330.7142857142857</ele><time>2026-04-26T12:35:33.537Z</time></trkpt><trkpt lat="46.0380097" lon="11.8845326"><ele>330.2857142857143</ele><time>2026-04-26T12:35:34.539Z</time></trkpt><trkpt lat="46.0379872" lon="11.8846309"><ele>329.8571428571429</ele><time>2026-04-26T12:35:35.536Z</time></trkpt><trkpt lat="46.0379634" lon="11.8847306"><ele>329.42857142857144</ele><time>2026-04-26T12:35:36.538Z</time></trkpt><trkpt lat="46.0379411" lon="11.8848271"><ele>329.0</ele><time>2026-04-26T12:35:37.536Z</time></trkpt><trkpt lat="46.0379167" lon="11.8849267"><ele>329.0</ele><time>2026-04-26T12:35:38.539Z</time></trkpt><trkpt lat="46.0378929" lon="11.8850279"><ele>329.0</ele><time>2026-04-26T12:35:39.538Z</time></trkpt><trkpt lat="46.0378688" lon="11.8851222"><ele>329.0</ele><time>2026-04-26T12:35:40.539Z</time></trkpt><trkpt lat="46.0378434" lon="11.8852161"><ele>329.0</ele><time>2026-04-26T12:35:41.54Z</time></trkpt><trkpt lat="46.037817" lon="11.8853073"><ele>329.0</ele><time>2026-04-26T12:35:42.54Z</time></trkpt><trkpt lat="46.037795" lon="11.8853976"><ele>329.0</ele><time>2026-04-26T12:35:43.54Z</time></trkpt><trkpt lat="46.0377754" lon="11.8854933"><ele>329.0</ele><time>2026-04-26T12:35:44.54Z</time></trkpt><trkpt lat="46.0377617" lon="11.885587"><ele>328.33333333333337</ele><time>2026-04-26T12:35:45.536Z</time></trkpt><trkpt lat="46.0377456" lon="11.8856809"><ele>327.6666666666667</ele><time>2026-04-26T12:35:46.538Z</time></trkpt><trkpt lat="46.0377258" lon="11.885772"><ele>327.0</ele><time>2026-04-26T12:35:47.538Z</time></trkpt><trkpt lat="46.0377027" lon="11.8858658"><ele>326.3333333333333</ele><time>2026-04-26T12:35:48.537Z</time></trkpt><trkpt lat="46.0376627" lon="11.8860336"><ele>325.66666666666663</ele><time>2026-04-26T12:35:50.538Z</time></trkpt><trkpt lat="46.0376468" lon="11.8861215"><ele>325.0</ele><time>2026-04-26T12:35:51.537Z</time></trkpt><trkpt lat="46.0376328" lon="11.8862103"><ele>325.0</ele><time>2026-04-26T12:35:52.539Z</time></trkpt><trkpt lat="46.0376209" lon="11.8863"><ele>325.0</ele><time>2026-04-26T12:35:53.538Z</time></trkpt><trkpt lat="46.0376099" lon="11.8863897"><ele>325.0</ele><time>2026-04-26T12:35:54.538Z</time></trkpt><trkpt lat="46.0375977" lon="11.8864797"><ele>325.0</ele><time>2026-04-26T12:35:55.538Z</time></trkpt><trkpt lat="46.0375831" lon="11.8865733"><ele>325.0</ele><time>2026-04-26T12:35:56.54Z</time></trkpt><trkpt lat="46.0375519" lon="11.8867502"><ele>325.0</ele><time>2026-04-26T12:35:58.537Z</time></trkpt><trkpt lat="46.0375315" lon="11.8868401"><ele>325.0</ele><time>2026-04-26T12:35:59.539Z</time></trkpt><trkpt lat="46.0375069" lon="11.8869302"><ele>324.8333333333333</ele><time>2026-04-26T12:36:00.538Z</time></trkpt><trkpt lat="46.037482" lon="11.8870162"><ele>324.66666666666663</ele><time>2026-04-26T12:36:01.538Z</time></trkpt><trkpt lat="46.0374281" lon="11.887181"><ele>324.5</ele><time>2026-04-26T12:36:03.54Z</time></trkpt><trkpt lat="46.0373609" lon="11.8873335"><ele>324.3333333333333</ele><time>2026-04-26T12:36:05.539Z</time></trkpt><trkpt lat="46.0373223" lon="11.8874089"><ele>324.1666666666667</ele><time>2026-04-26T12:36:06.538Z</time></trkpt><trkpt lat="46.0372796" lon="11.8874777"><ele>324.0</ele><time>2026-04-26T12:36:07.538Z</time></trkpt><trkpt lat="46.0372307" lon="11.8875414"><ele>323.4</ele><time>2026-04-26T12:36:08.54Z</time></trkpt><trkpt lat="46.037181" lon="11.887599"><ele>322.79999999999995</ele><time>2026-04-26T12:36:09.538Z</time></trkpt><trkpt lat="46.0370809" lon="11.8877127"><ele>322.20000000000005</ele><time>2026-04-26T12:36:11.538Z</time></trkpt><trkpt lat="46.0370306" lon="11.8877698"><ele>321.6</ele><time>2026-04-26T12:36:12.536Z</time></trkpt><trkpt lat="46.0369332" lon="11.8878857"><ele>321.0</ele><time>2026-04-26T12:36:14.539Z</time></trkpt><trkpt lat="46.0368809" lon="11.8879488"><ele>320.99999999999994</ele><time>2026-04-26T12:36:15.539Z</time></trkpt><trkpt lat="46.0368304" lon="11.8880113"><ele>321.0</ele><time>2026-04-26T12:36:16.536Z</time></trkpt><trkpt lat="46.0367821" lon="11.8880727"><ele>321.0</ele><time>2026-04-26T12:36:17.539Z</time></trkpt><trkpt lat="46.0367327" lon="11.8881355"><ele>321.0</ele><time>2026-04-26T12:36:18.539Z</time></trkpt><trkpt lat="46.0366843" lon="11.888205"><ele>321.0</ele><time>2026-04-26T12:36:19.539Z</time></trkpt><trkpt lat="46.0366344" lon="11.888273"><ele>320.99999999999994</ele><time>2026-04-26T12:36:20.536Z</time></trkpt><trkpt lat="46.0365913" lon="11.8883449"><ele>321.0</ele><time>2026-04-26T12:36:21.535Z</time></trkpt><trkpt lat="46.036545" lon="11.8884224"><ele>320.6666666666667</ele><time>2026-04-26T12:36:22.537Z</time></trkpt><trkpt lat="46.0364808" lon="11.888579"><ele>320.3333333333333</ele><time>2026-04-26T12:36:24.536Z</time></trkpt><trkpt lat="46.0364525" lon="11.8886652"><ele>320.0</ele><time>2026-04-26T12:36:25.538Z</time></trkpt><trkpt lat="46.0364275" lon="11.8887581"><ele>319.66666666666663</ele><time>2026-04-26T12:36:26.536Z</time></trkpt><trkpt lat="46.036413" lon="11.8888487"><ele>319.3333333333333</ele><time>2026-04-26T12:36:27.538Z</time></trkpt><trkpt lat="46.0364009" lon="11.8889486"><ele>319.0</ele><time>2026-04-26T12:36:28.535Z</time></trkpt><trkpt lat="46.0363924" lon="11.8890445"><ele>319.0</ele><time>2026-04-26T12:36:29.539Z</time></trkpt><trkpt lat="46.0363863" lon="11.8891361"><ele>319.0</ele><time>2026-04-26T12:36:30.539Z</time></trkpt><trkpt lat="46.0363811" lon="11.8892319"><ele>319.0</ele><time>2026-04-26T12:36:31.535Z</time></trkpt><trkpt lat="46.0363723" lon="11.8893301"><ele>319.0</ele><time>2026-04-26T12:36:32.538Z</time></trkpt><trkpt lat="46.0363642" lon="11.8894294"><ele>319.0</ele><time>2026-04-26T12:36:33.539Z</time></trkpt><trkpt lat="46.0363579" lon="11.8895266"><ele>319.0</ele><time>2026-04-26T12:36:34.539Z</time></trkpt><trkpt lat="46.0363457" lon="11.8896248"><ele>319.0</ele><time>2026-04-26T12:36:35.537Z</time></trkpt><trkpt lat="46.0363214" lon="11.8897154"><ele>318.5</ele><time>2026-04-26T12:36:36.54Z</time></trkpt><trkpt lat="46.0362834" lon="11.8897968"><ele>318.0</ele><time>2026-04-26T12:36:37.537Z</time></trkpt><trkpt lat="46.0362366" lon="11.8898617"><ele>317.5</ele><time>2026-04-26T12:36:38.538Z</time></trkpt><trkpt lat="46.0361806" lon="11.8899071"><ele>317.0</ele><time>2026-04-26T12:36:39.535Z</time></trkpt><trkpt lat="46.0361156" lon="11.8899325"><ele>316.5</ele><time>2026-04-26T12:36:40.539Z</time></trkpt><trkpt lat="46.0360463" lon="11.8899393"><ele>316.0</ele><time>2026-04-26T12:36:41.538Z</time></trkpt><trkpt lat="46.0359193" lon="11.8899543"><ele>315.75</ele><time>2026-04-26T12:36:43.538Z</time></trkpt><trkpt lat="46.0357955" lon="11.8899655"><ele>315.5</ele><time>2026-04-26T12:36:45.536Z</time></trkpt><trkpt lat="46.0356718" lon="11.8899679"><ele>315.25</ele><time>2026-04-26T12:36:47.538Z</time></trkpt><trkpt lat="46.0355547" lon="11.8899624"><ele>315.0</ele><time>2026-04-26T12:36:49.539Z</time></trkpt><trkpt lat="46.0354441" lon="11.8899322"><ele>315.0</ele><time>2026-04-26T12:36:51.537Z</time></trkpt><trkpt lat="46.0353479" lon="11.8898741"><ele>315.0</ele><time>2026-04-26T12:36:53.54Z</time></trkpt><trkpt lat="46.0352661" lon="11.8897766"><ele>315.0</ele><time>2026-04-26T12:36:55.538Z</time></trkpt><trkpt lat="46.0351895" lon="11.8896586"><ele>315.0</ele><time>2026-04-26T12:36:57.538Z</time></trkpt><trkpt lat="46.0351044" lon="11.8895562"><ele>315.0</ele><time>2026-04-26T12:36:59.539Z</time></trkpt><trkpt lat="46.0350061" lon="11.8895341"><ele>314.8</ele><time>2026-04-26T12:37:01.54Z</time></trkpt><trkpt lat="46.0349071" lon="11.8895736"><ele>314.6</ele><time>2026-04-26T12:37:03.537Z</time></trkpt><trkpt lat="46.0348013" lon="11.8896156"><ele>314.4</ele><time>2026-04-26T12:37:05.539Z</time></trkpt><trkpt lat="46.0347125" lon="11.8896129"><ele>314.2</ele><time>2026-04-26T12:37:07.54Z</time></trkpt><trkpt lat="46.0346352" lon="11.8895351"><ele>314.0</ele><time>2026-04-26T12:37:09.539Z</time></trkpt><trkpt lat="46.0345562" lon="11.8894115"><ele>314.0</ele><time>2026-04-26T12:37:11.538Z</time></trkpt><trkpt lat="46.0344833" lon="11.8892775"><ele>314.0</ele><time>2026-04-26T12:37:13.535Z</time></trkpt><trkpt lat="46.0343974" lon="11.8891665"><ele>314.0</ele><time>2026-04-26T12:37:15.535Z</time></trkpt><trkpt lat="46.0342905" lon="11.8890869"><ele>314.0</ele><time>2026-04-26T12:37:17.539Z</time></trkpt><trkpt lat="46.0341798" lon="11.8890618"><ele>313.75</ele><time>2026-04-26T12:37:19.536Z</time></trkpt><trkpt lat="46.0340713" lon="11.8890937"><ele>313.5</ele><time>2026-04-26T12:37:21.535Z</time></trkpt><trkpt lat="46.0339565" lon="11.889142"><ele>313.25</ele><time>2026-04-26T12:37:23.535Z</time></trkpt><trkpt lat="46.0338451" lon="11.8891916"><ele>313.0</ele><time>2026-04-26T12:37:25.535Z</time></trkpt><trkpt lat="46.0337352" lon="11.8892623"><ele>312.2</ele><time>2026-04-26T12:37:27.535Z</time></trkpt><trkpt lat="46.033634" lon="11.8893529"><ele>311.4</ele><time>2026-04-26T12:37:29.54Z</time></trkpt><trkpt lat="46.0335493" lon="11.8894651"><ele>310.59999999999997</ele><time>2026-04-26T12:37:31.537Z</time></trkpt><trkpt lat="46.0334666" lon="11.8896031"><ele>309.8</ele><time>2026-04-26T12:37:33.539Z</time></trkpt><trkpt lat="46.0334264" lon="11.8896733"><ele>309.0</ele><time>2026-04-26T12:37:34.539Z</time></trkpt><trkpt lat="46.0333556" lon="11.8898157"><ele>309.0</ele><time>2026-04-26T12:37:36.54Z</time></trkpt><trkpt lat="46.0332932" lon="11.8899511"><ele>309.0</ele><time>2026-04-26T12:37:38.54Z</time></trkpt><trkpt lat="46.0332454" lon="11.8901074"><ele>309.0</ele><time>2026-04-26T12:37:40.54Z</time></trkpt><trkpt lat="46.0332192" lon="11.890191"><ele>309.0</ele><time>2026-04-26T12:37:41.537Z</time></trkpt><trkpt lat="46.0331768" lon="11.8903521"><ele>309.0</ele><time>2026-04-26T12:37:43.54Z</time></trkpt><trkpt lat="46.0331603" lon="11.8905096"><ele>309.0</ele><time>2026-04-26T12:37:45.539Z</time></trkpt><trkpt lat="46.0331565" lon="11.8906738"><ele>309.0</ele><time>2026-04-26T12:37:47.537Z</time></trkpt><trkpt lat="46.0331549" lon="11.8908449"><ele>309.0</ele><time>2026-04-26T12:37:49.539Z</time></trkpt><trkpt lat="46.0331396" lon="11.891018"><ele>309.0</ele><time>2026-04-26T12:37:51.536Z</time></trkpt><trkpt lat="46.0331082" lon="11.8911765"><ele>308.59999999999997</ele><time>2026-04-26T12:37:53.538Z</time></trkpt><trkpt lat="46.0330424" lon="11.8913115"><ele>308.2</ele><time>2026-04-26T12:37:55.538Z</time></trkpt><trkpt lat="46.0329628" lon="11.8914308"><ele>307.79999999999995</ele><time>2026-04-26T12:37:57.537Z</time></trkpt><trkpt lat="46.0328695" lon="11.8915236"><ele>307.4</ele><time>2026-04-26T12:37:59.538Z</time></trkpt><trkpt lat="46.0327727" lon="11.8915872"><ele>307.0</ele><time>2026-04-26T12:38:01.538Z</time></trkpt><trkpt lat="46.0326969" lon="11.8916254"><ele>307.0</ele><time>2026-04-26T12:38:03.539Z</time></trkpt><trkpt lat="46.0326355" lon="11.8916548"><ele>307.0</ele><time>2026-04-26T12:38:05.539Z</time></trkpt><trkpt lat="46.0325838" lon="11.89175"><ele>307.0</ele><time>2026-04-26T12:38:08.54Z</time></trkpt><trkpt lat="46.0325488" lon="11.891852"><ele>307.0</ele><time>2026-04-26T12:38:10.538Z</time></trkpt><trkpt lat="46.0325223" lon="11.8919646"><ele>307.0</ele><time>2026-04-26T12:38:12.539Z</time></trkpt><trkpt lat="46.0325068" lon="11.8920779"><ele>307.0</ele><time>2026-04-26T12:38:14.54Z</time></trkpt><trkpt lat="46.0324833" lon="11.8922021"><ele>306.8</ele><time>2026-04-26T12:38:16.538Z</time></trkpt><trkpt lat="46.0324715" lon="11.8923422"><ele>306.6</ele><time>2026-04-26T12:38:18.539Z</time></trkpt><trkpt lat="46.0324585" lon="11.8924841"><ele>306.40000000000003</ele><time>2026-04-26T12:38:20.539Z</time></trkpt><trkpt lat="46.0324438" lon="11.8926187"><ele>306.2</ele><time>2026-04-26T12:38:22.537Z</time></trkpt><trkpt lat="46.0324309" lon="11.8927726"><ele>306.0</ele><time>2026-04-26T12:38:24.536Z</time></trkpt><trkpt lat="46.0324144" lon="11.892928"><ele>306.0</ele><time>2026-04-26T12:38:26.539Z</time></trkpt><trkpt lat="46.0323944" lon="11.8930896"><ele>306.0</ele><time>2026-04-26T12:38:28.538Z</time></trkpt><trkpt lat="46.0323835" lon="11.8932349"><ele>306.0</ele><time>2026-04-26T12:38:30.539Z</time></trkpt><trkpt lat="46.0323826" lon="11.8933527"><ele>306.0</ele><time>2026-04-26T12:38:32.537Z</time></trkpt><trkpt lat="46.0323805" lon="11.8934667"><ele>306.0</ele><time>2026-04-26T12:38:34.539Z</time></trkpt><trkpt lat="46.0324089" lon="11.8935913"><ele>305.40000000000003</ele><time>2026-04-26T12:38:36.538Z</time></trkpt><trkpt lat="46.0324689" lon="11.8937145"><ele>304.8</ele><time>2026-04-26T12:38:38.538Z</time></trkpt><trkpt lat="46.032525" lon="11.8938528"><ele>304.20000000000005</ele><time>2026-04-26T12:38:40.534Z</time></trkpt><trkpt lat="46.0325785" lon="11.8939806"><ele>303.6</ele><time>2026-04-26T12:38:42.538Z</time></trkpt><trkpt lat="46.0326121" lon="11.8941015"><ele>303.0</ele><time>2026-04-26T12:38:44.539Z</time></trkpt><trkpt lat="46.0326124" lon="11.8942488"><ele>302.6</ele><time>2026-04-26T12:38:46.539Z</time></trkpt><trkpt lat="46.0326005" lon="11.8943929"><ele>302.20000000000005</ele><time>2026-04-26T12:38:48.539Z</time></trkpt><trkpt lat="46.0325741" lon="11.8945218"><ele>301.8</ele><time>2026-04-26T12:38:50.537Z</time></trkpt><trkpt lat="46.0325157" lon="11.8946205"><ele>301.40000000000003</ele><time>2026-04-26T12:38:52.539Z</time></trkpt><trkpt lat="46.0324158" lon="11.8946906"><ele>301.0</ele><time>2026-04-26T12:38:54.537Z</time></trkpt><trkpt lat="46.0323094" lon="11.8947451"><ele>301.0</ele><time>2026-04-26T12:38:56.539Z</time></trkpt><trkpt lat="46.0322136" lon="11.8948545"><ele>301.0</ele><time>2026-04-26T12:38:58.538Z</time></trkpt><trkpt lat="46.0321485" lon="11.895008"><ele>301.0</ele><time>2026-04-26T12:39:00.537Z</time></trkpt><trkpt lat="46.0321202" lon="11.8950901"><ele>301.0</ele><time>2026-04-26T12:39:01.538Z</time></trkpt><trkpt lat="46.032067" lon="11.89525"><ele>301.0</ele><time>2026-04-26T12:39:03.54Z</time></trkpt><trkpt lat="46.0320084" lon="11.8954161"><ele>300.8</ele><time>2026-04-26T12:39:05.539Z</time></trkpt><trkpt lat="46.0319789" lon="11.8954985"><ele>300.6</ele><time>2026-04-26T12:39:06.539Z</time></trkpt><trkpt lat="46.031919" lon="11.8956545"><ele>300.4</ele><time>2026-04-26T12:39:08.537Z</time></trkpt><trkpt lat="46.0318544" lon="11.8957978"><ele>300.2</ele><time>2026-04-26T12:39:10.539Z</time></trkpt><trkpt lat="46.0317869" lon="11.8959373"><ele>300.0</ele><time>2026-04-26T12:39:12.538Z</time></trkpt><trkpt lat="46.0317324" lon="11.8960678"><ele>299.8</ele><time>2026-04-26T12:39:14.538Z</time></trkpt><trkpt lat="46.0316703" lon="11.8961928"><ele>299.6</ele><time>2026-04-26T12:39:16.539Z</time></trkpt><trkpt lat="46.0316115" lon="11.8963156"><ele>299.4</ele><time>2026-04-26T12:39:18.54Z</time></trkpt><trkpt lat="46.0315568" lon="11.8964458"><ele>299.2</ele><time>2026-04-26T12:39:20.539Z</time></trkpt><trkpt lat="46.0315091" lon="11.8965745"><ele>299.0</ele><time>2026-04-26T12:39:22.539Z</time></trkpt><trkpt lat="46.0314504" lon="11.8967045"><ele>297.5</ele><time>2026-04-26T12:39:24.537Z</time></trkpt><trkpt lat="46.0313817" lon="11.896833"><ele>296.0</ele><time>2026-04-26T12:39:26.538Z</time></trkpt><trkpt lat="46.031311" lon="11.8969656"><ele>294.5</ele><time>2026-04-26T12:39:28.538Z</time></trkpt><trkpt lat="46.0312491" lon="11.8971037"><ele>293.0</ele><time>2026-04-26T12:39:30.539Z</time></trkpt><trkpt lat="46.0311929" lon="11.897246"><ele>293.0</ele><time>2026-04-26T12:39:32.539Z</time></trkpt><trkpt lat="46.0311235" lon="11.8973817"><ele>293.0</ele><time>2026-04-26T12:39:34.537Z</time></trkpt><trkpt lat="46.0310377" lon="11.8975057"><ele>293.0</ele><time>2026-04-26T12:39:36.537Z</time></trkpt><trkpt lat="46.0309556" lon="11.8976236"><ele>293.0</ele><time>2026-04-26T12:39:38.538Z</time></trkpt><trkpt lat="46.030871" lon="11.8977383"><ele>292.6</ele><time>2026-04-26T12:39:40.537Z</time></trkpt><trkpt lat="46.0307747" lon="11.8978289"><ele>292.20000000000005</ele><time>2026-04-26T12:39:42.538Z</time></trkpt><trkpt lat="46.0306794" lon="11.8979055"><ele>291.8</ele><time>2026-04-26T12:39:44.54Z</time></trkpt><trkpt lat="46.0305845" lon="11.8979794"><ele>291.40000000000003</ele><time>2026-04-26T12:39:46.537Z</time></trkpt><trkpt lat="46.0304807" lon="11.8980505"><ele>291.0</ele><time>2026-04-26T12:39:48.539Z</time></trkpt><trkpt lat="46.0303745" lon="11.8981248"><ele>291.0</ele><time>2026-04-26T12:39:50.537Z</time></trkpt><trkpt lat="46.0302659" lon="11.8981991"><ele>291.0</ele><time>2026-04-26T12:39:52.537Z</time></trkpt><trkpt lat="46.0301541" lon="11.8982605"><ele>291.0</ele><time>2026-04-26T12:39:54.539Z</time></trkpt><trkpt lat="46.030043" lon="11.8983129"><ele>291.0</ele><time>2026-04-26T12:39:56.538Z</time></trkpt><trkpt lat="46.0299287" lon="11.8983656"><ele>291.25</ele><time>2026-04-26T12:39:58.539Z</time></trkpt><trkpt lat="46.029825" lon="11.8984308"><ele>291.5</ele><time>2026-04-26T12:40:00.539Z</time></trkpt><trkpt lat="46.0297125" lon="11.8984858"><ele>291.75</ele><time>2026-04-26T12:40:02.539Z</time></trkpt><trkpt lat="46.0296028" lon="11.8985442"><ele>292.0</ele><time>2026-04-26T12:40:04.539Z</time></trkpt><trkpt lat="46.0294976" lon="11.8986022"><ele>292.0</ele><time>2026-04-26T12:40:06.537Z</time></trkpt><trkpt lat="46.029395" lon="11.8986614"><ele>292.0</ele><time>2026-04-26T12:40:08.537Z</time></trkpt><trkpt lat="46.0292811" lon="11.8987137"><ele>292.0</ele><time>2026-04-26T12:40:10.538Z</time></trkpt><trkpt lat="46.0291567" lon="11.8987602"><ele>292.0</ele><time>2026-04-26T12:40:12.54Z</time></trkpt><trkpt lat="46.029092" lon="11.8987822"><ele>292.0</ele><time>2026-04-26T12:40:13.539Z</time></trkpt><trkpt lat="46.0290286" lon="11.8988105"><ele>291.7142857142857</ele><time>2026-04-26T12:40:14.539Z</time></trkpt><trkpt lat="46.028969" lon="11.8988441"><ele>291.42857142857144</ele><time>2026-04-26T12:40:15.537Z</time></trkpt><trkpt lat="46.0289076" lon="11.89888"><ele>291.14285714285717</ele><time>2026-04-26T12:40:16.537Z</time></trkpt><trkpt lat="46.0288451" lon="11.8989133"><ele>290.8571428571429</ele><time>2026-04-26T12:40:17.538Z</time></trkpt><trkpt lat="46.0287802" lon="11.8989478"><ele>290.5714285714286</ele><time>2026-04-26T12:40:18.539Z</time></trkpt><trkpt lat="46.0287215" lon="11.8989956"><ele>290.2857142857143</ele><time>2026-04-26T12:40:19.539Z</time></trkpt><trkpt lat="46.0286633" lon="11.8990411"><ele>290.0</ele><time>2026-04-26T12:40:20.538Z</time></trkpt><trkpt lat="46.028604" lon="11.899084"><ele>290.0</ele><time>2026-04-26T12:40:21.536Z</time></trkpt><trkpt lat="46.0285459" lon="11.8991259"><ele>290.0</ele><time>2026-04-26T12:40:22.538Z</time></trkpt><trkpt lat="46.0284329" lon="11.8992004"><ele>290.0</ele><time>2026-04-26T12:40:24.537Z</time></trkpt><trkpt lat="46.0283198" lon="11.899264"><ele>290.0</ele><time>2026-04-26T12:40:26.538Z</time></trkpt><trkpt lat="46.0282092" lon="11.8993198"><ele>290.0</ele><time>2026-04-26T12:40:28.538Z</time></trkpt><trkpt lat="46.0281028" lon="11.8993806"><ele>289.6</ele><time>2026-04-26T12:40:30.537Z</time></trkpt><trkpt lat="46.0279954" lon="11.8994321"><ele>289.2</ele><time>2026-04-26T12:40:32.538Z</time></trkpt><trkpt lat="46.0278902" lon="11.8994825"><ele>288.8</ele><time>2026-04-26T12:40:34.538Z</time></trkpt><trkpt lat="46.0277876" lon="11.8995306"><ele>288.4</ele><time>2026-04-26T12:40:36.537Z</time></trkpt><trkpt lat="46.0276873" lon="11.8995743"><ele>288.0</ele><time>2026-04-26T12:40:38.54Z</time></trkpt><trkpt lat="46.027589" lon="11.8996183"><ele>288.0</ele><time>2026-04-26T12:40:40.538Z</time></trkpt><trkpt lat="46.0274865" lon="11.899655"><ele>288.0</ele><time>2026-04-26T12:40:42.538Z</time></trkpt><trkpt lat="46.0273761" lon="11.8996861"><ele>288.0</ele><time>2026-04-26T12:40:44.539Z</time></trkpt><trkpt lat="46.0272647" lon="11.899713"><ele>288.0</ele><time>2026-04-26T12:40:46.538Z</time></trkpt><trkpt lat="46.0271484" lon="11.8997403"><ele>288.0</ele><time>2026-04-26T12:40:48.538Z</time></trkpt><trkpt lat="46.0270328" lon="11.8997728"><ele>287.6</ele><time>2026-04-26T12:40:50.538Z</time></trkpt><trkpt lat="46.0269259" lon="11.8998212"><ele>287.20000000000005</ele><time>2026-04-26T12:40:52.539Z</time></trkpt><trkpt lat="46.0268194" lon="11.8998523"><ele>286.8</ele><time>2026-04-26T12:40:54.539Z</time></trkpt><trkpt lat="46.0267145" lon="11.8998847"><ele>286.40000000000003</ele><time>2026-04-26T12:40:56.539Z</time></trkpt><trkpt lat="46.0266083" lon="11.899928"><ele>286.0</ele><time>2026-04-26T12:40:58.538Z</time></trkpt><trkpt lat="46.0265043" lon="11.89997"><ele>285.6</ele><time>2026-04-26T12:41:00.537Z</time></trkpt><trkpt lat="46.0264037" lon="11.9000174"><ele>285.20000000000005</ele><time>2026-04-26T12:41:02.539Z</time></trkpt><trkpt lat="46.026306" lon="11.9000708"><ele>284.79999999999995</ele><time>2026-04-26T12:41:04.539Z</time></trkpt><trkpt lat="46.0262013" lon="11.9001203"><ele>284.4</ele><time>2026-04-26T12:41:06.538Z</time></trkpt><trkpt lat="46.0260996" lon="11.9001699"><ele>284.0</ele><time>2026-04-26T12:41:08.539Z</time></trkpt><trkpt lat="46.0259867" lon="11.9002104"><ele>284.0</ele><time>2026-04-26T12:41:10.535Z</time></trkpt><trkpt lat="46.0258792" lon="11.9002592"><ele>284.0</ele><time>2026-04-26T12:41:12.539Z</time></trkpt><trkpt lat="46.0257708" lon="11.9002998"><ele>284.0</ele><time>2026-04-26T12:41:14.54Z</time></trkpt><trkpt lat="46.0256694" lon="11.9003503"><ele>284.0</ele><time>2026-04-26T12:41:16.538Z</time></trkpt><trkpt lat="46.0255644" lon="11.9003974"><ele>284.0</ele><time>2026-04-26T12:41:18.539Z</time></trkpt><trkpt lat="46.025464" lon="11.9004489"><ele>284.0</ele><time>2026-04-26T12:41:20.536Z</time></trkpt><trkpt lat="46.0253683" lon="11.9004934"><ele>284.0</ele><time>2026-04-26T12:41:22.537Z</time></trkpt><trkpt lat="46.0252775" lon="11.9005256"><ele>284.0</ele><time>2026-04-26T12:41:24.539Z</time></trkpt><trkpt lat="46.0252002" lon="11.9005686"><ele>284.0</ele><time>2026-04-26T12:41:26.539Z</time></trkpt><trkpt lat="46.0251231" lon="11.9006097"><ele>284.0</ele><time>2026-04-26T12:41:28.538Z</time></trkpt><trkpt lat="46.0250348" lon="11.9006494"><ele>283.6666666666667</ele><time>2026-04-26T12:41:30.536Z</time></trkpt><trkpt lat="46.0249616" lon="11.900684"><ele>283.33333333333337</ele><time>2026-04-26T12:41:32.538Z</time></trkpt><trkpt lat="46.0248985" lon="11.9006922"><ele>283.0</ele><time>2026-04-26T12:41:35.539Z</time></trkpt><trkpt lat="46.0248703" lon="11.9005536"><ele>282.6666666666667</ele><time>2026-04-26T12:41:39.539Z</time></trkpt><trkpt lat="46.0248424" lon="11.9004515"><ele>282.3333333333333</ele><time>2026-04-26T12:41:41.537Z</time></trkpt><trkpt lat="46.0247949" lon="11.9003478"><ele>282.0</ele><time>2026-04-26T12:41:43.537Z</time></trkpt><trkpt lat="46.0247183" lon="11.9002908"><ele>282.0</ele><time>2026-04-26T12:41:45.539Z</time></trkpt><trkpt lat="46.0246313" lon="11.9003284"><ele>282.0</ele><time>2026-04-26T12:41:47.539Z</time></trkpt><trkpt lat="46.0245293" lon="11.9003902"><ele>282.0</ele><time>2026-04-26T12:41:49.539Z</time></trkpt><trkpt lat="46.0244407" lon="11.9004398"><ele>282.0</ele><time>2026-04-26T12:41:51.539Z</time></trkpt><trkpt lat="46.0243484" lon="11.9004985"><ele>282.0</ele><time>2026-04-26T12:41:53.538Z</time></trkpt><trkpt lat="46.0242578" lon="11.9005525"><ele>282.0</ele><time>2026-04-26T12:41:55.536Z</time></trkpt><trkpt lat="46.0241697" lon="11.9005975"><ele>282.0</ele><time>2026-04-26T12:41:57.539Z</time></trkpt><trkpt lat="46.0240765" lon="11.9006426"><ele>282.0</ele><time>2026-04-26T12:41:59.538Z</time></trkpt><trkpt lat="46.024003" lon="11.9006822"><ele>282.0</ele><time>2026-04-26T12:42:01.539Z</time></trkpt><trkpt lat="46.0239357" lon="11.9007177"><ele>282.0</ele><time>2026-04-26T12:42:03.535Z</time></trkpt><trkpt lat="46.0238572" lon="11.9007598"><ele>282.0</ele><time>2026-04-26T12:42:06.538Z</time></trkpt><trkpt lat="46.0237965" lon="11.9007946"><ele>281.4</ele><time>2026-04-26T12:42:08.539Z</time></trkpt><trkpt lat="46.0237124" lon="11.9008463"><ele>280.79999999999995</ele><time>2026-04-26T12:42:10.539Z</time></trkpt><trkpt lat="46.0236229" lon="11.9008985"><ele>280.2</ele><time>2026-04-26T12:42:12.537Z</time></trkpt><trkpt lat="46.0235213" lon="11.9009513"><ele>279.59999999999997</ele><time>2026-04-26T12:42:14.539Z</time></trkpt><trkpt lat="46.0234291" lon="11.9010033"><ele>279.0</ele><time>2026-04-26T12:42:16.536Z</time></trkpt><trkpt lat="46.0233346" lon="11.9010661"><ele>278.8</ele><time>2026-04-26T12:42:18.539Z</time></trkpt><trkpt lat="46.0232352" lon="11.9011449"><ele>278.59999999999997</ele><time>2026-04-26T12:42:20.539Z</time></trkpt><trkpt lat="46.0231483" lon="11.9012274"><ele>278.4</ele><time>2026-04-26T12:42:22.535Z</time></trkpt><trkpt lat="46.0230545" lon="11.901317"><ele>278.2</ele><time>2026-04-26T12:42:24.534Z</time></trkpt><trkpt lat="46.0229699" lon="11.9014077"><ele>278.0</ele><time>2026-04-26T12:42:26.535Z</time></trkpt><trkpt lat="46.0228972" lon="11.9015036"><ele>278.0</ele><time>2026-04-26T12:42:28.539Z</time></trkpt><trkpt lat="46.0228248" lon="11.9015903"><ele>278.0</ele><time>2026-04-26T12:42:30.539Z</time></trkpt><trkpt lat="46.0227693" lon="11.9016491"><ele>278.0</ele><time>2026-04-26T12:42:32.537Z</time></trkpt><trkpt lat="46.0226978" lon="11.901724"><ele>278.0</ele><time>2026-04-26T12:42:35.538Z</time></trkpt><trkpt lat="46.0226283" lon="11.9017977"><ele>278.0</ele><time>2026-04-26T12:42:37.538Z</time></trkpt><trkpt lat="46.0225488" lon="11.9018752"><ele>278.0</ele><time>2026-04-26T12:42:39.536Z</time></trkpt><trkpt lat="46.0224675" lon="11.9019547"><ele>277.33333333333337</ele><time>2026-04-26T12:42:41.538Z</time></trkpt><trkpt lat="46.0223957" lon="11.9020241"><ele>276.6666666666667</ele><time>2026-04-26T12:42:43.536Z</time></trkpt><trkpt lat="46.0223279" lon="11.9020923"><ele>276.0</ele><time>2026-04-26T12:42:45.538Z</time></trkpt><trkpt lat="46.0222599" lon="11.9021618"><ele>275.3333333333333</ele><time>2026-04-26T12:42:47.537Z</time></trkpt><trkpt lat="46.0221918" lon="11.9022245"><ele>274.66666666666663</ele><time>2026-04-26T12:42:49.537Z</time></trkpt><trkpt lat="46.0221185" lon="11.9022793"><ele>274.0</ele><time>2026-04-26T12:42:51.537Z</time></trkpt><trkpt lat="46.0220369" lon="11.9023271"><ele>274.0</ele><time>2026-04-26T12:42:53.539Z</time></trkpt><trkpt lat="46.0219636" lon="11.902366"><ele>274.0</ele><time>2026-04-26T12:42:55.539Z</time></trkpt><trkpt lat="46.0218812" lon="11.9024217"><ele>274.0</ele><time>2026-04-26T12:42:58.537Z</time></trkpt><trkpt lat="46.0218816" lon="11.9025255"><ele>274.0</ele><time>2026-04-26T12:43:01.54Z</time></trkpt><trkpt lat="46.0219116" lon="11.9026412"><ele>274.0</ele><time>2026-04-26T12:43:04.537Z</time></trkpt><trkpt lat="46.0219323" lon="11.9027475"><ele>274.0</ele><time>2026-04-26T12:43:07.535Z</time></trkpt><trkpt lat="46.0219537" lon="11.9028556"><ele>274.3333333333333</ele><time>2026-04-26T12:43:10.537Z</time></trkpt><trkpt lat="46.0219051" lon="11.9029521"><ele>274.66666666666663</ele><time>2026-04-26T12:43:14.538Z</time></trkpt><trkpt lat="46.0218451" lon="11.9029806"><ele>275.0</ele><time>2026-04-26T12:43:16.539Z</time></trkpt><trkpt lat="46.0217711" lon="11.9030309"><ele>275.3333333333333</ele><time>2026-04-26T12:43:19.539Z</time></trkpt><trkpt lat="46.0216995" lon="11.9030923"><ele>275.6666666666667</ele><time>2026-04-26T12:43:22.535Z</time></trkpt><trkpt lat="46.0216305" lon="11.9031619"><ele>276.0</ele><time>2026-04-26T12:43:25.536Z</time></trkpt><trkpt lat="46.0215676" lon="11.9032262"><ele>275.3333333333333</ele><time>2026-04-26T12:43:28.538Z</time></trkpt><trkpt lat="46.0215581" lon="11.9033438"><ele>274.6666666666667</ele><time>2026-04-26T12:43:31.536Z</time></trkpt><trkpt lat="46.0215259" lon="11.9034532"><ele>274.0</ele><time>2026-04-26T12:43:34.537Z</time></trkpt><trkpt lat="46.0214478" lon="11.9034808"><ele>273.33333333333337</ele><time>2026-04-26T12:43:39.538Z</time></trkpt><trkpt lat="46.0213822" lon="11.9034143"><ele>272.6666666666667</ele><time>2026-04-26T12:43:41.539Z</time></trkpt><trkpt lat="46.0213015" lon="11.9033784"><ele>272.0</ele><time>2026-04-26T12:43:44.538Z</time></trkpt><trkpt lat="46.0212294" lon="11.9034058"><ele>271.99999999999994</ele><time>2026-04-26T12:43:47.535Z</time></trkpt><trkpt lat="46.0211323" lon="11.9034264"><ele>272.0</ele><time>2026-04-26T12:43:50.539Z</time></trkpt><trkpt lat="46.0210692" lon="11.9034602"><ele>272.0</ele><time>2026-04-26T12:43:52.537Z</time></trkpt><trkpt lat="46.0210015" lon="11.9034883"><ele>272.0</ele><time>2026-04-26T12:43:54.538Z</time></trkpt><trkpt lat="46.0209391" lon="11.9035229"><ele>272.0</ele><time>2026-04-26T12:43:56.539Z</time></trkpt><trkpt lat="46.0208724" lon="11.9035573"><ele>271.99999999999994</ele><time>2026-04-26T12:43:58.539Z</time></trkpt><trkpt lat="46.0208062" lon="11.903591"><ele>272.0</ele><time>2026-04-26T12:44:00.539Z</time></trkpt><trkpt lat="46.0207361" lon="11.9036176"><ele>272.33333333333337</ele><time>2026-04-26T12:44:02.539Z</time></trkpt><trkpt lat="46.0206594" lon="11.9036462"><ele>272.6666666666667</ele><time>2026-04-26T12:44:04.538Z</time></trkpt><trkpt lat="46.0205787" lon="11.9036636"><ele>273.0</ele><time>2026-04-26T12:44:06.537Z</time></trkpt><trkpt lat="46.0205004" lon="11.9036774"><ele>273.3333333333333</ele><time>2026-04-26T12:44:08.539Z</time></trkpt><trkpt lat="46.0204304" lon="11.9036962"><ele>273.66666666666663</ele><time>2026-04-26T12:44:10.537Z</time></trkpt><trkpt lat="46.0203601" lon="11.9037204"><ele>274.0</ele><time>2026-04-26T12:44:12.538Z</time></trkpt><trkpt lat="46.0202722" lon="11.9037399"><ele>274.0</ele><time>2026-04-26T12:44:15.537Z</time></trkpt><trkpt lat="46.020179" lon="11.9037483"><ele>274.0</ele><time>2026-04-26T12:44:18.538Z</time></trkpt><trkpt lat="46.0201056" lon="11.9037653"><ele>274.0</ele><time>2026-04-26T12:44:20.539Z</time></trkpt><trkpt lat="46.0200124" lon="11.9037831"><ele>274.0</ele><time>2026-04-26T12:44:23.539Z</time></trkpt><trkpt lat="46.0199446" lon="11.9037948"><ele>274.0</ele><time>2026-04-26T12:44:25.539Z</time></trkpt><trkpt lat="46.0198795" lon="11.9038062"><ele>274.0</ele><time>2026-04-26T12:44:27.538Z</time></trkpt><trkpt lat="46.0198157" lon="11.9038266"><ele>274.00000000000006</ele><time>2026-04-26T12:44:29.538Z</time></trkpt><trkpt lat="46.0197488" lon="11.9038387"><ele>274.0</ele><time>2026-04-26T12:44:31.537Z</time></trkpt><trkpt lat="46.019684" lon="11.9038526"><ele>274.0</ele><time>2026-04-26T12:44:33.539Z</time></trkpt><trkpt lat="46.0196165" lon="11.9038736"><ele>274.0</ele><time>2026-04-26T12:44:35.54Z</time></trkpt><trkpt lat="46.0195507" lon="11.9038889"><ele>274.0</ele><time>2026-04-26T12:44:37.538Z</time></trkpt><trkpt lat="46.0194792" lon="11.9039094"><ele>274.00000000000006</ele><time>2026-04-26T12:44:39.539Z</time></trkpt><trkpt lat="46.0194033" lon="11.9039184"><ele>274.0</ele><time>2026-04-26T12:44:41.539Z</time></trkpt><trkpt lat="46.0193189" lon="11.9039151"><ele>274.0</ele><time>2026-04-26T12:44:43.539Z</time></trkpt><trkpt lat="46.0192313" lon="11.9039274"><ele>274.0</ele><time>2026-04-26T12:44:45.537Z</time></trkpt><trkpt lat="46.0191382" lon="11.9039403"><ele>274.0</ele><time>2026-04-26T12:44:47.54Z</time></trkpt><trkpt lat="46.0190477" lon="11.9039494"><ele>274.0</ele><time>2026-04-26T12:44:49.535Z</time></trkpt><trkpt lat="46.0189592" lon="11.9039567"><ele>274.0</ele><time>2026-04-26T12:44:51.537Z</time></trkpt><trkpt lat="46.0188721" lon="11.9039706"><ele>274.0</ele><time>2026-04-26T12:44:53.539Z</time></trkpt><trkpt lat="46.0187829" lon="11.9039864"><ele>273.5</ele><time>2026-04-26T12:44:55.537Z</time></trkpt><trkpt lat="46.0186927" lon="11.9040052"><ele>273.0</ele><time>2026-04-26T12:44:57.538Z</time></trkpt><trkpt lat="46.0186041" lon="11.9040054"><ele>272.5</ele><time>2026-04-26T12:44:59.539Z</time></trkpt><trkpt lat="46.0185159" lon="11.9040015"><ele>272.0</ele><time>2026-04-26T12:45:01.54Z</time></trkpt><trkpt lat="46.0184267" lon="11.904006"><ele>271.5</ele><time>2026-04-26T12:45:03.539Z</time></trkpt><trkpt lat="46.0183413" lon="11.9040177"><ele>271.0</ele><time>2026-04-26T12:45:05.538Z</time></trkpt><trkpt lat="46.0182529" lon="11.90402"><ele>271.0</ele><time>2026-04-26T12:45:07.536Z</time></trkpt><trkpt lat="46.0181761" lon="11.9040385"><ele>271.0</ele><time>2026-04-26T12:45:09.538Z</time></trkpt><trkpt lat="46.0181261" lon="11.9041138"><ele>271.0</ele><time>2026-04-26T12:45:11.538Z</time></trkpt><trkpt lat="46.0181408" lon="11.904223"><ele>271.0</ele><time>2026-04-26T12:45:13.538Z</time></trkpt><trkpt lat="46.0182218" lon="11.9042924"><ele>271.0</ele><time>2026-04-26T12:45:15.538Z</time></trkpt><trkpt lat="46.0183048" lon="11.9043483"><ele>271.0</ele><time>2026-04-26T12:45:17.539Z</time></trkpt><trkpt lat="46.0183795" lon="11.9044192"><ele>271.2</ele><time>2026-04-26T12:45:19.538Z</time></trkpt><trkpt lat="46.0184413" lon="11.9045155"><ele>271.40000000000003</ele><time>2026-04-26T12:45:21.539Z</time></trkpt><trkpt lat="46.0185031" lon="11.9046145"><ele>271.6</ele><time>2026-04-26T12:45:23.537Z</time></trkpt><trkpt lat="46.0185413" lon="11.9047323"><ele>271.8</ele><time>2026-04-26T12:45:25.539Z</time></trkpt><trkpt lat="46.0185695" lon="11.9048523"><ele>272.0</ele><time>2026-04-26T12:45:27.539Z</time></trkpt><trkpt lat="46.0185801" lon="11.90498"><ele>274.0</ele><time>2026-04-26T12:45:29.539Z</time></trkpt><trkpt lat="46.0185742" lon="11.9050813"><ele>276.0</ele><time>2026-04-26T12:45:31.537Z</time></trkpt><trkpt lat="46.0185013" lon="11.9051161"><ele>278.0</ele><time>2026-04-26T12:45:33.538Z</time></trkpt><trkpt lat="46.0184289" lon="11.9051571"><ele>280.0</ele><time>2026-04-26T12:45:35.538Z</time></trkpt><trkpt lat="46.0184027" lon="11.9052619"><ele>282.0</ele><time>2026-04-26T12:45:37.539Z</time></trkpt><trkpt lat="46.0184264" lon="11.9053916"><ele>284.0</ele><time>2026-04-26T12:45:39.539Z</time></trkpt><trkpt lat="46.0184674" lon="11.9055174"><ele>284.0</ele><time>2026-04-26T12:45:41.537Z</time></trkpt><trkpt lat="46.0185064" lon="11.9056573"><ele>284.0</ele><time>2026-04-26T12:45:43.539Z</time></trkpt><trkpt lat="46.0185438" lon="11.9058031"><ele>284.0</ele><time>2026-04-26T12:45:45.539Z</time></trkpt><trkpt lat="46.0185912" lon="11.9059487"><ele>284.0</ele><time>2026-04-26T12:45:47.537Z</time></trkpt><trkpt lat="46.0186399" lon="11.9060669"><ele>284.0</ele><time>2026-04-26T12:45:49.538Z</time></trkpt><trkpt lat="46.0186965" lon="11.9061918"><ele>286.0</ele><time>2026-04-26T12:45:51.538Z</time></trkpt><trkpt lat="46.0187622" lon="11.9063144"><ele>288.0</ele><time>2026-04-26T12:45:53.537Z</time></trkpt><trkpt lat="46.0188255" lon="11.9064385"><ele>290.0</ele><time>2026-04-26T12:45:55.539Z</time></trkpt><trkpt lat="46.0188882" lon="11.9065892"><ele>292.0</ele><time>2026-04-26T12:45:57.536Z</time></trkpt><trkpt lat="46.0189529" lon="11.9067263"><ele>292.8</ele><time>2026-04-26T12:45:59.538Z</time></trkpt><trkpt lat="46.0190178" lon="11.9068463"><ele>293.6</ele><time>2026-04-26T12:46:01.539Z</time></trkpt><trkpt lat="46.019063" lon="11.9069661"><ele>294.40000000000003</ele><time>2026-04-26T12:46:03.537Z</time></trkpt><trkpt lat="46.0191067" lon="11.9070907"><ele>295.2</ele><time>2026-04-26T12:46:05.536Z</time></trkpt><trkpt lat="46.019159" lon="11.9072219"><ele>296.0</ele><time>2026-04-26T12:46:07.538Z</time></trkpt><trkpt lat="46.0192103" lon="11.907367"><ele>296.8</ele><time>2026-04-26T12:46:09.538Z</time></trkpt><trkpt lat="46.0192536" lon="11.9074959"><ele>297.6</ele><time>2026-04-26T12:46:11.538Z</time></trkpt><trkpt lat="46.0192996" lon="11.9076282"><ele>298.4</ele><time>2026-04-26T12:46:13.538Z</time></trkpt><trkpt lat="46.0193548" lon="11.9077631"><ele>299.2</ele><time>2026-04-26T12:46:15.538Z</time></trkpt><trkpt lat="46.0194211" lon="11.9079123"><ele>300.0</ele><time>2026-04-26T12:46:17.539Z</time></trkpt><trkpt lat="46.019454" lon="11.9079908"><ele>300.0</ele><time>2026-04-26T12:46:18.538Z</time></trkpt><trkpt lat="46.0195008" lon="11.9081284"><ele>300.0</ele><time>2026-04-26T12:46:20.539Z</time></trkpt><trkpt lat="46.0195504" lon="11.9082707"><ele>300.0</ele><time>2026-04-26T12:46:22.539Z</time></trkpt><trkpt lat="46.0195987" lon="11.9084162"><ele>300.0</ele><time>2026-04-26T12:46:24.538Z</time></trkpt><trkpt lat="46.0196415" lon="11.9085531"><ele>300.0</ele><time>2026-04-26T12:46:26.539Z</time></trkpt><trkpt lat="46.0196895" lon="11.9086925"><ele>301.75</ele><time>2026-04-26T12:46:28.537Z</time></trkpt><trkpt lat="46.0197546" lon="11.908839"><ele>303.5</ele><time>2026-04-26T12:46:30.539Z</time></trkpt><trkpt lat="46.0198143" lon="11.9089763"><ele>305.25</ele><time>2026-04-26T12:46:32.54Z</time></trkpt><trkpt lat="46.0198692" lon="11.9091138"><ele>307.0</ele><time>2026-04-26T12:46:34.539Z</time></trkpt><trkpt lat="46.019918" lon="11.90926"><ele>309.0</ele><time>2026-04-26T12:46:36.538Z</time></trkpt><trkpt lat="46.0199717" lon="11.9094022"><ele>311.0</ele><time>2026-04-26T12:46:38.539Z</time></trkpt><trkpt lat="46.0200236" lon="11.9095539"><ele>313.0</ele><time>2026-04-26T12:46:40.539Z</time></trkpt><trkpt lat="46.0200745" lon="11.9097069"><ele>315.0</ele><time>2026-04-26T12:46:42.539Z</time></trkpt><trkpt lat="46.0201288" lon="11.9098448"><ele>307.75</ele><time>2026-04-26T12:46:44.539Z</time></trkpt><trkpt lat="46.0201799" lon="11.9099786"><ele>300.5</ele><time>2026-04-26T12:46:46.538Z</time></trkpt><trkpt lat="46.0202362" lon="11.9101414"><ele>293.25</ele><time>2026-04-26T12:46:48.536Z</time></trkpt><trkpt lat="46.020285" lon="11.9102943"><ele>286.0</ele><time>2026-04-26T12:46:50.538Z</time></trkpt><trkpt lat="46.0203348" lon="11.9104347"><ele>286.0</ele><time>2026-04-26T12:46:52.539Z</time></trkpt><trkpt lat="46.0203838" lon="11.9105744"><ele>286.0</ele><time>2026-04-26T12:46:54.539Z</time></trkpt><trkpt lat="46.0204283" lon="11.9107033"><ele>286.0</ele><time>2026-04-26T12:46:56.538Z</time></trkpt><trkpt lat="46.0204739" lon="11.9108456"><ele>286.0</ele><time>2026-04-26T12:46:58.539Z</time></trkpt><trkpt lat="46.0205152" lon="11.9109877"><ele>286.0</ele><time>2026-04-26T12:47:00.537Z</time></trkpt><trkpt lat="46.0205545" lon="11.9111061"><ele>286.40000000000003</ele><time>2026-04-26T12:47:02.538Z</time></trkpt><trkpt lat="46.0206038" lon="11.9112593"><ele>286.8</ele><time>2026-04-26T12:47:04.539Z</time></trkpt><trkpt lat="46.0206609" lon="11.9114095"><ele>287.20000000000005</ele><time>2026-04-26T12:47:06.539Z</time></trkpt><trkpt lat="46.020684" lon="11.9115007"><ele>287.6</ele><time>2026-04-26T12:47:07.539Z</time></trkpt><trkpt lat="46.0207376" lon="11.9116409"><ele>288.0</ele><time>2026-04-26T12:47:09.538Z</time></trkpt><trkpt lat="46.020783" lon="11.9117777"><ele>286.4</ele><time>2026-04-26T12:47:11.539Z</time></trkpt><trkpt lat="46.0208323" lon="11.9119079"><ele>284.8</ele><time>2026-04-26T12:47:13.539Z</time></trkpt><trkpt lat="46.0208857" lon="11.9120272"><ele>283.2</ele><time>2026-04-26T12:47:15.539Z</time></trkpt><trkpt lat="46.0209339" lon="11.9121407"><ele>281.6</ele><time>2026-04-26T12:47:17.539Z</time></trkpt><trkpt lat="46.0209906" lon="11.9122496"><ele>280.0</ele><time>2026-04-26T12:47:19.538Z</time></trkpt><trkpt lat="46.0210425" lon="11.9123463"><ele>280.0</ele><time>2026-04-26T12:47:21.537Z</time></trkpt><trkpt lat="46.0211077" lon="11.9124236"><ele>280.0</ele><time>2026-04-26T12:47:23.538Z</time></trkpt><trkpt lat="46.0211879" lon="11.9124542"><ele>280.0</ele><time>2026-04-26T12:47:25.538Z</time></trkpt><trkpt lat="46.0212864" lon="11.9124611"><ele>280.0</ele><time>2026-04-26T12:47:27.536Z</time></trkpt><trkpt lat="46.0213773" lon="11.9124674"><ele>280.0</ele><time>2026-04-26T12:47:29.538Z</time></trkpt><trkpt lat="46.0214582" lon="11.912474"><ele>280.0</ele><time>2026-04-26T12:47:31.536Z</time></trkpt><trkpt lat="46.0215543" lon="11.9124742"><ele>279.0</ele><time>2026-04-26T12:47:33.537Z</time></trkpt><trkpt lat="46.021667" lon="11.9124863"><ele>278.0</ele><time>2026-04-26T12:47:35.538Z</time></trkpt><trkpt lat="46.0217688" lon="11.9125103"><ele>277.0</ele><time>2026-04-26T12:47:37.538Z</time></trkpt><trkpt lat="46.0218719" lon="11.9125267"><ele>276.0</ele><time>2026-04-26T12:47:39.538Z</time></trkpt><trkpt lat="46.0219556" lon="11.9125541"><ele>275.0</ele><time>2026-04-26T12:47:41.538Z</time></trkpt><trkpt lat="46.0220195" lon="11.912569"><ele>275.0</ele><time>2026-04-26T12:47:43.538Z</time></trkpt><trkpt lat="46.0221075" lon="11.9125591"><ele>275.0</ele><time>2026-04-26T12:47:45.539Z</time></trkpt><trkpt lat="46.0221858" lon="11.9125553"><ele>275.0</ele><time>2026-04-26T12:47:47.538Z</time></trkpt><trkpt lat="46.0222777" lon="11.9125607"><ele>275.0</ele><time>2026-04-26T12:47:49.539Z</time></trkpt><trkpt lat="46.0223562" lon="11.9125622"><ele>275.0</ele><time>2026-04-26T12:47:51.538Z</time></trkpt><trkpt lat="46.0224265" lon="11.9125771"><ele>275.0</ele><time>2026-04-26T12:47:53.538Z</time></trkpt><trkpt lat="46.0224964" lon="11.9126009"><ele>275.0</ele><time>2026-04-26T12:47:55.536Z</time></trkpt><trkpt lat="46.0225771" lon="11.9126179"><ele>275.0</ele><time>2026-04-26T12:47:57.538Z</time></trkpt><trkpt lat="46.0226741" lon="11.9125901"><ele>275.0</ele><time>2026-04-26T12:47:59.539Z</time></trkpt><trkpt lat="46.022769" lon="11.912545"><ele>275.0</ele><time>2026-04-26T12:48:01.539Z</time></trkpt><trkpt lat="46.0228673" lon="11.9125246"><ele>275.0</ele><time>2026-04-26T12:48:03.539Z</time></trkpt><trkpt lat="46.0229816" lon="11.9125396"><ele>275.5</ele><time>2026-04-26T12:48:05.538Z</time></trkpt><trkpt lat="46.0230959" lon="11.9125542"><ele>276.0</ele><time>2026-04-26T12:48:07.538Z</time></trkpt><trkpt lat="46.023211" lon="11.9125586"><ele>276.5</ele><time>2026-04-26T12:48:09.539Z</time></trkpt><trkpt lat="46.0233285" lon="11.9125726"><ele>277.0</ele><time>2026-04-26T12:48:11.539Z</time></trkpt><trkpt lat="46.0234439" lon="11.9125746"><ele>277.0</ele><time>2026-04-26T12:48:13.539Z</time></trkpt><trkpt lat="46.0235531" lon="11.9125686"><ele>277.0</ele><time>2026-04-26T12:48:15.539Z</time></trkpt><trkpt lat="46.0236535" lon="11.9125669"><ele>277.0</ele><time>2026-04-26T12:48:17.538Z</time></trkpt><trkpt lat="46.023761" lon="11.9125872"><ele>277.0</ele><time>2026-04-26T12:48:19.537Z</time></trkpt><trkpt lat="46.0238821" lon="11.912591"><ele>277.0</ele><time>2026-04-26T12:48:21.539Z</time></trkpt><trkpt lat="46.0239993" lon="11.9125977"><ele>277.0</ele><time>2026-04-26T12:48:23.539Z</time></trkpt><trkpt lat="46.0241032" lon="11.9125981"><ele>277.0</ele><time>2026-04-26T12:48:25.539Z</time></trkpt><trkpt lat="46.0242062" lon="11.912606"><ele>277.0</ele><time>2026-04-26T12:48:27.538Z</time></trkpt><trkpt lat="46.0243145" lon="11.912608"><ele>277.0</ele><time>2026-04-26T12:48:29.538Z</time></trkpt><trkpt lat="46.0244277" lon="11.9126189"><ele>277.0</ele><time>2026-04-26T12:48:31.538Z</time></trkpt><trkpt lat="46.0245351" lon="11.91262"><ele>277.8</ele><time>2026-04-26T12:48:33.539Z</time></trkpt><trkpt lat="46.0246495" lon="11.9126208"><ele>278.6</ele><time>2026-04-26T12:48:35.538Z</time></trkpt><trkpt lat="46.024767" lon="11.9126177"><ele>279.40000000000003</ele><time>2026-04-26T12:48:37.539Z</time></trkpt><trkpt lat="46.0248717" lon="11.9126161"><ele>280.2</ele><time>2026-04-26T12:48:39.539Z</time></trkpt><trkpt lat="46.0249713" lon="11.9126166"><ele>281.0</ele><time>2026-04-26T12:48:41.538Z</time></trkpt><trkpt lat="46.0250787" lon="11.9126227"><ele>281.2</ele><time>2026-04-26T12:48:43.539Z</time></trkpt><trkpt lat="46.0251887" lon="11.9126238"><ele>281.40000000000003</ele><time>2026-04-26T12:48:45.536Z</time></trkpt><trkpt lat="46.0252937" lon="11.9126224"><ele>281.6</ele><time>2026-04-26T12:48:47.537Z</time></trkpt><trkpt lat="46.0254018" lon="11.9126343"><ele>281.8</ele><time>2026-04-26T12:48:49.536Z</time></trkpt><trkpt lat="46.0255108" lon="11.9126504"><ele>282.0</ele><time>2026-04-26T12:48:51.539Z</time></trkpt><trkpt lat="46.0256134" lon="11.912636"><ele>282.0</ele><time>2026-04-26T12:48:53.539Z</time></trkpt><trkpt lat="46.0257175" lon="11.9126316"><ele>282.0</ele><time>2026-04-26T12:48:55.537Z</time></trkpt><trkpt lat="46.025829" lon="11.9126289"><ele>282.0</ele><time>2026-04-26T12:48:57.538Z</time></trkpt><trkpt lat="46.0259392" lon="11.9126375"><ele>282.0</ele><time>2026-04-26T12:48:59.538Z</time></trkpt><trkpt lat="46.0260515" lon="11.9126375"><ele>282.0</ele><time>2026-04-26T12:49:01.538Z</time></trkpt><trkpt lat="46.0261624" lon="11.9126315"><ele>282.4</ele><time>2026-04-26T12:49:03.536Z</time></trkpt><trkpt lat="46.0262681" lon="11.9126235"><ele>282.79999999999995</ele><time>2026-04-26T12:49:05.539Z</time></trkpt><trkpt lat="46.0263647" lon="11.9126201"><ele>283.2</ele><time>2026-04-26T12:49:07.539Z</time></trkpt><trkpt lat="46.0264609" lon="11.912609"><ele>283.59999999999997</ele><time>2026-04-26T12:49:09.539Z</time></trkpt><trkpt lat="46.0265688" lon="11.9126209"><ele>284.0</ele><time>2026-04-26T12:49:11.538Z</time></trkpt><trkpt lat="46.0266734" lon="11.9126307"><ele>284.4</ele><time>2026-04-26T12:49:13.539Z</time></trkpt><trkpt lat="46.0267762" lon="11.9126199"><ele>284.79999999999995</ele><time>2026-04-26T12:49:15.538Z</time></trkpt><trkpt lat="46.0268945" lon="11.912614"><ele>285.20000000000005</ele><time>2026-04-26T12:49:17.539Z</time></trkpt><trkpt lat="46.0269858" lon="11.9126211"><ele>285.6</ele><time>2026-04-26T12:49:19.539Z</time></trkpt><trkpt lat="46.0270736" lon="11.9126207"><ele>286.0</ele><time>2026-04-26T12:49:21.538Z</time></trkpt><trkpt lat="46.0271669" lon="11.9126166"><ele>285.99999999999994</ele><time>2026-04-26T12:49:23.538Z</time></trkpt><trkpt lat="46.027244" lon="11.9126062"><ele>286.0</ele><time>2026-04-26T12:49:25.538Z</time></trkpt><trkpt lat="46.0273095" lon="11.9126058"><ele>286.0</ele><time>2026-04-26T12:49:27.539Z</time></trkpt><trkpt lat="46.0273767" lon="11.9126312"><ele>286.0</ele><time>2026-04-26T12:49:30.537Z</time></trkpt><trkpt lat="46.0274131" lon="11.9127428"><ele>286.0</ele><time>2026-04-26T12:49:34.537Z</time></trkpt><trkpt lat="46.0274213" lon="11.912835"><ele>285.99999999999994</ele><time>2026-04-26T12:49:36.539Z</time></trkpt><trkpt lat="46.0274342" lon="11.9129443"><ele>286.0</ele><time>2026-04-26T12:49:39.538Z</time></trkpt><trkpt lat="46.0274044" lon="11.913098"><ele>286.0</ele><time>2026-04-26T12:50:14.538Z</time></trkpt><trkpt lat="46.0273098" lon="11.9131713"><ele>286.0</ele><time>2026-04-26T12:51:57.539Z</time></trkpt><trkpt lat="46.0272976" lon="11.9132703"><ele>286.0</ele><time>2026-04-26T12:52:06.535Z</time></trkpt><trkpt lat="46.0273025" lon="11.9133608"><ele>286.0</ele><time>2026-04-26T12:52:11.534Z</time></trkpt></trkseg></trk></gpx>